<?xml version="1.0" encoding="UTF-8" standalone="no" ?>
<gpx xmlns="http://www.topografix.com/GPX/1/1" xmlns:xsi="http://www.w3.org/2001/XMLSchema-instance" xsi:schemaLocation="http://www.topografix.com/GPX/1/1 http://www.topografix.com/GPX/1/1/gpx.xsd" version="1.1" creator="VisuGPX - https://www.visugpx.com">
  <metadata>
    <name>Le Néouvielle depuis le Lac d\'Aubert</name>
    <desc><![CDATA[Le Néouvielle depuis le Lac d\'Aubert]]></desc>
  </metadata>
  <trk>
    <name><![CDATA[Le Néouvielle depuis le Lac d\'Aubert_1]]></name>
    <trkseg>
      <trkpt lat="42.84057" lon="0.14371">
        <ele>2157.5</ele>
        <time>2015-05-24T09:33:50Z</time>
      </trkpt>
      <trkpt lat="42.84052" lon="0.14368">
        <ele>2157.5</ele>
        <time>2015-05-24T09:33:55Z</time>
      </trkpt>
      <trkpt lat="42.84046" lon="0.14366">
        <ele>2162.3780702974</ele>
        <time>2015-05-24T09:35:42Z</time>
      </trkpt>
      <trkpt lat="42.84044" lon="0.14362">
        <ele>2162.3780702974</ele>
        <time>2015-05-24T09:35:46Z</time>
      </trkpt>
      <trkpt lat="42.84042" lon="0.14354">
        <ele>2173.2350363202</ele>
        <time>2015-05-24T09:35:52Z</time>
      </trkpt>
      <trkpt lat="42.8404" lon="0.14346">
        <ele>2173.2350363202</ele>
        <time>2015-05-24T09:35:57Z</time>
      </trkpt>
      <trkpt lat="42.84036" lon="0.14342">
        <ele>2184.0957270513</ele>
        <time>2015-05-24T09:36:01Z</time>
      </trkpt>
      <trkpt lat="42.84031" lon="0.1434">
        <ele>2184.0957270513</ele>
        <time>2015-05-24T09:36:07Z</time>
      </trkpt>
      <trkpt lat="42.84027" lon="0.14339">
        <ele>2194.7626512936</ele>
        <time>2015-05-24T09:36:12Z</time>
      </trkpt>
      <trkpt lat="42.84022" lon="0.14334">
        <ele>2194.7626512936</ele>
        <time>2015-05-24T09:36:17Z</time>
      </trkpt>
      <trkpt lat="42.8402" lon="0.14329">
        <ele>2205.0399618986</ele>
        <time>2015-05-24T09:36:22Z</time>
      </trkpt>
      <trkpt lat="42.8402" lon="0.14323">
        <ele>2205.0399618986</ele>
        <time>2015-05-24T09:36:27Z</time>
      </trkpt>
      <trkpt lat="42.84018" lon="0.14319">
        <ele>2205.0399618986</ele>
        <time>2015-05-24T09:36:32Z</time>
      </trkpt>
      <trkpt lat="42.84014" lon="0.14317">
        <ele>2214.4768275874</ele>
        <time>2015-05-24T09:36:37Z</time>
      </trkpt>
      <trkpt lat="42.84009" lon="0.14317">
        <ele>2214.4768275874</ele>
        <time>2015-05-24T09:36:42Z</time>
      </trkpt>
      <trkpt lat="42.84008" lon="0.14315">
        <ele>2214.4768275874</ele>
        <time>2015-05-24T09:36:46Z</time>
      </trkpt>
      <trkpt lat="42.84003" lon="0.14314">
        <ele>2222.7415543073</ele>
        <time>2015-05-24T09:36:52Z</time>
      </trkpt>
      <trkpt lat="42.84" lon="0.14314">
        <ele>2222.7415543073</ele>
        <time>2015-05-24T09:36:56Z</time>
      </trkpt>
      <trkpt lat="42.83997" lon="0.14315">
        <ele>2222.7415543073</ele>
        <time>2015-05-24T09:37:02Z</time>
      </trkpt>
      <trkpt lat="42.83992" lon="0.14314">
        <ele>2229.5617593736</ele>
        <time>2015-05-24T09:37:06Z</time>
      </trkpt>
      <trkpt lat="42.83986" lon="0.14314">
        <ele>2229.5617593736</ele>
        <time>2015-05-24T09:37:11Z</time>
      </trkpt>
      <trkpt lat="42.83979" lon="0.14318">
        <ele>2234.7800215298</ele>
        <time>2015-05-24T09:37:18Z</time>
      </trkpt>
      <trkpt lat="42.83976" lon="0.14319">
        <ele>2234.7800215298</ele>
        <time>2015-05-24T09:37:21Z</time>
      </trkpt>
      <trkpt lat="42.83968" lon="0.14321">
        <ele>2238.3225711453</ele>
        <time>2015-05-24T09:37:27Z</time>
      </trkpt>
      <trkpt lat="42.83963" lon="0.14323">
        <ele>2238.3225711453</ele>
        <time>2015-05-24T09:37:32Z</time>
      </trkpt>
      <trkpt lat="42.8396" lon="0.14325">
        <ele>2238.3225711453</ele>
        <time>2015-05-24T09:37:36Z</time>
      </trkpt>
      <trkpt lat="42.83954" lon="0.14329">
        <ele>2240.216958174</ele>
        <time>2015-05-24T09:37:42Z</time>
      </trkpt>
      <trkpt lat="42.83952" lon="0.14339">
        <ele>2240.216958174</ele>
        <time>2015-05-24T09:37:47Z</time>
      </trkpt>
      <trkpt lat="42.83948" lon="0.14344">
        <ele>2240.6360591302</ele>
        <time>2015-05-24T09:37:52Z</time>
      </trkpt>
      <trkpt lat="42.83944" lon="0.14347">
        <ele>2240.6360591302</ele>
        <time>2015-05-24T09:37:57Z</time>
      </trkpt>
      <trkpt lat="42.8394" lon="0.14352">
        <ele>2239.8764076209</ele>
        <time>2015-05-24T09:38:01Z</time>
      </trkpt>
      <trkpt lat="42.83934" lon="0.14357">
        <ele>2239.8764076209</ele>
        <time>2015-05-24T09:38:07Z</time>
      </trkpt>
      <trkpt lat="42.8393" lon="0.1436">
        <ele>2238.1667218621</ele>
        <time>2015-05-24T09:38:12Z</time>
      </trkpt>
      <trkpt lat="42.83924" lon="0.14362">
        <ele>2238.1667218621</ele>
        <time>2015-05-24T09:38:16Z</time>
      </trkpt>
      <trkpt lat="42.83918" lon="0.14357">
        <ele>2235.779715522</ele>
        <time>2015-05-24T09:38:23Z</time>
      </trkpt>
      <trkpt lat="42.83916" lon="0.14352">
        <ele>2235.779715522</ele>
        <time>2015-05-24T09:38:26Z</time>
      </trkpt>
      <trkpt lat="42.83911" lon="0.14346">
        <ele>2232.9909916494</ele>
        <time>2015-05-24T09:38:31Z</time>
      </trkpt>
      <trkpt lat="42.83908" lon="0.14339">
        <ele>2232.9909916494</ele>
        <time>2015-05-24T09:38:37Z</time>
      </trkpt>
      <trkpt lat="42.83905" lon="0.14333">
        <ele>2229.8527413326</ele>
        <time>2015-05-24T09:38:41Z</time>
      </trkpt>
      <trkpt lat="42.83904" lon="0.1433">
        <ele>2229.8527413326</ele>
        <time>2015-05-24T09:38:47Z</time>
      </trkpt>
      <trkpt lat="42.83899" lon="0.14325">
        <ele>2229.8527413326</ele>
        <time>2015-05-24T09:38:52Z</time>
      </trkpt>
      <trkpt lat="42.83898" lon="0.14323">
        <ele>2226.4584946092</ele>
        <time>2015-05-24T09:38:56Z</time>
      </trkpt>
      <trkpt lat="42.83892" lon="0.14314">
        <ele>2226.4584946092</ele>
        <time>2015-05-24T09:39:01Z</time>
      </trkpt>
      <trkpt lat="42.83889" lon="0.14307">
        <ele>2222.9525984787</ele>
        <time>2015-05-24T09:39:07Z</time>
      </trkpt>
      <trkpt lat="42.83884" lon="0.14298">
        <ele>2222.9525984787</ele>
        <time>2015-05-24T09:39:12Z</time>
      </trkpt>
      <trkpt lat="42.8388" lon="0.14292">
        <ele>2219.3502544877</ele>
        <time>2015-05-24T09:39:17Z</time>
      </trkpt>
      <trkpt lat="42.83876" lon="0.14284">
        <ele>2219.3502544877</ele>
        <time>2015-05-24T09:39:21Z</time>
      </trkpt>
      <trkpt lat="42.83875" lon="0.14273">
        <ele>2215.7272863205</ele>
        <time>2015-05-24T09:39:27Z</time>
      </trkpt>
      <trkpt lat="42.83872" lon="0.14265">
        <ele>2215.7272863205</ele>
        <time>2015-05-24T09:39:32Z</time>
      </trkpt>
      <trkpt lat="42.8387" lon="0.14256">
        <ele>2212.1827222594</ele>
        <time>2015-05-24T09:39:36Z</time>
      </trkpt>
      <trkpt lat="42.83872" lon="0.14249">
        <ele>2212.1827222594</ele>
        <time>2015-05-24T09:39:42Z</time>
      </trkpt>
      <trkpt lat="42.83875" lon="0.1424">
        <ele>2208.7172435409</ele>
        <time>2015-05-24T09:39:47Z</time>
      </trkpt>
      <trkpt lat="42.83875" lon="0.14234">
        <ele>2208.7172435409</ele>
        <time>2015-05-24T09:39:52Z</time>
      </trkpt>
      <trkpt lat="42.83878" lon="0.14225">
        <ele>2205.3672512708</ele>
        <time>2015-05-24T09:39:57Z</time>
      </trkpt>
      <trkpt lat="42.83881" lon="0.14219">
        <ele>2205.3672512708</ele>
        <time>2015-05-24T09:40:01Z</time>
      </trkpt>
      <trkpt lat="42.83882" lon="0.14211">
        <ele>2202.1872378913</ele>
        <time>2015-05-24T09:40:07Z</time>
      </trkpt>
      <trkpt lat="42.83882" lon="0.14204">
        <ele>2202.1872378913</ele>
        <time>2015-05-24T09:40:12Z</time>
      </trkpt>
      <trkpt lat="42.8388" lon="0.14195">
        <ele>2199.2204655341</ele>
        <time>2015-05-24T09:40:17Z</time>
      </trkpt>
      <trkpt lat="42.83878" lon="0.14188">
        <ele>2199.2204655341</ele>
        <time>2015-05-24T09:40:21Z</time>
      </trkpt>
      <trkpt lat="42.83879" lon="0.1418">
        <ele>2196.4025642402</ele>
        <time>2015-05-24T09:40:26Z</time>
      </trkpt>
      <trkpt lat="42.83879" lon="0.1417">
        <ele>2196.4025642402</ele>
        <time>2015-05-24T09:40:32Z</time>
      </trkpt>
      <trkpt lat="42.83878" lon="0.14161">
        <ele>2193.7591874956</ele>
        <time>2015-05-24T09:40:37Z</time>
      </trkpt>
      <trkpt lat="42.83878" lon="0.14154">
        <ele>2193.7591874956</ele>
        <time>2015-05-24T09:40:41Z</time>
      </trkpt>
      <trkpt lat="42.83877" lon="0.14147">
        <ele>2191.2008234496</ele>
        <time>2015-05-24T09:40:48Z</time>
      </trkpt>
      <trkpt lat="42.83875" lon="0.14142">
        <ele>2191.2008234496</ele>
        <time>2015-05-24T09:40:51Z</time>
      </trkpt>
      <trkpt lat="42.83872" lon="0.14137">
        <ele>2188.7444476964</ele>
        <time>2015-05-24T09:40:57Z</time>
      </trkpt>
      <trkpt lat="42.83871" lon="0.14133">
        <ele>2188.7444476964</ele>
        <time>2015-05-24T09:41:01Z</time>
      </trkpt>
      <trkpt lat="42.83868" lon="0.14124">
        <ele>2186.3232388683</ele>
        <time>2015-05-24T09:41:07Z</time>
      </trkpt>
      <trkpt lat="42.83863" lon="0.14119">
        <ele>2186.3232388683</ele>
        <time>2015-05-24T09:41:12Z</time>
      </trkpt>
      <trkpt lat="42.83856" lon="0.14113">
        <ele>2183.9467601333</ele>
        <time>2015-05-24T09:41:17Z</time>
      </trkpt>
      <trkpt lat="42.8385" lon="0.14108">
        <ele>2183.9467601333</ele>
        <time>2015-05-24T09:41:22Z</time>
      </trkpt>
      <trkpt lat="42.83845" lon="0.14106">
        <ele>2181.639633884</ele>
        <time>2015-05-24T09:41:27Z</time>
      </trkpt>
      <trkpt lat="42.8384" lon="0.14101">
        <ele>2181.639633884</ele>
        <time>2015-05-24T09:41:32Z</time>
      </trkpt>
      <trkpt lat="42.83834" lon="0.14095">
        <ele>2179.4687235862</ele>
        <time>2015-05-24T09:41:36Z</time>
      </trkpt>
      <trkpt lat="42.83829" lon="0.14087">
        <ele>2179.4687235862</ele>
        <time>2015-05-24T09:41:43Z</time>
      </trkpt>
      <trkpt lat="42.83827" lon="0.14082">
        <ele>2177.3873992777</ele>
        <time>2015-05-24T09:41:47Z</time>
      </trkpt>
      <trkpt lat="42.83824" lon="0.14076">
        <ele>2177.3873992777</ele>
        <time>2015-05-24T09:41:51Z</time>
      </trkpt>
      <trkpt lat="42.83819" lon="0.14069">
        <ele>2175.3400582948</ele>
        <time>2015-05-24T09:41:57Z</time>
      </trkpt>
      <trkpt lat="42.83817" lon="0.14064">
        <ele>2175.3400582948</ele>
        <time>2015-05-24T09:42:02Z</time>
      </trkpt>
      <trkpt lat="42.83816" lon="0.14059">
        <ele>2175.3400582948</ele>
        <time>2015-05-24T09:42:06Z</time>
      </trkpt>
      <trkpt lat="42.83812" lon="0.1405">
        <ele>2173.3465732447</ele>
        <time>2015-05-24T09:42:13Z</time>
      </trkpt>
      <trkpt lat="42.83809" lon="0.14045">
        <ele>2173.3465732447</ele>
        <time>2015-05-24T09:42:16Z</time>
      </trkpt>
      <trkpt lat="42.83805" lon="0.14035">
        <ele>2171.4414651072</ele>
        <time>2015-05-24T09:42:22Z</time>
      </trkpt>
      <trkpt lat="42.83802" lon="0.14027">
        <ele>2171.4414651072</ele>
        <time>2015-05-24T09:42:27Z</time>
      </trkpt>
      <trkpt lat="42.83801" lon="0.14023">
        <ele>2169.6728428253</ele>
        <time>2015-05-24T09:42:31Z</time>
      </trkpt>
      <trkpt lat="42.83795" lon="0.14015">
        <ele>2169.6728428253</ele>
        <time>2015-05-24T09:42:38Z</time>
      </trkpt>
      <trkpt lat="42.83792" lon="0.1401">
        <ele>2168.0725346183</ele>
        <time>2015-05-24T09:42:42Z</time>
      </trkpt>
      <trkpt lat="42.83788" lon="0.14003">
        <ele>2168.0725346183</ele>
        <time>2015-05-24T09:42:47Z</time>
      </trkpt>
      <trkpt lat="42.83785" lon="0.13998">
        <ele>2166.6272563059</ele>
        <time>2015-05-24T09:42:52Z</time>
      </trkpt>
      <trkpt lat="42.83784" lon="0.14">
        <ele>2166.6272563059</ele>
        <time>2015-05-24T09:42:56Z</time>
      </trkpt>
      <trkpt lat="42.83781" lon="0.14003">
        <ele>2166.6272563059</ele>
        <time>2015-05-24T09:43:02Z</time>
      </trkpt>
      <trkpt lat="42.83779" lon="0.14002">
        <ele>2166.6272563059</ele>
        <time>2015-05-24T09:43:07Z</time>
      </trkpt>
      <trkpt lat="42.83778" lon="0.13999">
        <ele>2165.090723067</ele>
        <time>2015-05-24T09:43:12Z</time>
      </trkpt>
      <trkpt lat="42.83776" lon="0.13997">
        <ele>2165.090723067</ele>
        <time>2015-05-24T09:43:17Z</time>
      </trkpt>
      <trkpt lat="42.83772" lon="0.13992">
        <ele>2165.090723067</ele>
        <time>2015-05-24T09:43:22Z</time>
      </trkpt>
      <trkpt lat="42.8377" lon="0.1399">
        <ele>2163.7720411409</ele>
        <time>2015-05-24T09:43:26Z</time>
      </trkpt>
      <trkpt lat="42.83769" lon="0.1399">
        <ele>2163.7720411409</ele>
        <time>2015-05-24T09:43:32Z</time>
      </trkpt>
      <trkpt lat="42.83768" lon="0.13991">
        <ele>2163.7720411409</ele>
        <time>2015-05-24T09:43:37Z</time>
      </trkpt>
      <trkpt lat="42.83768" lon="0.1399">
        <ele>2163.7720411409</ele>
        <time>2015-05-24T09:46:25Z</time>
      </trkpt>
      <trkpt lat="42.83768" lon="0.13989">
        <ele>2163.7720411409</ele>
        <time>2015-05-24T09:46:32Z</time>
      </trkpt>
      <trkpt lat="42.83766" lon="0.13975">
        <ele>2162.1956107005</ele>
        <time>2015-05-24T09:47:12Z</time>
      </trkpt>
      <trkpt lat="42.83765" lon="0.13972">
        <ele>2162.1956107005</ele>
        <time>2015-05-24T09:47:16Z</time>
      </trkpt>
      <trkpt lat="42.83763" lon="0.13967">
        <ele>2162.1956107005</ele>
        <time>2015-05-24T09:47:22Z</time>
      </trkpt>
      <trkpt lat="42.83762" lon="0.13963">
        <ele>2160.7135581227</ele>
        <time>2015-05-24T09:47:26Z</time>
      </trkpt>
      <trkpt lat="42.83764" lon="0.13958">
        <ele>2160.7135581227</ele>
        <time>2015-05-24T09:47:32Z</time>
      </trkpt>
      <trkpt lat="42.83764" lon="0.13954">
        <ele>2160.7135581227</ele>
        <time>2015-05-24T09:47:37Z</time>
      </trkpt>
      <trkpt lat="42.83763" lon="0.13948">
        <ele>2159.3589799247</ele>
        <time>2015-05-24T09:47:42Z</time>
      </trkpt>
      <trkpt lat="42.8376" lon="0.13939">
        <ele>2159.3589799247</ele>
        <time>2015-05-24T09:47:47Z</time>
      </trkpt>
      <trkpt lat="42.8376" lon="0.13935">
        <ele>2158.1167491143</ele>
        <time>2015-05-24T09:47:52Z</time>
      </trkpt>
      <trkpt lat="42.8376" lon="0.13929">
        <ele>2158.1167491143</ele>
        <time>2015-05-24T09:47:57Z</time>
      </trkpt>
      <trkpt lat="42.83759" lon="0.13923">
        <ele>2157.0013897279</ele>
        <time>2015-05-24T09:48:01Z</time>
      </trkpt>
      <trkpt lat="42.83757" lon="0.13919">
        <ele>2157.0013897279</ele>
        <time>2015-05-24T09:48:06Z</time>
      </trkpt>
      <trkpt lat="42.83755" lon="0.13912">
        <ele>2155.9499129944</ele>
        <time>2015-05-24T09:48:12Z</time>
      </trkpt>
      <trkpt lat="42.83755" lon="0.13907">
        <ele>2155.9499129944</ele>
        <time>2015-05-24T09:48:16Z</time>
      </trkpt>
      <trkpt lat="42.83756" lon="0.13904">
        <ele>2155.9499129944</ele>
        <time>2015-05-24T09:48:22Z</time>
      </trkpt>
      <trkpt lat="42.83758" lon="0.13901">
        <ele>2155.9499129944</ele>
        <time>2015-05-24T09:48:26Z</time>
      </trkpt>
      <trkpt lat="42.83759" lon="0.13899">
        <ele>2155.0081870683</ele>
        <time>2015-05-24T09:48:32Z</time>
      </trkpt>
      <trkpt lat="42.83758" lon="0.13895">
        <ele>2155.0081870683</ele>
        <time>2015-05-24T09:48:37Z</time>
      </trkpt>
      <trkpt lat="42.83757" lon="0.13891">
        <ele>2155.0081870683</ele>
        <time>2015-05-24T09:48:41Z</time>
      </trkpt>
      <trkpt lat="42.83758" lon="0.13889">
        <ele>2155.0081870683</ele>
        <time>2015-05-24T09:48:47Z</time>
      </trkpt>
      <trkpt lat="42.83758" lon="0.13885">
        <ele>2154.2177751494</ele>
        <time>2015-05-24T09:48:51Z</time>
      </trkpt>
      <trkpt lat="42.83759" lon="0.13881">
        <ele>2154.2177751494</ele>
        <time>2015-05-24T09:48:58Z</time>
      </trkpt>
      <trkpt lat="42.83759" lon="0.13879">
        <ele>2154.2177751494</ele>
        <time>2015-05-24T09:49:01Z</time>
      </trkpt>
      <trkpt lat="42.8376" lon="0.13879">
        <ele>2154.2177751494</ele>
        <time>2015-05-24T09:49:07Z</time>
      </trkpt>
      <trkpt lat="42.83758" lon="0.13867">
        <ele>2153.5555980411</ele>
        <time>2015-05-24T09:49:27Z</time>
      </trkpt>
      <trkpt lat="42.83758" lon="0.13864">
        <ele>2153.5555980411</ele>
        <time>2015-05-24T09:49:32Z</time>
      </trkpt>
      <trkpt lat="42.8376" lon="0.1386">
        <ele>2153.5555980411</ele>
        <time>2015-05-24T09:49:36Z</time>
      </trkpt>
      <trkpt lat="42.8376" lon="0.13856">
        <ele>2153.5555980411</ele>
        <time>2015-05-24T09:49:42Z</time>
      </trkpt>
      <trkpt lat="42.83759" lon="0.13856">
        <ele>2152.9992966187</ele>
        <time>2015-05-24T09:49:46Z</time>
      </trkpt>
      <trkpt lat="42.83759" lon="0.13856">
        <ele>2152.9992966187</ele>
        <time>2015-05-24T09:49:52Z</time>
      </trkpt>
      <trkpt lat="42.83759" lon="0.13852">
        <ele>2152.9992966187</ele>
        <time>2015-05-24T09:49:56Z</time>
      </trkpt>
      <trkpt lat="42.83761" lon="0.1385">
        <ele>2152.9992966187</ele>
        <time>2015-05-24T09:50:02Z</time>
      </trkpt>
      <trkpt lat="42.83763" lon="0.13847">
        <ele>2152.5878008389</ele>
        <time>2015-05-24T09:50:07Z</time>
      </trkpt>
      <trkpt lat="42.83767" lon="0.13842">
        <ele>2152.5878008389</ele>
        <time>2015-05-24T09:50:12Z</time>
      </trkpt>
      <trkpt lat="42.83768" lon="0.13839">
        <ele>2152.5878008389</ele>
        <time>2015-05-24T09:50:17Z</time>
      </trkpt>
      <trkpt lat="42.8377" lon="0.13834">
        <ele>2152.2656706693</ele>
        <time>2015-05-24T09:50:21Z</time>
      </trkpt>
      <trkpt lat="42.8377" lon="0.13831">
        <ele>2152.2656706693</ele>
        <time>2015-05-24T09:50:26Z</time>
      </trkpt>
      <trkpt lat="42.83768" lon="0.13826">
        <ele>2152.2656706693</ele>
        <time>2015-05-24T09:50:33Z</time>
      </trkpt>
      <trkpt lat="42.83767" lon="0.13823">
        <ele>2152.2656706693</ele>
        <time>2015-05-24T09:50:36Z</time>
      </trkpt>
      <trkpt lat="42.83765" lon="0.13822">
        <ele>2152.056632776</ele>
        <time>2015-05-24T09:50:42Z</time>
      </trkpt>
      <trkpt lat="42.83762" lon="0.13825">
        <ele>2152.056632776</ele>
        <time>2015-05-24T09:50:47Z</time>
      </trkpt>
      <trkpt lat="42.83755" lon="0.13827">
        <ele>2152.0871164571</ele>
        <time>2015-05-24T09:50:52Z</time>
      </trkpt>
      <trkpt lat="42.83749" lon="0.13831">
        <ele>2152.0871164571</ele>
        <time>2015-05-24T09:50:56Z</time>
      </trkpt>
      <trkpt lat="42.83743" lon="0.13833">
        <ele>2152.2321920587</ele>
        <time>2015-05-24T09:51:02Z</time>
      </trkpt>
      <trkpt lat="42.83738" lon="0.13833">
        <ele>2152.2321920587</ele>
        <time>2015-05-24T09:51:07Z</time>
      </trkpt>
      <trkpt lat="42.83734" lon="0.13834">
        <ele>2152.2321920587</ele>
        <time>2015-05-24T09:51:12Z</time>
      </trkpt>
      <trkpt lat="42.83733" lon="0.13837">
        <ele>2152.4666532968</ele>
        <time>2015-05-24T09:51:17Z</time>
      </trkpt>
      <trkpt lat="42.8373" lon="0.13839">
        <ele>2152.4666532968</ele>
        <time>2015-05-24T09:51:22Z</time>
      </trkpt>
      <trkpt lat="42.83727" lon="0.1384">
        <ele>2152.4666532968</ele>
        <time>2015-05-24T09:51:27Z</time>
      </trkpt>
      <trkpt lat="42.83724" lon="0.13841">
        <ele>2152.7521783936</ele>
        <time>2015-05-24T09:51:32Z</time>
      </trkpt>
      <trkpt lat="42.8372" lon="0.13841">
        <ele>2152.7521783936</ele>
        <time>2015-05-24T09:51:37Z</time>
      </trkpt>
      <trkpt lat="42.83718" lon="0.13841">
        <ele>2152.7521783936</ele>
        <time>2015-05-24T09:51:42Z</time>
      </trkpt>
      <trkpt lat="42.83714" lon="0.13842">
        <ele>2153.0684196086</ele>
        <time>2015-05-24T09:51:46Z</time>
      </trkpt>
      <trkpt lat="42.83711" lon="0.13846">
        <ele>2153.0684196086</ele>
        <time>2015-05-24T09:51:52Z</time>
      </trkpt>
      <trkpt lat="42.83704" lon="0.1385">
        <ele>2153.4412472306</ele>
        <time>2015-05-24T09:51:57Z</time>
      </trkpt>
      <trkpt lat="42.837" lon="0.13851">
        <ele>2153.4412472306</ele>
        <time>2015-05-24T09:52:01Z</time>
      </trkpt>
      <trkpt lat="42.83697" lon="0.13851">
        <ele>2153.4412472306</ele>
        <time>2015-05-24T09:52:08Z</time>
      </trkpt>
      <trkpt lat="42.83695" lon="0.1385">
        <ele>2153.8942125422</ele>
        <time>2015-05-24T09:52:11Z</time>
      </trkpt>
      <trkpt lat="42.83691" lon="0.13849">
        <ele>2153.8942125422</ele>
        <time>2015-05-24T09:52:16Z</time>
      </trkpt>
      <trkpt lat="42.83687" lon="0.13849">
        <ele>2153.8942125422</ele>
        <time>2015-05-24T09:52:22Z</time>
      </trkpt>
      <trkpt lat="42.83681" lon="0.1385">
        <ele>2154.4339021453</ele>
        <time>2015-05-24T09:52:27Z</time>
      </trkpt>
      <trkpt lat="42.83679" lon="0.1385">
        <ele>2154.4339021453</ele>
        <time>2015-05-24T09:52:32Z</time>
      </trkpt>
      <trkpt lat="42.83677" lon="0.13849">
        <ele>2154.4339021453</ele>
        <time>2015-05-24T09:52:37Z</time>
      </trkpt>
      <trkpt lat="42.83673" lon="0.13849">
        <ele>2155.0956324665</ele>
        <time>2015-05-24T09:52:41Z</time>
      </trkpt>
      <trkpt lat="42.83669" lon="0.13849">
        <ele>2155.0956324665</ele>
        <time>2015-05-24T09:52:47Z</time>
      </trkpt>
      <trkpt lat="42.83666" lon="0.1385">
        <ele>2155.0956324665</ele>
        <time>2015-05-24T09:52:52Z</time>
      </trkpt>
      <trkpt lat="42.83661" lon="0.13851">
        <ele>2155.8526296867</ele>
        <time>2015-05-24T09:52:56Z</time>
      </trkpt>
      <trkpt lat="42.83657" lon="0.13853">
        <ele>2155.8526296867</ele>
        <time>2015-05-24T09:53:03Z</time>
      </trkpt>
      <trkpt lat="42.83654" lon="0.13853">
        <ele>2155.8526296867</ele>
        <time>2015-05-24T09:53:06Z</time>
      </trkpt>
      <trkpt lat="42.83649" lon="0.13856">
        <ele>2156.6948051323</ele>
        <time>2015-05-24T09:53:12Z</time>
      </trkpt>
      <trkpt lat="42.83646" lon="0.13858">
        <ele>2156.6948051323</ele>
        <time>2015-05-24T09:53:17Z</time>
      </trkpt>
      <trkpt lat="42.83642" lon="0.13857">
        <ele>2156.6948051323</ele>
        <time>2015-05-24T09:53:22Z</time>
      </trkpt>
      <trkpt lat="42.83641" lon="0.13855">
        <ele>2157.6712986318</ele>
        <time>2015-05-24T09:53:27Z</time>
      </trkpt>
      <trkpt lat="42.83639" lon="0.13854">
        <ele>2157.6712986318</ele>
        <time>2015-05-24T09:53:32Z</time>
      </trkpt>
      <trkpt lat="42.83638" lon="0.13854">
        <ele>2157.6712986318</ele>
        <time>2015-05-24T09:53:36Z</time>
      </trkpt>
      <trkpt lat="42.8364" lon="0.13857">
        <ele>2157.6712986318</ele>
        <time>2015-05-24T09:53:42Z</time>
      </trkpt>
      <trkpt lat="42.83639" lon="0.13858">
        <ele>2157.6712986318</ele>
        <time>2015-05-24T09:53:47Z</time>
      </trkpt>
      <trkpt lat="42.83638" lon="0.13861">
        <ele>2157.6712986318</ele>
        <time>2015-05-24T09:53:51Z</time>
      </trkpt>
      <trkpt lat="42.83634" lon="0.13862">
        <ele>2158.9730901095</ele>
        <time>2015-05-24T09:53:58Z</time>
      </trkpt>
      <trkpt lat="42.83631" lon="0.13863">
        <ele>2158.9730901095</ele>
        <time>2015-05-24T09:54:02Z</time>
      </trkpt>
      <trkpt lat="42.83626" lon="0.13865">
        <ele>2158.9730901095</ele>
        <time>2015-05-24T09:54:07Z</time>
      </trkpt>
      <trkpt lat="42.83619" lon="0.13865">
        <ele>2160.2788094294</ele>
        <time>2015-05-24T09:54:12Z</time>
      </trkpt>
      <trkpt lat="42.83615" lon="0.13865">
        <ele>2160.2788094294</ele>
        <time>2015-05-24T09:54:17Z</time>
      </trkpt>
      <trkpt lat="42.8361" lon="0.13866">
        <ele>2160.2788094294</ele>
        <time>2015-05-24T09:54:21Z</time>
      </trkpt>
      <trkpt lat="42.83605" lon="0.13868">
        <ele>2161.6135043979</ele>
        <time>2015-05-24T09:54:28Z</time>
      </trkpt>
      <trkpt lat="42.83604" lon="0.13867">
        <ele>2161.6135043979</ele>
        <time>2015-05-24T09:54:31Z</time>
      </trkpt>
      <trkpt lat="42.83603" lon="0.13869">
        <ele>2161.6135043979</ele>
        <time>2015-05-24T09:54:37Z</time>
      </trkpt>
      <trkpt lat="42.83602" lon="0.1387">
        <ele>2161.6135043979</ele>
        <time>2015-05-24T09:54:42Z</time>
      </trkpt>
      <trkpt lat="42.83602" lon="0.1387">
        <ele>2161.6135043979</ele>
        <time>2015-05-24T09:54:46Z</time>
      </trkpt>
      <trkpt lat="42.83597" lon="0.13867">
        <ele>2163.0728497428</ele>
        <time>2015-05-24T09:54:53Z</time>
      </trkpt>
      <trkpt lat="42.8359" lon="0.13867">
        <ele>2163.0728497428</ele>
        <time>2015-05-24T09:54:57Z</time>
      </trkpt>
      <trkpt lat="42.83586" lon="0.13865">
        <ele>2164.4687106547</ele>
        <time>2015-05-24T09:55:02Z</time>
      </trkpt>
      <trkpt lat="42.83583" lon="0.13865">
        <ele>2164.4687106547</ele>
        <time>2015-05-24T09:55:07Z</time>
      </trkpt>
      <trkpt lat="42.83579" lon="0.13865">
        <ele>2164.4687106547</ele>
        <time>2015-05-24T09:55:12Z</time>
      </trkpt>
      <trkpt lat="42.83578" lon="0.13865">
        <ele>2164.4687106547</ele>
        <time>2015-05-24T09:55:17Z</time>
      </trkpt>
      <trkpt lat="42.83571" lon="0.13865">
        <ele>2165.9760270669</ele>
        <time>2015-05-24T09:55:22Z</time>
      </trkpt>
      <trkpt lat="42.83569" lon="0.13864">
        <ele>2165.9760270669</ele>
        <time>2015-05-24T09:55:26Z</time>
      </trkpt>
      <trkpt lat="42.83564" lon="0.13865">
        <ele>2165.9760270669</ele>
        <time>2015-05-24T09:55:32Z</time>
      </trkpt>
      <trkpt lat="42.8356" lon="0.13866">
        <ele>2167.3935967143</ele>
        <time>2015-05-24T09:55:37Z</time>
      </trkpt>
      <trkpt lat="42.83553" lon="0.13864">
        <ele>2167.3935967143</ele>
        <time>2015-05-24T09:55:43Z</time>
      </trkpt>
      <trkpt lat="42.83551" lon="0.13864">
        <ele>2167.3935967143</ele>
        <time>2015-05-24T09:55:47Z</time>
      </trkpt>
      <trkpt lat="42.83549" lon="0.13865">
        <ele>2168.7965882017</ele>
        <time>2015-05-24T09:55:52Z</time>
      </trkpt>
      <trkpt lat="42.83549" lon="0.13866">
        <ele>2168.7965882017</ele>
        <time>2015-05-24T09:55:57Z</time>
      </trkpt>
      <trkpt lat="42.83543" lon="0.13863">
        <ele>2168.7965882017</ele>
        <time>2015-05-24T09:56:02Z</time>
      </trkpt>
      <trkpt lat="42.8354" lon="0.13861">
        <ele>2170.2110244766</ele>
        <time>2015-05-24T09:56:07Z</time>
      </trkpt>
      <trkpt lat="42.83535" lon="0.1386">
        <ele>2170.2110244766</ele>
        <time>2015-05-24T09:56:12Z</time>
      </trkpt>
      <trkpt lat="42.83527" lon="0.1386">
        <ele>2171.6031253857</ele>
        <time>2015-05-24T09:56:17Z</time>
      </trkpt>
      <trkpt lat="42.83523" lon="0.13861">
        <ele>2171.6031253857</ele>
        <time>2015-05-24T09:56:22Z</time>
      </trkpt>
      <trkpt lat="42.8352" lon="0.13862">
        <ele>2171.6031253857</ele>
        <time>2015-05-24T09:56:27Z</time>
      </trkpt>
      <trkpt lat="42.83517" lon="0.13864">
        <ele>2173.2017373043</ele>
        <time>2015-05-24T09:56:32Z</time>
      </trkpt>
      <trkpt lat="42.83515" lon="0.13862">
        <ele>2173.2017373043</ele>
        <time>2015-05-24T09:56:36Z</time>
      </trkpt>
      <trkpt lat="42.83512" lon="0.13863">
        <ele>2173.2017373043</ele>
        <time>2015-05-24T09:56:42Z</time>
      </trkpt>
      <trkpt lat="42.83509" lon="0.13863">
        <ele>2173.2017373043</ele>
        <time>2015-05-24T09:56:47Z</time>
      </trkpt>
      <trkpt lat="42.83507" lon="0.13866">
        <ele>2175.2323729319</ele>
        <time>2015-05-24T09:56:51Z</time>
      </trkpt>
      <trkpt lat="42.83501" lon="0.13868">
        <ele>2175.2323729319</ele>
        <time>2015-05-24T09:56:58Z</time>
      </trkpt>
      <trkpt lat="42.835" lon="0.13867">
        <ele>2175.2323729319</ele>
        <time>2015-05-24T09:57:01Z</time>
      </trkpt>
      <trkpt lat="42.83497" lon="0.1387">
        <ele>2177.5706911302</ele>
        <time>2015-05-24T09:57:07Z</time>
      </trkpt>
      <trkpt lat="42.83496" lon="0.13872">
        <ele>2177.5706911302</ele>
        <time>2015-05-24T09:57:11Z</time>
      </trkpt>
      <trkpt lat="42.83495" lon="0.13873">
        <ele>2177.5706911302</ele>
        <time>2015-05-24T09:57:16Z</time>
      </trkpt>
      <trkpt lat="42.83494" lon="0.13874">
        <ele>2177.5706911302</ele>
        <time>2015-05-24T09:57:23Z</time>
      </trkpt>
      <trkpt lat="42.83493" lon="0.13875">
        <ele>2177.5706911302</ele>
        <time>2015-05-24T09:57:27Z</time>
      </trkpt>
      <trkpt lat="42.83492" lon="0.13872">
        <ele>2180.8944043833</ele>
        <time>2015-05-24T09:57:32Z</time>
      </trkpt>
      <trkpt lat="42.8349" lon="0.13868">
        <ele>2180.8944043833</ele>
        <time>2015-05-24T09:57:37Z</time>
      </trkpt>
      <trkpt lat="42.83489" lon="0.13866">
        <ele>2180.8944043833</ele>
        <time>2015-05-24T09:57:42Z</time>
      </trkpt>
      <trkpt lat="42.83487" lon="0.13864">
        <ele>2180.8944043833</ele>
        <time>2015-05-24T09:57:47Z</time>
      </trkpt>
      <trkpt lat="42.83486" lon="0.1386">
        <ele>2184.9052277185</ele>
        <time>2015-05-24T09:57:52Z</time>
      </trkpt>
      <trkpt lat="42.83487" lon="0.13857">
        <ele>2184.9052277185</ele>
        <time>2015-05-24T09:57:56Z</time>
      </trkpt>
      <trkpt lat="42.83486" lon="0.13853">
        <ele>2184.9052277185</ele>
        <time>2015-05-24T09:58:02Z</time>
      </trkpt>
      <trkpt lat="42.83485" lon="0.1385">
        <ele>2184.9052277185</ele>
        <time>2015-05-24T09:58:07Z</time>
      </trkpt>
      <trkpt lat="42.83486" lon="0.13849">
        <ele>2184.9052277185</ele>
        <time>2015-05-24T09:58:11Z</time>
      </trkpt>
      <trkpt lat="42.83487" lon="0.13845">
        <ele>2189.7580042447</ele>
        <time>2015-05-24T09:58:16Z</time>
      </trkpt>
      <trkpt lat="42.83487" lon="0.13842">
        <ele>2189.7580042447</ele>
        <time>2015-05-24T09:58:22Z</time>
      </trkpt>
      <trkpt lat="42.83483" lon="0.13842">
        <ele>2189.7580042447</ele>
        <time>2015-05-24T09:58:27Z</time>
      </trkpt>
      <trkpt lat="42.83483" lon="0.13843">
        <ele>2189.7580042447</ele>
        <time>2015-05-24T09:58:32Z</time>
      </trkpt>
      <trkpt lat="42.8348" lon="0.13845">
        <ele>2194.296336767</ele>
        <time>2015-05-24T09:58:37Z</time>
      </trkpt>
      <trkpt lat="42.83474" lon="0.13844">
        <ele>2194.296336767</ele>
        <time>2015-05-24T09:58:42Z</time>
      </trkpt>
      <trkpt lat="42.83471" lon="0.13843">
        <ele>2194.296336767</ele>
        <time>2015-05-24T09:58:47Z</time>
      </trkpt>
      <trkpt lat="42.8347" lon="0.13844">
        <ele>2198.5027185139</ele>
        <time>2015-05-24T09:58:51Z</time>
      </trkpt>
      <trkpt lat="42.83468" lon="0.13847">
        <ele>2198.5027185139</ele>
        <time>2015-05-24T09:58:58Z</time>
      </trkpt>
      <trkpt lat="42.83469" lon="0.13848">
        <ele>2198.5027185139</ele>
        <time>2015-05-24T09:59:01Z</time>
      </trkpt>
      <trkpt lat="42.83466" lon="0.13849">
        <ele>2198.5027185139</ele>
        <time>2015-05-24T09:59:07Z</time>
      </trkpt>
      <trkpt lat="42.83468" lon="0.13849">
        <ele>2203.0684050552</ele>
        <time>2015-05-24T09:59:16Z</time>
      </trkpt>
      <trkpt lat="42.83467" lon="0.13849">
        <ele>2203.0684050552</ele>
        <time>2015-05-24T09:59:24Z</time>
      </trkpt>
      <trkpt lat="42.83469" lon="0.13849">
        <ele>2203.0684050552</ele>
        <time>2015-05-24T09:59:26Z</time>
      </trkpt>
      <trkpt lat="42.83473" lon="0.13846">
        <ele>2203.0684050552</ele>
        <time>2015-05-24T09:59:31Z</time>
      </trkpt>
      <trkpt lat="42.83474" lon="0.13845">
        <ele>2203.0684050552</ele>
        <time>2015-05-24T09:59:37Z</time>
      </trkpt>
      <trkpt lat="42.83472" lon="0.13846">
        <ele>2208.5608956265</ele>
        <time>2015-05-24T09:59:48Z</time>
      </trkpt>
      <trkpt lat="42.83473" lon="0.13842">
        <ele>2208.5608956265</ele>
        <time>2015-05-24T09:59:51Z</time>
      </trkpt>
      <trkpt lat="42.83469" lon="0.13837">
        <ele>2208.5608956265</ele>
        <time>2015-05-24T09:59:57Z</time>
      </trkpt>
      <trkpt lat="42.83469" lon="0.13836">
        <ele>2213.9609372226</ele>
        <time>2015-05-24T10:00:01Z</time>
      </trkpt>
      <trkpt lat="42.8347" lon="0.13838">
        <ele>2213.9609372226</ele>
        <time>2015-05-24T10:00:07Z</time>
      </trkpt>
      <trkpt lat="42.83467" lon="0.13829">
        <ele>2213.9609372226</ele>
        <time>2015-05-24T10:00:21Z</time>
      </trkpt>
      <trkpt lat="42.83468" lon="0.13826">
        <ele>2219.4348268025</ele>
        <time>2015-05-24T10:00:27Z</time>
      </trkpt>
      <trkpt lat="42.83464" lon="0.13829">
        <ele>2219.4348268025</ele>
        <time>2015-05-24T10:00:37Z</time>
      </trkpt>
      <trkpt lat="42.83462" lon="0.13832">
        <ele>2219.4348268025</ele>
        <time>2015-05-24T10:00:42Z</time>
      </trkpt>
      <trkpt lat="42.83459" lon="0.13835">
        <ele>2224.5310952122</ele>
        <time>2015-05-24T10:00:47Z</time>
      </trkpt>
      <trkpt lat="42.83456" lon="0.13836">
        <ele>2224.5310952122</ele>
        <time>2015-05-24T10:00:52Z</time>
      </trkpt>
      <trkpt lat="42.83456" lon="0.13834">
        <ele>2224.5310952122</ele>
        <time>2015-05-24T10:00:56Z</time>
      </trkpt>
      <trkpt lat="42.83456" lon="0.13832">
        <ele>2224.5310952122</ele>
        <time>2015-05-24T10:01:02Z</time>
      </trkpt>
      <trkpt lat="42.83457" lon="0.13827">
        <ele>2229.6114091212</ele>
        <time>2015-05-24T10:01:07Z</time>
      </trkpt>
      <trkpt lat="42.83454" lon="0.13826">
        <ele>2229.6114091212</ele>
        <time>2015-05-24T10:01:12Z</time>
      </trkpt>
      <trkpt lat="42.83452" lon="0.13824">
        <ele>2229.6114091212</ele>
        <time>2015-05-24T10:01:17Z</time>
      </trkpt>
      <trkpt lat="42.83452" lon="0.13825">
        <ele>2229.6114091212</ele>
        <time>2015-05-24T10:01:22Z</time>
      </trkpt>
      <trkpt lat="42.83451" lon="0.13824">
        <ele>2229.6114091212</ele>
        <time>2015-05-24T10:01:26Z</time>
      </trkpt>
      <trkpt lat="42.83453" lon="0.13823">
        <ele>2229.6114091212</ele>
        <time>2015-05-24T10:01:32Z</time>
      </trkpt>
      <trkpt lat="42.83453" lon="0.13824">
        <ele>2229.6114091212</ele>
        <time>2015-05-24T10:01:36Z</time>
      </trkpt>
      <trkpt lat="42.83451" lon="0.13825">
        <ele>2234.8814819381</ele>
        <time>2015-05-24T10:01:41Z</time>
      </trkpt>
      <trkpt lat="42.83451" lon="0.13823">
        <ele>2234.8814819381</ele>
        <time>2015-05-24T10:01:48Z</time>
      </trkpt>
      <trkpt lat="42.83463" lon="0.13823">
        <ele>2240.0846580316</ele>
        <time>2015-05-24T10:01:57Z</time>
      </trkpt>
      <trkpt lat="42.83464" lon="0.13823">
        <ele>2240.0846580316</ele>
        <time>2015-05-24T10:02:02Z</time>
      </trkpt>
      <trkpt lat="42.83464" lon="0.13819">
        <ele>2240.0846580316</ele>
        <time>2015-05-24T10:02:07Z</time>
      </trkpt>
      <trkpt lat="42.83464" lon="0.13817">
        <ele>2240.0846580316</ele>
        <time>2015-05-24T10:02:11Z</time>
      </trkpt>
      <trkpt lat="42.83466" lon="0.13814">
        <ele>2240.0846580316</ele>
        <time>2015-05-24T10:02:16Z</time>
      </trkpt>
      <trkpt lat="42.83468" lon="0.13813">
        <ele>2245.1711241328</ele>
        <time>2015-05-24T10:02:22Z</time>
      </trkpt>
      <trkpt lat="42.83465" lon="0.13807">
        <ele>2245.1711241328</ele>
        <time>2015-05-24T10:02:27Z</time>
      </trkpt>
      <trkpt lat="42.83461" lon="0.13802">
        <ele>2249.8502084882</ele>
        <time>2015-05-24T10:02:32Z</time>
      </trkpt>
      <trkpt lat="42.83455" lon="0.13796">
        <ele>2249.8502084882</ele>
        <time>2015-05-24T10:02:37Z</time>
      </trkpt>
      <trkpt lat="42.83451" lon="0.13792">
        <ele>2254.0704392846</ele>
        <time>2015-05-24T10:02:42Z</time>
      </trkpt>
      <trkpt lat="42.83446" lon="0.13789">
        <ele>2254.0704392846</ele>
        <time>2015-05-24T10:02:47Z</time>
      </trkpt>
      <trkpt lat="42.83446" lon="0.13787">
        <ele>2254.0704392846</ele>
        <time>2015-05-24T10:02:52Z</time>
      </trkpt>
      <trkpt lat="42.83445" lon="0.13784">
        <ele>2257.9588796056</ele>
        <time>2015-05-24T10:02:57Z</time>
      </trkpt>
      <trkpt lat="42.83446" lon="0.1378">
        <ele>2257.9588796056</ele>
        <time>2015-05-24T10:03:02Z</time>
      </trkpt>
      <trkpt lat="42.83446" lon="0.13778">
        <ele>2257.9588796056</ele>
        <time>2015-05-24T10:03:05Z</time>
      </trkpt>
      <trkpt lat="42.83443" lon="0.13773">
        <ele>2261.5480182666</ele>
        <time>2015-05-24T10:03:12Z</time>
      </trkpt>
      <trkpt lat="42.83442" lon="0.13769">
        <ele>2261.5480182666</ele>
        <time>2015-05-24T10:03:17Z</time>
      </trkpt>
      <trkpt lat="42.83441" lon="0.13764">
        <ele>2261.5480182666</ele>
        <time>2015-05-24T10:03:32Z</time>
      </trkpt>
      <trkpt lat="42.83442" lon="0.1376">
        <ele>2264.7104891768</ele>
        <time>2015-05-24T10:03:37Z</time>
      </trkpt>
      <trkpt lat="42.83446" lon="0.1376">
        <ele>2264.7104891768</ele>
        <time>2015-05-24T10:03:42Z</time>
      </trkpt>
      <trkpt lat="42.83445" lon="0.13758">
        <ele>2264.7104891768</ele>
        <time>2015-05-24T10:03:46Z</time>
      </trkpt>
      <trkpt lat="42.83448" lon="0.13757">
        <ele>2267.5317783381</ele>
        <time>2015-05-24T10:03:51Z</time>
      </trkpt>
      <trkpt lat="42.83444" lon="0.13757">
        <ele>2267.5317783381</ele>
        <time>2015-05-24T10:03:57Z</time>
      </trkpt>
      <trkpt lat="42.83439" lon="0.13756">
        <ele>2269.9481329811</ele>
        <time>2015-05-24T10:04:02Z</time>
      </trkpt>
      <trkpt lat="42.83433" lon="0.13752">
        <ele>2269.9481329811</ele>
        <time>2015-05-24T10:04:07Z</time>
      </trkpt>
      <trkpt lat="42.83423" lon="0.13751">
        <ele>2272.0173302662</ele>
        <time>2015-05-24T10:04:12Z</time>
      </trkpt>
      <trkpt lat="42.8342" lon="0.13752">
        <ele>2272.0173302662</ele>
        <time>2015-05-24T10:04:16Z</time>
      </trkpt>
      <trkpt lat="42.83416" lon="0.13756">
        <ele>2272.0173302662</ele>
        <time>2015-05-24T10:04:23Z</time>
      </trkpt>
      <trkpt lat="42.83414" lon="0.13759">
        <ele>2273.6931927501</ele>
        <time>2015-05-24T10:04:26Z</time>
      </trkpt>
      <trkpt lat="42.83409" lon="0.13762">
        <ele>2273.6931927501</ele>
        <time>2015-05-24T10:04:32Z</time>
      </trkpt>
      <trkpt lat="42.83403" lon="0.13762">
        <ele>2275.1218069048</ele>
        <time>2015-05-24T10:04:37Z</time>
      </trkpt>
      <trkpt lat="42.83397" lon="0.13763">
        <ele>2275.1218069048</ele>
        <time>2015-05-24T10:04:41Z</time>
      </trkpt>
      <trkpt lat="42.83393" lon="0.13763">
        <ele>2276.2375146606</ele>
        <time>2015-05-24T10:04:47Z</time>
      </trkpt>
      <trkpt lat="42.83387" lon="0.13762">
        <ele>2276.2375146606</ele>
        <time>2015-05-24T10:04:52Z</time>
      </trkpt>
      <trkpt lat="42.83381" lon="0.1376">
        <ele>2276.9805766826</ele>
        <time>2015-05-24T10:04:56Z</time>
      </trkpt>
      <trkpt lat="42.83375" lon="0.1376">
        <ele>2276.9805766826</ele>
        <time>2015-05-24T10:05:02Z</time>
      </trkpt>
      <trkpt lat="42.83369" lon="0.1376">
        <ele>2277.4122446314</ele>
        <time>2015-05-24T10:05:06Z</time>
      </trkpt>
      <trkpt lat="42.83367" lon="0.13759">
        <ele>2277.4122446314</ele>
        <time>2015-05-24T10:05:12Z</time>
      </trkpt>
      <trkpt lat="42.83366" lon="0.13757">
        <ele>2277.4122446314</ele>
        <time>2015-05-24T10:05:17Z</time>
      </trkpt>
      <trkpt lat="42.83364" lon="0.13756">
        <ele>2277.4122446314</ele>
        <time>2015-05-24T10:05:21Z</time>
      </trkpt>
      <trkpt lat="42.83368" lon="0.1375">
        <ele>2277.561436613</ele>
        <time>2015-05-24T10:05:27Z</time>
      </trkpt>
      <trkpt lat="42.83369" lon="0.13749">
        <ele>2277.561436613</ele>
        <time>2015-05-24T10:05:32Z</time>
      </trkpt>
      <trkpt lat="42.83366" lon="0.13748">
        <ele>2277.561436613</ele>
        <time>2015-05-24T10:05:37Z</time>
      </trkpt>
      <trkpt lat="42.83365" lon="0.13748">
        <ele>2277.561436613</ele>
        <time>2015-05-24T10:05:42Z</time>
      </trkpt>
      <trkpt lat="42.83361" lon="0.13749">
        <ele>2277.5856242171</ele>
        <time>2015-05-24T10:05:47Z</time>
      </trkpt>
      <trkpt lat="42.83359" lon="0.13754">
        <ele>2277.5856242171</ele>
        <time>2015-05-24T10:05:52Z</time>
      </trkpt>
      <trkpt lat="42.83355" lon="0.13756">
        <ele>2277.5856242171</ele>
        <time>2015-05-24T10:05:57Z</time>
      </trkpt>
      <trkpt lat="42.83351" lon="0.13758">
        <ele>2277.7464640894</ele>
        <time>2015-05-24T10:06:02Z</time>
      </trkpt>
      <trkpt lat="42.83349" lon="0.13762">
        <ele>2277.7464640894</ele>
        <time>2015-05-24T10:06:06Z</time>
      </trkpt>
      <trkpt lat="42.83349" lon="0.13766">
        <ele>2277.7464640894</ele>
        <time>2015-05-24T10:06:13Z</time>
      </trkpt>
      <trkpt lat="42.83347" lon="0.13772">
        <ele>2278.0841583499</ele>
        <time>2015-05-24T10:06:16Z</time>
      </trkpt>
      <trkpt lat="42.83345" lon="0.13778">
        <ele>2278.0841583499</ele>
        <time>2015-05-24T10:06:23Z</time>
      </trkpt>
      <trkpt lat="42.83344" lon="0.13778">
        <ele>2278.0841583499</ele>
        <time>2015-05-24T10:06:27Z</time>
      </trkpt>
      <trkpt lat="42.83343" lon="0.13783">
        <ele>2278.0841583499</ele>
        <time>2015-05-24T10:06:31Z</time>
      </trkpt>
      <trkpt lat="42.83341" lon="0.13787">
        <ele>2278.8805827971</ele>
        <time>2015-05-24T10:06:37Z</time>
      </trkpt>
      <trkpt lat="42.83339" lon="0.13798">
        <ele>2278.8805827971</ele>
        <time>2015-05-24T10:06:42Z</time>
      </trkpt>
      <trkpt lat="42.8334" lon="0.138">
        <ele>2279.7324149897</ele>
        <time>2015-05-24T10:06:46Z</time>
      </trkpt>
      <trkpt lat="42.83337" lon="0.13802">
        <ele>2279.7324149897</ele>
        <time>2015-05-24T10:06:57Z</time>
      </trkpt>
      <trkpt lat="42.83336" lon="0.13802">
        <ele>2279.7324149897</ele>
        <time>2015-05-24T10:07:02Z</time>
      </trkpt>
      <trkpt lat="42.83331" lon="0.13806">
        <ele>2280.6262815206</ele>
        <time>2015-05-24T10:07:07Z</time>
      </trkpt>
      <trkpt lat="42.83329" lon="0.13809">
        <ele>2280.6262815206</ele>
        <time>2015-05-24T10:07:11Z</time>
      </trkpt>
      <trkpt lat="42.83327" lon="0.13812">
        <ele>2280.6262815206</ele>
        <time>2015-05-24T10:07:18Z</time>
      </trkpt>
      <trkpt lat="42.83325" lon="0.13815">
        <ele>2281.6361509539</ele>
        <time>2015-05-24T10:07:22Z</time>
      </trkpt>
      <trkpt lat="42.83322" lon="0.13815">
        <ele>2281.6361509539</ele>
        <time>2015-05-24T10:07:26Z</time>
      </trkpt>
      <trkpt lat="42.83319" lon="0.13814">
        <ele>2281.6361509539</ele>
        <time>2015-05-24T10:07:33Z</time>
      </trkpt>
      <trkpt lat="42.83319" lon="0.13815">
        <ele>2281.6361509539</ele>
        <time>2015-05-24T10:07:36Z</time>
      </trkpt>
      <trkpt lat="42.83324" lon="0.13812">
        <ele>2282.7581170652</ele>
        <time>2015-05-24T10:07:57Z</time>
      </trkpt>
      <trkpt lat="42.83323" lon="0.13811">
        <ele>2282.7581170652</ele>
        <time>2015-05-24T10:08:02Z</time>
      </trkpt>
      <trkpt lat="42.8332" lon="0.1381">
        <ele>2282.7581170652</ele>
        <time>2015-05-24T10:08:06Z</time>
      </trkpt>
      <trkpt lat="42.8331" lon="0.13814">
        <ele>2283.8728924554</ele>
        <time>2015-05-24T10:08:12Z</time>
      </trkpt>
      <trkpt lat="42.8331" lon="0.13814">
        <ele>2283.8728924554</ele>
        <time>2015-05-24T10:08:17Z</time>
      </trkpt>
      <trkpt lat="42.83311" lon="0.13813">
        <ele>2283.8728924554</ele>
        <time>2015-05-24T10:08:22Z</time>
      </trkpt>
      <trkpt lat="42.8331" lon="0.13816">
        <ele>2283.8728924554</ele>
        <time>2015-05-24T10:08:27Z</time>
      </trkpt>
      <trkpt lat="42.83304" lon="0.13825">
        <ele>2285.3167652253</ele>
        <time>2015-05-24T10:08:37Z</time>
      </trkpt>
      <trkpt lat="42.83301" lon="0.13831">
        <ele>2285.3167652253</ele>
        <time>2015-05-24T10:08:42Z</time>
      </trkpt>
      <trkpt lat="42.833" lon="0.13833">
        <ele>2285.3167652253</ele>
        <time>2015-05-24T10:08:47Z</time>
      </trkpt>
      <trkpt lat="42.833" lon="0.13834">
        <ele>2285.3167652253</ele>
        <time>2015-05-24T10:08:52Z</time>
      </trkpt>
      <trkpt lat="42.83295" lon="0.13837">
        <ele>2286.8093519525</ele>
        <time>2015-05-24T10:09:01Z</time>
      </trkpt>
      <trkpt lat="42.83296" lon="0.13837">
        <ele>2286.8093519525</ele>
        <time>2015-05-24T10:09:07Z</time>
      </trkpt>
      <trkpt lat="42.83297" lon="0.13838">
        <ele>2286.8093519525</ele>
        <time>2015-05-24T10:09:12Z</time>
      </trkpt>
      <trkpt lat="42.83298" lon="0.13839">
        <ele>2286.8093519525</ele>
        <time>2015-05-24T10:09:17Z</time>
      </trkpt>
      <trkpt lat="42.833" lon="0.13839">
        <ele>2286.8093519525</ele>
        <time>2015-05-24T10:09:22Z</time>
      </trkpt>
      <trkpt lat="42.833" lon="0.13838">
        <ele>2286.8093519525</ele>
        <time>2015-05-24T10:09:26Z</time>
      </trkpt>
      <trkpt lat="42.83297" lon="0.13838">
        <ele>2286.8093519525</ele>
        <time>2015-05-24T10:09:32Z</time>
      </trkpt>
      <trkpt lat="42.83292" lon="0.13839">
        <ele>2288.6239771763</ele>
        <time>2015-05-24T10:09:37Z</time>
      </trkpt>
      <trkpt lat="42.83289" lon="0.13839">
        <ele>2288.6239771763</ele>
        <time>2015-05-24T10:09:41Z</time>
      </trkpt>
      <trkpt lat="42.83284" lon="0.13834">
        <ele>2290.3210864248</ele>
        <time>2015-05-24T10:09:47Z</time>
      </trkpt>
      <trkpt lat="42.83281" lon="0.13833">
        <ele>2290.3210864248</ele>
        <time>2015-05-24T10:09:52Z</time>
      </trkpt>
      <trkpt lat="42.83278" lon="0.13832">
        <ele>2290.3210864248</ele>
        <time>2015-05-24T10:09:57Z</time>
      </trkpt>
      <trkpt lat="42.83274" lon="0.1383">
        <ele>2291.882843121</ele>
        <time>2015-05-24T10:10:02Z</time>
      </trkpt>
      <trkpt lat="42.83278" lon="0.13827">
        <ele>2291.882843121</ele>
        <time>2015-05-24T10:10:07Z</time>
      </trkpt>
      <trkpt lat="42.83276" lon="0.13824">
        <ele>2291.882843121</ele>
        <time>2015-05-24T10:10:12Z</time>
      </trkpt>
      <trkpt lat="42.83275" lon="0.13822">
        <ele>2293.2786138599</ele>
        <time>2015-05-24T10:10:17Z</time>
      </trkpt>
      <trkpt lat="42.83274" lon="0.1382">
        <ele>2293.2786138599</ele>
        <time>2015-05-24T10:10:21Z</time>
      </trkpt>
      <trkpt lat="42.83275" lon="0.13818">
        <ele>2293.2786138599</ele>
        <time>2015-05-24T10:10:32Z</time>
      </trkpt>
      <trkpt lat="42.8328" lon="0.13819">
        <ele>2293.2786138599</ele>
        <time>2015-05-24T10:10:43Z</time>
      </trkpt>
      <trkpt lat="42.83279" lon="0.13818">
        <ele>2295.0857029136</ele>
        <time>2015-05-24T10:10:46Z</time>
      </trkpt>
      <trkpt lat="42.83277" lon="0.13814">
        <ele>2295.0857029136</ele>
        <time>2015-05-24T10:10:52Z</time>
      </trkpt>
      <trkpt lat="42.8327" lon="0.13813">
        <ele>2296.8433420763</ele>
        <time>2015-05-24T10:10:57Z</time>
      </trkpt>
      <trkpt lat="42.83269" lon="0.1381">
        <ele>2296.8433420763</ele>
        <time>2015-05-24T10:11:01Z</time>
      </trkpt>
      <trkpt lat="42.83265" lon="0.13805">
        <ele>2296.8433420763</ele>
        <time>2015-05-24T10:11:07Z</time>
      </trkpt>
      <trkpt lat="42.83263" lon="0.13804">
        <ele>2298.4273339887</ele>
        <time>2015-05-24T10:11:11Z</time>
      </trkpt>
      <trkpt lat="42.83261" lon="0.13796">
        <ele>2298.4273339887</ele>
        <time>2015-05-24T10:11:16Z</time>
      </trkpt>
      <trkpt lat="42.83259" lon="0.13792">
        <ele>2299.9103640004</ele>
        <time>2015-05-24T10:11:22Z</time>
      </trkpt>
      <trkpt lat="42.8326" lon="0.13789">
        <ele>2299.9103640004</ele>
        <time>2015-05-24T10:11:27Z</time>
      </trkpt>
      <trkpt lat="42.83259" lon="0.13784">
        <ele>2299.9103640004</ele>
        <time>2015-05-24T10:11:32Z</time>
      </trkpt>
      <trkpt lat="42.8326" lon="0.13781">
        <ele>2299.9103640004</ele>
        <time>2015-05-24T10:11:37Z</time>
      </trkpt>
      <trkpt lat="42.83261" lon="0.13779">
        <ele>2301.3888011753</ele>
        <time>2015-05-24T10:11:42Z</time>
      </trkpt>
      <trkpt lat="42.83261" lon="0.13779">
        <ele>2301.3888011753</ele>
        <time>2015-05-24T10:11:47Z</time>
      </trkpt>
      <trkpt lat="42.83261" lon="0.13774">
        <ele>2301.3888011753</ele>
        <time>2015-05-24T10:11:52Z</time>
      </trkpt>
      <trkpt lat="42.8326" lon="0.13767">
        <ele>2301.3888011753</ele>
        <time>2015-05-24T10:11:57Z</time>
      </trkpt>
      <trkpt lat="42.83259" lon="0.13765">
        <ele>2303.2545035289</ele>
        <time>2015-05-24T10:12:02Z</time>
      </trkpt>
      <trkpt lat="42.8326" lon="0.13765">
        <ele>2303.2545035289</ele>
        <time>2015-05-24T10:12:06Z</time>
      </trkpt>
      <trkpt lat="42.8326" lon="0.13759">
        <ele>2303.2545035289</ele>
        <time>2015-05-24T10:12:22Z</time>
      </trkpt>
      <trkpt lat="42.8326" lon="0.13754">
        <ele>2303.2545035289</ele>
        <time>2015-05-24T10:12:27Z</time>
      </trkpt>
      <trkpt lat="42.83261" lon="0.1375">
        <ele>2305.725261853</ele>
        <time>2015-05-24T10:12:32Z</time>
      </trkpt>
      <trkpt lat="42.83261" lon="0.13749">
        <ele>2305.725261853</ele>
        <time>2015-05-24T10:12:36Z</time>
      </trkpt>
      <trkpt lat="42.83257" lon="0.13742">
        <ele>2305.725261853</ele>
        <time>2015-05-24T10:12:47Z</time>
      </trkpt>
      <trkpt lat="42.83256" lon="0.13743">
        <ele>2305.725261853</ele>
        <time>2015-05-24T10:12:52Z</time>
      </trkpt>
      <trkpt lat="42.83252" lon="0.1375">
        <ele>2308.266121554</ele>
        <time>2015-05-24T10:12:57Z</time>
      </trkpt>
      <trkpt lat="42.83248" lon="0.13749">
        <ele>2308.266121554</ele>
        <time>2015-05-24T10:13:02Z</time>
      </trkpt>
      <trkpt lat="42.83242" lon="0.13752">
        <ele>2310.683796865</ele>
        <time>2015-05-24T10:13:07Z</time>
      </trkpt>
      <trkpt lat="42.83241" lon="0.13755">
        <ele>2310.683796865</ele>
        <time>2015-05-24T10:13:12Z</time>
      </trkpt>
      <trkpt lat="42.83241" lon="0.13758">
        <ele>2310.683796865</ele>
        <time>2015-05-24T10:13:17Z</time>
      </trkpt>
      <trkpt lat="42.83238" lon="0.1376">
        <ele>2310.683796865</ele>
        <time>2015-05-24T10:13:22Z</time>
      </trkpt>
      <trkpt lat="42.83238" lon="0.13763">
        <ele>2313.1309400065</ele>
        <time>2015-05-24T10:13:27Z</time>
      </trkpt>
      <trkpt lat="42.83239" lon="0.13763">
        <ele>2313.1309400065</ele>
        <time>2015-05-24T10:13:32Z</time>
      </trkpt>
      <trkpt lat="42.83243" lon="0.13768">
        <ele>2313.1309400065</ele>
        <time>2015-05-24T10:13:37Z</time>
      </trkpt>
      <trkpt lat="42.83245" lon="0.13769">
        <ele>2315.5326794486</ele>
        <time>2015-05-24T10:13:52Z</time>
      </trkpt>
      <trkpt lat="42.83245" lon="0.13769">
        <ele>2315.5326794486</ele>
        <time>2015-05-24T10:13:56Z</time>
      </trkpt>
      <trkpt lat="42.83243" lon="0.13764">
        <ele>2315.5326794486</ele>
        <time>2015-05-24T10:14:02Z</time>
      </trkpt>
      <trkpt lat="42.83242" lon="0.13761">
        <ele>2315.5326794486</ele>
        <time>2015-05-24T10:14:07Z</time>
      </trkpt>
      <trkpt lat="42.83241" lon="0.13758">
        <ele>2317.7332507088</ele>
        <time>2015-05-24T10:14:11Z</time>
      </trkpt>
      <trkpt lat="42.83241" lon="0.13757">
        <ele>2317.7332507088</ele>
        <time>2015-05-24T10:14:19Z</time>
      </trkpt>
      <trkpt lat="42.8324" lon="0.13752">
        <ele>2317.7332507088</ele>
        <time>2015-05-24T10:14:21Z</time>
      </trkpt>
      <trkpt lat="42.83235" lon="0.13744">
        <ele>2319.9203085161</ele>
        <time>2015-05-24T10:14:27Z</time>
      </trkpt>
      <trkpt lat="42.83235" lon="0.13745">
        <ele>2319.9203085161</ele>
        <time>2015-05-24T10:14:32Z</time>
      </trkpt>
      <trkpt lat="42.83234" lon="0.13745">
        <ele>2319.9203085161</ele>
        <time>2015-05-24T10:14:36Z</time>
      </trkpt>
      <trkpt lat="42.83234" lon="0.13745">
        <ele>2319.9203085161</ele>
        <time>2015-05-24T10:14:47Z</time>
      </trkpt>
      <trkpt lat="42.83228" lon="0.13746">
        <ele>2319.9203085161</ele>
        <time>2015-05-24T10:14:52Z</time>
      </trkpt>
      <trkpt lat="42.83224" lon="0.13746">
        <ele>2322.5991806003</ele>
        <time>2015-05-24T10:14:56Z</time>
      </trkpt>
      <trkpt lat="42.83225" lon="0.13747">
        <ele>2322.5991806003</ele>
        <time>2015-05-24T10:15:01Z</time>
      </trkpt>
      <trkpt lat="42.83223" lon="0.1375">
        <ele>2322.5991806003</ele>
        <time>2015-05-24T10:15:07Z</time>
      </trkpt>
      <trkpt lat="42.8322" lon="0.13753">
        <ele>2322.5991806003</ele>
        <time>2015-05-24T10:15:12Z</time>
      </trkpt>
      <trkpt lat="42.8322" lon="0.13753">
        <ele>2322.5991806003</ele>
        <time>2015-05-24T10:15:17Z</time>
      </trkpt>
      <trkpt lat="42.83221" lon="0.13756">
        <ele>2325.6746170256</ele>
        <time>2015-05-24T10:15:22Z</time>
      </trkpt>
      <trkpt lat="42.83223" lon="0.13756">
        <ele>2325.6746170256</ele>
        <time>2015-05-24T10:15:26Z</time>
      </trkpt>
      <trkpt lat="42.83221" lon="0.13762">
        <ele>2325.6746170256</ele>
        <time>2015-05-24T10:15:32Z</time>
      </trkpt>
      <trkpt lat="42.83222" lon="0.13762">
        <ele>2325.6746170256</ele>
        <time>2015-05-24T10:15:37Z</time>
      </trkpt>
      <trkpt lat="42.83227" lon="0.13763">
        <ele>2328.4663548614</ele>
        <time>2015-05-24T10:15:42Z</time>
      </trkpt>
      <trkpt lat="42.83228" lon="0.13762">
        <ele>2328.4663548614</ele>
        <time>2015-05-24T10:15:47Z</time>
      </trkpt>
      <trkpt lat="42.83228" lon="0.13757">
        <ele>2328.4663548614</ele>
        <time>2015-05-24T10:15:52Z</time>
      </trkpt>
      <trkpt lat="42.83228" lon="0.13753">
        <ele>2328.4663548614</ele>
        <time>2015-05-24T10:15:57Z</time>
      </trkpt>
      <trkpt lat="42.83227" lon="0.1375">
        <ele>2331.166324449</ele>
        <time>2015-05-24T10:16:02Z</time>
      </trkpt>
      <trkpt lat="42.83226" lon="0.13747">
        <ele>2331.166324449</ele>
        <time>2015-05-24T10:16:07Z</time>
      </trkpt>
      <trkpt lat="42.83227" lon="0.13742">
        <ele>2331.166324449</ele>
        <time>2015-05-24T10:16:12Z</time>
      </trkpt>
      <trkpt lat="42.83226" lon="0.13734">
        <ele>2333.722017132</ele>
        <time>2015-05-24T10:16:17Z</time>
      </trkpt>
      <trkpt lat="42.83228" lon="0.13732">
        <ele>2333.722017132</ele>
        <time>2015-05-24T10:16:22Z</time>
      </trkpt>
      <trkpt lat="42.83226" lon="0.1373">
        <ele>2333.722017132</ele>
        <time>2015-05-24T10:16:27Z</time>
      </trkpt>
      <trkpt lat="42.83224" lon="0.13728">
        <ele>2333.722017132</ele>
        <time>2015-05-24T10:16:36Z</time>
      </trkpt>
      <trkpt lat="42.83226" lon="0.13726">
        <ele>2333.722017132</ele>
        <time>2015-05-24T10:16:42Z</time>
      </trkpt>
      <trkpt lat="42.83224" lon="0.13725">
        <ele>2336.5031100302</ele>
        <time>2015-05-24T10:16:47Z</time>
      </trkpt>
      <trkpt lat="42.83222" lon="0.13725">
        <ele>2336.5031100302</ele>
        <time>2015-05-24T10:16:52Z</time>
      </trkpt>
      <trkpt lat="42.83219" lon="0.13725">
        <ele>2336.5031100302</ele>
        <time>2015-05-24T10:16:57Z</time>
      </trkpt>
      <trkpt lat="42.83217" lon="0.13725">
        <ele>2336.5031100302</ele>
        <time>2015-05-24T10:17:02Z</time>
      </trkpt>
      <trkpt lat="42.83216" lon="0.13724">
        <ele>2336.5031100302</ele>
        <time>2015-05-24T10:17:07Z</time>
      </trkpt>
      <trkpt lat="42.83211" lon="0.13724">
        <ele>2339.2462075993</ele>
        <time>2015-05-24T10:17:12Z</time>
      </trkpt>
      <trkpt lat="42.83213" lon="0.13727">
        <ele>2339.2462075993</ele>
        <time>2015-05-24T10:17:16Z</time>
      </trkpt>
      <trkpt lat="42.83209" lon="0.1373">
        <ele>2339.2462075993</ele>
        <time>2015-05-24T10:17:22Z</time>
      </trkpt>
      <trkpt lat="42.8321" lon="0.1373">
        <ele>2339.2462075993</ele>
        <time>2015-05-24T10:17:41Z</time>
      </trkpt>
      <trkpt lat="42.8321" lon="0.13727">
        <ele>2342.2405967968</ele>
        <time>2015-05-24T10:17:47Z</time>
      </trkpt>
      <trkpt lat="42.83209" lon="0.13726">
        <ele>2342.2405967968</ele>
        <time>2015-05-24T10:17:52Z</time>
      </trkpt>
      <trkpt lat="42.8321" lon="0.1372">
        <ele>2342.2405967968</ele>
        <time>2015-05-24T10:17:56Z</time>
      </trkpt>
      <trkpt lat="42.83211" lon="0.13714">
        <ele>2344.9753963208</ele>
        <time>2015-05-24T10:18:02Z</time>
      </trkpt>
      <trkpt lat="42.83213" lon="0.13707">
        <ele>2344.9753963208</ele>
        <time>2015-05-24T10:18:07Z</time>
      </trkpt>
      <trkpt lat="42.83216" lon="0.13701">
        <ele>2347.5400433782</ele>
        <time>2015-05-24T10:18:11Z</time>
      </trkpt>
      <trkpt lat="42.83217" lon="0.13698">
        <ele>2347.5400433782</ele>
        <time>2015-05-24T10:18:16Z</time>
      </trkpt>
      <trkpt lat="42.83217" lon="0.13699">
        <ele>2347.5400433782</ele>
        <time>2015-05-24T10:18:21Z</time>
      </trkpt>
      <trkpt lat="42.8322" lon="0.13698">
        <ele>2347.5400433782</ele>
        <time>2015-05-24T10:18:28Z</time>
      </trkpt>
      <trkpt lat="42.83222" lon="0.13696">
        <ele>2350.3061294356</ele>
        <time>2015-05-24T10:18:31Z</time>
      </trkpt>
      <trkpt lat="42.83222" lon="0.13693">
        <ele>2350.3061294356</ele>
        <time>2015-05-24T10:18:37Z</time>
      </trkpt>
      <trkpt lat="42.83216" lon="0.13693">
        <ele>2350.3061294356</ele>
        <time>2015-05-24T10:18:42Z</time>
      </trkpt>
      <trkpt lat="42.83212" lon="0.13692">
        <ele>2352.6374229304</ele>
        <time>2015-05-24T10:18:47Z</time>
      </trkpt>
      <trkpt lat="42.83208" lon="0.1369">
        <ele>2352.6374229304</ele>
        <time>2015-05-24T10:18:52Z</time>
      </trkpt>
      <trkpt lat="42.83204" lon="0.13687">
        <ele>2352.6374229304</ele>
        <time>2015-05-24T10:18:57Z</time>
      </trkpt>
      <trkpt lat="42.83202" lon="0.13685">
        <ele>2354.6086007013</ele>
        <time>2015-05-24T10:19:02Z</time>
      </trkpt>
      <trkpt lat="42.83201" lon="0.13683">
        <ele>2354.6086007013</ele>
        <time>2015-05-24T10:19:07Z</time>
      </trkpt>
      <trkpt lat="42.83199" lon="0.13684">
        <ele>2354.6086007013</ele>
        <time>2015-05-24T10:19:12Z</time>
      </trkpt>
      <trkpt lat="42.83198" lon="0.13685">
        <ele>2354.6086007013</ele>
        <time>2015-05-24T10:19:17Z</time>
      </trkpt>
      <trkpt lat="42.83198" lon="0.13684">
        <ele>2354.6086007013</ele>
        <time>2015-05-24T10:19:22Z</time>
      </trkpt>
      <trkpt lat="42.83202" lon="0.13684">
        <ele>2354.6086007013</ele>
        <time>2015-05-24T10:19:32Z</time>
      </trkpt>
      <trkpt lat="42.83206" lon="0.13682">
        <ele>2356.8663442369</ele>
        <time>2015-05-24T10:19:37Z</time>
      </trkpt>
      <trkpt lat="42.83206" lon="0.13678">
        <ele>2356.8663442369</ele>
        <time>2015-05-24T10:19:42Z</time>
      </trkpt>
      <trkpt lat="42.83208" lon="0.13676">
        <ele>2356.8663442369</ele>
        <time>2015-05-24T10:19:46Z</time>
      </trkpt>
      <trkpt lat="42.83213" lon="0.13675">
        <ele>2359.0578895697</ele>
        <time>2015-05-24T10:19:52Z</time>
      </trkpt>
      <trkpt lat="42.83215" lon="0.13676">
        <ele>2359.0578895697</ele>
        <time>2015-05-24T10:19:56Z</time>
      </trkpt>
      <trkpt lat="42.83213" lon="0.13676">
        <ele>2359.0578895697</ele>
        <time>2015-05-24T10:20:03Z</time>
      </trkpt>
      <trkpt lat="42.83211" lon="0.13674">
        <ele>2359.0578895697</ele>
        <time>2015-05-24T10:20:06Z</time>
      </trkpt>
      <trkpt lat="42.83216" lon="0.13669">
        <ele>2361.3754051615</ele>
        <time>2015-05-24T10:20:11Z</time>
      </trkpt>
      <trkpt lat="42.83218" lon="0.13667">
        <ele>2361.3754051615</ele>
        <time>2015-05-24T10:20:17Z</time>
      </trkpt>
      <trkpt lat="42.83211" lon="0.13665">
        <ele>2364.3136590891</ele>
        <time>2015-05-24T10:21:02Z</time>
      </trkpt>
      <trkpt lat="42.83209" lon="0.13663">
        <ele>2364.3136590891</ele>
        <time>2015-05-24T10:21:07Z</time>
      </trkpt>
      <trkpt lat="42.83205" lon="0.13664">
        <ele>2364.3136590891</ele>
        <time>2015-05-24T10:21:17Z</time>
      </trkpt>
      <trkpt lat="42.83207" lon="0.13665">
        <ele>2364.3136590891</ele>
        <time>2015-05-24T10:21:22Z</time>
      </trkpt>
      <trkpt lat="42.83207" lon="0.13667">
        <ele>2366.9026233117</ele>
        <time>2015-05-24T10:21:38Z</time>
      </trkpt>
      <trkpt lat="42.83216" lon="0.13669">
        <ele>2366.9026233117</ele>
        <time>2015-05-24T10:21:41Z</time>
      </trkpt>
      <trkpt lat="42.83216" lon="0.1367">
        <ele>2369.0515706209</ele>
        <time>2015-05-24T10:21:45Z</time>
      </trkpt>
      <trkpt lat="42.83214" lon="0.1366">
        <ele>2369.0515706209</ele>
        <time>2015-05-24T10:22:30Z</time>
      </trkpt>
      <trkpt lat="42.83212" lon="0.13663">
        <ele>2371.5135537292</ele>
        <time>2015-05-24T10:22:35Z</time>
      </trkpt>
      <trkpt lat="42.83212" lon="0.13664">
        <ele>2371.5135537292</ele>
        <time>2015-05-24T10:22:40Z</time>
      </trkpt>
      <trkpt lat="42.83218" lon="0.13673">
        <ele>2373.688427603</ele>
        <time>2015-05-24T10:22:50Z</time>
      </trkpt>
      <trkpt lat="42.83223" lon="0.13675">
        <ele>2373.688427603</ele>
        <time>2015-05-24T10:22:55Z</time>
      </trkpt>
      <trkpt lat="42.83223" lon="0.13674">
        <ele>2373.688427603</ele>
        <time>2015-05-24T10:23:00Z</time>
      </trkpt>
      <trkpt lat="42.83213" lon="0.13677">
        <ele>2375.5541816918</ele>
        <time>2015-05-24T10:23:15Z</time>
      </trkpt>
      <trkpt lat="42.83217" lon="0.13665">
        <ele>2377.0624850711</ele>
        <time>2015-05-24T10:23:43Z</time>
      </trkpt>
      <trkpt lat="42.83216" lon="0.13664">
        <ele>2377.0624850711</ele>
        <time>2015-05-24T10:23:46Z</time>
      </trkpt>
      <trkpt lat="42.83211" lon="0.1365">
        <ele>2378.2848636357</ele>
        <time>2015-05-24T10:24:06Z</time>
      </trkpt>
      <trkpt lat="42.8321" lon="0.13647">
        <ele>2378.2848636357</ele>
        <time>2015-05-24T10:24:12Z</time>
      </trkpt>
      <trkpt lat="42.8321" lon="0.13645">
        <ele>2378.2848636357</ele>
        <time>2015-05-24T10:24:17Z</time>
      </trkpt>
      <trkpt lat="42.83209" lon="0.13645">
        <ele>2378.2848636357</ele>
        <time>2015-05-24T10:24:22Z</time>
      </trkpt>
      <trkpt lat="42.83207" lon="0.13642">
        <ele>2378.2848636357</ele>
        <time>2015-05-24T10:24:27Z</time>
      </trkpt>
      <trkpt lat="42.83208" lon="0.13637">
        <ele>2379.2019296617</ele>
        <time>2015-05-24T10:24:32Z</time>
      </trkpt>
      <trkpt lat="42.83209" lon="0.13636">
        <ele>2379.2019296617</ele>
        <time>2015-05-24T10:24:37Z</time>
      </trkpt>
      <trkpt lat="42.83209" lon="0.13636">
        <ele>2379.2019296617</ele>
        <time>2015-05-24T10:24:42Z</time>
      </trkpt>
      <trkpt lat="42.83212" lon="0.13633">
        <ele>2379.2019296617</ele>
        <time>2015-05-24T10:24:47Z</time>
      </trkpt>
      <trkpt lat="42.83213" lon="0.13631">
        <ele>2379.2019296617</ele>
        <time>2015-05-24T10:24:51Z</time>
      </trkpt>
      <trkpt lat="42.83213" lon="0.13629">
        <ele>2379.2019296617</ele>
        <time>2015-05-24T10:24:57Z</time>
      </trkpt>
      <trkpt lat="42.83215" lon="0.13625">
        <ele>2379.940685955</ele>
        <time>2015-05-24T10:25:02Z</time>
      </trkpt>
      <trkpt lat="42.83215" lon="0.13619">
        <ele>2379.940685955</ele>
        <time>2015-05-24T10:25:06Z</time>
      </trkpt>
      <trkpt lat="42.83216" lon="0.13616">
        <ele>2379.940685955</ele>
        <time>2015-05-24T10:25:13Z</time>
      </trkpt>
      <trkpt lat="42.83216" lon="0.13614">
        <ele>2379.940685955</ele>
        <time>2015-05-24T10:25:17Z</time>
      </trkpt>
      <trkpt lat="42.83217" lon="0.13611">
        <ele>2380.4751802887</ele>
        <time>2015-05-24T10:25:21Z</time>
      </trkpt>
      <trkpt lat="42.83217" lon="0.13609">
        <ele>2380.4751802887</ele>
        <time>2015-05-24T10:25:28Z</time>
      </trkpt>
      <trkpt lat="42.83216" lon="0.13606">
        <ele>2380.4751802887</ele>
        <time>2015-05-24T10:25:32Z</time>
      </trkpt>
      <trkpt lat="42.83216" lon="0.13604">
        <ele>2380.4751802887</ele>
        <time>2015-05-24T10:25:37Z</time>
      </trkpt>
      <trkpt lat="42.83216" lon="0.13603">
        <ele>2380.4751802887</ele>
        <time>2015-05-24T10:25:42Z</time>
      </trkpt>
      <trkpt lat="42.83215" lon="0.13596">
        <ele>2380.8827938799</ele>
        <time>2015-05-24T10:25:57Z</time>
      </trkpt>
      <trkpt lat="42.83215" lon="0.13595">
        <ele>2380.8827938799</ele>
        <time>2015-05-24T10:26:02Z</time>
      </trkpt>
      <trkpt lat="42.83219" lon="0.13591">
        <ele>2380.8827938799</ele>
        <time>2015-05-24T10:26:07Z</time>
      </trkpt>
      <trkpt lat="42.83219" lon="0.13587">
        <ele>2380.8827938799</ele>
        <time>2015-05-24T10:26:12Z</time>
      </trkpt>
      <trkpt lat="42.83219" lon="0.13582">
        <ele>2381.1634866796</ele>
        <time>2015-05-24T10:26:16Z</time>
      </trkpt>
      <trkpt lat="42.8322" lon="0.13585">
        <ele>2381.1634866796</ele>
        <time>2015-05-24T10:26:22Z</time>
      </trkpt>
      <trkpt lat="42.83211" lon="0.13579">
        <ele>2381.6633974002</ele>
        <time>2015-05-24T10:27:02Z</time>
      </trkpt>
      <trkpt lat="42.8321" lon="0.13579">
        <ele>2381.6633974002</ele>
        <time>2015-05-24T10:27:07Z</time>
      </trkpt>
      <trkpt lat="42.83201" lon="0.13579">
        <ele>2382.0684707118</ele>
        <time>2015-05-24T10:27:22Z</time>
      </trkpt>
      <trkpt lat="42.83201" lon="0.13577">
        <ele>2382.0684707118</ele>
        <time>2015-05-24T10:27:27Z</time>
      </trkpt>
      <trkpt lat="42.832" lon="0.13578">
        <ele>2382.0684707118</ele>
        <time>2015-05-24T10:27:32Z</time>
      </trkpt>
      <trkpt lat="42.83203" lon="0.13579">
        <ele>2382.0684707118</ele>
        <time>2015-05-24T10:28:07Z</time>
      </trkpt>
      <trkpt lat="42.83208" lon="0.13578">
        <ele>2382.6067200472</ele>
        <time>2015-05-24T10:28:12Z</time>
      </trkpt>
      <trkpt lat="42.83207" lon="0.13577">
        <ele>2382.6067200472</ele>
        <time>2015-05-24T10:28:17Z</time>
      </trkpt>
      <trkpt lat="42.83207" lon="0.13577">
        <ele>2382.6067200472</ele>
        <time>2015-05-24T10:28:21Z</time>
      </trkpt>
      <trkpt lat="42.83206" lon="0.13574">
        <ele>2382.6067200472</ele>
        <time>2015-05-24T10:28:27Z</time>
      </trkpt>
      <trkpt lat="42.83207" lon="0.13575">
        <ele>2382.6067200472</ele>
        <time>2015-05-24T10:28:31Z</time>
      </trkpt>
      <trkpt lat="42.83208" lon="0.13565">
        <ele>2383.2439667067</ele>
        <time>2015-05-24T10:28:57Z</time>
      </trkpt>
      <trkpt lat="42.83209" lon="0.13558">
        <ele>2383.2439667067</ele>
        <time>2015-05-24T10:29:02Z</time>
      </trkpt>
      <trkpt lat="42.8321" lon="0.13555">
        <ele>2383.2439667067</ele>
        <time>2015-05-24T10:29:07Z</time>
      </trkpt>
      <trkpt lat="42.83209" lon="0.13554">
        <ele>2383.7752450452</ele>
        <time>2015-05-24T10:29:12Z</time>
      </trkpt>
      <trkpt lat="42.8321" lon="0.13553">
        <ele>2383.7752450452</ele>
        <time>2015-05-24T10:29:17Z</time>
      </trkpt>
      <trkpt lat="42.83212" lon="0.13547">
        <ele>2383.7752450452</ele>
        <time>2015-05-24T10:29:32Z</time>
      </trkpt>
      <trkpt lat="42.83212" lon="0.13544">
        <ele>2383.7752450452</ele>
        <time>2015-05-24T10:29:36Z</time>
      </trkpt>
      <trkpt lat="42.83212" lon="0.13541">
        <ele>2384.4864184942</ele>
        <time>2015-05-24T10:29:41Z</time>
      </trkpt>
      <trkpt lat="42.83211" lon="0.13536">
        <ele>2384.4864184942</ele>
        <time>2015-05-24T10:29:46Z</time>
      </trkpt>
      <trkpt lat="42.83211" lon="0.1353">
        <ele>2384.4864184942</ele>
        <time>2015-05-24T10:29:52Z</time>
      </trkpt>
      <trkpt lat="42.83211" lon="0.13528">
        <ele>2385.1229475655</ele>
        <time>2015-05-24T10:29:56Z</time>
      </trkpt>
      <trkpt lat="42.83211" lon="0.13525">
        <ele>2385.1229475655</ele>
        <time>2015-05-24T10:30:02Z</time>
      </trkpt>
      <trkpt lat="42.83211" lon="0.13521">
        <ele>2385.1229475655</ele>
        <time>2015-05-24T10:30:07Z</time>
      </trkpt>
      <trkpt lat="42.8321" lon="0.13516">
        <ele>2385.7084988153</ele>
        <time>2015-05-24T10:30:11Z</time>
      </trkpt>
      <trkpt lat="42.83209" lon="0.13515">
        <ele>2385.7084988153</ele>
        <time>2015-05-24T10:30:18Z</time>
      </trkpt>
      <trkpt lat="42.8321" lon="0.13515">
        <ele>2385.7084988153</ele>
        <time>2015-05-24T10:30:21Z</time>
      </trkpt>
      <trkpt lat="42.83214" lon="0.13512">
        <ele>2385.7084988153</ele>
        <time>2015-05-24T10:30:28Z</time>
      </trkpt>
      <trkpt lat="42.83215" lon="0.13507">
        <ele>2386.2506260236</ele>
        <time>2015-05-24T10:30:32Z</time>
      </trkpt>
      <trkpt lat="42.83216" lon="0.13503">
        <ele>2386.2506260236</ele>
        <time>2015-05-24T10:30:37Z</time>
      </trkpt>
      <trkpt lat="42.83216" lon="0.135">
        <ele>2386.2506260236</ele>
        <time>2015-05-24T10:30:42Z</time>
      </trkpt>
      <trkpt lat="42.83216" lon="0.13497">
        <ele>2386.2506260236</ele>
        <time>2015-05-24T10:30:46Z</time>
      </trkpt>
      <trkpt lat="42.83216" lon="0.13496">
        <ele>2386.2506260236</ele>
        <time>2015-05-24T10:30:52Z</time>
      </trkpt>
      <trkpt lat="42.83216" lon="0.13496">
        <ele>2386.2506260236</ele>
        <time>2015-05-24T10:30:57Z</time>
      </trkpt>
      <trkpt lat="42.83222" lon="0.13488">
        <ele>2386.9436853453</ele>
        <time>2015-05-24T10:31:22Z</time>
      </trkpt>
      <trkpt lat="42.83224" lon="0.13485">
        <ele>2386.9436853453</ele>
        <time>2015-05-24T10:31:26Z</time>
      </trkpt>
      <trkpt lat="42.83228" lon="0.13482">
        <ele>2386.9436853453</ele>
        <time>2015-05-24T10:31:32Z</time>
      </trkpt>
      <trkpt lat="42.83229" lon="0.13481">
        <ele>2387.6213535229</ele>
        <time>2015-05-24T10:31:37Z</time>
      </trkpt>
      <trkpt lat="42.83232" lon="0.13478">
        <ele>2387.6213535229</ele>
        <time>2015-05-24T10:31:42Z</time>
      </trkpt>
      <trkpt lat="42.83234" lon="0.13476">
        <ele>2387.6213535229</ele>
        <time>2015-05-24T10:31:49Z</time>
      </trkpt>
      <trkpt lat="42.83235" lon="0.13474">
        <ele>2387.6213535229</ele>
        <time>2015-05-24T10:31:51Z</time>
      </trkpt>
      <trkpt lat="42.83236" lon="0.13472">
        <ele>2388.2591549174</ele>
        <time>2015-05-24T10:31:57Z</time>
      </trkpt>
      <trkpt lat="42.83236" lon="0.13466">
        <ele>2388.2591549174</ele>
        <time>2015-05-24T10:32:02Z</time>
      </trkpt>
      <trkpt lat="42.83236" lon="0.13458">
        <ele>2388.8632308238</ele>
        <time>2015-05-24T10:32:07Z</time>
      </trkpt>
      <trkpt lat="42.83237" lon="0.13454">
        <ele>2388.8632308238</ele>
        <time>2015-05-24T10:32:12Z</time>
      </trkpt>
      <trkpt lat="42.83235" lon="0.13442">
        <ele>2389.4248388058</ele>
        <time>2015-05-24T10:32:17Z</time>
      </trkpt>
      <trkpt lat="42.83234" lon="0.13437">
        <ele>2389.4248388058</ele>
        <time>2015-05-24T10:32:21Z</time>
      </trkpt>
      <trkpt lat="42.83234" lon="0.13436">
        <ele>2389.4248388058</ele>
        <time>2015-05-24T10:32:27Z</time>
      </trkpt>
      <trkpt lat="42.83232" lon="0.13438">
        <ele>2389.4248388058</ele>
        <time>2015-05-24T10:32:32Z</time>
      </trkpt>
      <trkpt lat="42.83215" lon="0.13458">
        <ele>2390.3538040609</ele>
        <time>2015-05-24T10:32:57Z</time>
      </trkpt>
      <trkpt lat="42.83208" lon="0.13454">
        <ele>2390.3538040609</ele>
        <time>2015-05-24T10:34:08Z</time>
      </trkpt>
      <trkpt lat="42.83205" lon="0.13454">
        <ele>2391.7837118659</ele>
        <time>2015-05-24T10:34:11Z</time>
      </trkpt>
      <trkpt lat="42.83201" lon="0.13455">
        <ele>2391.7837118659</ele>
        <time>2015-05-24T10:34:17Z</time>
      </trkpt>
      <trkpt lat="42.83198" lon="0.13455">
        <ele>2391.7837118659</ele>
        <time>2015-05-24T10:34:22Z</time>
      </trkpt>
      <trkpt lat="42.83198" lon="0.13454">
        <ele>2391.7837118659</ele>
        <time>2015-05-24T10:34:27Z</time>
      </trkpt>
      <trkpt lat="42.83194" lon="0.13458">
        <ele>2393.1306721248</ele>
        <time>2015-05-24T10:34:32Z</time>
      </trkpt>
      <trkpt lat="42.83192" lon="0.1346">
        <ele>2393.1306721248</ele>
        <time>2015-05-24T10:34:36Z</time>
      </trkpt>
      <trkpt lat="42.8319" lon="0.13458">
        <ele>2393.1306721248</ele>
        <time>2015-05-24T10:34:43Z</time>
      </trkpt>
      <trkpt lat="42.83189" lon="0.13459">
        <ele>2393.1306721248</ele>
        <time>2015-05-24T10:34:47Z</time>
      </trkpt>
      <trkpt lat="42.83185" lon="0.13463">
        <ele>2394.4734902999</ele>
        <time>2015-05-24T10:34:52Z</time>
      </trkpt>
      <trkpt lat="42.83187" lon="0.13464">
        <ele>2394.4734902999</ele>
        <time>2015-05-24T10:34:57Z</time>
      </trkpt>
      <trkpt lat="42.83181" lon="0.13479">
        <ele>2395.8130371005</ele>
        <time>2015-05-24T10:35:07Z</time>
      </trkpt>
      <trkpt lat="42.83184" lon="0.13483">
        <ele>2395.8130371005</ele>
        <time>2015-05-24T10:35:12Z</time>
      </trkpt>
      <trkpt lat="42.83184" lon="0.13481">
        <ele>2395.8130371005</ele>
        <time>2015-05-24T10:35:17Z</time>
      </trkpt>
      <trkpt lat="42.83185" lon="0.1348">
        <ele>2395.8130371005</ele>
        <time>2015-05-24T10:35:22Z</time>
      </trkpt>
      <trkpt lat="42.83187" lon="0.13473">
        <ele>2397.2364997382</ele>
        <time>2015-05-24T10:35:32Z</time>
      </trkpt>
      <trkpt lat="42.83187" lon="0.13464">
        <ele>2397.2364997382</ele>
        <time>2015-05-24T10:35:37Z</time>
      </trkpt>
      <trkpt lat="42.83188" lon="0.13462">
        <ele>2397.2364997382</ele>
        <time>2015-05-24T10:35:42Z</time>
      </trkpt>
      <trkpt lat="42.8319" lon="0.1346">
        <ele>2398.5649355465</ele>
        <time>2015-05-24T10:35:46Z</time>
      </trkpt>
      <trkpt lat="42.83193" lon="0.13457">
        <ele>2398.5649355465</ele>
        <time>2015-05-24T10:35:53Z</time>
      </trkpt>
      <trkpt lat="42.83193" lon="0.13454">
        <ele>2398.5649355465</ele>
        <time>2015-05-24T10:35:57Z</time>
      </trkpt>
      <trkpt lat="42.83193" lon="0.13451">
        <ele>2398.5649355465</ele>
        <time>2015-05-24T10:36:02Z</time>
      </trkpt>
      <trkpt lat="42.83191" lon="0.13446">
        <ele>2399.8921299564</ele>
        <time>2015-05-24T10:36:07Z</time>
      </trkpt>
      <trkpt lat="42.83192" lon="0.13447">
        <ele>2399.8921299564</ele>
        <time>2015-05-24T10:36:12Z</time>
      </trkpt>
      <trkpt lat="42.83192" lon="0.13448">
        <ele>2399.8921299564</ele>
        <time>2015-05-24T10:36:17Z</time>
      </trkpt>
      <trkpt lat="42.83196" lon="0.13439">
        <ele>2401.4346048003</ele>
        <time>2015-05-24T10:36:32Z</time>
      </trkpt>
      <trkpt lat="42.83197" lon="0.13434">
        <ele>2401.4346048003</ele>
        <time>2015-05-24T10:36:37Z</time>
      </trkpt>
      <trkpt lat="42.83196" lon="0.13431">
        <ele>2401.4346048003</ele>
        <time>2015-05-24T10:36:41Z</time>
      </trkpt>
      <trkpt lat="42.83196" lon="0.13428">
        <ele>2401.4346048003</ele>
        <time>2015-05-24T10:36:47Z</time>
      </trkpt>
      <trkpt lat="42.83194" lon="0.13423">
        <ele>2402.9311444561</ele>
        <time>2015-05-24T10:36:52Z</time>
      </trkpt>
      <trkpt lat="42.83195" lon="0.13419">
        <ele>2402.9311444561</ele>
        <time>2015-05-24T10:36:56Z</time>
      </trkpt>
      <trkpt lat="42.83195" lon="0.13417">
        <ele>2402.9311444561</ele>
        <time>2015-05-24T10:37:02Z</time>
      </trkpt>
      <trkpt lat="42.83195" lon="0.13415">
        <ele>2402.9311444561</ele>
        <time>2015-05-24T10:37:06Z</time>
      </trkpt>
      <trkpt lat="42.83194" lon="0.13412">
        <ele>2402.9311444561</ele>
        <time>2015-05-24T10:37:12Z</time>
      </trkpt>
      <trkpt lat="42.83199" lon="0.13404">
        <ele>2404.5577077076</ele>
        <time>2015-05-24T10:37:22Z</time>
      </trkpt>
      <trkpt lat="42.832" lon="0.13399">
        <ele>2404.5577077076</ele>
        <time>2015-05-24T10:37:27Z</time>
      </trkpt>
      <trkpt lat="42.83198" lon="0.13397">
        <ele>2404.5577077076</ele>
        <time>2015-05-24T10:37:32Z</time>
      </trkpt>
      <trkpt lat="42.83198" lon="0.13396">
        <ele>2404.5577077076</ele>
        <time>2015-05-24T10:37:37Z</time>
      </trkpt>
      <trkpt lat="42.83194" lon="0.13387">
        <ele>2406.1598584265</ele>
        <time>2015-05-24T10:37:47Z</time>
      </trkpt>
      <trkpt lat="42.83192" lon="0.13383">
        <ele>2406.1598584265</ele>
        <time>2015-05-24T10:37:52Z</time>
      </trkpt>
      <trkpt lat="42.83189" lon="0.13382">
        <ele>2406.1598584265</ele>
        <time>2015-05-24T10:37:57Z</time>
      </trkpt>
      <trkpt lat="42.83185" lon="0.13383">
        <ele>2407.7098095609</ele>
        <time>2015-05-24T10:38:01Z</time>
      </trkpt>
      <trkpt lat="42.83183" lon="0.1338">
        <ele>2407.7098095609</ele>
        <time>2015-05-24T10:38:07Z</time>
      </trkpt>
      <trkpt lat="42.8318" lon="0.13375">
        <ele>2407.7098095609</ele>
        <time>2015-05-24T10:38:12Z</time>
      </trkpt>
      <trkpt lat="42.83181" lon="0.1337">
        <ele>2409.3260259849</ele>
        <time>2015-05-24T10:38:17Z</time>
      </trkpt>
      <trkpt lat="42.83181" lon="0.13368">
        <ele>2409.3260259849</ele>
        <time>2015-05-24T10:38:22Z</time>
      </trkpt>
      <trkpt lat="42.8318" lon="0.1337">
        <ele>2409.3260259849</ele>
        <time>2015-05-24T10:38:27Z</time>
      </trkpt>
      <trkpt lat="42.83191" lon="0.13372">
        <ele>2411.3630331823</ele>
        <time>2015-05-24T10:38:42Z</time>
      </trkpt>
      <trkpt lat="42.83192" lon="0.13372">
        <ele>2411.3630331823</ele>
        <time>2015-05-24T10:38:47Z</time>
      </trkpt>
      <trkpt lat="42.83195" lon="0.13365">
        <ele>2411.3630331823</ele>
        <time>2015-05-24T10:39:02Z</time>
      </trkpt>
      <trkpt lat="42.83195" lon="0.13365">
        <ele>2411.3630331823</ele>
        <time>2015-05-24T10:39:07Z</time>
      </trkpt>
      <trkpt lat="42.83196" lon="0.13377">
        <ele>2414.5227907711</ele>
        <time>2015-05-24T10:39:47Z</time>
      </trkpt>
      <trkpt lat="42.83196" lon="0.13377">
        <ele>2414.5227907711</ele>
        <time>2015-05-24T10:39:51Z</time>
      </trkpt>
      <trkpt lat="42.8319" lon="0.13366">
        <ele>2417.7087761902</ele>
        <time>2015-05-24T10:40:38Z</time>
      </trkpt>
      <trkpt lat="42.8319" lon="0.13367">
        <ele>2417.7087761902</ele>
        <time>2015-05-24T10:40:42Z</time>
      </trkpt>
      <trkpt lat="42.83186" lon="0.1337">
        <ele>2417.7087761902</ele>
        <time>2015-05-24T10:41:22Z</time>
      </trkpt>
      <trkpt lat="42.83185" lon="0.1337">
        <ele>2417.7087761902</ele>
        <time>2015-05-24T10:41:27Z</time>
      </trkpt>
      <trkpt lat="42.83185" lon="0.13369">
        <ele>2417.7087761902</ele>
        <time>2015-05-24T10:41:32Z</time>
      </trkpt>
      <trkpt lat="42.83184" lon="0.13369">
        <ele>2417.7087761902</ele>
        <time>2015-05-24T10:41:37Z</time>
      </trkpt>
      <trkpt lat="42.83188" lon="0.13373">
        <ele>2422.3115963104</ele>
        <time>2015-05-24T10:41:52Z</time>
      </trkpt>
      <trkpt lat="42.83189" lon="0.13376">
        <ele>2422.3115963104</ele>
        <time>2015-05-24T10:41:57Z</time>
      </trkpt>
      <trkpt lat="42.83193" lon="0.13378">
        <ele>2422.3115963104</ele>
        <time>2015-05-24T10:42:57Z</time>
      </trkpt>
      <trkpt lat="42.83193" lon="0.13377">
        <ele>2422.3115963104</ele>
        <time>2015-05-24T10:43:02Z</time>
      </trkpt>
      <trkpt lat="42.8319" lon="0.1337">
        <ele>2428.102578294</ele>
        <time>2015-05-24T10:43:07Z</time>
      </trkpt>
      <trkpt lat="42.83192" lon="0.13372">
        <ele>2428.102578294</ele>
        <time>2015-05-24T10:43:11Z</time>
      </trkpt>
      <trkpt lat="42.83191" lon="0.13372">
        <ele>2428.102578294</ele>
        <time>2015-05-24T10:43:16Z</time>
      </trkpt>
      <trkpt lat="42.83192" lon="0.1337">
        <ele>2428.102578294</ele>
        <time>2015-05-24T10:43:21Z</time>
      </trkpt>
      <trkpt lat="42.83202" lon="0.13366">
        <ele>2434.7656801879</ele>
        <time>2015-05-24T10:44:15Z</time>
      </trkpt>
      <trkpt lat="42.83203" lon="0.13366">
        <ele>2434.7656801879</ele>
        <time>2015-05-24T10:44:20Z</time>
      </trkpt>
      <trkpt lat="42.83198" lon="0.13379">
        <ele>2440.9681033222</ele>
        <time>2015-05-24T10:44:48Z</time>
      </trkpt>
      <trkpt lat="42.83198" lon="0.13379">
        <ele>2440.9681033222</ele>
        <time>2015-05-24T10:44:52Z</time>
      </trkpt>
      <trkpt lat="42.83199" lon="0.13368">
        <ele>2440.9681033222</ele>
        <time>2015-05-24T10:46:32Z</time>
      </trkpt>
      <trkpt lat="42.83198" lon="0.13365">
        <ele>2447.2489246337</ele>
        <time>2015-05-24T10:46:37Z</time>
      </trkpt>
      <trkpt lat="42.83199" lon="0.13362">
        <ele>2447.2489246337</ele>
        <time>2015-05-24T10:46:42Z</time>
      </trkpt>
      <trkpt lat="42.83199" lon="0.13353">
        <ele>2452.9114181457</ele>
        <time>2015-05-24T10:46:47Z</time>
      </trkpt>
      <trkpt lat="42.83201" lon="0.13353">
        <ele>2452.9114181457</ele>
        <time>2015-05-24T10:46:52Z</time>
      </trkpt>
      <trkpt lat="42.83202" lon="0.13353">
        <ele>2452.9114181457</ele>
        <time>2015-05-24T10:46:57Z</time>
      </trkpt>
      <trkpt lat="42.83203" lon="0.1335">
        <ele>2452.9114181457</ele>
        <time>2015-05-24T10:47:02Z</time>
      </trkpt>
      <trkpt lat="42.83201" lon="0.13347">
        <ele>2452.9114181457</ele>
        <time>2015-05-24T10:47:07Z</time>
      </trkpt>
      <trkpt lat="42.83202" lon="0.13346">
        <ele>2458.6377666454</ele>
        <time>2015-05-24T10:47:12Z</time>
      </trkpt>
      <trkpt lat="42.83203" lon="0.13341">
        <ele>2458.6377666454</ele>
        <time>2015-05-24T10:47:17Z</time>
      </trkpt>
      <trkpt lat="42.83204" lon="0.13337">
        <ele>2458.6377666454</ele>
        <time>2015-05-24T10:47:22Z</time>
      </trkpt>
      <trkpt lat="42.83204" lon="0.13331">
        <ele>2464.0224540314</ele>
        <time>2015-05-24T10:47:27Z</time>
      </trkpt>
      <trkpt lat="42.83206" lon="0.13324">
        <ele>2464.0224540314</ele>
        <time>2015-05-24T10:47:32Z</time>
      </trkpt>
      <trkpt lat="42.83207" lon="0.13317">
        <ele>2468.8782694984</ele>
        <time>2015-05-24T10:47:37Z</time>
      </trkpt>
      <trkpt lat="42.83209" lon="0.1331">
        <ele>2468.8782694984</ele>
        <time>2015-05-24T10:47:42Z</time>
      </trkpt>
      <trkpt lat="42.83208" lon="0.13307">
        <ele>2468.8782694984</ele>
        <time>2015-05-24T10:47:47Z</time>
      </trkpt>
      <trkpt lat="42.83208" lon="0.13301">
        <ele>2473.2496326028</ele>
        <time>2015-05-24T10:47:52Z</time>
      </trkpt>
      <trkpt lat="42.83209" lon="0.13296">
        <ele>2473.2496326028</ele>
        <time>2015-05-24T10:47:57Z</time>
      </trkpt>
      <trkpt lat="42.83211" lon="0.13289">
        <ele>2477.1072400345</ele>
        <time>2015-05-24T10:48:02Z</time>
      </trkpt>
      <trkpt lat="42.83213" lon="0.13286">
        <ele>2477.1072400345</ele>
        <time>2015-05-24T10:48:07Z</time>
      </trkpt>
      <trkpt lat="42.83216" lon="0.13284">
        <ele>2477.1072400345</ele>
        <time>2015-05-24T10:48:12Z</time>
      </trkpt>
      <trkpt lat="42.83217" lon="0.13281">
        <ele>2480.5120896389</ele>
        <time>2015-05-24T10:48:17Z</time>
      </trkpt>
      <trkpt lat="42.8322" lon="0.13279">
        <ele>2480.5120896389</ele>
        <time>2015-05-24T10:48:21Z</time>
      </trkpt>
      <trkpt lat="42.83224" lon="0.13275">
        <ele>2480.5120896389</ele>
        <time>2015-05-24T10:48:26Z</time>
      </trkpt>
      <trkpt lat="42.83225" lon="0.13275">
        <ele>2483.5222078905</ele>
        <time>2015-05-24T10:48:32Z</time>
      </trkpt>
      <trkpt lat="42.83227" lon="0.13274">
        <ele>2483.5222078905</ele>
        <time>2015-05-24T10:48:37Z</time>
      </trkpt>
      <trkpt lat="42.83228" lon="0.13274">
        <ele>2483.5222078905</ele>
        <time>2015-05-24T10:48:42Z</time>
      </trkpt>
      <trkpt lat="42.83229" lon="0.13272">
        <ele>2483.5222078905</ele>
        <time>2015-05-24T10:48:47Z</time>
      </trkpt>
      <trkpt lat="42.83229" lon="0.1327">
        <ele>2483.5222078905</ele>
        <time>2015-05-24T10:48:51Z</time>
      </trkpt>
      <trkpt lat="42.83228" lon="0.13263">
        <ele>2486.1350552383</ele>
        <time>2015-05-24T10:48:56Z</time>
      </trkpt>
      <trkpt lat="42.83228" lon="0.13256">
        <ele>2486.1350552383</ele>
        <time>2015-05-24T10:49:02Z</time>
      </trkpt>
      <trkpt lat="42.83226" lon="0.13252">
        <ele>2486.1350552383</ele>
        <time>2015-05-24T10:49:07Z</time>
      </trkpt>
      <trkpt lat="42.83225" lon="0.13248">
        <ele>2488.364028415</ele>
        <time>2015-05-24T10:49:12Z</time>
      </trkpt>
      <trkpt lat="42.83226" lon="0.13243">
        <ele>2488.364028415</ele>
        <time>2015-05-24T10:49:17Z</time>
      </trkpt>
      <trkpt lat="42.83225" lon="0.13238">
        <ele>2488.364028415</ele>
        <time>2015-05-24T10:49:22Z</time>
      </trkpt>
      <trkpt lat="42.83226" lon="0.13236">
        <ele>2490.2660616068</ele>
        <time>2015-05-24T10:49:27Z</time>
      </trkpt>
      <trkpt lat="42.83227" lon="0.13232">
        <ele>2490.2660616068</ele>
        <time>2015-05-24T10:49:32Z</time>
      </trkpt>
      <trkpt lat="42.83228" lon="0.13231">
        <ele>2490.2660616068</ele>
        <time>2015-05-24T10:49:36Z</time>
      </trkpt>
      <trkpt lat="42.83229" lon="0.13227">
        <ele>2490.2660616068</ele>
        <time>2015-05-24T10:49:41Z</time>
      </trkpt>
      <trkpt lat="42.83229" lon="0.13225">
        <ele>2490.2660616068</ele>
        <time>2015-05-24T10:49:46Z</time>
      </trkpt>
      <trkpt lat="42.83228" lon="0.13227">
        <ele>2491.952664208</ele>
        <time>2015-05-24T10:49:52Z</time>
      </trkpt>
      <trkpt lat="42.83228" lon="0.1321">
        <ele>2493.5279371829</ele>
        <time>2015-05-24T10:50:32Z</time>
      </trkpt>
      <trkpt lat="42.83228" lon="0.13201">
        <ele>2493.5279371829</ele>
        <time>2015-05-24T10:50:37Z</time>
      </trkpt>
      <trkpt lat="42.83231" lon="0.13197">
        <ele>2494.8870509581</ele>
        <time>2015-05-24T10:50:42Z</time>
      </trkpt>
      <trkpt lat="42.83233" lon="0.1319">
        <ele>2494.8870509581</ele>
        <time>2015-05-24T10:50:47Z</time>
      </trkpt>
      <trkpt lat="42.83233" lon="0.13187">
        <ele>2494.8870509581</ele>
        <time>2015-05-24T10:50:52Z</time>
      </trkpt>
      <trkpt lat="42.83234" lon="0.13185">
        <ele>2496.0345014239</ele>
        <time>2015-05-24T10:50:57Z</time>
      </trkpt>
      <trkpt lat="42.83237" lon="0.13181">
        <ele>2496.0345014239</ele>
        <time>2015-05-24T10:51:01Z</time>
      </trkpt>
      <trkpt lat="42.83238" lon="0.13179">
        <ele>2496.0345014239</ele>
        <time>2015-05-24T10:51:07Z</time>
      </trkpt>
      <trkpt lat="42.83238" lon="0.13181">
        <ele>2496.0345014239</ele>
        <time>2015-05-24T10:51:11Z</time>
      </trkpt>
      <trkpt lat="42.83243" lon="0.13179">
        <ele>2497.0904576327</ele>
        <time>2015-05-24T10:51:32Z</time>
      </trkpt>
      <trkpt lat="42.83243" lon="0.13175">
        <ele>2497.0904576327</ele>
        <time>2015-05-24T10:51:37Z</time>
      </trkpt>
      <trkpt lat="42.83245" lon="0.1317">
        <ele>2497.0904576327</ele>
        <time>2015-05-24T10:51:42Z</time>
      </trkpt>
      <trkpt lat="42.83248" lon="0.13167">
        <ele>2497.8928069908</ele>
        <time>2015-05-24T10:51:47Z</time>
      </trkpt>
      <trkpt lat="42.83249" lon="0.13165">
        <ele>2497.8928069908</ele>
        <time>2015-05-24T10:51:51Z</time>
      </trkpt>
      <trkpt lat="42.8325" lon="0.13163">
        <ele>2497.8928069908</ele>
        <time>2015-05-24T10:51:57Z</time>
      </trkpt>
      <trkpt lat="42.83248" lon="0.13158">
        <ele>2497.8928069908</ele>
        <time>2015-05-24T10:52:17Z</time>
      </trkpt>
      <trkpt lat="42.83249" lon="0.13153">
        <ele>2498.5227148279</ele>
        <time>2015-05-24T10:52:21Z</time>
      </trkpt>
      <trkpt lat="42.83253" lon="0.1315">
        <ele>2498.5227148279</ele>
        <time>2015-05-24T10:52:28Z</time>
      </trkpt>
      <trkpt lat="42.83255" lon="0.13147">
        <ele>2498.5227148279</ele>
        <time>2015-05-24T10:52:31Z</time>
      </trkpt>
      <trkpt lat="42.83257" lon="0.13144">
        <ele>2498.9550491594</ele>
        <time>2015-05-24T10:52:37Z</time>
      </trkpt>
      <trkpt lat="42.8326" lon="0.13141">
        <ele>2498.9550491594</ele>
        <time>2015-05-24T10:52:42Z</time>
      </trkpt>
      <trkpt lat="42.83262" lon="0.13138">
        <ele>2498.9550491594</ele>
        <time>2015-05-24T10:52:46Z</time>
      </trkpt>
      <trkpt lat="42.83265" lon="0.13134">
        <ele>2499.3400502299</ele>
        <time>2015-05-24T10:52:52Z</time>
      </trkpt>
      <trkpt lat="42.83266" lon="0.13133">
        <ele>2499.3400502299</ele>
        <time>2015-05-24T10:52:57Z</time>
      </trkpt>
      <trkpt lat="42.83267" lon="0.1313">
        <ele>2499.3400502299</ele>
        <time>2015-05-24T10:53:01Z</time>
      </trkpt>
      <trkpt lat="42.83272" lon="0.13126">
        <ele>2499.6441389436</ele>
        <time>2015-05-24T10:53:08Z</time>
      </trkpt>
      <trkpt lat="42.83274" lon="0.13122">
        <ele>2499.6441389436</ele>
        <time>2015-05-24T10:53:11Z</time>
      </trkpt>
      <trkpt lat="42.83274" lon="0.13123">
        <ele>2499.6441389436</ele>
        <time>2015-05-24T10:53:17Z</time>
      </trkpt>
      <trkpt lat="42.83277" lon="0.13117">
        <ele>2499.9805390763</ele>
        <time>2015-05-24T10:53:41Z</time>
      </trkpt>
      <trkpt lat="42.83281" lon="0.13113">
        <ele>2499.9805390763</ele>
        <time>2015-05-24T10:53:47Z</time>
      </trkpt>
      <trkpt lat="42.83283" lon="0.13109">
        <ele>2499.9805390763</ele>
        <time>2015-05-24T10:53:52Z</time>
      </trkpt>
      <trkpt lat="42.83286" lon="0.13107">
        <ele>2500.2811121767</ele>
        <time>2015-05-24T10:53:57Z</time>
      </trkpt>
      <trkpt lat="42.83289" lon="0.13105">
        <ele>2500.2811121767</ele>
        <time>2015-05-24T10:54:02Z</time>
      </trkpt>
      <trkpt lat="42.83291" lon="0.13103">
        <ele>2500.2811121767</ele>
        <time>2015-05-24T10:54:06Z</time>
      </trkpt>
      <trkpt lat="42.83296" lon="0.13099">
        <ele>2500.5980762849</ele>
        <time>2015-05-24T10:54:12Z</time>
      </trkpt>
      <trkpt lat="42.83299" lon="0.13098">
        <ele>2500.5980762849</ele>
        <time>2015-05-24T10:54:17Z</time>
      </trkpt>
      <trkpt lat="42.83301" lon="0.13095">
        <ele>2500.5980762849</ele>
        <time>2015-05-24T10:54:22Z</time>
      </trkpt>
      <trkpt lat="42.83303" lon="0.13094">
        <ele>2500.5980762849</ele>
        <time>2015-05-24T10:54:27Z</time>
      </trkpt>
      <trkpt lat="42.83306" lon="0.13092">
        <ele>2500.9797131326</ele>
        <time>2015-05-24T10:54:32Z</time>
      </trkpt>
      <trkpt lat="42.83307" lon="0.13089">
        <ele>2500.9797131326</ele>
        <time>2015-05-24T10:54:37Z</time>
      </trkpt>
      <trkpt lat="42.83308" lon="0.13089">
        <ele>2500.9797131326</ele>
        <time>2015-05-24T10:54:42Z</time>
      </trkpt>
      <trkpt lat="42.83308" lon="0.13089">
        <ele>2500.9797131326</ele>
        <time>2015-05-24T10:54:47Z</time>
      </trkpt>
      <trkpt lat="42.83308" lon="0.13084">
        <ele>2500.9797131326</ele>
        <time>2015-05-24T10:54:57Z</time>
      </trkpt>
      <trkpt lat="42.83308" lon="0.13082">
        <ele>2500.9797131326</ele>
        <time>2015-05-24T10:55:02Z</time>
      </trkpt>
      <trkpt lat="42.83311" lon="0.1308">
        <ele>2501.6722634551</ele>
        <time>2015-05-24T10:55:07Z</time>
      </trkpt>
      <trkpt lat="42.83313" lon="0.13078">
        <ele>2501.6722634551</ele>
        <time>2015-05-24T10:55:13Z</time>
      </trkpt>
      <trkpt lat="42.83317" lon="0.13075">
        <ele>2501.6722634551</ele>
        <time>2015-05-24T10:55:16Z</time>
      </trkpt>
      <trkpt lat="42.8332" lon="0.13071">
        <ele>2502.3408928045</ele>
        <time>2015-05-24T10:55:23Z</time>
      </trkpt>
      <trkpt lat="42.83322" lon="0.13068">
        <ele>2502.3408928045</ele>
        <time>2015-05-24T10:55:27Z</time>
      </trkpt>
      <trkpt lat="42.83324" lon="0.13066">
        <ele>2502.3408928045</ele>
        <time>2015-05-24T10:55:32Z</time>
      </trkpt>
      <trkpt lat="42.83326" lon="0.13063">
        <ele>2502.3408928045</ele>
        <time>2015-05-24T10:55:37Z</time>
      </trkpt>
      <trkpt lat="42.83326" lon="0.1306">
        <ele>2502.9203283552</ele>
        <time>2015-05-24T10:55:42Z</time>
      </trkpt>
      <trkpt lat="42.83327" lon="0.13055">
        <ele>2502.9203283552</ele>
        <time>2015-05-24T10:55:47Z</time>
      </trkpt>
      <trkpt lat="42.83328" lon="0.13052">
        <ele>2502.9203283552</ele>
        <time>2015-05-24T10:55:51Z</time>
      </trkpt>
      <trkpt lat="42.83331" lon="0.13051">
        <ele>2502.9203283552</ele>
        <time>2015-05-24T10:55:56Z</time>
      </trkpt>
      <trkpt lat="42.83332" lon="0.13049">
        <ele>2503.3934754849</ele>
        <time>2015-05-24T10:56:02Z</time>
      </trkpt>
      <trkpt lat="42.83334" lon="0.13046">
        <ele>2503.3934754849</ele>
        <time>2015-05-24T10:56:07Z</time>
      </trkpt>
      <trkpt lat="42.83334" lon="0.13043">
        <ele>2503.3934754849</ele>
        <time>2015-05-24T10:56:12Z</time>
      </trkpt>
      <trkpt lat="42.83333" lon="0.13043">
        <ele>2503.3934754849</ele>
        <time>2015-05-24T10:56:17Z</time>
      </trkpt>
      <trkpt lat="42.83339" lon="0.13047">
        <ele>2504.0184967093</ele>
        <time>2015-05-24T10:56:37Z</time>
      </trkpt>
      <trkpt lat="42.83341" lon="0.13041">
        <ele>2504.0184967093</ele>
        <time>2015-05-24T10:56:42Z</time>
      </trkpt>
      <trkpt lat="42.83341" lon="0.1304">
        <ele>2504.0184967093</ele>
        <time>2015-05-24T10:56:47Z</time>
      </trkpt>
      <trkpt lat="42.83341" lon="0.13038">
        <ele>2504.0184967093</ele>
        <time>2015-05-24T10:56:51Z</time>
      </trkpt>
      <trkpt lat="42.83343" lon="0.13032">
        <ele>2504.7458267986</ele>
        <time>2015-05-24T10:56:58Z</time>
      </trkpt>
      <trkpt lat="42.83344" lon="0.1303">
        <ele>2504.7458267986</ele>
        <time>2015-05-24T10:57:01Z</time>
      </trkpt>
      <trkpt lat="42.83347" lon="0.13025">
        <ele>2504.7458267986</ele>
        <time>2015-05-24T10:57:08Z</time>
      </trkpt>
      <trkpt lat="42.83348" lon="0.13022">
        <ele>2505.4570781563</ele>
        <time>2015-05-24T10:57:12Z</time>
      </trkpt>
      <trkpt lat="42.83351" lon="0.13019">
        <ele>2505.4570781563</ele>
        <time>2015-05-24T10:57:17Z</time>
      </trkpt>
      <trkpt lat="42.83352" lon="0.13014">
        <ele>2505.4570781563</ele>
        <time>2015-05-24T10:57:22Z</time>
      </trkpt>
      <trkpt lat="42.83351" lon="0.13012">
        <ele>2506.0857126201</ele>
        <time>2015-05-24T10:57:27Z</time>
      </trkpt>
      <trkpt lat="42.83351" lon="0.1301">
        <ele>2506.0857126201</ele>
        <time>2015-05-24T10:57:32Z</time>
      </trkpt>
      <trkpt lat="42.8335" lon="0.13005">
        <ele>2506.0857126201</ele>
        <time>2015-05-24T10:57:37Z</time>
      </trkpt>
      <trkpt lat="42.8335" lon="0.13005">
        <ele>2506.0857126201</ele>
        <time>2015-05-24T10:57:42Z</time>
      </trkpt>
      <trkpt lat="42.83351" lon="0.12997">
        <ele>2507.0745717827</ele>
        <time>2015-05-24T10:57:52Z</time>
      </trkpt>
      <trkpt lat="42.8335" lon="0.12997">
        <ele>2507.0745717827</ele>
        <time>2015-05-24T10:57:56Z</time>
      </trkpt>
      <trkpt lat="42.83351" lon="0.12997">
        <ele>2507.0745717827</ele>
        <time>2015-05-24T10:58:03Z</time>
      </trkpt>
      <trkpt lat="42.83355" lon="0.12998">
        <ele>2507.0745717827</ele>
        <time>2015-05-24T10:58:06Z</time>
      </trkpt>
      <trkpt lat="42.83358" lon="0.12998">
        <ele>2508.3716694659</ele>
        <time>2015-05-24T10:58:11Z</time>
      </trkpt>
      <trkpt lat="42.83362" lon="0.12996">
        <ele>2508.3716694659</ele>
        <time>2015-05-24T10:58:17Z</time>
      </trkpt>
      <trkpt lat="42.83367" lon="0.12995">
        <ele>2508.3716694659</ele>
        <time>2015-05-24T10:58:22Z</time>
      </trkpt>
      <trkpt lat="42.83369" lon="0.12996">
        <ele>2509.8990210543</ele>
        <time>2015-05-24T10:58:27Z</time>
      </trkpt>
      <trkpt lat="42.8337" lon="0.12995">
        <ele>2509.8990210543</ele>
        <time>2015-05-24T10:58:32Z</time>
      </trkpt>
      <trkpt lat="42.83372" lon="0.12994">
        <ele>2509.8990210543</ele>
        <time>2015-05-24T10:58:36Z</time>
      </trkpt>
      <trkpt lat="42.8337" lon="0.12997">
        <ele>2509.8990210543</ele>
        <time>2015-05-24T10:58:43Z</time>
      </trkpt>
      <trkpt lat="42.83376" lon="0.12992">
        <ele>2511.7565304655</ele>
        <time>2015-05-24T10:58:57Z</time>
      </trkpt>
      <trkpt lat="42.83377" lon="0.12991">
        <ele>2511.7565304655</ele>
        <time>2015-05-24T10:59:02Z</time>
      </trkpt>
      <trkpt lat="42.8338" lon="0.1299">
        <ele>2511.7565304655</ele>
        <time>2015-05-24T10:59:06Z</time>
      </trkpt>
      <trkpt lat="42.83382" lon="0.12985">
        <ele>2511.7565304655</ele>
        <time>2015-05-24T10:59:13Z</time>
      </trkpt>
      <trkpt lat="42.83381" lon="0.12982">
        <ele>2513.833958578</ele>
        <time>2015-05-24T10:59:16Z</time>
      </trkpt>
      <trkpt lat="42.83381" lon="0.12978">
        <ele>2513.833958578</ele>
        <time>2015-05-24T10:59:22Z</time>
      </trkpt>
      <trkpt lat="42.8338" lon="0.12977">
        <ele>2513.833958578</ele>
        <time>2015-05-24T10:59:27Z</time>
      </trkpt>
      <trkpt lat="42.83379" lon="0.12978">
        <ele>2513.833958578</ele>
        <time>2015-05-24T10:59:31Z</time>
      </trkpt>
      <trkpt lat="42.83376" lon="0.12976">
        <ele>2513.833958578</ele>
        <time>2015-05-24T10:59:38Z</time>
      </trkpt>
      <trkpt lat="42.83375" lon="0.12974">
        <ele>2515.9707878717</ele>
        <time>2015-05-24T10:59:42Z</time>
      </trkpt>
      <trkpt lat="42.83372" lon="0.12973">
        <ele>2515.9707878717</ele>
        <time>2015-05-24T10:59:46Z</time>
      </trkpt>
      <trkpt lat="42.83371" lon="0.12969">
        <ele>2515.9707878717</ele>
        <time>2015-05-24T10:59:53Z</time>
      </trkpt>
      <trkpt lat="42.83371" lon="0.12966">
        <ele>2515.9707878717</ele>
        <time>2015-05-24T10:59:56Z</time>
      </trkpt>
      <trkpt lat="42.83371" lon="0.12966">
        <ele>2515.9707878717</ele>
        <time>2015-05-24T11:00:02Z</time>
      </trkpt>
      <trkpt lat="42.83378" lon="0.12957">
        <ele>2518.3927086864</ele>
        <time>2015-05-24T11:00:18Z</time>
      </trkpt>
      <trkpt lat="42.83374" lon="0.12958">
        <ele>2518.3927086864</ele>
        <time>2015-05-24T11:00:47Z</time>
      </trkpt>
      <trkpt lat="42.83371" lon="0.12958">
        <ele>2518.3927086864</ele>
        <time>2015-05-24T11:00:52Z</time>
      </trkpt>
      <trkpt lat="42.83366" lon="0.12958">
        <ele>2521.3511707881</ele>
        <time>2015-05-24T11:00:57Z</time>
      </trkpt>
      <trkpt lat="42.83364" lon="0.12954">
        <ele>2521.3511707881</ele>
        <time>2015-05-24T11:01:02Z</time>
      </trkpt>
      <trkpt lat="42.83363" lon="0.12951">
        <ele>2521.3511707881</ele>
        <time>2015-05-24T11:01:07Z</time>
      </trkpt>
      <trkpt lat="42.83361" lon="0.12948">
        <ele>2521.3511707881</ele>
        <time>2015-05-24T11:01:12Z</time>
      </trkpt>
      <trkpt lat="42.8336" lon="0.12941">
        <ele>2524.2273084752</ele>
        <time>2015-05-24T11:01:17Z</time>
      </trkpt>
      <trkpt lat="42.83358" lon="0.12939">
        <ele>2524.2273084752</ele>
        <time>2015-05-24T11:01:22Z</time>
      </trkpt>
      <trkpt lat="42.83357" lon="0.12938">
        <ele>2524.2273084752</ele>
        <time>2015-05-24T11:01:27Z</time>
      </trkpt>
      <trkpt lat="42.83357" lon="0.12942">
        <ele>2524.2273084752</ele>
        <time>2015-05-24T11:01:31Z</time>
      </trkpt>
      <trkpt lat="42.8336" lon="0.12938">
        <ele>2527.1396121094</ele>
        <time>2015-05-24T11:01:42Z</time>
      </trkpt>
      <trkpt lat="42.8336" lon="0.12941">
        <ele>2527.1396121094</ele>
        <time>2015-05-24T11:01:47Z</time>
      </trkpt>
      <trkpt lat="42.8336" lon="0.12941">
        <ele>2527.1396121094</ele>
        <time>2015-05-24T11:01:52Z</time>
      </trkpt>
      <trkpt lat="42.83362" lon="0.12935">
        <ele>2527.1396121094</ele>
        <time>2015-05-24T11:02:07Z</time>
      </trkpt>
      <trkpt lat="42.83363" lon="0.12932">
        <ele>2530.2697659316</ele>
        <time>2015-05-24T11:02:11Z</time>
      </trkpt>
      <trkpt lat="42.83365" lon="0.12926">
        <ele>2530.2697659316</ele>
        <time>2015-05-24T11:02:17Z</time>
      </trkpt>
      <trkpt lat="42.83365" lon="0.12923">
        <ele>2530.2697659316</ele>
        <time>2015-05-24T11:02:22Z</time>
      </trkpt>
      <trkpt lat="42.83365" lon="0.12923">
        <ele>2530.2697659316</ele>
        <time>2015-05-24T11:02:27Z</time>
      </trkpt>
      <trkpt lat="42.83367" lon="0.12936">
        <ele>2533.2234207727</ele>
        <time>2015-05-24T11:02:47Z</time>
      </trkpt>
      <trkpt lat="42.8337" lon="0.12927">
        <ele>2533.2234207727</ele>
        <time>2015-05-24T11:02:57Z</time>
      </trkpt>
      <trkpt lat="42.83372" lon="0.12922">
        <ele>2535.9527061042</ele>
        <time>2015-05-24T11:03:02Z</time>
      </trkpt>
      <trkpt lat="42.83374" lon="0.12918">
        <ele>2535.9527061042</ele>
        <time>2015-05-24T11:03:06Z</time>
      </trkpt>
      <trkpt lat="42.83376" lon="0.12911">
        <ele>2535.9527061042</ele>
        <time>2015-05-24T11:03:12Z</time>
      </trkpt>
      <trkpt lat="42.83378" lon="0.12909">
        <ele>2538.5003455544</ele>
        <time>2015-05-24T11:03:17Z</time>
      </trkpt>
      <trkpt lat="42.83382" lon="0.12906">
        <ele>2538.5003455544</ele>
        <time>2015-05-24T11:03:22Z</time>
      </trkpt>
      <trkpt lat="42.83385" lon="0.12901">
        <ele>2538.5003455544</ele>
        <time>2015-05-24T11:03:27Z</time>
      </trkpt>
      <trkpt lat="42.83389" lon="0.12898">
        <ele>2540.8487802006</ele>
        <time>2015-05-24T11:03:32Z</time>
      </trkpt>
      <trkpt lat="42.83391" lon="0.12898">
        <ele>2540.8487802006</ele>
        <time>2015-05-24T11:03:37Z</time>
      </trkpt>
      <trkpt lat="42.83393" lon="0.12897">
        <ele>2540.8487802006</ele>
        <time>2015-05-24T11:03:42Z</time>
      </trkpt>
      <trkpt lat="42.83395" lon="0.12893">
        <ele>2540.8487802006</ele>
        <time>2015-05-24T11:03:47Z</time>
      </trkpt>
      <trkpt lat="42.83398" lon="0.12897">
        <ele>2543.2849315178</ele>
        <time>2015-05-24T11:03:51Z</time>
      </trkpt>
      <trkpt lat="42.83399" lon="0.12896">
        <ele>2543.2849315178</ele>
        <time>2015-05-24T11:03:57Z</time>
      </trkpt>
      <trkpt lat="42.83399" lon="0.12896">
        <ele>2543.2849315178</ele>
        <time>2015-05-24T11:04:01Z</time>
      </trkpt>
      <trkpt lat="42.83394" lon="0.12908">
        <ele>2546.4923257292</ele>
        <time>2015-05-24T11:04:37Z</time>
      </trkpt>
      <trkpt lat="42.83402" lon="0.12909">
        <ele>2546.4923257292</ele>
        <time>2015-05-24T11:04:47Z</time>
      </trkpt>
      <trkpt lat="42.83407" lon="0.12906">
        <ele>2549.877182226</ele>
        <time>2015-05-24T11:04:52Z</time>
      </trkpt>
      <trkpt lat="42.83414" lon="0.12901">
        <ele>2549.877182226</ele>
        <time>2015-05-24T11:04:57Z</time>
      </trkpt>
      <trkpt lat="42.83417" lon="0.12896">
        <ele>2553.1482630299</ele>
        <time>2015-05-24T11:05:01Z</time>
      </trkpt>
      <trkpt lat="42.83419" lon="0.12896">
        <ele>2553.1482630299</ele>
        <time>2015-05-24T11:05:07Z</time>
      </trkpt>
      <trkpt lat="42.83425" lon="0.12894">
        <ele>2553.1482630299</ele>
        <time>2015-05-24T11:05:12Z</time>
      </trkpt>
      <trkpt lat="42.83431" lon="0.12891">
        <ele>2556.5836974638</ele>
        <time>2015-05-24T11:05:17Z</time>
      </trkpt>
      <trkpt lat="42.8343" lon="0.12891">
        <ele>2556.5836974638</ele>
        <time>2015-05-24T11:05:22Z</time>
      </trkpt>
      <trkpt lat="42.83427" lon="0.12893">
        <ele>2556.5836974638</ele>
        <time>2015-05-24T11:05:27Z</time>
      </trkpt>
      <trkpt lat="42.83427" lon="0.12893">
        <ele>2556.5836974638</ele>
        <time>2015-05-24T11:05:32Z</time>
      </trkpt>
      <trkpt lat="42.83425" lon="0.12891">
        <ele>2556.5836974638</ele>
        <time>2015-05-24T11:05:47Z</time>
      </trkpt>
      <trkpt lat="42.8343" lon="0.12886">
        <ele>2560.8586884052</ele>
        <time>2015-05-24T11:05:52Z</time>
      </trkpt>
      <trkpt lat="42.83432" lon="0.12882">
        <ele>2560.8586884052</ele>
        <time>2015-05-24T11:05:57Z</time>
      </trkpt>
      <trkpt lat="42.83435" lon="0.12881">
        <ele>2560.8586884052</ele>
        <time>2015-05-24T11:06:02Z</time>
      </trkpt>
      <trkpt lat="42.83437" lon="0.12879">
        <ele>2560.8586884052</ele>
        <time>2015-05-24T11:06:07Z</time>
      </trkpt>
      <trkpt lat="42.83438" lon="0.12877">
        <ele>2565.6309953766</ele>
        <time>2015-05-24T11:06:12Z</time>
      </trkpt>
      <trkpt lat="42.83438" lon="0.12876">
        <ele>2565.6309953766</ele>
        <time>2015-05-24T11:06:16Z</time>
      </trkpt>
      <trkpt lat="42.83439" lon="0.12876">
        <ele>2565.6309953766</ele>
        <time>2015-05-24T11:06:23Z</time>
      </trkpt>
      <trkpt lat="42.83437" lon="0.12885">
        <ele>2565.6309953766</ele>
        <time>2015-05-24T11:06:56Z</time>
      </trkpt>
      <trkpt lat="42.83437" lon="0.12888">
        <ele>2570.4236726142</ele>
        <time>2015-05-24T11:07:02Z</time>
      </trkpt>
      <trkpt lat="42.83438" lon="0.12885">
        <ele>2570.4236726142</ele>
        <time>2015-05-24T11:07:12Z</time>
      </trkpt>
      <trkpt lat="42.83439" lon="0.12885">
        <ele>2570.4236726142</ele>
        <time>2015-05-24T11:07:17Z</time>
      </trkpt>
      <trkpt lat="42.83442" lon="0.12881">
        <ele>2570.4236726142</ele>
        <time>2015-05-24T11:07:22Z</time>
      </trkpt>
      <trkpt lat="42.83444" lon="0.12879">
        <ele>2575.0830630659</ele>
        <time>2015-05-24T11:07:27Z</time>
      </trkpt>
      <trkpt lat="42.83447" lon="0.1287">
        <ele>2575.0830630659</ele>
        <time>2015-05-24T11:07:32Z</time>
      </trkpt>
      <trkpt lat="42.8345" lon="0.12865">
        <ele>2580.0293091037</ele>
        <time>2015-05-24T11:07:36Z</time>
      </trkpt>
      <trkpt lat="42.83452" lon="0.12863">
        <ele>2580.0293091037</ele>
        <time>2015-05-24T11:07:43Z</time>
      </trkpt>
      <trkpt lat="42.83455" lon="0.12861">
        <ele>2580.0293091037</ele>
        <time>2015-05-24T11:07:46Z</time>
      </trkpt>
      <trkpt lat="42.83458" lon="0.12859">
        <ele>2580.0293091037</ele>
        <time>2015-05-24T11:07:52Z</time>
      </trkpt>
      <trkpt lat="42.83457" lon="0.12859">
        <ele>2585.3339616886</ele>
        <time>2015-05-24T11:07:57Z</time>
      </trkpt>
      <trkpt lat="42.83459" lon="0.12858">
        <ele>2585.3339616886</ele>
        <time>2015-05-24T11:08:01Z</time>
      </trkpt>
      <trkpt lat="42.83457" lon="0.12858">
        <ele>2585.3339616886</ele>
        <time>2015-05-24T11:08:07Z</time>
      </trkpt>
      <trkpt lat="42.83458" lon="0.12856">
        <ele>2585.3339616886</ele>
        <time>2015-05-24T11:08:12Z</time>
      </trkpt>
      <trkpt lat="42.83458" lon="0.12857">
        <ele>2585.3339616886</ele>
        <time>2015-05-24T11:08:16Z</time>
      </trkpt>
      <trkpt lat="42.83461" lon="0.12856">
        <ele>2585.3339616886</ele>
        <time>2015-05-24T11:08:23Z</time>
      </trkpt>
      <trkpt lat="42.83462" lon="0.12855">
        <ele>2591.2497931722</ele>
        <time>2015-05-24T11:08:27Z</time>
      </trkpt>
      <trkpt lat="42.83467" lon="0.12853">
        <ele>2591.2497931722</ele>
        <time>2015-05-24T11:08:31Z</time>
      </trkpt>
      <trkpt lat="42.83471" lon="0.1285">
        <ele>2597.0583147164</ele>
        <time>2015-05-24T11:08:37Z</time>
      </trkpt>
      <trkpt lat="42.83469" lon="0.12851">
        <ele>2597.0583147164</ele>
        <time>2015-05-24T11:08:42Z</time>
      </trkpt>
      <trkpt lat="42.83466" lon="0.12852">
        <ele>2597.0583147164</ele>
        <time>2015-05-24T11:08:47Z</time>
      </trkpt>
      <trkpt lat="42.83464" lon="0.12852">
        <ele>2597.0583147164</ele>
        <time>2015-05-24T11:08:52Z</time>
      </trkpt>
      <trkpt lat="42.83465" lon="0.12852">
        <ele>2597.0583147164</ele>
        <time>2015-05-24T11:08:56Z</time>
      </trkpt>
      <trkpt lat="42.83467" lon="0.12849">
        <ele>2602.7139691891</ele>
        <time>2015-05-24T11:09:02Z</time>
      </trkpt>
      <trkpt lat="42.8347" lon="0.12846">
        <ele>2602.7139691891</ele>
        <time>2015-05-24T11:09:07Z</time>
      </trkpt>
      <trkpt lat="42.83478" lon="0.12841">
        <ele>2607.9734082208</ele>
        <time>2015-05-24T11:09:11Z</time>
      </trkpt>
      <trkpt lat="42.83477" lon="0.1284">
        <ele>2607.9734082208</ele>
        <time>2015-05-24T11:09:17Z</time>
      </trkpt>
      <trkpt lat="42.83481" lon="0.12836">
        <ele>2607.9734082208</ele>
        <time>2015-05-24T11:09:22Z</time>
      </trkpt>
      <trkpt lat="42.83482" lon="0.12837">
        <ele>2607.9734082208</ele>
        <time>2015-05-24T11:09:27Z</time>
      </trkpt>
      <trkpt lat="42.83484" lon="0.12837">
        <ele>2613.5203750266</ele>
        <time>2015-05-24T11:09:32Z</time>
      </trkpt>
      <trkpt lat="42.83484" lon="0.12836">
        <ele>2613.5203750266</ele>
        <time>2015-05-24T11:09:36Z</time>
      </trkpt>
      <trkpt lat="42.83487" lon="0.1283">
        <ele>2613.5203750266</ele>
        <time>2015-05-24T11:09:56Z</time>
      </trkpt>
      <trkpt lat="42.83489" lon="0.12827">
        <ele>2613.5203750266</ele>
        <time>2015-05-24T11:10:02Z</time>
      </trkpt>
      <trkpt lat="42.83488" lon="0.12827">
        <ele>2619.0222493983</ele>
        <time>2015-05-24T11:10:06Z</time>
      </trkpt>
      <trkpt lat="42.83489" lon="0.12824">
        <ele>2619.0222493983</ele>
        <time>2015-05-24T11:10:11Z</time>
      </trkpt>
      <trkpt lat="42.83492" lon="0.12821">
        <ele>2619.0222493983</ele>
        <time>2015-05-24T11:10:17Z</time>
      </trkpt>
      <trkpt lat="42.83494" lon="0.12823">
        <ele>2619.0222493983</ele>
        <time>2015-05-24T11:10:22Z</time>
      </trkpt>
      <trkpt lat="42.83496" lon="0.12819">
        <ele>2624.2000185892</ele>
        <time>2015-05-24T11:10:27Z</time>
      </trkpt>
      <trkpt lat="42.83498" lon="0.12819">
        <ele>2624.2000185892</ele>
        <time>2015-05-24T11:10:31Z</time>
      </trkpt>
      <trkpt lat="42.83496" lon="0.12814">
        <ele>2624.2000185892</ele>
        <time>2015-05-24T11:10:37Z</time>
      </trkpt>
      <trkpt lat="42.83494" lon="0.12813">
        <ele>2624.2000185892</ele>
        <time>2015-05-24T11:10:42Z</time>
      </trkpt>
      <trkpt lat="42.83496" lon="0.1281">
        <ele>2629.0557067584</ele>
        <time>2015-05-24T11:10:46Z</time>
      </trkpt>
      <trkpt lat="42.83498" lon="0.12806">
        <ele>2629.0557067584</ele>
        <time>2015-05-24T11:10:52Z</time>
      </trkpt>
      <trkpt lat="42.83499" lon="0.12804">
        <ele>2629.0557067584</ele>
        <time>2015-05-24T11:10:57Z</time>
      </trkpt>
      <trkpt lat="42.83507" lon="0.12799">
        <ele>2633.6355620733</ele>
        <time>2015-05-24T11:11:02Z</time>
      </trkpt>
      <trkpt lat="42.83509" lon="0.12799">
        <ele>2633.6355620733</ele>
        <time>2015-05-24T11:11:07Z</time>
      </trkpt>
      <trkpt lat="42.83511" lon="0.12797">
        <ele>2633.6355620733</ele>
        <time>2015-05-24T11:11:12Z</time>
      </trkpt>
      <trkpt lat="42.83517" lon="0.1279">
        <ele>2637.8393346834</ele>
        <time>2015-05-24T11:11:21Z</time>
      </trkpt>
      <trkpt lat="42.83517" lon="0.12791">
        <ele>2637.8393346834</ele>
        <time>2015-05-24T11:11:27Z</time>
      </trkpt>
      <trkpt lat="42.83516" lon="0.12792">
        <ele>2637.8393346834</ele>
        <time>2015-05-24T11:11:31Z</time>
      </trkpt>
      <trkpt lat="42.83517" lon="0.12788">
        <ele>2637.8393346834</ele>
        <time>2015-05-24T11:11:37Z</time>
      </trkpt>
      <trkpt lat="42.83513" lon="0.12789">
        <ele>2641.7051281977</ele>
        <time>2015-05-24T11:11:42Z</time>
      </trkpt>
      <trkpt lat="42.83511" lon="0.12787">
        <ele>2641.7051281977</ele>
        <time>2015-05-24T11:11:51Z</time>
      </trkpt>
      <trkpt lat="42.83511" lon="0.12786">
        <ele>2641.7051281977</ele>
        <time>2015-05-24T11:11:57Z</time>
      </trkpt>
      <trkpt lat="42.83515" lon="0.12784">
        <ele>2641.7051281977</ele>
        <time>2015-05-24T11:12:02Z</time>
      </trkpt>
      <trkpt lat="42.83516" lon="0.12782">
        <ele>2645.5864686222</ele>
        <time>2015-05-24T11:12:06Z</time>
      </trkpt>
      <trkpt lat="42.83519" lon="0.12777">
        <ele>2645.5864686222</ele>
        <time>2015-05-24T11:12:12Z</time>
      </trkpt>
      <trkpt lat="42.83523" lon="0.12775">
        <ele>2645.5864686222</ele>
        <time>2015-05-24T11:12:17Z</time>
      </trkpt>
      <trkpt lat="42.83524" lon="0.12773">
        <ele>2649.5228676595</ele>
        <time>2015-05-24T11:12:21Z</time>
      </trkpt>
      <trkpt lat="42.83527" lon="0.1277">
        <ele>2649.5228676595</ele>
        <time>2015-05-24T11:12:27Z</time>
      </trkpt>
      <trkpt lat="42.83527" lon="0.12768">
        <ele>2649.5228676595</ele>
        <time>2015-05-24T11:12:31Z</time>
      </trkpt>
      <trkpt lat="42.83524" lon="0.12763">
        <ele>2653.3204148937</ele>
        <time>2015-05-24T11:12:47Z</time>
      </trkpt>
      <trkpt lat="42.83524" lon="0.12763">
        <ele>2653.3204148937</ele>
        <time>2015-05-24T11:12:52Z</time>
      </trkpt>
      <trkpt lat="42.83524" lon="0.12765">
        <ele>2653.3204148937</ele>
        <time>2015-05-24T11:12:57Z</time>
      </trkpt>
      <trkpt lat="42.83525" lon="0.12764">
        <ele>2653.3204148937</ele>
        <time>2015-05-24T11:13:17Z</time>
      </trkpt>
      <trkpt lat="42.83526" lon="0.12762">
        <ele>2653.3204148937</ele>
        <time>2015-05-24T11:13:22Z</time>
      </trkpt>
      <trkpt lat="42.83527" lon="0.1276">
        <ele>2653.3204148937</ele>
        <time>2015-05-24T11:13:27Z</time>
      </trkpt>
      <trkpt lat="42.83527" lon="0.12758">
        <ele>2653.3204148937</ele>
        <time>2015-05-24T11:13:32Z</time>
      </trkpt>
      <trkpt lat="42.83528" lon="0.12756">
        <ele>2657.4197160026</ele>
        <time>2015-05-24T11:13:37Z</time>
      </trkpt>
      <trkpt lat="42.83529" lon="0.12757">
        <ele>2657.4197160026</ele>
        <time>2015-05-24T11:13:42Z</time>
      </trkpt>
      <trkpt lat="42.83535" lon="0.12754">
        <ele>2657.4197160026</ele>
        <time>2015-05-24T11:13:47Z</time>
      </trkpt>
      <trkpt lat="42.83533" lon="0.12756">
        <ele>2661.1619358768</ele>
        <time>2015-05-24T11:13:52Z</time>
      </trkpt>
      <trkpt lat="42.83532" lon="0.12755">
        <ele>2661.1619358768</ele>
        <time>2015-05-24T11:13:56Z</time>
      </trkpt>
      <trkpt lat="42.83534" lon="0.1275">
        <ele>2661.1619358768</ele>
        <time>2015-05-24T11:14:02Z</time>
      </trkpt>
      <trkpt lat="42.83537" lon="0.12746">
        <ele>2661.1619358768</ele>
        <time>2015-05-24T11:14:07Z</time>
      </trkpt>
      <trkpt lat="42.8354" lon="0.1274">
        <ele>2664.6872024561</ele>
        <time>2015-05-24T11:14:11Z</time>
      </trkpt>
      <trkpt lat="42.8354" lon="0.12737">
        <ele>2664.6872024561</ele>
        <time>2015-05-24T11:14:18Z</time>
      </trkpt>
      <trkpt lat="42.83541" lon="0.12736">
        <ele>2664.6872024561</ele>
        <time>2015-05-24T11:14:22Z</time>
      </trkpt>
      <trkpt lat="42.83539" lon="0.12735">
        <ele>2664.6872024561</ele>
        <time>2015-05-24T11:15:02Z</time>
      </trkpt>
      <trkpt lat="42.83539" lon="0.12735">
        <ele>2664.6872024561</ele>
        <time>2015-05-24T11:15:07Z</time>
      </trkpt>
      <trkpt lat="42.83546" lon="0.12746">
        <ele>2668.774635611</ele>
        <time>2015-05-24T11:15:31Z</time>
      </trkpt>
      <trkpt lat="42.83546" lon="0.12745">
        <ele>2668.774635611</ele>
        <time>2015-05-24T11:15:37Z</time>
      </trkpt>
      <trkpt lat="42.83539" lon="0.12744">
        <ele>2668.774635611</ele>
        <time>2015-05-24T11:16:02Z</time>
      </trkpt>
      <trkpt lat="42.83539" lon="0.12744">
        <ele>2668.774635611</ele>
        <time>2015-05-24T11:16:07Z</time>
      </trkpt>
      <trkpt lat="42.8354" lon="0.1274">
        <ele>2672.3289109339</ele>
        <time>2015-05-24T11:16:17Z</time>
      </trkpt>
      <trkpt lat="42.8354" lon="0.1274">
        <ele>2672.3289109339</ele>
        <time>2015-05-24T11:16:22Z</time>
      </trkpt>
      <trkpt lat="42.83539" lon="0.12742">
        <ele>2672.3289109339</ele>
        <time>2015-05-24T11:16:32Z</time>
      </trkpt>
      <trkpt lat="42.8354" lon="0.1274">
        <ele>2672.3289109339</ele>
        <time>2015-05-24T11:16:37Z</time>
      </trkpt>
      <trkpt lat="42.83538" lon="0.12739">
        <ele>2672.3289109339</ele>
        <time>2015-05-24T11:16:41Z</time>
      </trkpt>
      <trkpt lat="42.83539" lon="0.12739">
        <ele>2672.3289109339</ele>
        <time>2015-05-24T11:16:47Z</time>
      </trkpt>
      <trkpt lat="42.83539" lon="0.12739">
        <ele>2672.3289109339</ele>
        <time>2015-05-24T11:16:52Z</time>
      </trkpt>
      <trkpt lat="42.83533" lon="0.1274">
        <ele>2675.3311849347</ele>
        <time>2015-05-24T11:17:02Z</time>
      </trkpt>
      <trkpt lat="42.83531" lon="0.12739">
        <ele>2675.3311849347</ele>
        <time>2015-05-24T11:17:06Z</time>
      </trkpt>
      <trkpt lat="42.83527" lon="0.1274">
        <ele>2675.3311849347</ele>
        <time>2015-05-24T11:17:12Z</time>
      </trkpt>
      <trkpt lat="42.83525" lon="0.12739">
        <ele>2675.3311849347</ele>
        <time>2015-05-24T11:17:16Z</time>
      </trkpt>
      <trkpt lat="42.83522" lon="0.12738">
        <ele>2677.8953909925</ele>
        <time>2015-05-24T11:17:21Z</time>
      </trkpt>
      <trkpt lat="42.8352" lon="0.12738">
        <ele>2677.8953909925</ele>
        <time>2015-05-24T11:17:27Z</time>
      </trkpt>
      <trkpt lat="42.83519" lon="0.12738">
        <ele>2677.8953909925</ele>
        <time>2015-05-24T11:17:32Z</time>
      </trkpt>
      <trkpt lat="42.83522" lon="0.1273">
        <ele>2680.0852181978</ele>
        <time>2015-05-24T11:18:07Z</time>
      </trkpt>
      <trkpt lat="42.83529" lon="0.12726">
        <ele>2680.0852181978</ele>
        <time>2015-05-24T11:18:12Z</time>
      </trkpt>
      <trkpt lat="42.83535" lon="0.12722">
        <ele>2681.8599614632</ele>
        <time>2015-05-24T11:18:17Z</time>
      </trkpt>
      <trkpt lat="42.8354" lon="0.1272">
        <ele>2681.8599614632</ele>
        <time>2015-05-24T11:18:22Z</time>
      </trkpt>
      <trkpt lat="42.83539" lon="0.12718">
        <ele>2681.8599614632</ele>
        <time>2015-05-24T11:18:27Z</time>
      </trkpt>
      <trkpt lat="42.83539" lon="0.12717">
        <ele>2681.8599614632</ele>
        <time>2015-05-24T11:18:31Z</time>
      </trkpt>
      <trkpt lat="42.83541" lon="0.12715">
        <ele>2683.2119841503</ele>
        <time>2015-05-24T11:18:38Z</time>
      </trkpt>
      <trkpt lat="42.83546" lon="0.12712">
        <ele>2683.2119841503</ele>
        <time>2015-05-24T11:18:41Z</time>
      </trkpt>
      <trkpt lat="42.8355" lon="0.12711">
        <ele>2684.2939880472</ele>
        <time>2015-05-24T11:18:47Z</time>
      </trkpt>
      <trkpt lat="42.83553" lon="0.12707">
        <ele>2684.2939880472</ele>
        <time>2015-05-24T11:18:52Z</time>
      </trkpt>
      <trkpt lat="42.83556" lon="0.12706">
        <ele>2684.2939880472</ele>
        <time>2015-05-24T11:18:56Z</time>
      </trkpt>
      <trkpt lat="42.83557" lon="0.12706">
        <ele>2684.2939880472</ele>
        <time>2015-05-24T11:19:02Z</time>
      </trkpt>
      <trkpt lat="42.83556" lon="0.12707">
        <ele>2685.2626718833</ele>
        <time>2015-05-24T11:19:07Z</time>
      </trkpt>
      <trkpt lat="42.8356" lon="0.12703">
        <ele>2685.2626718833</ele>
        <time>2015-05-24T11:19:22Z</time>
      </trkpt>
      <trkpt lat="42.83563" lon="0.12699">
        <ele>2685.2626718833</ele>
        <time>2015-05-24T11:19:27Z</time>
      </trkpt>
      <trkpt lat="42.83565" lon="0.12698">
        <ele>2686.205918468</ele>
        <time>2015-05-24T11:19:32Z</time>
      </trkpt>
      <trkpt lat="42.83569" lon="0.12698">
        <ele>2686.205918468</ele>
        <time>2015-05-24T11:19:37Z</time>
      </trkpt>
      <trkpt lat="42.83571" lon="0.12697">
        <ele>2686.205918468</ele>
        <time>2015-05-24T11:19:42Z</time>
      </trkpt>
      <trkpt lat="42.83573" lon="0.12698">
        <ele>2686.205918468</ele>
        <time>2015-05-24T11:19:46Z</time>
      </trkpt>
      <trkpt lat="42.83572" lon="0.12697">
        <ele>2686.205918468</ele>
        <time>2015-05-24T11:19:53Z</time>
      </trkpt>
      <trkpt lat="42.83574" lon="0.12695">
        <ele>2687.3061021996</ele>
        <time>2015-05-24T11:19:56Z</time>
      </trkpt>
      <trkpt lat="42.83575" lon="0.12695">
        <ele>2687.3061021996</ele>
        <time>2015-05-24T11:20:02Z</time>
      </trkpt>
      <trkpt lat="42.83572" lon="0.12698">
        <ele>2687.3061021996</ele>
        <time>2015-05-24T11:20:06Z</time>
      </trkpt>
      <trkpt lat="42.83573" lon="0.127">
        <ele>2687.3061021996</ele>
        <time>2015-05-24T11:20:13Z</time>
      </trkpt>
      <trkpt lat="42.83576" lon="0.12699">
        <ele>2688.42910287</ele>
        <time>2015-05-24T11:20:16Z</time>
      </trkpt>
      <trkpt lat="42.8358" lon="0.12695">
        <ele>2688.42910287</ele>
        <time>2015-05-24T11:20:22Z</time>
      </trkpt>
      <trkpt lat="42.8358" lon="0.12695">
        <ele>2688.42910287</ele>
        <time>2015-05-24T11:20:27Z</time>
      </trkpt>
      <trkpt lat="42.83576" lon="0.12698">
        <ele>2689.392900007</ele>
        <time>2015-05-24T11:20:42Z</time>
      </trkpt>
      <trkpt lat="42.83575" lon="0.12696">
        <ele>2689.392900007</ele>
        <time>2015-05-24T11:20:47Z</time>
      </trkpt>
      <trkpt lat="42.83574" lon="0.12692">
        <ele>2689.392900007</ele>
        <time>2015-05-24T11:20:52Z</time>
      </trkpt>
      <trkpt lat="42.83573" lon="0.12688">
        <ele>2689.392900007</ele>
        <time>2015-05-24T11:20:57Z</time>
      </trkpt>
      <trkpt lat="42.83574" lon="0.12685">
        <ele>2690.2309835066</ele>
        <time>2015-05-24T11:21:02Z</time>
      </trkpt>
      <trkpt lat="42.83578" lon="0.12683">
        <ele>2690.2309835066</ele>
        <time>2015-05-24T11:21:07Z</time>
      </trkpt>
      <trkpt lat="42.83578" lon="0.1268">
        <ele>2690.2309835066</ele>
        <time>2015-05-24T11:21:12Z</time>
      </trkpt>
      <trkpt lat="42.83579" lon="0.1268">
        <ele>2690.2309835066</ele>
        <time>2015-05-24T11:21:26Z</time>
      </trkpt>
      <trkpt lat="42.8358" lon="0.12682">
        <ele>2690.2309835066</ele>
        <time>2015-05-24T11:21:33Z</time>
      </trkpt>
      <trkpt lat="42.83583" lon="0.12683">
        <ele>2691.6231565736</ele>
        <time>2015-05-24T11:21:37Z</time>
      </trkpt>
      <trkpt lat="42.83589" lon="0.12682">
        <ele>2691.6231565736</ele>
        <time>2015-05-24T11:21:41Z</time>
      </trkpt>
      <trkpt lat="42.8359" lon="0.12681">
        <ele>2691.6231565736</ele>
        <time>2015-05-24T11:21:48Z</time>
      </trkpt>
      <trkpt lat="42.83591" lon="0.12682">
        <ele>2691.6231565736</ele>
        <time>2015-05-24T11:22:02Z</time>
      </trkpt>
      <trkpt lat="42.83594" lon="0.12682">
        <ele>2693.3906139788</ele>
        <time>2015-05-24T11:22:07Z</time>
      </trkpt>
      <trkpt lat="42.836" lon="0.12682">
        <ele>2693.3906139788</ele>
        <time>2015-05-24T11:22:12Z</time>
      </trkpt>
      <trkpt lat="42.83604" lon="0.12682">
        <ele>2695.0062493043</ele>
        <time>2015-05-24T11:22:17Z</time>
      </trkpt>
      <trkpt lat="42.83602" lon="0.12688">
        <ele>2695.0062493043</ele>
        <time>2015-05-24T11:22:21Z</time>
      </trkpt>
      <trkpt lat="42.83601" lon="0.12691">
        <ele>2695.0062493043</ele>
        <time>2015-05-24T11:22:26Z</time>
      </trkpt>
      <trkpt lat="42.83597" lon="0.12702">
        <ele>2696.3710881437</ele>
        <time>2015-05-24T11:22:33Z</time>
      </trkpt>
      <trkpt lat="42.83597" lon="0.12702">
        <ele>2696.3710881437</ele>
        <time>2015-05-24T11:22:36Z</time>
      </trkpt>
      <trkpt lat="42.83599" lon="0.12702">
        <ele>2696.3710881437</ele>
        <time>2015-05-24T11:22:57Z</time>
      </trkpt>
      <trkpt lat="42.83602" lon="0.12702">
        <ele>2696.3710881437</ele>
        <time>2015-05-24T11:23:07Z</time>
      </trkpt>
      <trkpt lat="42.83604" lon="0.12703">
        <ele>2696.3710881437</ele>
        <time>2015-05-24T11:23:12Z</time>
      </trkpt>
      <trkpt lat="42.83607" lon="0.12704">
        <ele>2697.4804739079</ele>
        <time>2015-05-24T11:23:17Z</time>
      </trkpt>
      <trkpt lat="42.83607" lon="0.12705">
        <ele>2697.4804739079</ele>
        <time>2015-05-24T11:23:22Z</time>
      </trkpt>
      <trkpt lat="42.83606" lon="0.1271">
        <ele>2697.4804739079</ele>
        <time>2015-05-24T11:23:38Z</time>
      </trkpt>
      <trkpt lat="42.83607" lon="0.12711">
        <ele>2697.4804739079</ele>
        <time>2015-05-24T11:23:42Z</time>
      </trkpt>
      <trkpt lat="42.83607" lon="0.12717">
        <ele>2698.0280434955</ele>
        <time>2015-05-24T11:23:47Z</time>
      </trkpt>
      <trkpt lat="42.83607" lon="0.12718">
        <ele>2698.0280434955</ele>
        <time>2015-05-24T11:23:52Z</time>
      </trkpt>
      <trkpt lat="42.83608" lon="0.12715">
        <ele>2698.0280434955</ele>
        <time>2015-05-24T11:25:06Z</time>
      </trkpt>
      <trkpt lat="42.83602" lon="0.12717">
        <ele>2698.1637065135</ele>
        <time>2015-05-24T11:25:13Z</time>
      </trkpt>
      <trkpt lat="42.83601" lon="0.12715">
        <ele>2698.1637065135</ele>
        <time>2015-05-24T11:25:17Z</time>
      </trkpt>
      <trkpt lat="42.836" lon="0.12711">
        <ele>2698.1637065135</ele>
        <time>2015-05-24T11:25:21Z</time>
      </trkpt>
      <trkpt lat="42.83599" lon="0.12708">
        <ele>2698.1637065135</ele>
        <time>2015-05-24T11:25:28Z</time>
      </trkpt>
      <trkpt lat="42.83597" lon="0.12704">
        <ele>2698.0850061174</ele>
        <time>2015-05-24T11:25:32Z</time>
      </trkpt>
      <trkpt lat="42.83601" lon="0.12708">
        <ele>2698.0850061174</ele>
        <time>2015-05-24T11:25:52Z</time>
      </trkpt>
      <trkpt lat="42.83604" lon="0.12712">
        <ele>2698.0330524801</ele>
        <time>2015-05-24T11:25:57Z</time>
      </trkpt>
      <trkpt lat="42.83606" lon="0.12716">
        <ele>2698.0330524801</ele>
        <time>2015-05-24T11:26:02Z</time>
      </trkpt>
      <trkpt lat="42.83607" lon="0.12718">
        <ele>2698.0330524801</ele>
        <time>2015-05-24T11:26:07Z</time>
      </trkpt>
      <trkpt lat="42.83616" lon="0.12715">
        <ele>2697.7842428696</ele>
        <time>2015-05-24T11:26:56Z</time>
      </trkpt>
      <trkpt lat="42.83615" lon="0.12715">
        <ele>2697.7842428696</ele>
        <time>2015-05-24T11:27:02Z</time>
      </trkpt>
      <trkpt lat="42.83624" lon="0.12709">
        <ele>2697.319101591</ele>
        <time>2015-05-24T11:28:12Z</time>
      </trkpt>
      <trkpt lat="42.83621" lon="0.12707">
        <ele>2697.319101591</ele>
        <time>2015-05-24T11:28:17Z</time>
      </trkpt>
      <trkpt lat="42.83629" lon="0.12716">
        <ele>2696.7496816481</ele>
        <time>2015-05-24T11:28:57Z</time>
      </trkpt>
      <trkpt lat="42.83634" lon="0.12714">
        <ele>2696.7496816481</ele>
        <time>2015-05-24T11:29:01Z</time>
      </trkpt>
      <trkpt lat="42.8364" lon="0.12713">
        <ele>2696.0934087432</ele>
        <time>2015-05-24T11:29:07Z</time>
      </trkpt>
      <trkpt lat="42.8364" lon="0.12712">
        <ele>2696.0934087432</ele>
        <time>2015-05-24T11:29:12Z</time>
      </trkpt>
      <trkpt lat="42.83632" lon="0.12714">
        <ele>2696.0934087432</ele>
        <time>2015-05-24T11:29:16Z</time>
      </trkpt>
      <trkpt lat="42.83632" lon="0.12714">
        <ele>2696.0934087432</ele>
        <time>2015-05-24T11:29:22Z</time>
      </trkpt>
      <trkpt lat="42.83622" lon="0.12707">
        <ele>2695.3664379708</ele>
        <time>2015-05-24T11:29:48Z</time>
      </trkpt>
      <trkpt lat="42.83626" lon="0.12719">
        <ele>2694.5836902304</ele>
        <time>2015-05-24T11:30:03Z</time>
      </trkpt>
      <trkpt lat="42.83627" lon="0.1272">
        <ele>2694.5836902304</ele>
        <time>2015-05-24T11:30:07Z</time>
      </trkpt>
      <trkpt lat="42.8363" lon="0.12719">
        <ele>2694.5836902304</ele>
        <time>2015-05-24T11:30:22Z</time>
      </trkpt>
      <trkpt lat="42.83631" lon="0.12718">
        <ele>2694.5836902304</ele>
        <time>2015-05-24T11:30:37Z</time>
      </trkpt>
      <trkpt lat="42.83628" lon="0.12713">
        <ele>2693.7588904464</ele>
        <time>2015-05-24T11:30:42Z</time>
      </trkpt>
      <trkpt lat="42.83629" lon="0.12708">
        <ele>2693.7588904464</ele>
        <time>2015-05-24T11:31:12Z</time>
      </trkpt>
      <trkpt lat="42.83627" lon="0.12712">
        <ele>2693.7588904464</ele>
        <time>2015-05-24T11:31:17Z</time>
      </trkpt>
      <trkpt lat="42.83628" lon="0.12713">
        <ele>2693.7588904464</ele>
        <time>2015-05-24T11:31:22Z</time>
      </trkpt>
      <trkpt lat="42.83638" lon="0.1271">
        <ele>2692.9046074375</ele>
        <time>2015-05-24T11:31:32Z</time>
      </trkpt>
      <trkpt lat="42.83639" lon="0.1271">
        <ele>2692.9046074375</ele>
        <time>2015-05-24T11:31:37Z</time>
      </trkpt>
      <trkpt lat="42.8364" lon="0.12713">
        <ele>2692.9046074375</ele>
        <time>2015-05-24T11:31:42Z</time>
      </trkpt>
      <trkpt lat="42.83639" lon="0.12713">
        <ele>2692.9046074375</ele>
        <time>2015-05-24T11:31:47Z</time>
      </trkpt>
      <trkpt lat="42.8365" lon="0.12704">
        <ele>2692.0322952637</ele>
        <time>2015-05-24T11:31:57Z</time>
      </trkpt>
      <trkpt lat="42.8365" lon="0.12703">
        <ele>2692.0322952637</ele>
        <time>2015-05-24T11:32:01Z</time>
      </trkpt>
      <trkpt lat="42.83651" lon="0.12703">
        <ele>2692.0322952637</ele>
        <time>2015-05-24T11:32:07Z</time>
      </trkpt>
      <trkpt lat="42.83638" lon="0.1271">
        <ele>2691.1523358691</ele>
        <time>2015-05-24T11:32:32Z</time>
      </trkpt>
      <trkpt lat="42.83636" lon="0.1271">
        <ele>2691.1523358691</ele>
        <time>2015-05-24T11:32:37Z</time>
      </trkpt>
      <trkpt lat="42.83637" lon="0.12708">
        <ele>2691.1523358691</ele>
        <time>2015-05-24T11:32:42Z</time>
      </trkpt>
      <trkpt lat="42.83641" lon="0.12693">
        <ele>2690.2308494088</ele>
        <time>2015-05-24T11:32:57Z</time>
      </trkpt>
      <trkpt lat="42.83649" lon="0.12686">
        <ele>2689.3083248877</ele>
        <time>2015-05-24T11:33:02Z</time>
      </trkpt>
      <trkpt lat="42.8365" lon="0.12685">
        <ele>2689.3083248877</ele>
        <time>2015-05-24T11:33:07Z</time>
      </trkpt>
      <trkpt lat="42.83652" lon="0.12684">
        <ele>2689.3083248877</ele>
        <time>2015-05-24T11:33:12Z</time>
      </trkpt>
      <trkpt lat="42.83649" lon="0.12685">
        <ele>2689.3083248877</ele>
        <time>2015-05-24T11:33:17Z</time>
      </trkpt>
      <trkpt lat="42.83639" lon="0.12692">
        <ele>2688.3066951716</ele>
        <time>2015-05-24T11:33:31Z</time>
      </trkpt>
      <trkpt lat="42.83639" lon="0.12692">
        <ele>2688.3066951716</ele>
        <time>2015-05-24T11:33:37Z</time>
      </trkpt>
      <trkpt lat="42.83632" lon="0.12695">
        <ele>2688.3066951716</ele>
        <time>2015-05-24T11:33:42Z</time>
      </trkpt>
      <trkpt lat="42.83631" lon="0.12695">
        <ele>2688.3066951716</ele>
        <time>2015-05-24T11:33:47Z</time>
      </trkpt>
      <trkpt lat="42.83633" lon="0.12694">
        <ele>2687.2544288993</ele>
        <time>2015-05-24T11:33:52Z</time>
      </trkpt>
      <trkpt lat="42.83634" lon="0.12696">
        <ele>2687.2544288993</ele>
        <time>2015-05-24T11:33:57Z</time>
      </trkpt>
      <trkpt lat="42.83643" lon="0.12698">
        <ele>2686.1633334982</ele>
        <time>2015-05-24T11:34:02Z</time>
      </trkpt>
      <trkpt lat="42.83646" lon="0.12698">
        <ele>2686.1633334982</ele>
        <time>2015-05-24T11:34:07Z</time>
      </trkpt>
      <trkpt lat="42.83656" lon="0.12696">
        <ele>2685.0729779589</ele>
        <time>2015-05-24T11:34:16Z</time>
      </trkpt>
      <trkpt lat="42.83656" lon="0.12694">
        <ele>2685.0729779589</ele>
        <time>2015-05-24T11:34:22Z</time>
      </trkpt>
      <trkpt lat="42.8365" lon="0.12687">
        <ele>2683.8467859724</ele>
        <time>2015-05-24T11:35:17Z</time>
      </trkpt>
      <trkpt lat="42.83651" lon="0.12687">
        <ele>2683.8467859724</ele>
        <time>2015-05-24T11:35:26Z</time>
      </trkpt>
      <trkpt lat="42.83651" lon="0.12688">
        <ele>2683.8467859724</ele>
        <time>2015-05-24T11:35:33Z</time>
      </trkpt>
      <trkpt lat="42.83648" lon="0.1269">
        <ele>2683.8467859724</ele>
        <time>2015-05-24T11:35:41Z</time>
      </trkpt>
      <trkpt lat="42.83651" lon="0.12691">
        <ele>2683.8467859724</ele>
        <time>2015-05-24T11:35:48Z</time>
      </trkpt>
      <trkpt lat="42.83654" lon="0.12694">
        <ele>2681.7962567935</ele>
        <time>2015-05-24T11:36:06Z</time>
      </trkpt>
      <trkpt lat="42.83656" lon="0.12694">
        <ele>2681.7962567935</ele>
        <time>2015-05-24T11:36:12Z</time>
      </trkpt>
      <trkpt lat="42.83654" lon="0.12693">
        <ele>2681.7962567935</ele>
        <time>2015-05-24T11:36:27Z</time>
      </trkpt>
      <trkpt lat="42.83653" lon="0.12691">
        <ele>2681.7962567935</ele>
        <time>2015-05-24T11:36:32Z</time>
      </trkpt>
      <trkpt lat="42.83648" lon="0.12691">
        <ele>2679.0636713522</ele>
        <time>2015-05-24T11:36:36Z</time>
      </trkpt>
      <trkpt lat="42.83648" lon="0.12692">
        <ele>2679.0636713522</ele>
        <time>2015-05-24T11:36:42Z</time>
      </trkpt>
      <trkpt lat="42.83649" lon="0.1269">
        <ele>2679.0636713522</ele>
        <time>2015-05-24T11:36:47Z</time>
      </trkpt>
      <trkpt lat="42.83647" lon="0.12691">
        <ele>2679.0636713522</ele>
        <time>2015-05-24T11:36:52Z</time>
      </trkpt>
      <trkpt lat="42.83647" lon="0.1269">
        <ele>2679.0636713522</ele>
        <time>2015-05-24T11:36:56Z</time>
      </trkpt>
      <trkpt lat="42.83648" lon="0.1269">
        <ele>2679.0636713522</ele>
        <time>2015-05-24T11:37:01Z</time>
      </trkpt>
      <trkpt lat="42.83651" lon="0.12691">
        <ele>2676.2292035899</ele>
        <time>2015-05-24T11:37:08Z</time>
      </trkpt>
      <trkpt lat="42.83651" lon="0.12686">
        <ele>2676.2292035899</ele>
        <time>2015-05-24T11:37:18Z</time>
      </trkpt>
      <trkpt lat="42.83649" lon="0.12687">
        <ele>2676.2292035899</ele>
        <time>2015-05-24T11:37:22Z</time>
      </trkpt>
      <trkpt lat="42.83645" lon="0.12688">
        <ele>2673.3692180041</ele>
        <time>2015-05-24T11:37:32Z</time>
      </trkpt>
      <trkpt lat="42.83645" lon="0.1269">
        <ele>2673.3692180041</ele>
        <time>2015-05-24T11:37:37Z</time>
      </trkpt>
      <trkpt lat="42.83645" lon="0.1269">
        <ele>2673.3692180041</ele>
        <time>2015-05-24T11:37:42Z</time>
      </trkpt>
      <trkpt lat="42.83649" lon="0.12693">
        <ele>2673.3692180041</ele>
        <time>2015-05-24T11:37:57Z</time>
      </trkpt>
      <trkpt lat="42.83648" lon="0.12693">
        <ele>2673.3692180041</ele>
        <time>2015-05-24T11:38:02Z</time>
      </trkpt>
      <trkpt lat="42.8365" lon="0.12693">
        <ele>2670.0498224316</ele>
        <time>2015-05-24T11:40:47Z</time>
      </trkpt>
      <trkpt lat="42.8365" lon="0.12693">
        <ele>2670.0498224316</ele>
        <time>2015-05-24T11:40:52Z</time>
      </trkpt>
      <trkpt lat="42.83652" lon="0.12698">
        <ele>2670.0498224316</ele>
        <time>2015-05-24T11:40:57Z</time>
      </trkpt>
      <trkpt lat="42.83648" lon="0.12699">
        <ele>2670.0498224316</ele>
        <time>2015-05-24T11:41:02Z</time>
      </trkpt>
      <trkpt lat="42.83648" lon="0.12699">
        <ele>2670.0498224316</ele>
        <time>2015-05-24T11:41:06Z</time>
      </trkpt>
      <trkpt lat="42.83647" lon="0.12699">
        <ele>2666.9219600399</ele>
        <time>2015-05-24T11:41:15Z</time>
      </trkpt>
      <trkpt lat="42.83639" lon="0.12693">
        <ele>2664.0978947951</ele>
        <time>2015-05-24T11:42:26Z</time>
      </trkpt>
      <trkpt lat="42.83638" lon="0.12692">
        <ele>2664.0978947951</ele>
        <time>2015-05-24T11:42:32Z</time>
      </trkpt>
      <trkpt lat="42.83644" lon="0.12689">
        <ele>2664.0978947951</ele>
        <time>2015-05-24T11:42:46Z</time>
      </trkpt>
      <trkpt lat="42.83643" lon="0.12683">
        <ele>2661.4642730122</ele>
        <time>2015-05-24T11:42:56Z</time>
      </trkpt>
      <trkpt lat="42.83642" lon="0.12681">
        <ele>2661.4642730122</ele>
        <time>2015-05-24T11:43:02Z</time>
      </trkpt>
      <trkpt lat="42.83642" lon="0.12678">
        <ele>2661.4642730122</ele>
        <time>2015-05-24T11:43:06Z</time>
      </trkpt>
      <trkpt lat="42.83644" lon="0.12674">
        <ele>2661.4642730122</ele>
        <time>2015-05-24T11:43:12Z</time>
      </trkpt>
      <trkpt lat="42.83645" lon="0.12671">
        <ele>2659.1745788885</ele>
        <time>2015-05-24T11:43:17Z</time>
      </trkpt>
      <trkpt lat="42.83645" lon="0.12668">
        <ele>2659.1745788885</ele>
        <time>2015-05-24T11:43:22Z</time>
      </trkpt>
      <trkpt lat="42.83647" lon="0.12663">
        <ele>2659.1745788885</ele>
        <time>2015-05-24T11:43:26Z</time>
      </trkpt>
      <trkpt lat="42.83649" lon="0.12656">
        <ele>2657.1679469185</ele>
        <time>2015-05-24T11:43:33Z</time>
      </trkpt>
      <trkpt lat="42.83649" lon="0.12653">
        <ele>2657.1679469185</ele>
        <time>2015-05-24T11:43:36Z</time>
      </trkpt>
      <trkpt lat="42.83651" lon="0.12649">
        <ele>2657.1679469185</ele>
        <time>2015-05-24T11:43:42Z</time>
      </trkpt>
      <trkpt lat="42.8365" lon="0.12646">
        <ele>2657.1679469185</ele>
        <time>2015-05-24T11:43:46Z</time>
      </trkpt>
      <trkpt lat="42.83652" lon="0.12643">
        <ele>2655.4444826218</ele>
        <time>2015-05-24T11:43:52Z</time>
      </trkpt>
      <trkpt lat="42.83652" lon="0.12641">
        <ele>2655.4444826218</ele>
        <time>2015-05-24T11:43:56Z</time>
      </trkpt>
      <trkpt lat="42.83657" lon="0.12638">
        <ele>2655.4444826218</ele>
        <time>2015-05-24T11:44:13Z</time>
      </trkpt>
      <trkpt lat="42.83658" lon="0.12634">
        <ele>2654.0607904921</ele>
        <time>2015-05-24T11:44:16Z</time>
      </trkpt>
      <trkpt lat="42.8366" lon="0.12631">
        <ele>2654.0607904921</ele>
        <time>2015-05-24T11:44:22Z</time>
      </trkpt>
      <trkpt lat="42.83661" lon="0.1263">
        <ele>2654.0607904921</ele>
        <time>2015-05-24T11:44:26Z</time>
      </trkpt>
      <trkpt lat="42.83663" lon="0.12629">
        <ele>2654.0607904921</ele>
        <time>2015-05-24T11:44:32Z</time>
      </trkpt>
      <trkpt lat="42.83666" lon="0.12627">
        <ele>2654.0607904921</ele>
        <time>2015-05-24T11:44:37Z</time>
      </trkpt>
      <trkpt lat="42.83666" lon="0.12626">
        <ele>2652.9527416088</ele>
        <time>2015-05-24T11:44:41Z</time>
      </trkpt>
      <trkpt lat="42.83668" lon="0.12621">
        <ele>2652.9527416088</ele>
        <time>2015-05-24T11:44:46Z</time>
      </trkpt>
      <trkpt lat="42.83668" lon="0.1262">
        <ele>2652.9527416088</ele>
        <time>2015-05-24T11:44:53Z</time>
      </trkpt>
      <trkpt lat="42.8367" lon="0.12614">
        <ele>2652.0454131429</ele>
        <time>2015-05-24T11:45:04Z</time>
      </trkpt>
      <trkpt lat="42.8367" lon="0.12613">
        <ele>2652.0454131429</ele>
        <time>2015-05-24T11:45:05Z</time>
      </trkpt>
      <trkpt lat="42.83673" lon="0.12609">
        <ele>2652.0454131429</ele>
        <time>2015-05-24T11:45:17Z</time>
      </trkpt>
      <trkpt lat="42.83672" lon="0.12607">
        <ele>2652.0454131429</ele>
        <time>2015-05-24T11:45:22Z</time>
      </trkpt>
      <trkpt lat="42.83676" lon="0.12606">
        <ele>2651.4270400301</ele>
        <time>2015-05-24T11:45:26Z</time>
      </trkpt>
      <trkpt lat="42.8368" lon="0.12604">
        <ele>2651.4270400301</ele>
        <time>2015-05-24T11:45:32Z</time>
      </trkpt>
      <trkpt lat="42.83681" lon="0.12603">
        <ele>2651.4270400301</ele>
        <time>2015-05-24T11:45:37Z</time>
      </trkpt>
      <trkpt lat="42.83681" lon="0.12603">
        <ele>2651.4270400301</ele>
        <time>2015-05-24T11:45:42Z</time>
      </trkpt>
      <trkpt lat="42.83685" lon="0.12599">
        <ele>2650.9044653963</ele>
        <time>2015-05-24T11:45:57Z</time>
      </trkpt>
      <trkpt lat="42.83685" lon="0.12596">
        <ele>2650.9044653963</ele>
        <time>2015-05-24T11:46:02Z</time>
      </trkpt>
      <trkpt lat="42.83684" lon="0.12593">
        <ele>2650.9044653963</ele>
        <time>2015-05-24T11:46:05Z</time>
      </trkpt>
      <trkpt lat="42.83683" lon="0.12588">
        <ele>2650.9044653963</ele>
        <time>2015-05-24T11:46:10Z</time>
      </trkpt>
      <trkpt lat="42.83685" lon="0.12583">
        <ele>2650.5864052043</ele>
        <time>2015-05-24T11:46:18Z</time>
      </trkpt>
      <trkpt lat="42.83686" lon="0.12581">
        <ele>2650.5864052043</ele>
        <time>2015-05-24T11:46:22Z</time>
      </trkpt>
      <trkpt lat="42.83687" lon="0.12578">
        <ele>2650.5864052043</ele>
        <time>2015-05-24T11:46:26Z</time>
      </trkpt>
      <trkpt lat="42.83692" lon="0.12575">
        <ele>2650.4430648879</ele>
        <time>2015-05-24T11:46:33Z</time>
      </trkpt>
      <trkpt lat="42.83694" lon="0.12573">
        <ele>2650.4430648879</ele>
        <time>2015-05-24T11:46:37Z</time>
      </trkpt>
      <trkpt lat="42.83695" lon="0.1257">
        <ele>2650.4430648879</ele>
        <time>2015-05-24T11:46:42Z</time>
      </trkpt>
      <trkpt lat="42.83694" lon="0.12567">
        <ele>2650.4430648879</ele>
        <time>2015-05-24T11:46:46Z</time>
      </trkpt>
      <trkpt lat="42.83693" lon="0.12567">
        <ele>2650.4028846336</ele>
        <time>2015-05-24T11:46:52Z</time>
      </trkpt>
      <trkpt lat="42.83693" lon="0.12557">
        <ele>2650.4028846336</ele>
        <time>2015-05-24T11:47:27Z</time>
      </trkpt>
      <trkpt lat="42.83693" lon="0.12554">
        <ele>2650.4422953114</ele>
        <time>2015-05-24T11:47:31Z</time>
      </trkpt>
      <trkpt lat="42.83697" lon="0.12551">
        <ele>2650.4422953114</ele>
        <time>2015-05-24T11:47:37Z</time>
      </trkpt>
      <trkpt lat="42.837" lon="0.12547">
        <ele>2650.4422953114</ele>
        <time>2015-05-24T11:47:42Z</time>
      </trkpt>
      <trkpt lat="42.83701" lon="0.12544">
        <ele>2650.6111021427</ele>
        <time>2015-05-24T11:47:46Z</time>
      </trkpt>
      <trkpt lat="42.83699" lon="0.12543">
        <ele>2650.6111021427</ele>
        <time>2015-05-24T11:47:52Z</time>
      </trkpt>
      <trkpt lat="42.837" lon="0.12542">
        <ele>2650.6111021427</ele>
        <time>2015-05-24T11:47:57Z</time>
      </trkpt>
      <trkpt lat="42.837" lon="0.1254">
        <ele>2650.6111021427</ele>
        <time>2015-05-24T11:48:02Z</time>
      </trkpt>
      <trkpt lat="42.83698" lon="0.12525">
        <ele>2651.1710872496</ele>
        <time>2015-05-24T11:48:33Z</time>
      </trkpt>
      <trkpt lat="42.83699" lon="0.12523">
        <ele>2651.1710872496</ele>
        <time>2015-05-24T11:48:36Z</time>
      </trkpt>
      <trkpt lat="42.83699" lon="0.12521">
        <ele>2651.1710872496</ele>
        <time>2015-05-24T11:48:43Z</time>
      </trkpt>
      <trkpt lat="42.83699" lon="0.12519">
        <ele>2651.1710872496</ele>
        <time>2015-05-24T11:48:46Z</time>
      </trkpt>
      <trkpt lat="42.83701" lon="0.12517">
        <ele>2651.1710872496</ele>
        <time>2015-05-24T11:48:52Z</time>
      </trkpt>
      <trkpt lat="42.83702" lon="0.12514">
        <ele>2651.9600470884</ele>
        <time>2015-05-24T11:48:57Z</time>
      </trkpt>
      <trkpt lat="42.837" lon="0.1251">
        <ele>2651.9600470884</ele>
        <time>2015-05-24T11:49:02Z</time>
      </trkpt>
      <trkpt lat="42.837" lon="0.12509">
        <ele>2651.9600470884</ele>
        <time>2015-05-24T11:49:06Z</time>
      </trkpt>
      <trkpt lat="42.83704" lon="0.12505">
        <ele>2652.8557487061</ele>
        <time>2015-05-24T11:49:26Z</time>
      </trkpt>
      <trkpt lat="42.83705" lon="0.12504">
        <ele>2652.8557487061</ele>
        <time>2015-05-24T11:49:32Z</time>
      </trkpt>
      <trkpt lat="42.83706" lon="0.12502">
        <ele>2652.8557487061</ele>
        <time>2015-05-24T11:49:37Z</time>
      </trkpt>
      <trkpt lat="42.83708" lon="0.125">
        <ele>2652.8557487061</ele>
        <time>2015-05-24T11:49:42Z</time>
      </trkpt>
      <trkpt lat="42.83709" lon="0.12497">
        <ele>2652.8557487061</ele>
        <time>2015-05-24T11:49:46Z</time>
      </trkpt>
      <trkpt lat="42.8371" lon="0.12493">
        <ele>2653.9462924219</ele>
        <time>2015-05-24T11:49:51Z</time>
      </trkpt>
      <trkpt lat="42.8371" lon="0.12493">
        <ele>2653.9462924219</ele>
        <time>2015-05-24T11:49:58Z</time>
      </trkpt>
      <trkpt lat="42.8371" lon="0.12484">
        <ele>2653.9462924219</ele>
        <time>2015-05-24T11:50:21Z</time>
      </trkpt>
      <trkpt lat="42.83711" lon="0.12482">
        <ele>2653.9462924219</ele>
        <time>2015-05-24T11:50:27Z</time>
      </trkpt>
      <trkpt lat="42.83713" lon="0.12478">
        <ele>2655.240625513</ele>
        <time>2015-05-24T11:50:32Z</time>
      </trkpt>
      <trkpt lat="42.83714" lon="0.12476">
        <ele>2655.240625513</ele>
        <time>2015-05-24T11:50:37Z</time>
      </trkpt>
      <trkpt lat="42.83717" lon="0.12477">
        <ele>2655.240625513</ele>
        <time>2015-05-24T11:50:42Z</time>
      </trkpt>
      <trkpt lat="42.83718" lon="0.12475">
        <ele>2655.240625513</ele>
        <time>2015-05-24T11:50:46Z</time>
      </trkpt>
      <trkpt lat="42.83721" lon="0.12471">
        <ele>2656.6311211588</ele>
        <time>2015-05-24T11:50:52Z</time>
      </trkpt>
      <trkpt lat="42.83721" lon="0.12472">
        <ele>2656.6311211588</ele>
        <time>2015-05-24T11:50:57Z</time>
      </trkpt>
      <trkpt lat="42.83727" lon="0.12465">
        <ele>2656.6311211588</ele>
        <time>2015-05-24T11:51:32Z</time>
      </trkpt>
      <trkpt lat="42.83731" lon="0.12459">
        <ele>2658.305977958</ele>
        <time>2015-05-24T11:51:37Z</time>
      </trkpt>
      <trkpt lat="42.83732" lon="0.12453">
        <ele>2658.305977958</ele>
        <time>2015-05-24T11:51:42Z</time>
      </trkpt>
      <trkpt lat="42.83732" lon="0.12449">
        <ele>2658.305977958</ele>
        <time>2015-05-24T11:51:46Z</time>
      </trkpt>
      <trkpt lat="42.83728" lon="0.12445">
        <ele>2659.9487829283</ele>
        <time>2015-05-24T11:51:52Z</time>
      </trkpt>
      <trkpt lat="42.8373" lon="0.12445">
        <ele>2659.9487829283</ele>
        <time>2015-05-24T11:51:56Z</time>
      </trkpt>
      <trkpt lat="42.83736" lon="0.12441">
        <ele>2659.9487829283</ele>
        <time>2015-05-24T11:52:21Z</time>
      </trkpt>
      <trkpt lat="42.83737" lon="0.12439">
        <ele>2661.7420344339</ele>
        <time>2015-05-24T11:52:26Z</time>
      </trkpt>
      <trkpt lat="42.83736" lon="0.12431">
        <ele>2661.7420344339</ele>
        <time>2015-05-24T11:52:32Z</time>
      </trkpt>
      <trkpt lat="42.83735" lon="0.12427">
        <ele>2661.7420344339</ele>
        <time>2015-05-24T11:52:36Z</time>
      </trkpt>
      <trkpt lat="42.83734" lon="0.1242">
        <ele>2663.5085679243</ele>
        <time>2015-05-24T11:52:43Z</time>
      </trkpt>
      <trkpt lat="42.83734" lon="0.12418">
        <ele>2663.5085679243</ele>
        <time>2015-05-24T11:52:46Z</time>
      </trkpt>
      <trkpt lat="42.83736" lon="0.12419">
        <ele>2663.5085679243</ele>
        <time>2015-05-24T11:52:52Z</time>
      </trkpt>
      <trkpt lat="42.83733" lon="0.12405">
        <ele>2665.7472725219</ele>
        <time>2015-05-24T11:53:12Z</time>
      </trkpt>
      <trkpt lat="42.83735" lon="0.12399">
        <ele>2665.7472725219</ele>
        <time>2015-05-24T11:53:17Z</time>
      </trkpt>
      <trkpt lat="42.83734" lon="0.12395">
        <ele>2665.7472725219</ele>
        <time>2015-05-24T11:53:22Z</time>
      </trkpt>
      <trkpt lat="42.83733" lon="0.12391">
        <ele>2667.9103592074</ele>
        <time>2015-05-24T11:53:26Z</time>
      </trkpt>
      <trkpt lat="42.8373" lon="0.12388">
        <ele>2667.9103592074</ele>
        <time>2015-05-24T11:53:32Z</time>
      </trkpt>
      <trkpt lat="42.8373" lon="0.12384">
        <ele>2667.9103592074</ele>
        <time>2015-05-24T11:53:37Z</time>
      </trkpt>
      <trkpt lat="42.8373" lon="0.12383">
        <ele>2667.9103592074</ele>
        <time>2015-05-24T11:53:43Z</time>
      </trkpt>
      <trkpt lat="42.83726" lon="0.12372">
        <ele>2670.3408394523</ele>
        <time>2015-05-24T11:54:13Z</time>
      </trkpt>
      <trkpt lat="42.83727" lon="0.12371">
        <ele>2670.3408394523</ele>
        <time>2015-05-24T11:54:17Z</time>
      </trkpt>
      <trkpt lat="42.8373" lon="0.12368">
        <ele>2670.3408394523</ele>
        <time>2015-05-24T11:54:22Z</time>
      </trkpt>
      <trkpt lat="42.83729" lon="0.12366">
        <ele>2670.3408394523</ele>
        <time>2015-05-24T11:54:26Z</time>
      </trkpt>
      <trkpt lat="42.83728" lon="0.12362">
        <ele>2672.9523773103</ele>
        <time>2015-05-24T11:54:32Z</time>
      </trkpt>
      <trkpt lat="42.83729" lon="0.12359">
        <ele>2672.9523773103</ele>
        <time>2015-05-24T11:54:37Z</time>
      </trkpt>
      <trkpt lat="42.83732" lon="0.12358">
        <ele>2672.9523773103</ele>
        <time>2015-05-24T11:54:46Z</time>
      </trkpt>
      <trkpt lat="42.83734" lon="0.12361">
        <ele>2672.9523773103</ele>
        <time>2015-05-24T11:54:52Z</time>
      </trkpt>
      <trkpt lat="42.83735" lon="0.12363">
        <ele>2675.9960575793</ele>
        <time>2015-05-24T11:54:57Z</time>
      </trkpt>
      <trkpt lat="42.83735" lon="0.12362">
        <ele>2675.9960575793</ele>
        <time>2015-05-24T11:55:02Z</time>
      </trkpt>
      <trkpt lat="42.83736" lon="0.12357">
        <ele>2675.9960575793</ele>
        <time>2015-05-24T11:55:17Z</time>
      </trkpt>
      <trkpt lat="42.83734" lon="0.12352">
        <ele>2678.968490861</ele>
        <time>2015-05-24T11:55:33Z</time>
      </trkpt>
      <trkpt lat="42.83734" lon="0.12348">
        <ele>2678.968490861</ele>
        <time>2015-05-24T11:55:36Z</time>
      </trkpt>
      <trkpt lat="42.83736" lon="0.12346">
        <ele>2678.968490861</ele>
        <time>2015-05-24T11:55:42Z</time>
      </trkpt>
      <trkpt lat="42.83738" lon="0.12346">
        <ele>2678.968490861</ele>
        <time>2015-05-24T11:55:46Z</time>
      </trkpt>
      <trkpt lat="42.83741" lon="0.12344">
        <ele>2681.96566791</ele>
        <time>2015-05-24T11:55:52Z</time>
      </trkpt>
      <trkpt lat="42.83743" lon="0.12343">
        <ele>2681.96566791</ele>
        <time>2015-05-24T11:55:57Z</time>
      </trkpt>
      <trkpt lat="42.83747" lon="0.1234">
        <ele>2681.96566791</ele>
        <time>2015-05-24T11:56:02Z</time>
      </trkpt>
      <trkpt lat="42.83749" lon="0.12338">
        <ele>2684.932533011</ele>
        <time>2015-05-24T11:56:06Z</time>
      </trkpt>
      <trkpt lat="42.83751" lon="0.12336">
        <ele>2684.932533011</ele>
        <time>2015-05-24T11:56:13Z</time>
      </trkpt>
      <trkpt lat="42.83753" lon="0.12331">
        <ele>2684.932533011</ele>
        <time>2015-05-24T11:56:17Z</time>
      </trkpt>
      <trkpt lat="42.83756" lon="0.12327">
        <ele>2687.8471835685</ele>
        <time>2015-05-24T11:56:22Z</time>
      </trkpt>
      <trkpt lat="42.83757" lon="0.12326">
        <ele>2687.8471835685</ele>
        <time>2015-05-24T11:56:26Z</time>
      </trkpt>
      <trkpt lat="42.8376" lon="0.12322">
        <ele>2687.8471835685</ele>
        <time>2015-05-24T11:56:32Z</time>
      </trkpt>
      <trkpt lat="42.83764" lon="0.12319">
        <ele>2690.6752765929</ele>
        <time>2015-05-24T11:56:37Z</time>
      </trkpt>
      <trkpt lat="42.83766" lon="0.12318">
        <ele>2690.6752765929</ele>
        <time>2015-05-24T11:56:42Z</time>
      </trkpt>
      <trkpt lat="42.83771" lon="0.12316">
        <ele>2690.6752765929</ele>
        <time>2015-05-24T11:56:53Z</time>
      </trkpt>
      <trkpt lat="42.83771" lon="0.12315">
        <ele>2690.6752765929</ele>
        <time>2015-05-24T11:56:56Z</time>
      </trkpt>
      <trkpt lat="42.83776" lon="0.12312">
        <ele>2693.4142839489</ele>
        <time>2015-05-24T11:57:02Z</time>
      </trkpt>
      <trkpt lat="42.83779" lon="0.1231">
        <ele>2693.4142839489</ele>
        <time>2015-05-24T11:57:06Z</time>
      </trkpt>
      <trkpt lat="42.83785" lon="0.12305">
        <ele>2695.9758827753</ele>
        <time>2015-05-24T11:57:12Z</time>
      </trkpt>
      <trkpt lat="42.83789" lon="0.12301">
        <ele>2695.9758827753</ele>
        <time>2015-05-24T11:57:17Z</time>
      </trkpt>
      <trkpt lat="42.83792" lon="0.12298">
        <ele>2695.9758827753</ele>
        <time>2015-05-24T11:57:21Z</time>
      </trkpt>
      <trkpt lat="42.83794" lon="0.12295">
        <ele>2698.4375017653</ele>
        <time>2015-05-24T11:57:26Z</time>
      </trkpt>
      <trkpt lat="42.83797" lon="0.1229">
        <ele>2698.4375017653</ele>
        <time>2015-05-24T11:57:32Z</time>
      </trkpt>
      <trkpt lat="42.83798" lon="0.12287">
        <ele>2698.4375017653</ele>
        <time>2015-05-24T11:57:37Z</time>
      </trkpt>
      <trkpt lat="42.83798" lon="0.12283">
        <ele>2700.8281772101</ele>
        <time>2015-05-24T11:57:42Z</time>
      </trkpt>
      <trkpt lat="42.83798" lon="0.12283">
        <ele>2700.8281772101</ele>
        <time>2015-05-24T11:57:46Z</time>
      </trkpt>
      <trkpt lat="42.83798" lon="0.12283">
        <ele>2700.8281772101</ele>
        <time>2015-05-24T11:57:52Z</time>
      </trkpt>
      <trkpt lat="42.83798" lon="0.12269">
        <ele>2703.5787746611</ele>
        <time>2015-05-24T11:58:17Z</time>
      </trkpt>
      <trkpt lat="42.83801" lon="0.12267">
        <ele>2703.5787746611</ele>
        <time>2015-05-24T11:58:22Z</time>
      </trkpt>
      <trkpt lat="42.83802" lon="0.12265">
        <ele>2703.5787746611</ele>
        <time>2015-05-24T11:58:26Z</time>
      </trkpt>
      <trkpt lat="42.83802" lon="0.12265">
        <ele>2703.5787746611</ele>
        <time>2015-05-24T11:58:33Z</time>
      </trkpt>
      <trkpt lat="42.83807" lon="0.12263">
        <ele>2706.1798526914</ele>
        <time>2015-05-24T11:58:37Z</time>
      </trkpt>
      <trkpt lat="42.8381" lon="0.1226">
        <ele>2706.1798526914</ele>
        <time>2015-05-24T11:58:41Z</time>
      </trkpt>
      <trkpt lat="42.83814" lon="0.12257">
        <ele>2706.1798526914</ele>
        <time>2015-05-24T11:58:47Z</time>
      </trkpt>
      <trkpt lat="42.83816" lon="0.12254">
        <ele>2708.5491680681</ele>
        <time>2015-05-24T11:58:52Z</time>
      </trkpt>
      <trkpt lat="42.83816" lon="0.12253">
        <ele>2708.5491680681</ele>
        <time>2015-05-24T11:58:57Z</time>
      </trkpt>
      <trkpt lat="42.83819" lon="0.12248">
        <ele>2708.5491680681</ele>
        <time>2015-05-24T11:59:17Z</time>
      </trkpt>
      <trkpt lat="42.8382" lon="0.12243">
        <ele>2710.7699469023</ele>
        <time>2015-05-24T11:59:22Z</time>
      </trkpt>
      <trkpt lat="42.83821" lon="0.12241">
        <ele>2710.7699469023</ele>
        <time>2015-05-24T11:59:26Z</time>
      </trkpt>
      <trkpt lat="42.83826" lon="0.12237">
        <ele>2710.7699469023</ele>
        <time>2015-05-24T11:59:32Z</time>
      </trkpt>
      <trkpt lat="42.83828" lon="0.12235">
        <ele>2712.8190942637</ele>
        <time>2015-05-24T11:59:37Z</time>
      </trkpt>
      <trkpt lat="42.83831" lon="0.12232">
        <ele>2712.8190942637</ele>
        <time>2015-05-24T11:59:42Z</time>
      </trkpt>
      <trkpt lat="42.83833" lon="0.12229">
        <ele>2712.8190942637</ele>
        <time>2015-05-24T11:59:46Z</time>
      </trkpt>
      <trkpt lat="42.83836" lon="0.12223">
        <ele>2714.7191767742</ele>
        <time>2015-05-24T11:59:52Z</time>
      </trkpt>
      <trkpt lat="42.83836" lon="0.1222">
        <ele>2714.7191767742</ele>
        <time>2015-05-24T11:59:57Z</time>
      </trkpt>
      <trkpt lat="42.8384" lon="0.12218">
        <ele>2714.7191767742</ele>
        <time>2015-05-24T12:00:01Z</time>
      </trkpt>
      <trkpt lat="42.83841" lon="0.12215">
        <ele>2714.7191767742</ele>
        <time>2015-05-24T12:00:06Z</time>
      </trkpt>
      <trkpt lat="42.83842" lon="0.12211">
        <ele>2716.4773550318</ele>
        <time>2015-05-24T12:00:12Z</time>
      </trkpt>
      <trkpt lat="42.83844" lon="0.12209">
        <ele>2716.4773550318</ele>
        <time>2015-05-24T12:00:17Z</time>
      </trkpt>
      <trkpt lat="42.83847" lon="0.12202">
        <ele>2716.4773550318</ele>
        <time>2015-05-24T12:00:22Z</time>
      </trkpt>
      <trkpt lat="42.83849" lon="0.12199">
        <ele>2718.0576658062</ele>
        <time>2015-05-24T12:00:26Z</time>
      </trkpt>
      <trkpt lat="42.83849" lon="0.12195">
        <ele>2718.0576658062</ele>
        <time>2015-05-24T12:00:32Z</time>
      </trkpt>
      <trkpt lat="42.83851" lon="0.1219">
        <ele>2718.0576658062</ele>
        <time>2015-05-24T12:00:37Z</time>
      </trkpt>
      <trkpt lat="42.83852" lon="0.12186">
        <ele>2719.5716267467</ele>
        <time>2015-05-24T12:00:41Z</time>
      </trkpt>
      <trkpt lat="42.83854" lon="0.12183">
        <ele>2719.5716267467</ele>
        <time>2015-05-24T12:00:46Z</time>
      </trkpt>
      <trkpt lat="42.83856" lon="0.1218">
        <ele>2719.5716267467</ele>
        <time>2015-05-24T12:00:52Z</time>
      </trkpt>
      <trkpt lat="42.83859" lon="0.12176">
        <ele>2720.9788576371</ele>
        <time>2015-05-24T12:00:57Z</time>
      </trkpt>
      <trkpt lat="42.8386" lon="0.12169">
        <ele>2720.9788576371</ele>
        <time>2015-05-24T12:01:02Z</time>
      </trkpt>
      <trkpt lat="42.8386" lon="0.12164">
        <ele>2722.2568635972</ele>
        <time>2015-05-24T12:01:06Z</time>
      </trkpt>
      <trkpt lat="42.83864" lon="0.12158">
        <ele>2722.2568635972</ele>
        <time>2015-05-24T12:01:12Z</time>
      </trkpt>
      <trkpt lat="42.83865" lon="0.12157">
        <ele>2722.2568635972</ele>
        <time>2015-05-24T12:01:17Z</time>
      </trkpt>
      <trkpt lat="42.83865" lon="0.12156">
        <ele>2722.2568635972</ele>
        <time>2015-05-24T12:01:22Z</time>
      </trkpt>
      <trkpt lat="42.83866" lon="0.12157">
        <ele>2722.2568635972</ele>
        <time>2015-05-24T12:01:26Z</time>
      </trkpt>
      <trkpt lat="42.83867" lon="0.12156">
        <ele>2722.2568635972</ele>
        <time>2015-05-24T12:01:31Z</time>
      </trkpt>
      <trkpt lat="42.83867" lon="0.12154">
        <ele>2723.4862396856</ele>
        <time>2015-05-24T12:01:36Z</time>
      </trkpt>
      <trkpt lat="42.83874" lon="0.12151">
        <ele>2723.4862396856</ele>
        <time>2015-05-24T12:01:42Z</time>
      </trkpt>
      <trkpt lat="42.83875" lon="0.12147">
        <ele>2724.5834598312</ele>
        <time>2015-05-24T12:01:46Z</time>
      </trkpt>
      <trkpt lat="42.83878" lon="0.12142">
        <ele>2724.5834598312</ele>
        <time>2015-05-24T12:01:52Z</time>
      </trkpt>
      <trkpt lat="42.83881" lon="0.12138">
        <ele>2724.5834598312</ele>
        <time>2015-05-24T12:01:57Z</time>
      </trkpt>
      <trkpt lat="42.83882" lon="0.12136">
        <ele>2725.5869661649</ele>
        <time>2015-05-24T12:02:02Z</time>
      </trkpt>
      <trkpt lat="42.83883" lon="0.12133">
        <ele>2725.5869661649</ele>
        <time>2015-05-24T12:02:06Z</time>
      </trkpt>
      <trkpt lat="42.83885" lon="0.1213">
        <ele>2725.5869661649</ele>
        <time>2015-05-24T12:02:13Z</time>
      </trkpt>
      <trkpt lat="42.83886" lon="0.12127">
        <ele>2725.5869661649</ele>
        <time>2015-05-24T12:02:16Z</time>
      </trkpt>
      <trkpt lat="42.83886" lon="0.12127">
        <ele>2725.5869661649</ele>
        <time>2015-05-24T12:02:22Z</time>
      </trkpt>
      <trkpt lat="42.83889" lon="0.12125">
        <ele>2726.6336777375</ele>
        <time>2015-05-24T12:02:31Z</time>
      </trkpt>
      <trkpt lat="42.83893" lon="0.12125">
        <ele>2726.6336777375</ele>
        <time>2015-05-24T12:02:36Z</time>
      </trkpt>
      <trkpt lat="42.83892" lon="0.12119">
        <ele>2726.6336777375</ele>
        <time>2015-05-24T12:02:43Z</time>
      </trkpt>
      <trkpt lat="42.83893" lon="0.12116">
        <ele>2727.6343151205</ele>
        <time>2015-05-24T12:02:46Z</time>
      </trkpt>
      <trkpt lat="42.83895" lon="0.12113">
        <ele>2727.6343151205</ele>
        <time>2015-05-24T12:02:52Z</time>
      </trkpt>
      <trkpt lat="42.83897" lon="0.1211">
        <ele>2727.6343151205</ele>
        <time>2015-05-24T12:02:57Z</time>
      </trkpt>
      <trkpt lat="42.83894" lon="0.12102">
        <ele>2728.4631878727</ele>
        <time>2015-05-24T12:03:01Z</time>
      </trkpt>
      <trkpt lat="42.83895" lon="0.12097">
        <ele>2728.4631878727</ele>
        <time>2015-05-24T12:03:06Z</time>
      </trkpt>
      <trkpt lat="42.83897" lon="0.12091">
        <ele>2728.4631878727</ele>
        <time>2015-05-24T12:03:13Z</time>
      </trkpt>
      <trkpt lat="42.83899" lon="0.12088">
        <ele>2729.2061981099</ele>
        <time>2015-05-24T12:03:16Z</time>
      </trkpt>
      <trkpt lat="42.83899" lon="0.12084">
        <ele>2729.2061981099</ele>
        <time>2015-05-24T12:03:23Z</time>
      </trkpt>
      <trkpt lat="42.83899" lon="0.12083">
        <ele>2729.2061981099</ele>
        <time>2015-05-24T12:03:26Z</time>
      </trkpt>
      <trkpt lat="42.83899" lon="0.12082">
        <ele>2729.2061981099</ele>
        <time>2015-05-24T12:03:32Z</time>
      </trkpt>
      <trkpt lat="42.839" lon="0.12083">
        <ele>2729.2061981099</ele>
        <time>2015-05-24T12:03:37Z</time>
      </trkpt>
      <trkpt lat="42.839" lon="0.12082">
        <ele>2729.2061981099</ele>
        <time>2015-05-24T12:03:42Z</time>
      </trkpt>
      <trkpt lat="42.83902" lon="0.12078">
        <ele>2729.8279986405</ele>
        <time>2015-05-24T12:03:46Z</time>
      </trkpt>
      <trkpt lat="42.83905" lon="0.12073">
        <ele>2729.8279986405</ele>
        <time>2015-05-24T12:03:52Z</time>
      </trkpt>
      <trkpt lat="42.83907" lon="0.12069">
        <ele>2729.8279986405</ele>
        <time>2015-05-24T12:03:56Z</time>
      </trkpt>
      <trkpt lat="42.83907" lon="0.12064">
        <ele>2730.3539193134</ele>
        <time>2015-05-24T12:04:02Z</time>
      </trkpt>
      <trkpt lat="42.83904" lon="0.12061">
        <ele>2730.3539193134</ele>
        <time>2015-05-24T12:04:06Z</time>
      </trkpt>
      <trkpt lat="42.83904" lon="0.12058">
        <ele>2730.3539193134</ele>
        <time>2015-05-24T12:04:11Z</time>
      </trkpt>
      <trkpt lat="42.83904" lon="0.12052">
        <ele>2730.79336974</ele>
        <time>2015-05-24T12:04:17Z</time>
      </trkpt>
      <trkpt lat="42.83905" lon="0.12049">
        <ele>2730.79336974</ele>
        <time>2015-05-24T12:04:21Z</time>
      </trkpt>
      <trkpt lat="42.83909" lon="0.12046">
        <ele>2730.79336974</ele>
        <time>2015-05-24T12:04:26Z</time>
      </trkpt>
      <trkpt lat="42.83909" lon="0.12043">
        <ele>2730.79336974</ele>
        <time>2015-05-24T12:04:32Z</time>
      </trkpt>
      <trkpt lat="42.83914" lon="0.1204">
        <ele>2731.1842024128</ele>
        <time>2015-05-24T12:04:47Z</time>
      </trkpt>
      <trkpt lat="42.83917" lon="0.12034">
        <ele>2731.1842024128</ele>
        <time>2015-05-24T12:04:52Z</time>
      </trkpt>
      <trkpt lat="42.83911" lon="0.12028">
        <ele>2731.3022811946</ele>
        <time>2015-05-24T12:04:57Z</time>
      </trkpt>
      <trkpt lat="42.83911" lon="0.12028">
        <ele>2731.3022811946</ele>
        <time>2015-05-24T12:05:02Z</time>
      </trkpt>
      <trkpt lat="42.83909" lon="0.12024">
        <ele>2731.3022811946</ele>
        <time>2015-05-24T12:05:06Z</time>
      </trkpt>
      <trkpt lat="42.83909" lon="0.12021">
        <ele>2731.3022811946</ele>
        <time>2015-05-24T12:05:12Z</time>
      </trkpt>
      <trkpt lat="42.83911" lon="0.12021">
        <ele>2731.3022811946</ele>
        <time>2015-05-24T12:05:17Z</time>
      </trkpt>
      <trkpt lat="42.83912" lon="0.1202">
        <ele>2731.5460093412</ele>
        <time>2015-05-24T12:05:22Z</time>
      </trkpt>
      <trkpt lat="42.83913" lon="0.1202">
        <ele>2731.5460093412</ele>
        <time>2015-05-24T12:05:26Z</time>
      </trkpt>
      <trkpt lat="42.83908" lon="0.12011">
        <ele>2731.6789334957</ele>
        <time>2015-05-24T12:05:31Z</time>
      </trkpt>
      <trkpt lat="42.83908" lon="0.12006">
        <ele>2731.6789334957</ele>
        <time>2015-05-24T12:05:37Z</time>
      </trkpt>
      <trkpt lat="42.83905" lon="0.11996">
        <ele>2731.7849307321</ele>
        <time>2015-05-24T12:05:42Z</time>
      </trkpt>
      <trkpt lat="42.83903" lon="0.11991">
        <ele>2731.7849307321</ele>
        <time>2015-05-24T12:05:46Z</time>
      </trkpt>
      <trkpt lat="42.83904" lon="0.11987">
        <ele>2731.7849307321</ele>
        <time>2015-05-24T12:05:52Z</time>
      </trkpt>
      <trkpt lat="42.83899" lon="0.1198">
        <ele>2731.7256292073</ele>
        <time>2015-05-24T12:05:57Z</time>
      </trkpt>
      <trkpt lat="42.83896" lon="0.11975">
        <ele>2731.7256292073</ele>
        <time>2015-05-24T12:06:02Z</time>
      </trkpt>
      <trkpt lat="42.83895" lon="0.11975">
        <ele>2731.7256292073</ele>
        <time>2015-05-24T12:06:06Z</time>
      </trkpt>
      <trkpt lat="42.83896" lon="0.11975">
        <ele>2731.7256292073</ele>
        <time>2015-05-24T12:06:12Z</time>
      </trkpt>
      <trkpt lat="42.83896" lon="0.11971">
        <ele>2731.3012211965</ele>
        <time>2015-05-24T12:06:17Z</time>
      </trkpt>
      <trkpt lat="42.83897" lon="0.11967">
        <ele>2731.3012211965</ele>
        <time>2015-05-24T12:06:22Z</time>
      </trkpt>
      <trkpt lat="42.83897" lon="0.11962">
        <ele>2731.3012211965</ele>
        <time>2015-05-24T12:06:26Z</time>
      </trkpt>
      <trkpt lat="42.83898" lon="0.11961">
        <ele>2731.3012211965</ele>
        <time>2015-05-24T12:06:32Z</time>
      </trkpt>
      <trkpt lat="42.83895" lon="0.11958">
        <ele>2730.8752020422</ele>
        <time>2015-05-24T12:06:36Z</time>
      </trkpt>
      <trkpt lat="42.83894" lon="0.11951">
        <ele>2730.8752020422</ele>
        <time>2015-05-24T12:06:43Z</time>
      </trkpt>
      <trkpt lat="42.83896" lon="0.1195">
        <ele>2730.8752020422</ele>
        <time>2015-05-24T12:06:45Z</time>
      </trkpt>
      <trkpt lat="42.83895" lon="0.11945">
        <ele>2730.4240574146</ele>
        <time>2015-05-24T12:06:52Z</time>
      </trkpt>
      <trkpt lat="42.83897" lon="0.11944">
        <ele>2730.4240574146</ele>
        <time>2015-05-24T12:06:57Z</time>
      </trkpt>
      <trkpt lat="42.83896" lon="0.11939">
        <ele>2730.4240574146</ele>
        <time>2015-05-24T12:07:02Z</time>
      </trkpt>
      <trkpt lat="42.83899" lon="0.11936">
        <ele>2730.0557242111</ele>
        <time>2015-05-24T12:07:06Z</time>
      </trkpt>
      <trkpt lat="42.83899" lon="0.1193">
        <ele>2730.0557242111</ele>
        <time>2015-05-24T12:07:12Z</time>
      </trkpt>
      <trkpt lat="42.83898" lon="0.11924">
        <ele>2730.0557242111</ele>
        <time>2015-05-24T12:07:17Z</time>
      </trkpt>
      <trkpt lat="42.83898" lon="0.11923">
        <ele>2730.0284423806</ele>
        <time>2015-05-24T12:07:22Z</time>
      </trkpt>
      <trkpt lat="42.83898" lon="0.11919">
        <ele>2730.0284423806</ele>
        <time>2015-05-24T12:07:26Z</time>
      </trkpt>
      <trkpt lat="42.83897" lon="0.11918">
        <ele>2730.0284423806</ele>
        <time>2015-05-24T12:07:32Z</time>
      </trkpt>
      <trkpt lat="42.83903" lon="0.11924">
        <ele>2730.2057686767</ele>
        <time>2015-05-24T12:07:37Z</time>
      </trkpt>
      <trkpt lat="42.83902" lon="0.11923">
        <ele>2730.2057686767</ele>
        <time>2015-05-24T12:07:42Z</time>
      </trkpt>
      <trkpt lat="42.839" lon="0.11921">
        <ele>2730.2057686767</ele>
        <time>2015-05-24T12:07:46Z</time>
      </trkpt>
      <trkpt lat="42.83901" lon="0.11919">
        <ele>2730.2057686767</ele>
        <time>2015-05-24T12:07:52Z</time>
      </trkpt>
      <trkpt lat="42.83896" lon="0.11915">
        <ele>2730.5759236219</ele>
        <time>2015-05-24T12:07:57Z</time>
      </trkpt>
      <trkpt lat="42.83897" lon="0.11914">
        <ele>2730.5759236219</ele>
        <time>2015-05-24T12:08:02Z</time>
      </trkpt>
      <trkpt lat="42.839" lon="0.11913">
        <ele>2730.5759236219</ele>
        <time>2015-05-24T12:08:12Z</time>
      </trkpt>
      <trkpt lat="42.83898" lon="0.11907">
        <ele>2731.2570737498</ele>
        <time>2015-05-24T12:08:16Z</time>
      </trkpt>
      <trkpt lat="42.83899" lon="0.11902">
        <ele>2731.2570737498</ele>
        <time>2015-05-24T12:08:23Z</time>
      </trkpt>
      <trkpt lat="42.83902" lon="0.11902">
        <ele>2731.2570737498</ele>
        <time>2015-05-24T12:08:26Z</time>
      </trkpt>
      <trkpt lat="42.83906" lon="0.11902">
        <ele>2732.3001085169</ele>
        <time>2015-05-24T12:08:31Z</time>
      </trkpt>
      <trkpt lat="42.83909" lon="0.11899">
        <ele>2732.3001085169</ele>
        <time>2015-05-24T12:08:37Z</time>
      </trkpt>
      <trkpt lat="42.83912" lon="0.11896">
        <ele>2732.3001085169</ele>
        <time>2015-05-24T12:08:42Z</time>
      </trkpt>
      <trkpt lat="42.83914" lon="0.11893">
        <ele>2733.578151961</ele>
        <time>2015-05-24T12:08:46Z</time>
      </trkpt>
      <trkpt lat="42.83915" lon="0.11888">
        <ele>2733.578151961</ele>
        <time>2015-05-24T12:08:52Z</time>
      </trkpt>
      <trkpt lat="42.83916" lon="0.11885">
        <ele>2733.578151961</ele>
        <time>2015-05-24T12:08:57Z</time>
      </trkpt>
      <trkpt lat="42.83916" lon="0.11876">
        <ele>2734.8720360829</ele>
        <time>2015-05-24T12:09:02Z</time>
      </trkpt>
      <trkpt lat="42.83915" lon="0.11873">
        <ele>2734.8720360829</ele>
        <time>2015-05-24T12:09:05Z</time>
      </trkpt>
      <trkpt lat="42.83915" lon="0.11862">
        <ele>2736.1226892569</ele>
        <time>2015-05-24T12:09:10Z</time>
      </trkpt>
      <trkpt lat="42.83912" lon="0.11833">
        <ele>2737.2898468166</ele>
        <time>2015-05-24T12:09:15Z</time>
      </trkpt>
      <trkpt lat="42.83908" lon="0.11817">
        <ele>2738.4228434189</ele>
        <time>2015-05-24T12:09:20Z</time>
      </trkpt>
      <trkpt lat="42.83919" lon="0.11859">
        <ele>2739.5674309148</ele>
        <time>2015-05-24T12:09:25Z</time>
      </trkpt>
      <trkpt lat="42.83919" lon="0.11868">
        <ele>2739.5674309148</ele>
        <time>2015-05-24T12:09:30Z</time>
      </trkpt>
      <trkpt lat="42.83914" lon="0.11878">
        <ele>2740.7947399649</ele>
        <time>2015-05-24T12:09:35Z</time>
      </trkpt>
      <trkpt lat="42.83914" lon="0.11866">
        <ele>2742.0118759481</ele>
        <time>2015-05-24T12:09:40Z</time>
      </trkpt>
      <trkpt lat="42.83921" lon="0.11862">
        <ele>2742.0118759481</ele>
        <time>2015-05-24T12:09:45Z</time>
      </trkpt>
      <trkpt lat="42.83922" lon="0.11863">
        <ele>2742.0118759481</ele>
        <time>2015-05-24T12:09:50Z</time>
      </trkpt>
      <trkpt lat="42.83919" lon="0.11859">
        <ele>2743.8100787607</ele>
        <time>2015-05-24T12:10:25Z</time>
      </trkpt>
      <trkpt lat="42.83915" lon="0.1185">
        <ele>2743.8100787607</ele>
        <time>2015-05-24T12:10:30Z</time>
      </trkpt>
      <trkpt lat="42.83914" lon="0.11848">
        <ele>2745.4384907157</ele>
        <time>2015-05-24T12:10:35Z</time>
      </trkpt>
      <trkpt lat="42.83915" lon="0.11846">
        <ele>2745.4384907157</ele>
        <time>2015-05-24T12:10:40Z</time>
      </trkpt>
      <trkpt lat="42.83918" lon="0.11843">
        <ele>2745.4384907157</ele>
        <time>2015-05-24T12:10:45Z</time>
      </trkpt>
      <trkpt lat="42.8392" lon="0.11838">
        <ele>2746.9224150408</ele>
        <time>2015-05-24T12:10:50Z</time>
      </trkpt>
      <trkpt lat="42.83923" lon="0.11833">
        <ele>2746.9224150408</ele>
        <time>2015-05-24T12:10:55Z</time>
      </trkpt>
      <trkpt lat="42.83913" lon="0.11825">
        <ele>2748.242445417</ele>
        <time>2015-05-24T12:11:01Z</time>
      </trkpt>
      <trkpt lat="42.83919" lon="0.11836">
        <ele>2749.5107436379</ele>
        <time>2015-05-24T12:11:10Z</time>
      </trkpt>
      <trkpt lat="42.83919" lon="0.11835">
        <ele>2749.5107436379</ele>
        <time>2015-05-24T12:11:15Z</time>
      </trkpt>
      <trkpt lat="42.83928" lon="0.11837">
        <ele>2751.0907648288</ele>
        <time>2015-05-24T12:12:10Z</time>
      </trkpt>
      <trkpt lat="42.83929" lon="0.11836">
        <ele>2751.0907648288</ele>
        <time>2015-05-24T12:12:15Z</time>
      </trkpt>
      <trkpt lat="42.83928" lon="0.11832">
        <ele>2751.0907648288</ele>
        <time>2015-05-24T12:12:55Z</time>
      </trkpt>
      <trkpt lat="42.83931" lon="0.11828">
        <ele>2751.0907648288</ele>
        <time>2015-05-24T12:13:00Z</time>
      </trkpt>
      <trkpt lat="42.83932" lon="0.11826">
        <ele>2752.7563486863</ele>
        <time>2015-05-24T12:13:05Z</time>
      </trkpt>
      <trkpt lat="42.83931" lon="0.1182">
        <ele>2752.7563486863</ele>
        <time>2015-05-24T12:13:10Z</time>
      </trkpt>
      <trkpt lat="42.83936" lon="0.11818">
        <ele>2754.1824153979</ele>
        <time>2015-05-24T12:13:15Z</time>
      </trkpt>
      <trkpt lat="42.83934" lon="0.11814">
        <ele>2754.1824153979</ele>
        <time>2015-05-24T12:13:20Z</time>
      </trkpt>
      <trkpt lat="42.83935" lon="0.1181">
        <ele>2754.1824153979</ele>
        <time>2015-05-24T12:13:25Z</time>
      </trkpt>
      <trkpt lat="42.83936" lon="0.11808">
        <ele>2754.1824153979</ele>
        <time>2015-05-24T12:13:30Z</time>
      </trkpt>
      <trkpt lat="42.83938" lon="0.11805">
        <ele>2755.3854814316</ele>
        <time>2015-05-24T12:13:37Z</time>
      </trkpt>
      <trkpt lat="42.83942" lon="0.11803">
        <ele>2755.3854814316</ele>
        <time>2015-05-24T12:13:42Z</time>
      </trkpt>
      <trkpt lat="42.8393" lon="0.11786">
        <ele>2756.3814781055</ele>
        <time>2015-05-24T12:14:06Z</time>
      </trkpt>
      <trkpt lat="42.83926" lon="0.11776">
        <ele>2756.3814781055</ele>
        <time>2015-05-24T12:14:22Z</time>
      </trkpt>
      <trkpt lat="42.83929" lon="0.11773">
        <ele>2757.2145734327</ele>
        <time>2015-05-24T12:14:26Z</time>
      </trkpt>
      <trkpt lat="42.83931" lon="0.11771">
        <ele>2757.2145734327</ele>
        <time>2015-05-24T12:14:32Z</time>
      </trkpt>
      <trkpt lat="42.83932" lon="0.11767">
        <ele>2757.2145734327</ele>
        <time>2015-05-24T12:14:37Z</time>
      </trkpt>
      <trkpt lat="42.83933" lon="0.11765">
        <ele>2757.2145734327</ele>
        <time>2015-05-24T12:14:42Z</time>
      </trkpt>
      <trkpt lat="42.83934" lon="0.11762">
        <ele>2757.868506747</ele>
        <time>2015-05-24T12:14:46Z</time>
      </trkpt>
      <trkpt lat="42.83935" lon="0.11758">
        <ele>2757.868506747</ele>
        <time>2015-05-24T12:14:52Z</time>
      </trkpt>
      <trkpt lat="42.83935" lon="0.11758">
        <ele>2757.868506747</ele>
        <time>2015-05-24T12:14:56Z</time>
      </trkpt>
      <trkpt lat="42.83944" lon="0.11756">
        <ele>2758.3431268646</ele>
        <time>2015-05-24T12:15:06Z</time>
      </trkpt>
      <trkpt lat="42.83945" lon="0.11755">
        <ele>2758.3431268646</ele>
        <time>2015-05-24T12:15:11Z</time>
      </trkpt>
      <trkpt lat="42.83946" lon="0.11749">
        <ele>2758.3431268646</ele>
        <time>2015-05-24T12:15:17Z</time>
      </trkpt>
      <trkpt lat="42.83944" lon="0.11743">
        <ele>2758.6676168187</ele>
        <time>2015-05-24T12:15:22Z</time>
      </trkpt>
      <trkpt lat="42.83943" lon="0.11739">
        <ele>2758.6676168187</ele>
        <time>2015-05-24T12:15:26Z</time>
      </trkpt>
      <trkpt lat="42.83943" lon="0.11736">
        <ele>2758.6676168187</ele>
        <time>2015-05-24T12:15:31Z</time>
      </trkpt>
      <trkpt lat="42.83943" lon="0.11733">
        <ele>2758.6676168187</ele>
        <time>2015-05-24T12:15:37Z</time>
      </trkpt>
      <trkpt lat="42.8394" lon="0.11721">
        <ele>2759.1720643521</ele>
        <time>2015-05-24T12:16:02Z</time>
      </trkpt>
      <trkpt lat="42.83941" lon="0.11717">
        <ele>2759.1720643521</ele>
        <time>2015-05-24T12:16:06Z</time>
      </trkpt>
      <trkpt lat="42.83942" lon="0.11714">
        <ele>2759.1720643521</ele>
        <time>2015-05-24T12:16:12Z</time>
      </trkpt>
      <trkpt lat="42.83937" lon="0.11707">
        <ele>2759.6285824635</ele>
        <time>2015-05-24T12:16:17Z</time>
      </trkpt>
      <trkpt lat="42.83934" lon="0.11703">
        <ele>2759.6285824635</ele>
        <time>2015-05-24T12:16:22Z</time>
      </trkpt>
      <trkpt lat="42.83932" lon="0.11701">
        <ele>2759.6285824635</ele>
        <time>2015-05-24T12:16:26Z</time>
      </trkpt>
      <trkpt lat="42.83929" lon="0.11702">
        <ele>2760.1576000392</ele>
        <time>2015-05-24T12:16:31Z</time>
      </trkpt>
      <trkpt lat="42.83929" lon="0.11701">
        <ele>2760.1576000392</ele>
        <time>2015-05-24T12:16:37Z</time>
      </trkpt>
      <trkpt lat="42.83937" lon="0.11696">
        <ele>2761.0145893486</ele>
        <time>2015-05-24T12:17:06Z</time>
      </trkpt>
      <trkpt lat="42.83939" lon="0.11695">
        <ele>2761.0145893486</ele>
        <time>2015-05-24T12:17:12Z</time>
      </trkpt>
      <trkpt lat="42.83935" lon="0.11688">
        <ele>2761.0145893486</ele>
        <time>2015-05-24T12:17:22Z</time>
      </trkpt>
      <trkpt lat="42.83932" lon="0.11684">
        <ele>2761.8300489801</ele>
        <time>2015-05-24T12:17:27Z</time>
      </trkpt>
      <trkpt lat="42.83929" lon="0.11681">
        <ele>2761.8300489801</ele>
        <time>2015-05-24T12:17:31Z</time>
      </trkpt>
      <trkpt lat="42.83933" lon="0.1168">
        <ele>2761.8300489801</ele>
        <time>2015-05-24T12:17:37Z</time>
      </trkpt>
      <trkpt lat="42.83932" lon="0.11679">
        <ele>2761.8300489801</ele>
        <time>2015-05-24T12:17:42Z</time>
      </trkpt>
      <trkpt lat="42.83942" lon="0.1168">
        <ele>2763.1696175647</ele>
        <time>2015-05-24T12:18:32Z</time>
      </trkpt>
      <trkpt lat="42.83944" lon="0.11681">
        <ele>2763.1696175647</ele>
        <time>2015-05-24T12:18:37Z</time>
      </trkpt>
      <trkpt lat="42.83939" lon="0.1167">
        <ele>2764.547114875</ele>
        <time>2015-05-24T12:19:06Z</time>
      </trkpt>
      <trkpt lat="42.83939" lon="0.11671">
        <ele>2764.547114875</ele>
        <time>2015-05-24T12:19:12Z</time>
      </trkpt>
      <trkpt lat="42.83934" lon="0.11668">
        <ele>2764.547114875</ele>
        <time>2015-05-24T12:20:52Z</time>
      </trkpt>
      <trkpt lat="42.83934" lon="0.11666">
        <ele>2764.547114875</ele>
        <time>2015-05-24T12:20:57Z</time>
      </trkpt>
      <trkpt lat="42.83932" lon="0.11661">
        <ele>2765.8578192368</ele>
        <time>2015-05-24T12:21:02Z</time>
      </trkpt>
      <trkpt lat="42.83932" lon="0.11655">
        <ele>2765.8578192368</ele>
        <time>2015-05-24T12:21:06Z</time>
      </trkpt>
      <trkpt lat="42.83931" lon="0.11654">
        <ele>2765.8578192368</ele>
        <time>2015-05-24T12:21:11Z</time>
      </trkpt>
      <trkpt lat="42.83929" lon="0.11654">
        <ele>2765.8578192368</ele>
        <time>2015-05-24T12:21:18Z</time>
      </trkpt>
      <trkpt lat="42.83923" lon="0.11648">
        <ele>2767.105753895</ele>
        <time>2015-05-24T12:21:21Z</time>
      </trkpt>
      <trkpt lat="42.83921" lon="0.11641">
        <ele>2767.105753895</ele>
        <time>2015-05-24T12:21:27Z</time>
      </trkpt>
      <trkpt lat="42.83931" lon="0.11639">
        <ele>2768.3236354015</ele>
        <time>2015-05-24T12:21:32Z</time>
      </trkpt>
      <trkpt lat="42.83935" lon="0.11639">
        <ele>2768.3236354015</ele>
        <time>2015-05-24T12:21:37Z</time>
      </trkpt>
      <trkpt lat="42.83934" lon="0.11639">
        <ele>2768.3236354015</ele>
        <time>2015-05-24T12:21:42Z</time>
      </trkpt>
      <trkpt lat="42.8393" lon="0.11645">
        <ele>2769.4265657756</ele>
        <time>2015-05-24T12:21:51Z</time>
      </trkpt>
      <trkpt lat="42.8393" lon="0.11646">
        <ele>2769.4265657756</ele>
        <time>2015-05-24T12:21:58Z</time>
      </trkpt>
      <trkpt lat="42.83931" lon="0.11637">
        <ele>2769.4265657756</ele>
        <time>2015-05-24T12:22:17Z</time>
      </trkpt>
      <trkpt lat="42.8393" lon="0.11636">
        <ele>2769.4265657756</ele>
        <time>2015-05-24T12:22:22Z</time>
      </trkpt>
      <trkpt lat="42.83927" lon="0.1163">
        <ele>2770.5091351264</ele>
        <time>2015-05-24T12:22:27Z</time>
      </trkpt>
      <trkpt lat="42.83927" lon="0.11627">
        <ele>2770.5091351264</ele>
        <time>2015-05-24T12:22:31Z</time>
      </trkpt>
      <trkpt lat="42.83924" lon="0.11617">
        <ele>2771.4716947498</ele>
        <time>2015-05-24T12:22:38Z</time>
      </trkpt>
      <trkpt lat="42.83926" lon="0.11614">
        <ele>2771.4716947498</ele>
        <time>2015-05-24T12:22:41Z</time>
      </trkpt>
      <trkpt lat="42.83925" lon="0.11614">
        <ele>2771.4716947498</ele>
        <time>2015-05-24T12:22:47Z</time>
      </trkpt>
      <trkpt lat="42.83921" lon="0.11613">
        <ele>2771.4716947498</ele>
        <time>2015-05-24T12:22:56Z</time>
      </trkpt>
      <trkpt lat="42.8392" lon="0.11608">
        <ele>2772.424006355</ele>
        <time>2015-05-24T12:23:02Z</time>
      </trkpt>
      <trkpt lat="42.8392" lon="0.11605">
        <ele>2772.424006355</ele>
        <time>2015-05-24T12:23:06Z</time>
      </trkpt>
      <trkpt lat="42.83922" lon="0.116">
        <ele>2772.424006355</ele>
        <time>2015-05-24T12:23:11Z</time>
      </trkpt>
      <trkpt lat="42.83923" lon="0.11596">
        <ele>2773.3380955813</ele>
        <time>2015-05-24T12:23:18Z</time>
      </trkpt>
      <trkpt lat="42.83923" lon="0.11592">
        <ele>2773.3380955813</ele>
        <time>2015-05-24T12:23:22Z</time>
      </trkpt>
      <trkpt lat="42.83926" lon="0.11591">
        <ele>2773.3380955813</ele>
        <time>2015-05-24T12:23:27Z</time>
      </trkpt>
      <trkpt lat="42.83924" lon="0.11597">
        <ele>2774.4187266153</ele>
        <time>2015-05-24T12:24:07Z</time>
      </trkpt>
      <trkpt lat="42.83919" lon="0.11601">
        <ele>2774.4187266153</ele>
        <time>2015-05-24T12:24:18Z</time>
      </trkpt>
      <trkpt lat="42.83917" lon="0.11601">
        <ele>2774.4187266153</ele>
        <time>2015-05-24T12:24:22Z</time>
      </trkpt>
      <trkpt lat="42.83916" lon="0.11595">
        <ele>2775.4084084537</ele>
        <time>2015-05-24T12:24:27Z</time>
      </trkpt>
      <trkpt lat="42.83915" lon="0.11591">
        <ele>2775.4084084537</ele>
        <time>2015-05-24T12:24:31Z</time>
      </trkpt>
      <trkpt lat="42.83914" lon="0.11582">
        <ele>2776.2849855446</ele>
        <time>2015-05-24T12:24:38Z</time>
      </trkpt>
      <trkpt lat="42.83916" lon="0.11579">
        <ele>2776.2849855446</ele>
        <time>2015-05-24T12:24:41Z</time>
      </trkpt>
      <trkpt lat="42.83919" lon="0.1158">
        <ele>2776.2849855446</ele>
        <time>2015-05-24T12:24:47Z</time>
      </trkpt>
      <trkpt lat="42.83913" lon="0.11593">
        <ele>2776.8985449744</ele>
        <time>2015-05-24T12:25:17Z</time>
      </trkpt>
      <trkpt lat="42.8391" lon="0.11592">
        <ele>2776.8985449744</ele>
        <time>2015-05-24T12:25:21Z</time>
      </trkpt>
      <trkpt lat="42.8391" lon="0.11585">
        <ele>2776.8985449744</ele>
        <time>2015-05-24T12:25:26Z</time>
      </trkpt>
      <trkpt lat="42.83909" lon="0.11581">
        <ele>2777.4135542712</ele>
        <time>2015-05-24T12:25:31Z</time>
      </trkpt>
      <trkpt lat="42.83908" lon="0.11575">
        <ele>2777.4135542712</ele>
        <time>2015-05-24T12:25:38Z</time>
      </trkpt>
      <trkpt lat="42.8391" lon="0.11573">
        <ele>2777.4135542712</ele>
        <time>2015-05-24T12:25:41Z</time>
      </trkpt>
      <trkpt lat="42.83919" lon="0.11577">
        <ele>2778.5014714241</ele>
        <time>2015-05-24T12:26:02Z</time>
      </trkpt>
      <trkpt lat="42.83928" lon="0.11578">
        <ele>2779.8893279545</ele>
        <time>2015-05-24T12:26:07Z</time>
      </trkpt>
      <trkpt lat="42.8393" lon="0.11576">
        <ele>2779.8893279545</ele>
        <time>2015-05-24T12:26:11Z</time>
      </trkpt>
      <trkpt lat="42.83933" lon="0.1157">
        <ele>2779.8893279545</ele>
        <time>2015-05-24T12:26:17Z</time>
      </trkpt>
      <trkpt lat="42.83934" lon="0.11569">
        <ele>2779.8893279545</ele>
        <time>2015-05-24T12:26:22Z</time>
      </trkpt>
      <trkpt lat="42.83934" lon="0.11568">
        <ele>2781.539528578</ele>
        <time>2015-05-24T12:26:27Z</time>
      </trkpt>
      <trkpt lat="42.83927" lon="0.1156">
        <ele>2783.5173807613</ele>
        <time>2015-05-24T12:26:47Z</time>
      </trkpt>
      <trkpt lat="42.83922" lon="0.11562">
        <ele>2783.5173807613</ele>
        <time>2015-05-24T12:26:51Z</time>
      </trkpt>
      <trkpt lat="42.83911" lon="0.11567">
        <ele>2785.2628016015</ele>
        <time>2015-05-24T12:26:57Z</time>
      </trkpt>
      <trkpt lat="42.8391" lon="0.11567">
        <ele>2785.2628016015</ele>
        <time>2015-05-24T12:27:01Z</time>
      </trkpt>
      <trkpt lat="42.83907" lon="0.11568">
        <ele>2785.2628016015</ele>
        <time>2015-05-24T12:27:07Z</time>
      </trkpt>
      <trkpt lat="42.83904" lon="0.11569">
        <ele>2785.2628016015</ele>
        <time>2015-05-24T12:27:11Z</time>
      </trkpt>
      <trkpt lat="42.83899" lon="0.11572">
        <ele>2787.1221810319</ele>
        <time>2015-05-24T12:27:17Z</time>
      </trkpt>
      <trkpt lat="42.83899" lon="0.11573">
        <ele>2787.1221810319</ele>
        <time>2015-05-24T12:27:22Z</time>
      </trkpt>
      <trkpt lat="42.83894" lon="0.11572">
        <ele>2787.1221810319</ele>
        <time>2015-05-24T12:27:41Z</time>
      </trkpt>
      <trkpt lat="42.83889" lon="0.11572">
        <ele>2788.6235484627</ele>
        <time>2015-05-24T12:27:47Z</time>
      </trkpt>
      <trkpt lat="42.83887" lon="0.11572">
        <ele>2788.6235484627</ele>
        <time>2015-05-24T12:27:51Z</time>
      </trkpt>
      <trkpt lat="42.83882" lon="0.11574">
        <ele>2788.6235484627</ele>
        <time>2015-05-24T12:27:57Z</time>
      </trkpt>
      <trkpt lat="42.83879" lon="0.11576">
        <ele>2790.1952966092</ele>
        <time>2015-05-24T12:28:02Z</time>
      </trkpt>
      <trkpt lat="42.83877" lon="0.11579">
        <ele>2790.1952966092</ele>
        <time>2015-05-24T12:28:07Z</time>
      </trkpt>
      <trkpt lat="42.83876" lon="0.11581">
        <ele>2790.1952966092</ele>
        <time>2015-05-24T12:28:11Z</time>
      </trkpt>
      <trkpt lat="42.83876" lon="0.11581">
        <ele>2790.1952966092</ele>
        <time>2015-05-24T12:28:17Z</time>
      </trkpt>
      <trkpt lat="42.83884" lon="0.11591">
        <ele>2792.8394452587</ele>
        <time>2015-05-24T12:29:45Z</time>
      </trkpt>
      <trkpt lat="42.83882" lon="0.11573">
        <ele>2795.3629970396</ele>
        <time>2015-05-24T12:30:07Z</time>
      </trkpt>
      <trkpt lat="42.83881" lon="0.11568">
        <ele>2795.3629970396</ele>
        <time>2015-05-24T12:30:11Z</time>
      </trkpt>
      <trkpt lat="42.83881" lon="0.11564">
        <ele>2795.3629970396</ele>
        <time>2015-05-24T12:30:17Z</time>
      </trkpt>
      <trkpt lat="42.83879" lon="0.11552">
        <ele>2797.9003262238</ele>
        <time>2015-05-24T12:30:27Z</time>
      </trkpt>
      <trkpt lat="42.83879" lon="0.1155">
        <ele>2797.9003262238</ele>
        <time>2015-05-24T12:30:31Z</time>
      </trkpt>
      <trkpt lat="42.83881" lon="0.11543">
        <ele>2797.9003262238</ele>
        <time>2015-05-24T12:30:51Z</time>
      </trkpt>
      <trkpt lat="42.83883" lon="0.11541">
        <ele>2800.4318351897</ele>
        <time>2015-05-24T12:30:57Z</time>
      </trkpt>
      <trkpt lat="42.83883" lon="0.11542">
        <ele>2800.4318351897</ele>
        <time>2015-05-24T12:31:02Z</time>
      </trkpt>
      <trkpt lat="42.83884" lon="0.11542">
        <ele>2800.4318351897</ele>
        <time>2015-05-24T12:31:11Z</time>
      </trkpt>
      <trkpt lat="42.83886" lon="0.11538">
        <ele>2800.4318351897</ele>
        <time>2015-05-24T12:31:16Z</time>
      </trkpt>
      <trkpt lat="42.83885" lon="0.11528">
        <ele>2803.1844296157</ele>
        <time>2015-05-24T12:31:21Z</time>
      </trkpt>
      <trkpt lat="42.83883" lon="0.11519">
        <ele>2803.1844296157</ele>
        <time>2015-05-24T12:31:27Z</time>
      </trkpt>
      <trkpt lat="42.83883" lon="0.11518">
        <ele>2803.1844296157</ele>
        <time>2015-05-24T12:31:31Z</time>
      </trkpt>
      <trkpt lat="42.83882" lon="0.11516">
        <ele>2806.2236829421</ele>
        <time>2015-05-24T12:31:51Z</time>
      </trkpt>
      <trkpt lat="42.83883" lon="0.11515">
        <ele>2806.2236829421</ele>
        <time>2015-05-24T12:31:57Z</time>
      </trkpt>
      <trkpt lat="42.83884" lon="0.11513">
        <ele>2806.2236829421</ele>
        <time>2015-05-24T12:32:01Z</time>
      </trkpt>
      <trkpt lat="42.83883" lon="0.11515">
        <ele>2806.2236829421</ele>
        <time>2015-05-24T12:32:07Z</time>
      </trkpt>
      <trkpt lat="42.83887" lon="0.11511">
        <ele>2809.4655132244</ele>
        <time>2015-05-24T12:32:18Z</time>
      </trkpt>
      <trkpt lat="42.83891" lon="0.11507">
        <ele>2809.4655132244</ele>
        <time>2015-05-24T12:32:21Z</time>
      </trkpt>
      <trkpt lat="42.83895" lon="0.11505">
        <ele>2812.5577220712</ele>
        <time>2015-05-24T12:32:27Z</time>
      </trkpt>
      <trkpt lat="42.83897" lon="0.11503">
        <ele>2812.5577220712</ele>
        <time>2015-05-24T12:32:31Z</time>
      </trkpt>
      <trkpt lat="42.83899" lon="0.11502">
        <ele>2812.5577220712</ele>
        <time>2015-05-24T12:32:37Z</time>
      </trkpt>
      <trkpt lat="42.83894" lon="0.11495">
        <ele>2815.8085885823</ele>
        <time>2015-05-24T12:33:11Z</time>
      </trkpt>
      <trkpt lat="42.83888" lon="0.11496">
        <ele>2815.8085885823</ele>
        <time>2015-05-24T12:33:17Z</time>
      </trkpt>
      <trkpt lat="42.83885" lon="0.11495">
        <ele>2815.8085885823</ele>
        <time>2015-05-24T12:33:22Z</time>
      </trkpt>
      <trkpt lat="42.83882" lon="0.11495">
        <ele>2818.7396169209</ele>
        <time>2015-05-24T12:33:26Z</time>
      </trkpt>
      <trkpt lat="42.83878" lon="0.11494">
        <ele>2818.7396169209</ele>
        <time>2015-05-24T12:33:31Z</time>
      </trkpt>
      <trkpt lat="42.83874" lon="0.11494">
        <ele>2818.7396169209</ele>
        <time>2015-05-24T12:33:36Z</time>
      </trkpt>
      <trkpt lat="42.83872" lon="0.11494">
        <ele>2821.326393486</ele>
        <time>2015-05-24T12:33:42Z</time>
      </trkpt>
      <trkpt lat="42.83873" lon="0.11494">
        <ele>2821.326393486</ele>
        <time>2015-05-24T12:33:47Z</time>
      </trkpt>
      <trkpt lat="42.83867" lon="0.11495">
        <ele>2821.326393486</ele>
        <time>2015-05-24T12:34:06Z</time>
      </trkpt>
      <trkpt lat="42.83864" lon="0.11495">
        <ele>2823.4465031336</ele>
        <time>2015-05-24T12:34:11Z</time>
      </trkpt>
      <trkpt lat="42.83861" lon="0.11497">
        <ele>2823.4465031336</ele>
        <time>2015-05-24T12:34:17Z</time>
      </trkpt>
      <trkpt lat="42.83858" lon="0.11498">
        <ele>2823.4465031336</ele>
        <time>2015-05-24T12:34:22Z</time>
      </trkpt>
      <trkpt lat="42.83855" lon="0.11502">
        <ele>2825.2329400331</ele>
        <time>2015-05-24T12:34:27Z</time>
      </trkpt>
      <trkpt lat="42.83852" lon="0.11504">
        <ele>2825.2329400331</ele>
        <time>2015-05-24T12:34:31Z</time>
      </trkpt>
      <trkpt lat="42.83849" lon="0.11507">
        <ele>2825.2329400331</ele>
        <time>2015-05-24T12:34:37Z</time>
      </trkpt>
      <trkpt lat="42.83848" lon="0.11507">
        <ele>2825.2329400331</ele>
        <time>2015-05-24T12:34:42Z</time>
      </trkpt>
      <trkpt lat="42.83841" lon="0.11507">
        <ele>2826.6802812463</ele>
        <time>2015-05-24T12:34:52Z</time>
      </trkpt>
      <trkpt lat="42.83838" lon="0.11506">
        <ele>2826.6802812463</ele>
        <time>2015-05-24T12:34:57Z</time>
      </trkpt>
      <trkpt lat="42.83836" lon="0.11505">
        <ele>2826.6802812463</ele>
        <time>2015-05-24T12:35:02Z</time>
      </trkpt>
      <trkpt lat="42.83836" lon="0.11505">
        <ele>2826.6802812463</ele>
        <time>2015-05-24T12:35:07Z</time>
      </trkpt>
      <trkpt lat="42.83833" lon="0.11506">
        <ele>2826.6802812463</ele>
        <time>2015-05-24T12:35:11Z</time>
      </trkpt>
      <trkpt lat="42.83832" lon="0.11506">
        <ele>2828.0727874521</ele>
        <time>2015-05-24T12:35:17Z</time>
      </trkpt>
      <trkpt lat="42.83823" lon="0.11513">
        <ele>2829.4435183417</ele>
        <time>2015-05-24T12:36:02Z</time>
      </trkpt>
      <trkpt lat="42.83821" lon="0.11516">
        <ele>2829.4435183417</ele>
        <time>2015-05-24T12:36:07Z</time>
      </trkpt>
      <trkpt lat="42.83821" lon="0.11516">
        <ele>2829.4435183417</ele>
        <time>2015-05-24T12:36:11Z</time>
      </trkpt>
      <trkpt lat="42.8382" lon="0.11513">
        <ele>2829.4435183417</ele>
        <time>2015-05-24T12:36:52Z</time>
      </trkpt>
      <trkpt lat="42.83821" lon="0.11509">
        <ele>2829.4435183417</ele>
        <time>2015-05-24T12:36:57Z</time>
      </trkpt>
      <trkpt lat="42.83821" lon="0.11503">
        <ele>2831.9329207087</ele>
        <time>2015-05-24T12:37:02Z</time>
      </trkpt>
      <trkpt lat="42.8382" lon="0.115">
        <ele>2831.9329207087</ele>
        <time>2015-05-24T12:37:07Z</time>
      </trkpt>
      <trkpt lat="42.8382" lon="0.11494">
        <ele>2831.9329207087</ele>
        <time>2015-05-24T12:37:11Z</time>
      </trkpt>
      <trkpt lat="42.83823" lon="0.11487">
        <ele>2834.6058863532</ele>
        <time>2015-05-24T12:37:26Z</time>
      </trkpt>
      <trkpt lat="42.83824" lon="0.11487">
        <ele>2834.6058863532</ele>
        <time>2015-05-24T12:37:32Z</time>
      </trkpt>
      <trkpt lat="42.83828" lon="0.11481">
        <ele>2834.6058863532</ele>
        <time>2015-05-24T12:37:47Z</time>
      </trkpt>
      <trkpt lat="42.83828" lon="0.11478">
        <ele>2837.2584875984</ele>
        <time>2015-05-24T12:37:51Z</time>
      </trkpt>
      <trkpt lat="42.8383" lon="0.11473">
        <ele>2837.2584875984</ele>
        <time>2015-05-24T12:37:58Z</time>
      </trkpt>
      <trkpt lat="42.83832" lon="0.11471">
        <ele>2837.2584875984</ele>
        <time>2015-05-24T12:38:02Z</time>
      </trkpt>
      <trkpt lat="42.83833" lon="0.11471">
        <ele>2837.2584875984</ele>
        <time>2015-05-24T12:38:06Z</time>
      </trkpt>
      <trkpt lat="42.83833" lon="0.11471">
        <ele>2837.2584875984</ele>
        <time>2015-05-24T12:38:11Z</time>
      </trkpt>
      <trkpt lat="42.83836" lon="0.11462">
        <ele>2839.8460371584</ele>
        <time>2015-05-24T12:38:27Z</time>
      </trkpt>
      <trkpt lat="42.83837" lon="0.11457">
        <ele>2839.8460371584</ele>
        <time>2015-05-24T12:38:31Z</time>
      </trkpt>
      <trkpt lat="42.83835" lon="0.11451">
        <ele>2839.8460371584</ele>
        <time>2015-05-24T12:38:37Z</time>
      </trkpt>
      <trkpt lat="42.83833" lon="0.11449">
        <ele>2842.2409391463</ele>
        <time>2015-05-24T12:38:42Z</time>
      </trkpt>
      <trkpt lat="42.8383" lon="0.11449">
        <ele>2842.2409391463</ele>
        <time>2015-05-24T12:38:46Z</time>
      </trkpt>
      <trkpt lat="42.83829" lon="0.11448">
        <ele>2842.2409391463</ele>
        <time>2015-05-24T12:38:51Z</time>
      </trkpt>
      <trkpt lat="42.83818" lon="0.11452">
        <ele>2844.7002939412</ele>
        <time>2015-05-24T12:39:37Z</time>
      </trkpt>
      <trkpt lat="42.83814" lon="0.11453">
        <ele>2844.7002939412</ele>
        <time>2015-05-24T12:39:42Z</time>
      </trkpt>
      <trkpt lat="42.83809" lon="0.11456">
        <ele>2846.9578388815</ele>
        <time>2015-05-24T12:39:47Z</time>
      </trkpt>
      <trkpt lat="42.83807" lon="0.11459">
        <ele>2846.9578388815</ele>
        <time>2015-05-24T12:39:51Z</time>
      </trkpt>
      <trkpt lat="42.83806" lon="0.11458">
        <ele>2846.9578388815</ele>
        <time>2015-05-24T12:39:57Z</time>
      </trkpt>
      <trkpt lat="42.838" lon="0.11467">
        <ele>2849.1854513146</ele>
        <time>2015-05-24T12:40:17Z</time>
      </trkpt>
      <trkpt lat="42.83798" lon="0.1147">
        <ele>2849.1854513146</ele>
        <time>2015-05-24T12:40:22Z</time>
      </trkpt>
      <trkpt lat="42.83792" lon="0.11469">
        <ele>2850.8652330343</ele>
        <time>2015-05-24T12:40:47Z</time>
      </trkpt>
      <trkpt lat="42.83792" lon="0.11464">
        <ele>2850.8652330343</ele>
        <time>2015-05-24T12:40:51Z</time>
      </trkpt>
      <trkpt lat="42.83793" lon="0.11462">
        <ele>2850.8652330343</ele>
        <time>2015-05-24T12:40:57Z</time>
      </trkpt>
      <trkpt lat="42.83796" lon="0.11461">
        <ele>2850.8652330343</ele>
        <time>2015-05-24T12:41:02Z</time>
      </trkpt>
      <trkpt lat="42.83801" lon="0.1146">
        <ele>2852.3115629649</ele>
        <time>2015-05-24T12:41:07Z</time>
      </trkpt>
      <trkpt lat="42.83803" lon="0.11457">
        <ele>2852.3115629649</ele>
        <time>2015-05-24T12:41:11Z</time>
      </trkpt>
      <trkpt lat="42.83801" lon="0.11452">
        <ele>2852.3115629649</ele>
        <time>2015-05-24T12:41:17Z</time>
      </trkpt>
      <trkpt lat="42.838" lon="0.11453">
        <ele>2852.3115629649</ele>
        <time>2015-05-24T12:41:21Z</time>
      </trkpt>
      <trkpt lat="42.83799" lon="0.11444">
        <ele>2853.6002919479</ele>
        <time>2015-05-24T12:42:02Z</time>
      </trkpt>
      <trkpt lat="42.83801" lon="0.11436">
        <ele>2853.6002919479</ele>
        <time>2015-05-24T12:42:07Z</time>
      </trkpt>
      <trkpt lat="42.83804" lon="0.11428">
        <ele>2854.7301548865</ele>
        <time>2015-05-24T12:42:11Z</time>
      </trkpt>
      <trkpt lat="42.8381" lon="0.1142">
        <ele>2854.7301548865</ele>
        <time>2015-05-24T12:42:17Z</time>
      </trkpt>
      <trkpt lat="42.83817" lon="0.11411">
        <ele>2855.7148959435</ele>
        <time>2015-05-24T12:42:22Z</time>
      </trkpt>
      <trkpt lat="42.83821" lon="0.11405">
        <ele>2855.7148959435</ele>
        <time>2015-05-24T12:42:26Z</time>
      </trkpt>
      <trkpt lat="42.83821" lon="0.11402">
        <ele>2855.7148959435</ele>
        <time>2015-05-24T12:42:31Z</time>
      </trkpt>
      <trkpt lat="42.83819" lon="0.11407">
        <ele>2856.6397612594</ele>
        <time>2015-05-24T12:42:37Z</time>
      </trkpt>
      <trkpt lat="42.83822" lon="0.11404">
        <ele>2856.6397612594</ele>
        <time>2015-05-24T12:43:17Z</time>
      </trkpt>
      <trkpt lat="42.83825" lon="0.114">
        <ele>2856.6397612594</ele>
        <time>2015-05-24T12:43:22Z</time>
      </trkpt>
      <trkpt lat="42.83829" lon="0.11394">
        <ele>2857.9153971588</ele>
        <time>2015-05-24T12:43:27Z</time>
      </trkpt>
      <trkpt lat="42.83833" lon="0.11389">
        <ele>2857.9153971588</ele>
        <time>2015-05-24T12:43:31Z</time>
      </trkpt>
      <trkpt lat="42.83838" lon="0.11384">
        <ele>2859.056661793</ele>
        <time>2015-05-24T12:43:37Z</time>
      </trkpt>
      <trkpt lat="42.83841" lon="0.11375">
        <ele>2859.056661793</ele>
        <time>2015-05-24T12:43:42Z</time>
      </trkpt>
      <trkpt lat="42.83843" lon="0.11369">
        <ele>2860.1332481793</ele>
        <time>2015-05-24T12:43:47Z</time>
      </trkpt>
      <trkpt lat="42.83845" lon="0.11365">
        <ele>2860.1332481793</ele>
        <time>2015-05-24T12:43:51Z</time>
      </trkpt>
      <trkpt lat="42.83846" lon="0.11362">
        <ele>2860.1332481793</ele>
        <time>2015-05-24T12:43:57Z</time>
      </trkpt>
      <trkpt lat="42.83846" lon="0.11361">
        <ele>2860.1332481793</ele>
        <time>2015-05-24T12:44:01Z</time>
      </trkpt>
      <trkpt lat="42.83849" lon="0.11357">
        <ele>2861.3396226233</ele>
        <time>2015-05-24T12:44:22Z</time>
      </trkpt>
      <trkpt lat="42.83852" lon="0.11353">
        <ele>2861.3396226233</ele>
        <time>2015-05-24T12:44:27Z</time>
      </trkpt>
      <trkpt lat="42.83857" lon="0.1135">
        <ele>2862.4088612626</ele>
        <time>2015-05-24T12:44:31Z</time>
      </trkpt>
      <trkpt lat="42.83861" lon="0.11346">
        <ele>2862.4088612626</ele>
        <time>2015-05-24T12:44:37Z</time>
      </trkpt>
      <trkpt lat="42.83861" lon="0.11345">
        <ele>2862.4088612626</ele>
        <time>2015-05-24T12:44:42Z</time>
      </trkpt>
      <trkpt lat="42.83859" lon="0.11347">
        <ele>2862.4088612626</ele>
        <time>2015-05-24T12:44:47Z</time>
      </trkpt>
      <trkpt lat="42.8386" lon="0.11347">
        <ele>2862.4088612626</ele>
        <time>2015-05-24T12:44:51Z</time>
      </trkpt>
      <trkpt lat="42.83852" lon="0.11352">
        <ele>2864.2469204496</ele>
        <time>2015-05-24T12:45:31Z</time>
      </trkpt>
      <trkpt lat="42.83848" lon="0.11353">
        <ele>2864.2469204496</ele>
        <time>2015-05-24T12:45:37Z</time>
      </trkpt>
      <trkpt lat="42.83843" lon="0.11353">
        <ele>2864.2469204496</ele>
        <time>2015-05-24T12:45:42Z</time>
      </trkpt>
      <trkpt lat="42.83837" lon="0.11354">
        <ele>2866.0914084706</ele>
        <time>2015-05-24T12:45:47Z</time>
      </trkpt>
      <trkpt lat="42.83833" lon="0.11354">
        <ele>2866.0914084706</ele>
        <time>2015-05-24T12:45:51Z</time>
      </trkpt>
      <trkpt lat="42.83831" lon="0.11353">
        <ele>2866.0914084706</ele>
        <time>2015-05-24T12:45:56Z</time>
      </trkpt>
      <trkpt lat="42.83826" lon="0.11352">
        <ele>2867.8123559619</ele>
        <time>2015-05-24T12:46:02Z</time>
      </trkpt>
      <trkpt lat="42.83825" lon="0.11351">
        <ele>2867.8123559619</ele>
        <time>2015-05-24T12:46:07Z</time>
      </trkpt>
      <trkpt lat="42.83814" lon="0.11352">
        <ele>2869.8373000695</ele>
        <time>2015-05-24T12:46:42Z</time>
      </trkpt>
      <trkpt lat="42.83813" lon="0.11353">
        <ele>2869.8373000695</ele>
        <time>2015-05-24T12:46:47Z</time>
      </trkpt>
      <trkpt lat="42.8381" lon="0.11354">
        <ele>2869.8373000695</ele>
        <time>2015-05-24T12:46:51Z</time>
      </trkpt>
      <trkpt lat="42.83808" lon="0.11355">
        <ele>2869.8373000695</ele>
        <time>2015-05-24T12:46:56Z</time>
      </trkpt>
      <trkpt lat="42.83805" lon="0.11358">
        <ele>2871.740075155</ele>
        <time>2015-05-24T12:47:02Z</time>
      </trkpt>
      <trkpt lat="42.83804" lon="0.11363">
        <ele>2871.740075155</ele>
        <time>2015-05-24T12:47:09Z</time>
      </trkpt>
      <trkpt lat="42.83813" lon="0.11357">
        <ele>2873.9331779969</ele>
        <time>2015-05-24T12:48:01Z</time>
      </trkpt>
      <trkpt lat="42.83815" lon="0.11354">
        <ele>2873.9331779969</ele>
        <time>2015-05-24T12:48:07Z</time>
      </trkpt>
      <trkpt lat="42.83817" lon="0.11349">
        <ele>2873.9331779969</ele>
        <time>2015-05-24T12:48:11Z</time>
      </trkpt>
      <trkpt lat="42.83818" lon="0.11344">
        <ele>2875.9333146226</ele>
        <time>2015-05-24T12:48:17Z</time>
      </trkpt>
      <trkpt lat="42.8382" lon="0.11338">
        <ele>2875.9333146226</ele>
        <time>2015-05-24T12:48:22Z</time>
      </trkpt>
      <trkpt lat="42.8382" lon="0.11335">
        <ele>2875.9333146226</ele>
        <time>2015-05-24T12:48:26Z</time>
      </trkpt>
      <trkpt lat="42.83815" lon="0.11339">
        <ele>2877.7832066826</ele>
        <time>2015-05-24T12:48:31Z</time>
      </trkpt>
      <trkpt lat="42.83819" lon="0.11324">
        <ele>2879.4075646075</ele>
        <time>2015-05-24T12:48:51Z</time>
      </trkpt>
      <trkpt lat="42.83822" lon="0.11321">
        <ele>2879.4075646075</ele>
        <time>2015-05-24T12:48:57Z</time>
      </trkpt>
      <trkpt lat="42.83825" lon="0.11316">
        <ele>2880.7949009034</ele>
        <time>2015-05-24T12:49:02Z</time>
      </trkpt>
      <trkpt lat="42.83828" lon="0.11302">
        <ele>2882.0216958197</ele>
        <time>2015-05-24T12:49:22Z</time>
      </trkpt>
      <trkpt lat="42.83834" lon="0.11298">
        <ele>2882.0216958197</ele>
        <time>2015-05-24T12:49:46Z</time>
      </trkpt>
      <trkpt lat="42.83846" lon="0.11296">
        <ele>2883.1736619138</ele>
        <time>2015-05-24T12:49:51Z</time>
      </trkpt>
      <trkpt lat="42.8385" lon="0.11296">
        <ele>2883.1736619138</ele>
        <time>2015-05-24T12:49:56Z</time>
      </trkpt>
      <trkpt lat="42.83851" lon="0.11296">
        <ele>2883.1736619138</ele>
        <time>2015-05-24T12:50:02Z</time>
      </trkpt>
      <trkpt lat="42.8384" lon="0.11304">
        <ele>2884.8636223639</ele>
        <time>2015-05-24T12:50:17Z</time>
      </trkpt>
      <trkpt lat="42.83834" lon="0.11304">
        <ele>2884.8636223639</ele>
        <time>2015-05-24T12:50:31Z</time>
      </trkpt>
      <trkpt lat="42.83829" lon="0.11303">
        <ele>2886.6058448199</ele>
        <time>2015-05-24T12:50:36Z</time>
      </trkpt>
      <trkpt lat="42.83824" lon="0.11301">
        <ele>2886.6058448199</ele>
        <time>2015-05-24T12:50:42Z</time>
      </trkpt>
      <trkpt lat="42.83821" lon="0.11298">
        <ele>2888.1374570899</ele>
        <time>2015-05-24T12:50:47Z</time>
      </trkpt>
      <trkpt lat="42.83816" lon="0.11297">
        <ele>2888.1374570899</ele>
        <time>2015-05-24T12:50:51Z</time>
      </trkpt>
      <trkpt lat="42.83814" lon="0.11293">
        <ele>2888.1374570899</ele>
        <time>2015-05-24T12:50:57Z</time>
      </trkpt>
      <trkpt lat="42.83814" lon="0.11293">
        <ele>2888.1374570899</ele>
        <time>2015-05-24T12:51:02Z</time>
      </trkpt>
      <trkpt lat="42.83814" lon="0.11293">
        <ele>2889.4892785955</ele>
        <time>2015-05-24T12:51:07Z</time>
      </trkpt>
      <trkpt lat="42.83808" lon="0.11301">
        <ele>2889.4892785955</ele>
        <time>2015-05-24T12:51:51Z</time>
      </trkpt>
      <trkpt lat="42.83805" lon="0.11302">
        <ele>2890.9641585516</ele>
        <time>2015-05-24T12:51:56Z</time>
      </trkpt>
      <trkpt lat="42.83802" lon="0.11302">
        <ele>2890.9641585516</ele>
        <time>2015-05-24T12:52:03Z</time>
      </trkpt>
      <trkpt lat="42.83802" lon="0.11301">
        <ele>2890.9641585516</ele>
        <time>2015-05-24T12:52:07Z</time>
      </trkpt>
      <trkpt lat="42.83792" lon="0.11304">
        <ele>2892.323530255</ele>
        <time>2015-05-24T12:52:31Z</time>
      </trkpt>
      <trkpt lat="42.83789" lon="0.11306">
        <ele>2892.323530255</ele>
        <time>2015-05-24T12:52:36Z</time>
      </trkpt>
      <trkpt lat="42.83788" lon="0.1131">
        <ele>2892.323530255</ele>
        <time>2015-05-24T12:52:43Z</time>
      </trkpt>
      <trkpt lat="42.83786" lon="0.11312">
        <ele>2893.5916395315</ele>
        <time>2015-05-24T12:52:46Z</time>
      </trkpt>
      <trkpt lat="42.83785" lon="0.11314">
        <ele>2893.5916395315</ele>
        <time>2015-05-24T12:52:51Z</time>
      </trkpt>
      <trkpt lat="42.83786" lon="0.1133">
        <ele>2895.0938133349</ele>
        <time>2015-05-24T12:53:11Z</time>
      </trkpt>
      <trkpt lat="42.83785" lon="0.11332">
        <ele>2895.0938133349</ele>
        <time>2015-05-24T12:53:17Z</time>
      </trkpt>
      <trkpt lat="42.83785" lon="0.1133">
        <ele>2895.0938133349</ele>
        <time>2015-05-24T12:53:22Z</time>
      </trkpt>
      <trkpt lat="42.83786" lon="0.11313">
        <ele>2896.4534721723</ele>
        <time>2015-05-24T12:53:42Z</time>
      </trkpt>
      <trkpt lat="42.83786" lon="0.11303">
        <ele>2896.4534721723</ele>
        <time>2015-05-24T12:53:47Z</time>
      </trkpt>
      <trkpt lat="42.83786" lon="0.113">
        <ele>2897.6391133136</ele>
        <time>2015-05-24T12:53:51Z</time>
      </trkpt>
      <trkpt lat="42.83788" lon="0.11299">
        <ele>2897.6391133136</ele>
        <time>2015-05-24T12:53:56Z</time>
      </trkpt>
      <trkpt lat="42.83789" lon="0.11298">
        <ele>2897.6391133136</ele>
        <time>2015-05-24T12:54:02Z</time>
      </trkpt>
      <trkpt lat="42.8379" lon="0.11297">
        <ele>2897.6391133136</ele>
        <time>2015-05-24T12:54:06Z</time>
      </trkpt>
      <trkpt lat="42.83791" lon="0.11292">
        <ele>2897.6391133136</ele>
        <time>2015-05-24T12:54:12Z</time>
      </trkpt>
      <trkpt lat="42.83792" lon="0.11292">
        <ele>2898.6796478409</ele>
        <time>2015-05-24T12:54:16Z</time>
      </trkpt>
      <trkpt lat="42.83795" lon="0.11289">
        <ele>2898.6796478409</ele>
        <time>2015-05-24T12:54:22Z</time>
      </trkpt>
      <trkpt lat="42.83795" lon="0.11287">
        <ele>2898.6796478409</ele>
        <time>2015-05-24T12:54:27Z</time>
      </trkpt>
      <trkpt lat="42.83795" lon="0.11286">
        <ele>2898.6796478409</ele>
        <time>2015-05-24T12:54:31Z</time>
      </trkpt>
      <trkpt lat="42.83791" lon="0.11275">
        <ele>2899.7175236937</ele>
        <time>2015-05-24T12:55:11Z</time>
      </trkpt>
      <trkpt lat="42.83788" lon="0.11277">
        <ele>2899.7175236937</ele>
        <time>2015-05-24T12:55:17Z</time>
      </trkpt>
      <trkpt lat="42.83784" lon="0.11278">
        <ele>2899.7175236937</ele>
        <time>2015-05-24T12:55:22Z</time>
      </trkpt>
      <trkpt lat="42.83781" lon="0.11277">
        <ele>2900.5388266909</ele>
        <time>2015-05-24T12:55:27Z</time>
      </trkpt>
      <trkpt lat="42.83778" lon="0.11281">
        <ele>2900.5388266909</ele>
        <time>2015-05-24T12:55:32Z</time>
      </trkpt>
      <trkpt lat="42.83777" lon="0.11283">
        <ele>2900.5388266909</ele>
        <time>2015-05-24T12:55:36Z</time>
      </trkpt>
      <trkpt lat="42.83778" lon="0.11284">
        <ele>2900.5388266909</ele>
        <time>2015-05-24T12:55:42Z</time>
      </trkpt>
      <trkpt lat="42.83775" lon="0.11294">
        <ele>2901.4791333571</ele>
        <time>2015-05-24T12:56:06Z</time>
      </trkpt>
      <trkpt lat="42.83773" lon="0.11297">
        <ele>2901.4791333571</ele>
        <time>2015-05-24T12:56:11Z</time>
      </trkpt>
      <trkpt lat="42.83772" lon="0.113">
        <ele>2901.4791333571</ele>
        <time>2015-05-24T12:56:15Z</time>
      </trkpt>
      <trkpt lat="42.8377" lon="0.11305">
        <ele>2902.4166558218</ele>
        <time>2015-05-24T12:56:23Z</time>
      </trkpt>
      <trkpt lat="42.8377" lon="0.11306">
        <ele>2902.4166558218</ele>
        <time>2015-05-24T12:56:27Z</time>
      </trkpt>
      <trkpt lat="42.83762" lon="0.11312">
        <ele>2903.9590681652</ele>
        <time>2015-05-24T12:57:02Z</time>
      </trkpt>
      <trkpt lat="42.83759" lon="0.11313">
        <ele>2903.9590681652</ele>
        <time>2015-05-24T12:57:07Z</time>
      </trkpt>
      <trkpt lat="42.83757" lon="0.11315">
        <ele>2903.9590681652</ele>
        <time>2015-05-24T12:57:12Z</time>
      </trkpt>
      <trkpt lat="42.83755" lon="0.1132">
        <ele>2905.529180585</ele>
        <time>2015-05-24T12:57:16Z</time>
      </trkpt>
      <trkpt lat="42.83755" lon="0.11321">
        <ele>2905.529180585</ele>
        <time>2015-05-24T12:57:22Z</time>
      </trkpt>
      <trkpt lat="42.83748" lon="0.11322">
        <ele>2905.529180585</ele>
        <time>2015-05-24T12:57:47Z</time>
      </trkpt>
      <trkpt lat="42.83746" lon="0.11325">
        <ele>2907.6585002548</ele>
        <time>2015-05-24T12:57:52Z</time>
      </trkpt>
      <trkpt lat="42.83745" lon="0.1133">
        <ele>2907.6585002548</ele>
        <time>2015-05-24T12:57:57Z</time>
      </trkpt>
      <trkpt lat="42.83743" lon="0.11335">
        <ele>2907.6585002548</ele>
        <time>2015-05-24T12:58:02Z</time>
      </trkpt>
      <trkpt lat="42.83742" lon="0.11339">
        <ele>2909.7426319511</ele>
        <time>2015-05-24T12:58:07Z</time>
      </trkpt>
      <trkpt lat="42.83742" lon="0.11342">
        <ele>2909.7426319511</ele>
        <time>2015-05-24T12:58:12Z</time>
      </trkpt>
      <trkpt lat="42.83736" lon="0.11342">
        <ele>2909.7426319511</ele>
        <time>2015-05-24T12:58:37Z</time>
      </trkpt>
      <trkpt lat="42.83736" lon="0.11343">
        <ele>2912.0719226865</ele>
        <time>2015-05-24T12:58:42Z</time>
      </trkpt>
      <trkpt lat="42.83735" lon="0.11346">
        <ele>2912.0719226865</ele>
        <time>2015-05-24T12:58:46Z</time>
      </trkpt>
      <trkpt lat="42.83732" lon="0.11347">
        <ele>2912.0719226865</ele>
        <time>2015-05-24T12:58:52Z</time>
      </trkpt>
      <trkpt lat="42.83733" lon="0.11366">
        <ele>2913.920302926</ele>
        <time>2015-05-24T12:59:17Z</time>
      </trkpt>
      <trkpt lat="42.83733" lon="0.11364">
        <ele>2913.920302926</ele>
        <time>2015-05-24T12:59:22Z</time>
      </trkpt>
      <trkpt lat="42.83732" lon="0.11359">
        <ele>2913.920302926</ele>
        <time>2015-05-24T12:59:27Z</time>
      </trkpt>
      <trkpt lat="42.83731" lon="0.11357">
        <ele>2913.920302926</ele>
        <time>2015-05-24T12:59:32Z</time>
      </trkpt>
      <trkpt lat="42.83729" lon="0.11359">
        <ele>2915.5963175439</ele>
        <time>2015-05-24T12:59:36Z</time>
      </trkpt>
      <trkpt lat="42.83727" lon="0.11363">
        <ele>2915.5963175439</ele>
        <time>2015-05-24T12:59:42Z</time>
      </trkpt>
      <trkpt lat="42.83726" lon="0.11366">
        <ele>2915.5963175439</ele>
        <time>2015-05-24T12:59:46Z</time>
      </trkpt>
      <trkpt lat="42.83723" lon="0.1137">
        <ele>2917.3286624206</ele>
        <time>2015-05-24T12:59:51Z</time>
      </trkpt>
      <trkpt lat="42.83723" lon="0.11373">
        <ele>2917.3286624206</ele>
        <time>2015-05-24T12:59:57Z</time>
      </trkpt>
      <trkpt lat="42.83723" lon="0.11373">
        <ele>2917.3286624206</ele>
        <time>2015-05-24T13:00:02Z</time>
      </trkpt>
      <trkpt lat="42.83719" lon="0.11378">
        <ele>2917.3286624206</ele>
        <time>2015-05-24T13:00:27Z</time>
      </trkpt>
      <trkpt lat="42.83717" lon="0.1138">
        <ele>2919.5740464099</ele>
        <time>2015-05-24T13:00:31Z</time>
      </trkpt>
      <trkpt lat="42.83715" lon="0.11384">
        <ele>2919.5740464099</ele>
        <time>2015-05-24T13:00:36Z</time>
      </trkpt>
      <trkpt lat="42.83715" lon="0.11384">
        <ele>2919.5740464099</ele>
        <time>2015-05-24T13:00:41Z</time>
      </trkpt>
      <trkpt lat="42.83706" lon="0.11381">
        <ele>2921.9327419442</ele>
        <time>2015-05-24T13:01:11Z</time>
      </trkpt>
      <trkpt lat="42.83705" lon="0.11383">
        <ele>2921.9327419442</ele>
        <time>2015-05-24T13:01:17Z</time>
      </trkpt>
      <trkpt lat="42.83704" lon="0.11384">
        <ele>2921.9327419442</ele>
        <time>2015-05-24T13:01:21Z</time>
      </trkpt>
      <trkpt lat="42.83701" lon="0.11389">
        <ele>2921.9327419442</ele>
        <time>2015-05-24T13:01:28Z</time>
      </trkpt>
      <trkpt lat="42.837" lon="0.11388">
        <ele>2924.4519809666</ele>
        <time>2015-05-24T13:01:31Z</time>
      </trkpt>
      <trkpt lat="42.83699" lon="0.11388">
        <ele>2924.4519809666</ele>
        <time>2015-05-24T13:01:36Z</time>
      </trkpt>
      <trkpt lat="42.83698" lon="0.11393">
        <ele>2924.4519809666</ele>
        <time>2015-05-24T13:02:01Z</time>
      </trkpt>
      <trkpt lat="42.83695" lon="0.11396">
        <ele>2924.4519809666</ele>
        <time>2015-05-24T13:02:08Z</time>
      </trkpt>
      <trkpt lat="42.83694" lon="0.11398">
        <ele>2927.20389571</ele>
        <time>2015-05-24T13:02:11Z</time>
      </trkpt>
      <trkpt lat="42.83693" lon="0.11399">
        <ele>2927.20389571</ele>
        <time>2015-05-24T13:02:17Z</time>
      </trkpt>
      <trkpt lat="42.83693" lon="0.114">
        <ele>2927.20389571</ele>
        <time>2015-05-24T13:02:22Z</time>
      </trkpt>
      <trkpt lat="42.83689" lon="0.11414">
        <ele>2930.3555513245</ele>
        <time>2015-05-24T13:03:23Z</time>
      </trkpt>
      <trkpt lat="42.83688" lon="0.11416">
        <ele>2930.3555513245</ele>
        <time>2015-05-24T13:03:27Z</time>
      </trkpt>
      <trkpt lat="42.83688" lon="0.11416">
        <ele>2930.3555513245</ele>
        <time>2015-05-24T13:03:31Z</time>
      </trkpt>
      <trkpt lat="42.83686" lon="0.11418">
        <ele>2930.3555513245</ele>
        <time>2015-05-24T13:03:47Z</time>
      </trkpt>
      <trkpt lat="42.83686" lon="0.11417">
        <ele>2930.3555513245</ele>
        <time>2015-05-24T13:03:52Z</time>
      </trkpt>
      <trkpt lat="42.83687" lon="0.11415">
        <ele>2930.3555513245</ele>
        <time>2015-05-24T13:03:56Z</time>
      </trkpt>
      <trkpt lat="42.83689" lon="0.11414">
        <ele>2930.3555513245</ele>
        <time>2015-05-24T13:04:02Z</time>
      </trkpt>
      <trkpt lat="42.83688" lon="0.11413">
        <ele>2930.3555513245</ele>
        <time>2015-05-24T13:04:06Z</time>
      </trkpt>
      <trkpt lat="42.83691" lon="0.1141">
        <ele>2933.7724131795</ele>
        <time>2015-05-24T13:04:46Z</time>
      </trkpt>
      <trkpt lat="42.83693" lon="0.11406">
        <ele>2933.7724131795</ele>
        <time>2015-05-24T13:04:52Z</time>
      </trkpt>
      <trkpt lat="42.83695" lon="0.11406">
        <ele>2933.7724131795</ele>
        <time>2015-05-24T13:04:56Z</time>
      </trkpt>
      <trkpt lat="42.83694" lon="0.11405">
        <ele>2933.7724131795</ele>
        <time>2015-05-24T13:05:01Z</time>
      </trkpt>
      <trkpt lat="42.83687" lon="0.11396">
        <ele>2937.2138239531</ele>
        <time>2015-05-24T13:05:16Z</time>
      </trkpt>
      <trkpt lat="42.83683" lon="0.11395">
        <ele>2937.2138239531</ele>
        <time>2015-05-24T13:05:22Z</time>
      </trkpt>
      <trkpt lat="42.83681" lon="0.11397">
        <ele>2937.2138239531</ele>
        <time>2015-05-24T13:05:26Z</time>
      </trkpt>
      <trkpt lat="42.83677" lon="0.11397">
        <ele>2940.427952475</ele>
        <time>2015-05-24T13:05:32Z</time>
      </trkpt>
      <trkpt lat="42.83677" lon="0.11396">
        <ele>2940.427952475</ele>
        <time>2015-05-24T13:05:36Z</time>
      </trkpt>
      <trkpt lat="42.83672" lon="0.11406">
        <ele>2943.672132417</ele>
        <time>2015-05-24T13:06:12Z</time>
      </trkpt>
      <trkpt lat="42.83672" lon="0.11409">
        <ele>2943.672132417</ele>
        <time>2015-05-24T13:06:16Z</time>
      </trkpt>
      <trkpt lat="42.83671" lon="0.11409">
        <ele>2943.672132417</ele>
        <time>2015-05-24T13:06:24Z</time>
      </trkpt>
      <trkpt lat="42.83675" lon="0.11418">
        <ele>2946.896547296</ele>
        <time>2015-05-24T13:06:52Z</time>
      </trkpt>
      <trkpt lat="42.83675" lon="0.11419">
        <ele>2946.896547296</ele>
        <time>2015-05-24T13:06:56Z</time>
      </trkpt>
      <trkpt lat="42.83676" lon="0.11416">
        <ele>2946.896547296</ele>
        <time>2015-05-24T13:07:02Z</time>
      </trkpt>
      <trkpt lat="42.83678" lon="0.11413">
        <ele>2946.896547296</ele>
        <time>2015-05-24T13:07:07Z</time>
      </trkpt>
      <trkpt lat="42.8368" lon="0.11412">
        <ele>2946.896547296</ele>
        <time>2015-05-24T13:07:12Z</time>
      </trkpt>
      <trkpt lat="42.83681" lon="0.11409">
        <ele>2949.8245860532</ele>
        <time>2015-05-24T13:07:16Z</time>
      </trkpt>
      <trkpt lat="42.83682" lon="0.11404">
        <ele>2949.8245860532</ele>
        <time>2015-05-24T13:07:22Z</time>
      </trkpt>
      <trkpt lat="42.83684" lon="0.11401">
        <ele>2949.8245860532</ele>
        <time>2015-05-24T13:07:26Z</time>
      </trkpt>
      <trkpt lat="42.83685" lon="0.11399">
        <ele>2949.8245860532</ele>
        <time>2015-05-24T13:07:32Z</time>
      </trkpt>
      <trkpt lat="42.83687" lon="0.11387">
        <ele>2952.5755525847</ele>
        <time>2015-05-24T13:08:02Z</time>
      </trkpt>
      <trkpt lat="42.83689" lon="0.11383">
        <ele>2952.5755525847</ele>
        <time>2015-05-24T13:08:07Z</time>
      </trkpt>
      <trkpt lat="42.8369" lon="0.11379">
        <ele>2952.5755525847</ele>
        <time>2015-05-24T13:08:12Z</time>
      </trkpt>
      <trkpt lat="42.83691" lon="0.11378">
        <ele>2952.5755525847</ele>
        <time>2015-05-24T13:08:15Z</time>
      </trkpt>
      <trkpt lat="42.83691" lon="0.11374">
        <ele>2955.0876294247</ele>
        <time>2015-05-24T13:08:22Z</time>
      </trkpt>
      <trkpt lat="42.83691" lon="0.11362">
        <ele>2957.8663262385</ele>
        <time>2015-05-24T13:08:42Z</time>
      </trkpt>
      <trkpt lat="42.83685" lon="0.11363">
        <ele>2957.8663262385</ele>
        <time>2015-05-24T13:08:52Z</time>
      </trkpt>
      <trkpt lat="42.83683" lon="0.11366">
        <ele>2957.8663262385</ele>
        <time>2015-05-24T13:08:56Z</time>
      </trkpt>
      <trkpt lat="42.83679" lon="0.11367">
        <ele>2960.3705756957</ele>
        <time>2015-05-24T13:09:02Z</time>
      </trkpt>
      <trkpt lat="42.83676" lon="0.11368">
        <ele>2960.3705756957</ele>
        <time>2015-05-24T13:09:07Z</time>
      </trkpt>
      <trkpt lat="42.83673" lon="0.11371">
        <ele>2960.3705756957</ele>
        <time>2015-05-24T13:09:12Z</time>
      </trkpt>
      <trkpt lat="42.83672" lon="0.11371">
        <ele>2960.3705756957</ele>
        <time>2015-05-24T13:09:16Z</time>
      </trkpt>
      <trkpt lat="42.83665" lon="0.11374">
        <ele>2962.6907662111</ele>
        <time>2015-05-24T13:09:56Z</time>
      </trkpt>
      <trkpt lat="42.83663" lon="0.11379">
        <ele>2962.6907662111</ele>
        <time>2015-05-24T13:10:02Z</time>
      </trkpt>
      <trkpt lat="42.83664" lon="0.11376">
        <ele>2962.6907662111</ele>
        <time>2015-05-24T13:10:27Z</time>
      </trkpt>
      <trkpt lat="42.83665" lon="0.11374">
        <ele>2962.6907662111</ele>
        <time>2015-05-24T13:10:32Z</time>
      </trkpt>
      <trkpt lat="42.83665" lon="0.11371">
        <ele>2964.9688897708</ele>
        <time>2015-05-24T13:10:36Z</time>
      </trkpt>
      <trkpt lat="42.83666" lon="0.1137">
        <ele>2964.9688897708</ele>
        <time>2015-05-24T13:10:42Z</time>
      </trkpt>
      <trkpt lat="42.83669" lon="0.11367">
        <ele>2964.9688897708</ele>
        <time>2015-05-24T13:11:42Z</time>
      </trkpt>
      <trkpt lat="42.83669" lon="0.11364">
        <ele>2964.9688897708</ele>
        <time>2015-05-24T13:11:47Z</time>
      </trkpt>
      <trkpt lat="42.8367" lon="0.11362">
        <ele>2967.3943513688</ele>
        <time>2015-05-24T13:11:51Z</time>
      </trkpt>
      <trkpt lat="42.83671" lon="0.11359">
        <ele>2967.3943513688</ele>
        <time>2015-05-24T13:11:56Z</time>
      </trkpt>
      <trkpt lat="42.83673" lon="0.11357">
        <ele>2967.3943513688</ele>
        <time>2015-05-24T13:12:02Z</time>
      </trkpt>
      <trkpt lat="42.83671" lon="0.11345">
        <ele>2969.9117303356</ele>
        <time>2015-05-24T13:12:42Z</time>
      </trkpt>
      <trkpt lat="42.83671" lon="0.11344">
        <ele>2969.9117303356</ele>
        <time>2015-05-24T13:12:47Z</time>
      </trkpt>
      <trkpt lat="42.83676" lon="0.11333">
        <ele>2972.9162418302</ele>
        <time>2015-05-24T13:13:20Z</time>
      </trkpt>
      <trkpt lat="42.83675" lon="0.11329">
        <ele>2972.9162418302</ele>
        <time>2015-05-24T13:13:40Z</time>
      </trkpt>
      <trkpt lat="42.83674" lon="0.11331">
        <ele>2972.9162418302</ele>
        <time>2015-05-24T13:13:45Z</time>
      </trkpt>
      <trkpt lat="42.8367" lon="0.1134">
        <ele>2975.922523931</ele>
        <time>2015-05-24T13:14:25Z</time>
      </trkpt>
      <trkpt lat="42.8367" lon="0.11339">
        <ele>2975.922523931</ele>
        <time>2015-05-24T13:14:30Z</time>
      </trkpt>
      <trkpt lat="42.83659" lon="0.11348">
        <ele>2978.5385864655</ele>
        <time>2015-05-24T13:15:02Z</time>
      </trkpt>
      <trkpt lat="42.83657" lon="0.11349">
        <ele>2978.5385864655</ele>
        <time>2015-05-24T13:15:07Z</time>
      </trkpt>
      <trkpt lat="42.83654" lon="0.11349">
        <ele>2978.5385864655</ele>
        <time>2015-05-24T13:15:11Z</time>
      </trkpt>
      <trkpt lat="42.83651" lon="0.1135">
        <ele>2978.5385864655</ele>
        <time>2015-05-24T13:15:17Z</time>
      </trkpt>
      <trkpt lat="42.83647" lon="0.1135">
        <ele>2980.7626849391</ele>
        <time>2015-05-24T13:15:21Z</time>
      </trkpt>
      <trkpt lat="42.83644" lon="0.11351">
        <ele>2980.7626849391</ele>
        <time>2015-05-24T13:15:27Z</time>
      </trkpt>
      <trkpt lat="42.83643" lon="0.1135">
        <ele>2980.7626849391</ele>
        <time>2015-05-24T13:15:32Z</time>
      </trkpt>
      <trkpt lat="42.83639" lon="0.11347">
        <ele>2982.7384900058</ele>
        <time>2015-05-24T13:16:06Z</time>
      </trkpt>
      <trkpt lat="42.83636" lon="0.11352">
        <ele>2982.7384900058</ele>
        <time>2015-05-24T13:16:12Z</time>
      </trkpt>
      <trkpt lat="42.83636" lon="0.11355">
        <ele>2982.7384900058</ele>
        <time>2015-05-24T13:16:17Z</time>
      </trkpt>
      <trkpt lat="42.83635" lon="0.11357">
        <ele>2982.7384900058</ele>
        <time>2015-05-24T13:16:21Z</time>
      </trkpt>
      <trkpt lat="42.83631" lon="0.11358">
        <ele>2984.4413649043</ele>
        <time>2015-05-24T13:16:27Z</time>
      </trkpt>
      <trkpt lat="42.83628" lon="0.11361">
        <ele>2984.4413649043</ele>
        <time>2015-05-24T13:16:32Z</time>
      </trkpt>
      <trkpt lat="42.83627" lon="0.11363">
        <ele>2984.4413649043</ele>
        <time>2015-05-24T13:16:36Z</time>
      </trkpt>
      <trkpt lat="42.83629" lon="0.11368">
        <ele>2985.8204917527</ele>
        <time>2015-05-24T13:16:42Z</time>
      </trkpt>
      <trkpt lat="42.83634" lon="0.11376">
        <ele>2985.8204917527</ele>
        <time>2015-05-24T13:16:47Z</time>
      </trkpt>
      <trkpt lat="42.8363" lon="0.11374">
        <ele>2986.9162174494</ele>
        <time>2015-05-24T13:16:57Z</time>
      </trkpt>
      <trkpt lat="42.83627" lon="0.11377">
        <ele>2986.9162174494</ele>
        <time>2015-05-24T13:17:02Z</time>
      </trkpt>
      <trkpt lat="42.83624" lon="0.1138">
        <ele>2986.9162174494</ele>
        <time>2015-05-24T13:17:06Z</time>
      </trkpt>
      <trkpt lat="42.83624" lon="0.1138">
        <ele>2986.9162174494</ele>
        <time>2015-05-24T13:17:11Z</time>
      </trkpt>
      <trkpt lat="42.83624" lon="0.1138">
        <ele>2986.9162174494</ele>
        <time>2015-05-24T13:17:17Z</time>
      </trkpt>
      <trkpt lat="42.83624" lon="0.11383">
        <ele>2988.4296787028</ele>
        <time>2015-05-24T13:17:56Z</time>
      </trkpt>
      <trkpt lat="42.83624" lon="0.1138">
        <ele>2988.4296787028</ele>
        <time>2015-05-24T13:18:02Z</time>
      </trkpt>
      <trkpt lat="42.83625" lon="0.11376">
        <ele>2988.4296787028</ele>
        <time>2015-05-24T13:18:05Z</time>
      </trkpt>
      <trkpt lat="42.83626" lon="0.11374">
        <ele>2988.4296787028</ele>
        <time>2015-05-24T13:18:13Z</time>
      </trkpt>
      <trkpt lat="42.83627" lon="0.11373">
        <ele>2988.4296787028</ele>
        <time>2015-05-24T13:18:17Z</time>
      </trkpt>
      <trkpt lat="42.83635" lon="0.11357">
        <ele>2990.4617510139</ele>
        <time>2015-05-24T13:18:32Z</time>
      </trkpt>
      <trkpt lat="42.83627" lon="0.11349">
        <ele>2992.729786371</ele>
        <time>2015-05-24T13:18:52Z</time>
      </trkpt>
      <trkpt lat="42.83626" lon="0.11353">
        <ele>2992.729786371</ele>
        <time>2015-05-24T13:18:57Z</time>
      </trkpt>
      <trkpt lat="42.83624" lon="0.11358">
        <ele>2992.729786371</ele>
        <time>2015-05-24T13:19:02Z</time>
      </trkpt>
      <trkpt lat="42.83623" lon="0.11363">
        <ele>2994.8271519031</ele>
        <time>2015-05-24T13:19:07Z</time>
      </trkpt>
      <trkpt lat="42.83621" lon="0.11373">
        <ele>2994.8271519031</ele>
        <time>2015-05-24T13:19:12Z</time>
      </trkpt>
      <trkpt lat="42.8362" lon="0.11377">
        <ele>2996.6513970354</ele>
        <time>2015-05-24T13:19:17Z</time>
      </trkpt>
      <trkpt lat="42.83618" lon="0.11378">
        <ele>2996.6513970354</ele>
        <time>2015-05-24T13:19:22Z</time>
      </trkpt>
      <trkpt lat="42.83616" lon="0.11378">
        <ele>2996.6513970354</ele>
        <time>2015-05-24T13:19:29Z</time>
      </trkpt>
      <trkpt lat="42.83615" lon="0.11381">
        <ele>2996.6513970354</ele>
        <time>2015-05-24T13:19:31Z</time>
      </trkpt>
      <trkpt lat="42.83613" lon="0.11385">
        <ele>2998.2524922783</ele>
        <time>2015-05-24T13:19:37Z</time>
      </trkpt>
      <trkpt lat="42.83612" lon="0.11388">
        <ele>2998.2524922783</ele>
        <time>2015-05-24T13:19:41Z</time>
      </trkpt>
      <trkpt lat="42.83609" lon="0.11393">
        <ele>2998.2524922783</ele>
        <time>2015-05-24T13:19:47Z</time>
      </trkpt>
      <trkpt lat="42.83608" lon="0.11392">
        <ele>2998.2524922783</ele>
        <time>2015-05-24T13:19:52Z</time>
      </trkpt>
      <trkpt lat="42.83602" lon="0.11402">
        <ele>2999.7206100557</ele>
        <time>2015-05-24T13:20:27Z</time>
      </trkpt>
      <trkpt lat="42.83602" lon="0.11402">
        <ele>2999.7206100557</ele>
        <time>2015-05-24T13:20:32Z</time>
      </trkpt>
      <trkpt lat="42.83595" lon="0.11411">
        <ele>3001.2261464223</ele>
        <time>2015-05-24T13:21:22Z</time>
      </trkpt>
      <trkpt lat="42.83603" lon="0.11404">
        <ele>3003.993301888</ele>
        <time>2015-05-24T13:23:57Z</time>
      </trkpt>
      <trkpt lat="42.83598" lon="0.11414">
        <ele>3006.9911431615</ele>
        <time>2015-05-24T13:24:51Z</time>
      </trkpt>
      <trkpt lat="42.83597" lon="0.11415">
        <ele>3006.9911431615</ele>
        <time>2015-05-24T13:24:57Z</time>
      </trkpt>
      <trkpt lat="42.83607" lon="0.11414">
        <ele>3010.8058153458</ele>
        <time>2015-05-24T13:31:15Z</time>
      </trkpt>
      <trkpt lat="42.83607" lon="0.11413">
        <ele>3010.8058153458</ele>
        <time>2015-05-24T13:31:20Z</time>
      </trkpt>
      <trkpt lat="42.83603" lon="0.11415">
        <ele>3010.8058153458</ele>
        <time>2015-05-24T13:33:06Z</time>
      </trkpt>
      <trkpt lat="42.83601" lon="0.11418">
        <ele>3010.8058153458</ele>
        <time>2015-05-24T13:33:12Z</time>
      </trkpt>
      <trkpt lat="42.83599" lon="0.11424">
        <ele>3014.8972915363</ele>
        <time>2015-05-24T13:33:17Z</time>
      </trkpt>
      <trkpt lat="42.83597" lon="0.11427">
        <ele>3014.8972915363</ele>
        <time>2015-05-24T13:33:22Z</time>
      </trkpt>
      <trkpt lat="42.83593" lon="0.11431">
        <ele>3014.8972915363</ele>
        <time>2015-05-24T13:33:27Z</time>
      </trkpt>
      <trkpt lat="42.83592" lon="0.11434">
        <ele>3018.6059369315</ele>
        <time>2015-05-24T13:33:31Z</time>
      </trkpt>
      <trkpt lat="42.8359" lon="0.11435">
        <ele>3018.6059369315</ele>
        <time>2015-05-24T13:33:36Z</time>
      </trkpt>
      <trkpt lat="42.83589" lon="0.11438">
        <ele>3018.6059369315</ele>
        <time>2015-05-24T13:33:43Z</time>
      </trkpt>
      <trkpt lat="42.83588" lon="0.11439">
        <ele>3018.6059369315</ele>
        <time>2015-05-24T13:33:46Z</time>
      </trkpt>
      <trkpt lat="42.83585" lon="0.11439">
        <ele>3018.6059369315</ele>
        <time>2015-05-24T13:33:52Z</time>
      </trkpt>
      <trkpt lat="42.83584" lon="0.1144">
        <ele>3021.9557673872</ele>
        <time>2015-05-24T13:33:56Z</time>
      </trkpt>
      <trkpt lat="42.83583" lon="0.11443">
        <ele>3021.9557673872</ele>
        <time>2015-05-24T13:34:07Z</time>
      </trkpt>
      <trkpt lat="42.83581" lon="0.11444">
        <ele>3021.9557673872</ele>
        <time>2015-05-24T13:34:11Z</time>
      </trkpt>
      <trkpt lat="42.83579" lon="0.11446">
        <ele>3021.9557673872</ele>
        <time>2015-05-24T13:34:16Z</time>
      </trkpt>
      <trkpt lat="42.83578" lon="0.11447">
        <ele>3021.9557673872</ele>
        <time>2015-05-24T13:34:22Z</time>
      </trkpt>
      <trkpt lat="42.83576" lon="0.11451">
        <ele>3024.9989038879</ele>
        <time>2015-05-24T13:34:32Z</time>
      </trkpt>
      <trkpt lat="42.83575" lon="0.11452">
        <ele>3024.9989038879</ele>
        <time>2015-05-24T13:34:36Z</time>
      </trkpt>
      <trkpt lat="42.83574" lon="0.11453">
        <ele>3024.9989038879</ele>
        <time>2015-05-24T13:34:43Z</time>
      </trkpt>
      <trkpt lat="42.83568" lon="0.11463">
        <ele>3028.1448245562</ele>
        <time>2015-05-24T13:35:46Z</time>
      </trkpt>
      <trkpt lat="42.83566" lon="0.11466">
        <ele>3028.1448245562</ele>
        <time>2015-05-24T13:35:52Z</time>
      </trkpt>
      <trkpt lat="42.83565" lon="0.11467">
        <ele>3028.1448245562</ele>
        <time>2015-05-24T13:35:56Z</time>
      </trkpt>
      <trkpt lat="42.83563" lon="0.1147">
        <ele>3028.1448245562</ele>
        <time>2015-05-24T13:36:02Z</time>
      </trkpt>
      <trkpt lat="42.83563" lon="0.11472">
        <ele>3028.1448245562</ele>
        <time>2015-05-24T13:36:06Z</time>
      </trkpt>
      <trkpt lat="42.83561" lon="0.11477">
        <ele>3031.3980026484</ele>
        <time>2015-05-24T13:36:16Z</time>
      </trkpt>
      <trkpt lat="42.83561" lon="0.11478">
        <ele>3031.3980026484</ele>
        <time>2015-05-24T13:36:22Z</time>
      </trkpt>
      <trkpt lat="42.83552" lon="0.11469">
        <ele>3035.9440518935</ele>
        <time>2015-05-24T13:37:32Z</time>
      </trkpt>
      <trkpt lat="42.83545" lon="0.11474">
        <ele>3035.9440518935</ele>
        <time>2015-05-24T13:37:51Z</time>
      </trkpt>
      <trkpt lat="42.83541" lon="0.11477">
        <ele>3040.3848066713</ele>
        <time>2015-05-24T13:37:56Z</time>
      </trkpt>
      <trkpt lat="42.83544" lon="0.11477">
        <ele>3040.3848066713</ele>
        <time>2015-05-24T13:38:03Z</time>
      </trkpt>
      <trkpt lat="42.83543" lon="0.11478">
        <ele>3040.3848066713</ele>
        <time>2015-05-24T13:38:27Z</time>
      </trkpt>
      <trkpt lat="42.83543" lon="0.11479">
        <ele>3040.3848066713</ele>
        <time>2015-05-24T13:38:33Z</time>
      </trkpt>
      <trkpt lat="42.83542" lon="0.11483">
        <ele>3040.3848066713</ele>
        <time>2015-05-24T13:38:36Z</time>
      </trkpt>
      <trkpt lat="42.83541" lon="0.11485">
        <ele>3044.6933573691</ele>
        <time>2015-05-24T13:38:42Z</time>
      </trkpt>
      <trkpt lat="42.83535" lon="0.1149">
        <ele>3044.6933573691</ele>
        <time>2015-05-24T13:38:47Z</time>
      </trkpt>
      <trkpt lat="42.83533" lon="0.11492">
        <ele>3048.5714141516</ele>
        <time>2015-05-24T13:38:52Z</time>
      </trkpt>
      <trkpt lat="42.83526" lon="0.11496">
        <ele>3048.5714141516</ele>
        <time>2015-05-24T13:39:03Z</time>
      </trkpt>
      <trkpt lat="42.83522" lon="0.11495">
        <ele>3052.060943439</ele>
        <time>2015-05-24T13:39:07Z</time>
      </trkpt>
      <trkpt lat="42.83522" lon="0.11495">
        <ele>3052.060943439</ele>
        <time>2015-05-24T13:39:12Z</time>
      </trkpt>
      <trkpt lat="42.83521" lon="0.11495">
        <ele>3052.060943439</ele>
        <time>2015-05-24T13:39:16Z</time>
      </trkpt>
      <trkpt lat="42.83521" lon="0.11495">
        <ele>3052.060943439</ele>
        <time>2015-05-24T13:39:21Z</time>
      </trkpt>
      <trkpt lat="42.83531" lon="0.11507">
        <ele>3055.9658062279</ele>
        <time>2015-05-24T13:40:41Z</time>
      </trkpt>
      <trkpt lat="42.83535" lon="0.11507">
        <ele>3055.9658062279</ele>
        <time>2015-05-24T13:40:46Z</time>
      </trkpt>
      <trkpt lat="42.83541" lon="0.115">
        <ele>3060.7559402247</ele>
        <time>2015-05-24T13:42:15Z</time>
      </trkpt>
      <trkpt lat="42.83542" lon="0.11492">
        <ele>3060.7559402247</ele>
        <time>2015-05-24T13:42:20Z</time>
      </trkpt>
      <trkpt lat="42.83541" lon="0.11487">
        <ele>3065.0197645528</ele>
        <time>2015-05-24T13:42:25Z</time>
      </trkpt>
      <trkpt lat="42.83542" lon="0.11485">
        <ele>3065.0197645528</ele>
        <time>2015-05-24T13:42:30Z</time>
      </trkpt>
      <trkpt lat="42.83535" lon="0.11488">
        <ele>3065.0197645528</ele>
        <time>2015-05-24T13:42:35Z</time>
      </trkpt>
      <trkpt lat="42.83535" lon="0.1149">
        <ele>3068.8344498884</ele>
        <time>2015-05-24T13:42:40Z</time>
      </trkpt>
      <trkpt lat="42.83535" lon="0.1149">
        <ele>3068.8344498884</ele>
        <time>2015-05-24T13:42:45Z</time>
      </trkpt>
      <trkpt lat="42.83535" lon="0.11491">
        <ele>3068.8344498884</ele>
        <time>2015-05-24T13:42:50Z</time>
      </trkpt>
      <trkpt lat="42.83537" lon="0.11493">
        <ele>3068.8344498884</ele>
        <time>2015-05-24T13:42:55Z</time>
      </trkpt>
      <trkpt lat="42.83541" lon="0.11495">
        <ele>3068.8344498884</ele>
        <time>2015-05-24T13:43:05Z</time>
      </trkpt>
      <trkpt lat="42.83542" lon="0.11502">
        <ele>3072.3305206579</ele>
        <time>2015-05-24T13:43:10Z</time>
      </trkpt>
      <trkpt lat="42.83542" lon="0.11504">
        <ele>3072.3305206579</ele>
        <time>2015-05-24T13:43:15Z</time>
      </trkpt>
      <trkpt lat="42.83544" lon="0.11499">
        <ele>3072.3305206579</ele>
        <time>2015-05-24T13:43:20Z</time>
      </trkpt>
      <trkpt lat="42.83544" lon="0.11504">
        <ele>3075.3993488195</ele>
        <time>2015-05-24T13:43:25Z</time>
      </trkpt>
      <trkpt lat="42.83539" lon="0.11501">
        <ele>3075.3993488195</ele>
        <time>2015-05-24T13:44:35Z</time>
      </trkpt>
      <trkpt lat="42.83539" lon="0.11502">
        <ele>3075.3993488195</ele>
        <time>2015-05-24T13:44:40Z</time>
      </trkpt>
      <trkpt lat="42.83535" lon="0.11504">
        <ele>3078.2730580914</ele>
        <time>2015-05-24T13:44:45Z</time>
      </trkpt>
      <trkpt lat="42.83535" lon="0.11503">
        <ele>3078.2730580914</ele>
        <time>2015-05-24T13:44:50Z</time>
      </trkpt>
      <trkpt lat="42.83537" lon="0.11505">
        <ele>3078.2730580914</ele>
        <time>2015-05-24T13:44:55Z</time>
      </trkpt>
      <trkpt lat="42.83538" lon="0.11505">
        <ele>3078.2730580914</ele>
        <time>2015-05-24T13:45:00Z</time>
      </trkpt>
      <trkpt lat="42.83536" lon="0.11511">
        <ele>3078.2730580914</ele>
        <time>2015-05-24T13:46:50Z</time>
      </trkpt>
      <trkpt lat="42.83527" lon="0.11514">
        <ele>3083.0984740539</ele>
        <time>2015-05-24T13:46:55Z</time>
      </trkpt>
      <trkpt lat="42.83527" lon="0.11522">
        <ele>3083.0984740539</ele>
        <time>2015-05-24T13:47:00Z</time>
      </trkpt>
      <trkpt lat="42.83526" lon="0.11515">
        <ele>3087.3630892234</ele>
        <time>2015-05-24T13:47:05Z</time>
      </trkpt>
      <trkpt lat="42.83527" lon="0.11508">
        <ele>3087.3630892234</ele>
        <time>2015-05-24T13:47:10Z</time>
      </trkpt>
      <trkpt lat="42.83529" lon="0.11506">
        <ele>3087.3630892234</ele>
        <time>2015-05-24T13:47:15Z</time>
      </trkpt>
      <trkpt lat="42.83537" lon="0.11513">
        <ele>3091.118485519</ele>
        <time>2015-05-24T13:47:20Z</time>
      </trkpt>
      <trkpt lat="42.83543" lon="0.11518">
        <ele>3091.118485519</ele>
        <time>2015-05-24T13:47:25Z</time>
      </trkpt>
      <trkpt lat="42.83543" lon="0.11518">
        <ele>3091.118485519</ele>
        <time>2015-05-24T13:47:30Z</time>
      </trkpt>
      <trkpt lat="42.83541" lon="0.11515">
        <ele>3094.3707656885</ele>
        <time>2015-05-24T13:48:23Z</time>
      </trkpt>
      <trkpt lat="42.83543" lon="0.11523">
        <ele>3094.3707656885</ele>
        <time>2015-05-24T13:49:00Z</time>
      </trkpt>
      <trkpt lat="42.83545" lon="0.11519">
        <ele>3097.2423983549</ele>
        <time>2015-05-24T13:49:05Z</time>
      </trkpt>
      <trkpt lat="42.83544" lon="0.11517">
        <ele>3097.2423983549</ele>
        <time>2015-05-24T13:49:10Z</time>
      </trkpt>
      <trkpt lat="42.83545" lon="0.11512">
        <ele>3097.2423983549</ele>
        <time>2015-05-24T13:49:25Z</time>
      </trkpt>
      <trkpt lat="42.83543" lon="0.11511">
        <ele>3097.2423983549</ele>
        <time>2015-05-24T13:49:30Z</time>
      </trkpt>
      <trkpt lat="42.83542" lon="0.11512">
        <ele>3097.2423983549</ele>
        <time>2015-05-24T13:49:35Z</time>
      </trkpt>
      <trkpt lat="42.83544" lon="0.11516">
        <ele>3099.8336211686</ele>
        <time>2015-05-24T13:49:47Z</time>
      </trkpt>
      <trkpt lat="42.83542" lon="0.11516">
        <ele>3099.8336211686</ele>
        <time>2015-05-24T13:49:51Z</time>
      </trkpt>
      <trkpt lat="42.83542" lon="0.11512">
        <ele>3099.8336211686</ele>
        <time>2015-05-24T13:50:00Z</time>
      </trkpt>
      <trkpt lat="42.83541" lon="0.11508">
        <ele>3099.8336211686</ele>
        <time>2015-05-24T13:50:05Z</time>
      </trkpt>
      <trkpt lat="42.83542" lon="0.11507">
        <ele>3099.8336211686</ele>
        <time>2015-05-24T13:50:10Z</time>
      </trkpt>
      <trkpt lat="42.83542" lon="0.11509">
        <ele>3102.0940841945</ele>
        <time>2015-05-24T13:50:15Z</time>
      </trkpt>
      <trkpt lat="42.83542" lon="0.11509">
        <ele>3102.0940841945</ele>
        <time>2015-05-24T13:50:20Z</time>
      </trkpt>
      <trkpt lat="42.83542" lon="0.11511">
        <ele>3102.0940841945</ele>
        <time>2015-05-24T13:50:32Z</time>
      </trkpt>
      <trkpt lat="42.83544" lon="0.11498">
        <ele>3103.7619860571</ele>
        <time>2015-05-24T13:52:12Z</time>
      </trkpt>
      <trkpt lat="42.83551" lon="0.11487">
        <ele>3105.0288274916</ele>
        <time>2015-05-24T13:53:21Z</time>
      </trkpt>
      <trkpt lat="42.83553" lon="0.1148">
        <ele>3105.0288274916</ele>
        <time>2015-05-24T13:56:56Z</time>
      </trkpt>
      <trkpt lat="42.83554" lon="0.11469">
        <ele>3103.96919808</ele>
        <time>2015-05-24T13:59:36Z</time>
      </trkpt>
      <trkpt lat="42.83557" lon="0.11465">
        <ele>3103.96919808</ele>
        <time>2015-05-24T13:59:42Z</time>
      </trkpt>
      <trkpt lat="42.83558" lon="0.11462">
        <ele>3103.96919808</ele>
        <time>2015-05-24T13:59:47Z</time>
      </trkpt>
      <trkpt lat="42.8356" lon="0.1146">
        <ele>3103.96919808</ele>
        <time>2015-05-24T13:59:52Z</time>
      </trkpt>
      <trkpt lat="42.83559" lon="0.11461">
        <ele>3102.4661061236</ele>
        <time>2015-05-24T13:59:56Z</time>
      </trkpt>
      <trkpt lat="42.83561" lon="0.11467">
        <ele>3102.4661061236</ele>
        <time>2015-05-24T14:00:06Z</time>
      </trkpt>
      <trkpt lat="42.83564" lon="0.11473">
        <ele>3100.6658436203</ele>
        <time>2015-05-24T14:00:12Z</time>
      </trkpt>
      <trkpt lat="42.83568" lon="0.11475">
        <ele>3100.6658436203</ele>
        <time>2015-05-24T14:00:16Z</time>
      </trkpt>
      <trkpt lat="42.83569" lon="0.11471">
        <ele>3100.6658436203</ele>
        <time>2015-05-24T14:00:22Z</time>
      </trkpt>
      <trkpt lat="42.8357" lon="0.11468">
        <ele>3098.5606412946</ele>
        <time>2015-05-24T14:00:27Z</time>
      </trkpt>
      <trkpt lat="42.83572" lon="0.11463">
        <ele>3098.5606412946</ele>
        <time>2015-05-24T14:00:31Z</time>
      </trkpt>
      <trkpt lat="42.83574" lon="0.11458">
        <ele>3098.5606412946</ele>
        <time>2015-05-24T14:00:37Z</time>
      </trkpt>
      <trkpt lat="42.83577" lon="0.11455">
        <ele>3096.2017250753</ele>
        <time>2015-05-24T14:00:42Z</time>
      </trkpt>
      <trkpt lat="42.83581" lon="0.1145">
        <ele>3096.2017250753</ele>
        <time>2015-05-24T14:00:47Z</time>
      </trkpt>
      <trkpt lat="42.83586" lon="0.11446">
        <ele>3093.6515677322</ele>
        <time>2015-05-24T14:00:52Z</time>
      </trkpt>
      <trkpt lat="42.8359" lon="0.11441">
        <ele>3093.6515677322</ele>
        <time>2015-05-24T14:00:56Z</time>
      </trkpt>
      <trkpt lat="42.83592" lon="0.11433">
        <ele>3090.8531508138</ele>
        <time>2015-05-24T14:01:03Z</time>
      </trkpt>
      <trkpt lat="42.83594" lon="0.11431">
        <ele>3090.8531508138</ele>
        <time>2015-05-24T14:01:06Z</time>
      </trkpt>
      <trkpt lat="42.83597" lon="0.11424">
        <ele>3090.8531508138</ele>
        <time>2015-05-24T14:01:12Z</time>
      </trkpt>
      <trkpt lat="42.83602" lon="0.11418">
        <ele>3087.5812220889</ele>
        <time>2015-05-24T14:01:16Z</time>
      </trkpt>
      <trkpt lat="42.83613" lon="0.11412">
        <ele>3084.0028733186</ele>
        <time>2015-05-24T14:01:22Z</time>
      </trkpt>
      <trkpt lat="42.83617" lon="0.11405">
        <ele>3084.0028733186</ele>
        <time>2015-05-24T14:01:27Z</time>
      </trkpt>
      <trkpt lat="42.83614" lon="0.11404">
        <ele>3079.9420708764</ele>
        <time>2015-05-24T14:01:32Z</time>
      </trkpt>
      <trkpt lat="42.83613" lon="0.11404">
        <ele>3079.9420708764</ele>
        <time>2015-05-24T14:01:36Z</time>
      </trkpt>
      <trkpt lat="42.83612" lon="0.11398">
        <ele>3079.9420708764</ele>
        <time>2015-05-24T14:01:42Z</time>
      </trkpt>
      <trkpt lat="42.83613" lon="0.11396">
        <ele>3079.9420708764</ele>
        <time>2015-05-24T14:01:47Z</time>
      </trkpt>
      <trkpt lat="42.83611" lon="0.11409">
        <ele>3072.354547868</ele>
        <time>2015-05-24T14:05:53Z</time>
      </trkpt>
      <trkpt lat="42.83619" lon="0.1141">
        <ele>3072.354547868</ele>
        <time>2015-05-24T14:27:07Z</time>
      </trkpt>
      <trkpt lat="42.83624" lon="0.11404">
        <ele>3064.5395364278</ele>
        <time>2015-05-24T14:27:12Z</time>
      </trkpt>
      <trkpt lat="42.83629" lon="0.11389">
        <ele>3057.0033941616</ele>
        <time>2015-05-24T14:27:17Z</time>
      </trkpt>
      <trkpt lat="42.83636" lon="0.11378">
        <ele>3049.7673197201</ele>
        <time>2015-05-24T14:27:22Z</time>
      </trkpt>
      <trkpt lat="42.83644" lon="0.11377">
        <ele>3049.7673197201</ele>
        <time>2015-05-24T14:27:27Z</time>
      </trkpt>
      <trkpt lat="42.83654" lon="0.11371">
        <ele>3042.4461169823</ele>
        <time>2015-05-24T14:27:32Z</time>
      </trkpt>
      <trkpt lat="42.83659" lon="0.11374">
        <ele>3042.4461169823</ele>
        <time>2015-05-24T14:27:37Z</time>
      </trkpt>
      <trkpt lat="42.8366" lon="0.11379">
        <ele>3035.1869863993</ele>
        <time>2015-05-24T14:27:42Z</time>
      </trkpt>
      <trkpt lat="42.83666" lon="0.1138">
        <ele>3035.1869863993</ele>
        <time>2015-05-24T14:27:47Z</time>
      </trkpt>
      <trkpt lat="42.83672" lon="0.11383">
        <ele>3027.9670538712</ele>
        <time>2015-05-24T14:27:52Z</time>
      </trkpt>
      <trkpt lat="42.83674" lon="0.11391">
        <ele>3027.9670538712</ele>
        <time>2015-05-24T14:27:57Z</time>
      </trkpt>
      <trkpt lat="42.8368" lon="0.11396">
        <ele>3020.7067739313</ele>
        <time>2015-05-24T14:28:01Z</time>
      </trkpt>
      <trkpt lat="42.83686" lon="0.11395">
        <ele>3020.7067739313</ele>
        <time>2015-05-24T14:28:07Z</time>
      </trkpt>
      <trkpt lat="42.83686" lon="0.11406">
        <ele>3013.2598764323</ele>
        <time>2015-05-24T14:28:12Z</time>
      </trkpt>
      <trkpt lat="42.83694" lon="0.11417">
        <ele>3006.0527434793</ele>
        <time>2015-05-24T14:28:16Z</time>
      </trkpt>
      <trkpt lat="42.83701" lon="0.11408">
        <ele>2999.0755818147</ele>
        <time>2015-05-24T14:28:21Z</time>
      </trkpt>
      <trkpt lat="42.83702" lon="0.11428">
        <ele>2992.0585865263</ele>
        <time>2015-05-24T14:28:28Z</time>
      </trkpt>
      <trkpt lat="42.83708" lon="0.11427">
        <ele>2992.0585865263</ele>
        <time>2015-05-24T14:28:31Z</time>
      </trkpt>
      <trkpt lat="42.8371" lon="0.11424">
        <ele>2984.9529416415</ele>
        <time>2015-05-24T14:28:38Z</time>
      </trkpt>
      <trkpt lat="42.83714" lon="0.11422">
        <ele>2984.9529416415</ele>
        <time>2015-05-24T14:29:01Z</time>
      </trkpt>
      <trkpt lat="42.83724" lon="0.11413">
        <ele>2978.2461710423</ele>
        <time>2015-05-24T14:29:08Z</time>
      </trkpt>
      <trkpt lat="42.83729" lon="0.11409">
        <ele>2978.2461710423</ele>
        <time>2015-05-24T14:29:11Z</time>
      </trkpt>
      <trkpt lat="42.83739" lon="0.11393">
        <ele>2971.7684780101</ele>
        <time>2015-05-24T14:29:18Z</time>
      </trkpt>
      <trkpt lat="42.83744" lon="0.11387">
        <ele>2971.7684780101</ele>
        <time>2015-05-24T14:29:21Z</time>
      </trkpt>
      <trkpt lat="42.83757" lon="0.11371">
        <ele>2965.447652038</ele>
        <time>2015-05-24T14:29:27Z</time>
      </trkpt>
      <trkpt lat="42.83767" lon="0.11363">
        <ele>2959.5903288515</ele>
        <time>2015-05-24T14:29:32Z</time>
      </trkpt>
      <trkpt lat="42.83776" lon="0.11354">
        <ele>2954.0462859363</ele>
        <time>2015-05-24T14:29:37Z</time>
      </trkpt>
      <trkpt lat="42.83787" lon="0.11345">
        <ele>2948.8332924347</ele>
        <time>2015-05-24T14:29:41Z</time>
      </trkpt>
      <trkpt lat="42.83797" lon="0.1134">
        <ele>2943.8509234495</ele>
        <time>2015-05-24T14:29:47Z</time>
      </trkpt>
      <trkpt lat="42.83798" lon="0.11357">
        <ele>2939.0192435387</ele>
        <time>2015-05-24T14:29:52Z</time>
      </trkpt>
      <trkpt lat="42.83801" lon="0.11357">
        <ele>2939.0192435387</ele>
        <time>2015-05-24T14:29:57Z</time>
      </trkpt>
      <trkpt lat="42.83802" lon="0.11357">
        <ele>2939.0192435387</ele>
        <time>2015-05-24T14:30:01Z</time>
      </trkpt>
      <trkpt lat="42.83801" lon="0.11355">
        <ele>2939.0192435387</ele>
        <time>2015-05-24T14:30:07Z</time>
      </trkpt>
      <trkpt lat="42.83817" lon="0.11345">
        <ele>2933.3696455684</ele>
        <time>2015-05-24T14:30:27Z</time>
      </trkpt>
      <trkpt lat="42.83822" lon="0.11349">
        <ele>2933.3696455684</ele>
        <time>2015-05-24T14:30:32Z</time>
      </trkpt>
      <trkpt lat="42.83817" lon="0.11365">
        <ele>2927.5915816854</ele>
        <time>2015-05-24T14:30:37Z</time>
      </trkpt>
      <trkpt lat="42.83817" lon="0.11373">
        <ele>2927.5915816854</ele>
        <time>2015-05-24T14:30:41Z</time>
      </trkpt>
      <trkpt lat="42.83828" lon="0.11371">
        <ele>2921.9057035219</ele>
        <time>2015-05-24T14:30:47Z</time>
      </trkpt>
      <trkpt lat="42.83828" lon="0.11389">
        <ele>2916.4723888099</ele>
        <time>2015-05-24T14:30:52Z</time>
      </trkpt>
      <trkpt lat="42.83825" lon="0.11399">
        <ele>2916.4723888099</ele>
        <time>2015-05-24T14:30:57Z</time>
      </trkpt>
      <trkpt lat="42.83833" lon="0.11395">
        <ele>2910.992226041</ele>
        <time>2015-05-24T14:31:01Z</time>
      </trkpt>
      <trkpt lat="42.83831" lon="0.11407">
        <ele>2905.7638388803</ele>
        <time>2015-05-24T14:31:06Z</time>
      </trkpt>
      <trkpt lat="42.83827" lon="0.11422">
        <ele>2900.8753488974</ele>
        <time>2015-05-24T14:31:11Z</time>
      </trkpt>
      <trkpt lat="42.83831" lon="0.11421">
        <ele>2900.8753488974</ele>
        <time>2015-05-24T14:31:17Z</time>
      </trkpt>
      <trkpt lat="42.83841" lon="0.11422">
        <ele>2895.7008131584</ele>
        <time>2015-05-24T14:31:21Z</time>
      </trkpt>
      <trkpt lat="42.83838" lon="0.1143">
        <ele>2895.7008131584</ele>
        <time>2015-05-24T14:31:28Z</time>
      </trkpt>
      <trkpt lat="42.83838" lon="0.11431">
        <ele>2895.7008131584</ele>
        <time>2015-05-24T14:31:31Z</time>
      </trkpt>
      <trkpt lat="42.83842" lon="0.11448">
        <ele>2890.0785234938</ele>
        <time>2015-05-24T14:32:12Z</time>
      </trkpt>
      <trkpt lat="42.83838" lon="0.11444">
        <ele>2890.0785234938</ele>
        <time>2015-05-24T14:32:32Z</time>
      </trkpt>
      <trkpt lat="42.83846" lon="0.11435">
        <ele>2884.8394130172</ele>
        <time>2015-05-24T14:32:37Z</time>
      </trkpt>
      <trkpt lat="42.83857" lon="0.1143">
        <ele>2880.1754275992</ele>
        <time>2015-05-24T14:32:41Z</time>
      </trkpt>
      <trkpt lat="42.83858" lon="0.11447">
        <ele>2875.5994823143</ele>
        <time>2015-05-24T14:32:48Z</time>
      </trkpt>
      <trkpt lat="42.83866" lon="0.11452">
        <ele>2875.5994823143</ele>
        <time>2015-05-24T14:32:51Z</time>
      </trkpt>
      <trkpt lat="42.83865" lon="0.11469">
        <ele>2870.9766879052</ele>
        <time>2015-05-24T14:32:58Z</time>
      </trkpt>
      <trkpt lat="42.83868" lon="0.1147">
        <ele>2870.9766879052</ele>
        <time>2015-05-24T14:33:01Z</time>
      </trkpt>
      <trkpt lat="42.83876" lon="0.1149">
        <ele>2866.0809583505</ele>
        <time>2015-05-24T14:33:07Z</time>
      </trkpt>
      <trkpt lat="42.83884" lon="0.11499">
        <ele>2861.409390699</ele>
        <time>2015-05-24T14:33:12Z</time>
      </trkpt>
      <trkpt lat="42.83883" lon="0.11513">
        <ele>2856.8884129604</ele>
        <time>2015-05-24T14:33:17Z</time>
      </trkpt>
      <trkpt lat="42.83895" lon="0.11509">
        <ele>2852.4779675252</ele>
        <time>2015-05-24T14:33:21Z</time>
      </trkpt>
      <trkpt lat="42.83907" lon="0.11519">
        <ele>2847.9818390918</ele>
        <time>2015-05-24T14:33:27Z</time>
      </trkpt>
      <trkpt lat="42.83921" lon="0.1152">
        <ele>2843.5352651615</ele>
        <time>2015-05-24T14:33:32Z</time>
      </trkpt>
      <trkpt lat="42.83928" lon="0.11525">
        <ele>2843.5352651615</ele>
        <time>2015-05-24T14:33:36Z</time>
      </trkpt>
      <trkpt lat="42.83928" lon="0.11539">
        <ele>2838.5570394602</ele>
        <time>2015-05-24T14:33:41Z</time>
      </trkpt>
      <trkpt lat="42.83921" lon="0.11561">
        <ele>2833.3457799162</ele>
        <time>2015-05-24T14:33:47Z</time>
      </trkpt>
      <trkpt lat="42.83931" lon="0.11562">
        <ele>2828.3227426013</ele>
        <time>2015-05-24T14:33:52Z</time>
      </trkpt>
      <trkpt lat="42.83945" lon="0.11565">
        <ele>2823.3587345053</ele>
        <time>2015-05-24T14:33:57Z</time>
      </trkpt>
      <trkpt lat="42.8395" lon="0.11575">
        <ele>2823.3587345053</ele>
        <time>2015-05-24T14:34:01Z</time>
      </trkpt>
      <trkpt lat="42.83945" lon="0.11602">
        <ele>2817.6996349789</ele>
        <time>2015-05-24T14:34:07Z</time>
      </trkpt>
      <trkpt lat="42.83947" lon="0.1161">
        <ele>2817.6996349789</ele>
        <time>2015-05-24T14:34:12Z</time>
      </trkpt>
      <trkpt lat="42.83946" lon="0.11612">
        <ele>2817.6996349789</ele>
        <time>2015-05-24T14:34:17Z</time>
      </trkpt>
      <trkpt lat="42.83954" lon="0.11609">
        <ele>2811.6717069473</ele>
        <time>2015-05-24T14:34:41Z</time>
      </trkpt>
      <trkpt lat="42.83965" lon="0.1162">
        <ele>2806.255460132</ele>
        <time>2015-05-24T14:34:48Z</time>
      </trkpt>
      <trkpt lat="42.8397" lon="0.11624">
        <ele>2806.255460132</ele>
        <time>2015-05-24T14:34:51Z</time>
      </trkpt>
      <trkpt lat="42.83987" lon="0.11629">
        <ele>2801.1037587596</ele>
        <time>2015-05-24T14:34:57Z</time>
      </trkpt>
      <trkpt lat="42.83988" lon="0.11639">
        <ele>2801.1037587596</ele>
        <time>2015-05-24T14:35:01Z</time>
      </trkpt>
      <trkpt lat="42.84" lon="0.11653">
        <ele>2795.9373321446</ele>
        <time>2015-05-24T14:35:07Z</time>
      </trkpt>
      <trkpt lat="42.84011" lon="0.11662">
        <ele>2791.0737938474</ele>
        <time>2015-05-24T14:35:12Z</time>
      </trkpt>
      <trkpt lat="42.84012" lon="0.11679">
        <ele>2786.7055933674</ele>
        <time>2015-05-24T14:35:16Z</time>
      </trkpt>
      <trkpt lat="42.8402" lon="0.11687">
        <ele>2782.6492841522</ele>
        <time>2015-05-24T14:35:21Z</time>
      </trkpt>
      <trkpt lat="42.84022" lon="0.11698">
        <ele>2782.6492841522</ele>
        <time>2015-05-24T14:35:27Z</time>
      </trkpt>
      <trkpt lat="42.84016" lon="0.11714">
        <ele>2777.8116311902</ele>
        <time>2015-05-24T14:35:32Z</time>
      </trkpt>
      <trkpt lat="42.84015" lon="0.11738">
        <ele>2773.1705699098</ele>
        <time>2015-05-24T14:35:37Z</time>
      </trkpt>
      <trkpt lat="42.84011" lon="0.11751">
        <ele>2768.9110395959</ele>
        <time>2015-05-24T14:35:40Z</time>
      </trkpt>
      <trkpt lat="42.84023" lon="0.11753">
        <ele>2764.5115521971</ele>
        <time>2015-05-24T14:35:48Z</time>
      </trkpt>
      <trkpt lat="42.84028" lon="0.11767">
        <ele>2760.4404283131</ele>
        <time>2015-05-24T14:35:52Z</time>
      </trkpt>
      <trkpt lat="42.84025" lon="0.11791">
        <ele>2756.4533289857</ele>
        <time>2015-05-24T14:35:56Z</time>
      </trkpt>
      <trkpt lat="42.84017" lon="0.11819">
        <ele>2752.5830281054</ele>
        <time>2015-05-24T14:36:01Z</time>
      </trkpt>
      <trkpt lat="42.8401" lon="0.11842">
        <ele>2748.8595767255</ele>
        <time>2015-05-24T14:36:07Z</time>
      </trkpt>
      <trkpt lat="42.84003" lon="0.11869">
        <ele>2745.2960208706</ele>
        <time>2015-05-24T14:36:12Z</time>
      </trkpt>
      <trkpt lat="42.83994" lon="0.11898">
        <ele>2741.7599271046</ele>
        <time>2015-05-24T14:36:17Z</time>
      </trkpt>
      <trkpt lat="42.83993" lon="0.11908">
        <ele>2741.7599271046</ele>
        <time>2015-05-24T14:36:21Z</time>
      </trkpt>
      <trkpt lat="42.84001" lon="0.11942">
        <ele>2737.8835752146</ele>
        <time>2015-05-24T14:36:27Z</time>
      </trkpt>
      <trkpt lat="42.84003" lon="0.11976">
        <ele>2734.004596453</ele>
        <time>2015-05-24T14:36:32Z</time>
      </trkpt>
      <trkpt lat="42.84005" lon="0.11989">
        <ele>2730.4358994473</ele>
        <time>2015-05-24T14:36:37Z</time>
      </trkpt>
      <trkpt lat="42.84005" lon="0.12004">
        <ele>2727.1351623127</ele>
        <time>2015-05-24T14:36:41Z</time>
      </trkpt>
      <trkpt lat="42.84001" lon="0.12045">
        <ele>2723.8895778285</ele>
        <time>2015-05-24T14:36:47Z</time>
      </trkpt>
      <trkpt lat="42.83999" lon="0.12067">
        <ele>2720.7036727252</ele>
        <time>2015-05-24T14:36:52Z</time>
      </trkpt>
      <trkpt lat="42.83999" lon="0.12069">
        <ele>2720.7036727252</ele>
        <time>2015-05-24T14:36:57Z</time>
      </trkpt>
      <trkpt lat="42.83998" lon="0.12071">
        <ele>2720.7036727252</ele>
        <time>2015-05-24T14:37:01Z</time>
      </trkpt>
      <trkpt lat="42.83998" lon="0.12076">
        <ele>2720.7036727252</ele>
        <time>2015-05-24T14:37:08Z</time>
      </trkpt>
      <trkpt lat="42.83999" lon="0.12081">
        <ele>2717.2213053313</ele>
        <time>2015-05-24T14:37:12Z</time>
      </trkpt>
      <trkpt lat="42.83998" lon="0.12093">
        <ele>2717.2213053313</ele>
        <time>2015-05-24T14:37:16Z</time>
      </trkpt>
      <trkpt lat="42.83997" lon="0.12094">
        <ele>2713.8051790673</ele>
        <time>2015-05-24T14:37:21Z</time>
      </trkpt>
      <trkpt lat="42.83997" lon="0.12094">
        <ele>2713.8051790673</ele>
        <time>2015-05-24T14:37:27Z</time>
      </trkpt>
      <trkpt lat="42.83997" lon="0.12113">
        <ele>2711.0651048917</ele>
        <time>2015-05-24T14:37:51Z</time>
      </trkpt>
      <trkpt lat="42.84006" lon="0.12117">
        <ele>2708.7717241513</ele>
        <time>2015-05-24T14:37:57Z</time>
      </trkpt>
      <trkpt lat="42.84009" lon="0.12121">
        <ele>2708.7717241513</ele>
        <time>2015-05-24T14:38:01Z</time>
      </trkpt>
      <trkpt lat="42.84011" lon="0.12121">
        <ele>2708.7717241513</ele>
        <time>2015-05-24T14:38:07Z</time>
      </trkpt>
      <trkpt lat="42.84006" lon="0.12127">
        <ele>2706.4087839667</ele>
        <time>2015-05-24T14:38:32Z</time>
      </trkpt>
      <trkpt lat="42.83998" lon="0.12142">
        <ele>2704.2909160759</ele>
        <time>2015-05-24T14:38:37Z</time>
      </trkpt>
      <trkpt lat="42.83988" lon="0.1216">
        <ele>2702.3776625312</ele>
        <time>2015-05-24T14:38:41Z</time>
      </trkpt>
      <trkpt lat="42.83978" lon="0.12187">
        <ele>2700.5158522895</ele>
        <time>2015-05-24T14:38:47Z</time>
      </trkpt>
      <trkpt lat="42.83983" lon="0.122">
        <ele>2698.5780217794</ele>
        <time>2015-05-24T14:38:52Z</time>
      </trkpt>
      <trkpt lat="42.83983" lon="0.12225">
        <ele>2696.4176606061</ele>
        <time>2015-05-24T14:38:57Z</time>
      </trkpt>
      <trkpt lat="42.83978" lon="0.12247">
        <ele>2694.1880746741</ele>
        <time>2015-05-24T14:39:01Z</time>
      </trkpt>
      <trkpt lat="42.83968" lon="0.12297">
        <ele>2690.8932358748</ele>
        <time>2015-05-24T14:39:08Z</time>
      </trkpt>
      <trkpt lat="42.83962" lon="0.12324">
        <ele>2687.2419409374</ele>
        <time>2015-05-24T14:39:11Z</time>
      </trkpt>
      <trkpt lat="42.83952" lon="0.12364">
        <ele>2682.9698159664</ele>
        <time>2015-05-24T14:39:17Z</time>
      </trkpt>
      <trkpt lat="42.83941" lon="0.12386">
        <ele>2678.4535275765</ele>
        <time>2015-05-24T14:39:21Z</time>
      </trkpt>
      <trkpt lat="42.83927" lon="0.12407">
        <ele>2673.2935663186</ele>
        <time>2015-05-24T14:39:27Z</time>
      </trkpt>
      <trkpt lat="42.83929" lon="0.1242">
        <ele>2668.0584693715</ele>
        <time>2015-05-24T14:39:32Z</time>
      </trkpt>
      <trkpt lat="42.83914" lon="0.12451">
        <ele>2662.2665935983</ele>
        <time>2015-05-24T14:39:37Z</time>
      </trkpt>
      <trkpt lat="42.83907" lon="0.12465">
        <ele>2656.64067057</ele>
        <time>2015-05-24T14:39:41Z</time>
      </trkpt>
      <trkpt lat="42.83906" lon="0.12492">
        <ele>2650.5818058033</ele>
        <time>2015-05-24T14:39:47Z</time>
      </trkpt>
      <trkpt lat="42.83897" lon="0.12517">
        <ele>2644.3290120284</ele>
        <time>2015-05-24T14:39:52Z</time>
      </trkpt>
      <trkpt lat="42.83889" lon="0.12532">
        <ele>2638.1331749374</ele>
        <time>2015-05-24T14:39:57Z</time>
      </trkpt>
      <trkpt lat="42.83879" lon="0.12547">
        <ele>2632.0681110611</ele>
        <time>2015-05-24T14:40:01Z</time>
      </trkpt>
      <trkpt lat="42.83867" lon="0.12563">
        <ele>2625.7695356862</ele>
        <time>2015-05-24T14:40:07Z</time>
      </trkpt>
      <trkpt lat="42.8386" lon="0.12573">
        <ele>2619.6643706291</ele>
        <time>2015-05-24T14:40:12Z</time>
      </trkpt>
      <trkpt lat="42.83841" lon="0.12598">
        <ele>2613.5711733032</ele>
        <time>2015-05-24T14:40:17Z</time>
      </trkpt>
      <trkpt lat="42.83845" lon="0.12612">
        <ele>2608.0423209509</ele>
        <time>2015-05-24T14:40:21Z</time>
      </trkpt>
      <trkpt lat="42.83837" lon="0.12632">
        <ele>2602.3774519786</ele>
        <time>2015-05-24T14:40:28Z</time>
      </trkpt>
      <trkpt lat="42.83841" lon="0.12648">
        <ele>2597.0376354313</ele>
        <time>2015-05-24T14:40:32Z</time>
      </trkpt>
      <trkpt lat="42.83832" lon="0.12663">
        <ele>2591.9302955455</ele>
        <time>2015-05-24T14:40:37Z</time>
      </trkpt>
      <trkpt lat="42.83836" lon="0.12682">
        <ele>2587.1418704722</ele>
        <time>2015-05-24T14:40:41Z</time>
      </trkpt>
      <trkpt lat="42.83842" lon="0.12708">
        <ele>2582.3623829562</ele>
        <time>2015-05-24T14:40:47Z</time>
      </trkpt>
      <trkpt lat="42.83842" lon="0.1272">
        <ele>2577.9674415301</ele>
        <time>2015-05-24T14:40:52Z</time>
      </trkpt>
      <trkpt lat="42.83843" lon="0.12739">
        <ele>2573.6842362895</ele>
        <time>2015-05-24T14:40:57Z</time>
      </trkpt>
      <trkpt lat="42.83837" lon="0.12757">
        <ele>2569.4901957427</ele>
        <time>2015-05-24T14:41:01Z</time>
      </trkpt>
      <trkpt lat="42.83836" lon="0.12781">
        <ele>2565.4217388825</ele>
        <time>2015-05-24T14:41:08Z</time>
      </trkpt>
      <trkpt lat="42.83847" lon="0.12783">
        <ele>2561.613078875</ele>
        <time>2015-05-24T14:41:12Z</time>
      </trkpt>
      <trkpt lat="42.83841" lon="0.12803">
        <ele>2557.8563358065</ele>
        <time>2015-05-24T14:41:17Z</time>
      </trkpt>
      <trkpt lat="42.83835" lon="0.12814">
        <ele>2554.3478133422</ele>
        <time>2015-05-24T14:41:21Z</time>
      </trkpt>
      <trkpt lat="42.83826" lon="0.1284">
        <ele>2550.8363316667</ele>
        <time>2015-05-24T14:41:27Z</time>
      </trkpt>
      <trkpt lat="42.83846" lon="0.12851">
        <ele>2547.5791246911</ele>
        <time>2015-05-24T14:41:32Z</time>
      </trkpt>
      <trkpt lat="42.8384" lon="0.12864">
        <ele>2544.6120470721</ele>
        <time>2015-05-24T14:41:37Z</time>
      </trkpt>
      <trkpt lat="42.83846" lon="0.12876">
        <ele>2541.8378024684</ele>
        <time>2015-05-24T14:41:41Z</time>
      </trkpt>
      <trkpt lat="42.83852" lon="0.12888">
        <ele>2538.819841913</ele>
        <time>2015-05-24T14:41:48Z</time>
      </trkpt>
      <trkpt lat="42.83851" lon="0.129">
        <ele>2538.819841913</ele>
        <time>2015-05-24T14:41:51Z</time>
      </trkpt>
      <trkpt lat="42.8385" lon="0.12896">
        <ele>2535.5434873743</ele>
        <time>2015-05-24T14:41:57Z</time>
      </trkpt>
      <trkpt lat="42.83849" lon="0.12894">
        <ele>2535.5434873743</ele>
        <time>2015-05-24T14:42:01Z</time>
      </trkpt>
      <trkpt lat="42.83849" lon="0.12893">
        <ele>2535.5434873743</ele>
        <time>2015-05-24T14:42:07Z</time>
      </trkpt>
      <trkpt lat="42.83846" lon="0.12898">
        <ele>2535.5434873743</ele>
        <time>2015-05-24T14:42:27Z</time>
      </trkpt>
      <trkpt lat="42.83848" lon="0.12921">
        <ele>2532.4858704655</ele>
        <time>2015-05-24T14:42:32Z</time>
      </trkpt>
      <trkpt lat="42.83852" lon="0.12939">
        <ele>2529.8723307465</ele>
        <time>2015-05-24T14:42:37Z</time>
      </trkpt>
      <trkpt lat="42.83854" lon="0.12946">
        <ele>2529.8723307465</ele>
        <time>2015-05-24T14:42:41Z</time>
      </trkpt>
      <trkpt lat="42.8386" lon="0.12955">
        <ele>2527.2907777808</ele>
        <time>2015-05-24T14:42:47Z</time>
      </trkpt>
      <trkpt lat="42.83862" lon="0.12965">
        <ele>2527.2907777808</ele>
        <time>2015-05-24T14:42:52Z</time>
      </trkpt>
      <trkpt lat="42.83866" lon="0.12972">
        <ele>2524.0855473048</ele>
        <time>2015-05-24T14:42:57Z</time>
      </trkpt>
      <trkpt lat="42.83875" lon="0.12972">
        <ele>2524.0855473048</ele>
        <time>2015-05-24T14:43:01Z</time>
      </trkpt>
      <trkpt lat="42.83873" lon="0.12977">
        <ele>2519.967995274</ele>
        <time>2015-05-24T14:43:08Z</time>
      </trkpt>
      <trkpt lat="42.83873" lon="0.12977">
        <ele>2519.967995274</ele>
        <time>2015-05-24T14:43:11Z</time>
      </trkpt>
      <trkpt lat="42.83874" lon="0.12988">
        <ele>2519.967995274</ele>
        <time>2015-05-24T14:43:27Z</time>
      </trkpt>
      <trkpt lat="42.83884" lon="0.12992">
        <ele>2516.0423620028</ele>
        <time>2015-05-24T14:43:32Z</time>
      </trkpt>
      <trkpt lat="42.83885" lon="0.12994">
        <ele>2516.0423620028</ele>
        <time>2015-05-24T14:43:37Z</time>
      </trkpt>
      <trkpt lat="42.83881" lon="0.12996">
        <ele>2516.0423620028</ele>
        <time>2015-05-24T14:43:48Z</time>
      </trkpt>
      <trkpt lat="42.83875" lon="0.12994">
        <ele>2512.3945764577</ele>
        <time>2015-05-24T14:43:51Z</time>
      </trkpt>
      <trkpt lat="42.83857" lon="0.1302">
        <ele>2509.1611864818</ele>
        <time>2015-05-24T14:43:58Z</time>
      </trkpt>
      <trkpt lat="42.83855" lon="0.13036">
        <ele>2506.3379132745</ele>
        <time>2015-05-24T14:44:01Z</time>
      </trkpt>
      <trkpt lat="42.83859" lon="0.13056">
        <ele>2503.7611890977</ele>
        <time>2015-05-24T14:44:07Z</time>
      </trkpt>
      <trkpt lat="42.83864" lon="0.13067">
        <ele>2501.3076669741</ele>
        <time>2015-05-24T14:44:12Z</time>
      </trkpt>
      <trkpt lat="42.8387" lon="0.13104">
        <ele>2499.0789635228</ele>
        <time>2015-05-24T14:44:17Z</time>
      </trkpt>
      <trkpt lat="42.83884" lon="0.13135">
        <ele>2497.0101671654</ele>
        <time>2015-05-24T14:44:21Z</time>
      </trkpt>
      <trkpt lat="42.839" lon="0.13156">
        <ele>2494.7813835649</ele>
        <time>2015-05-24T14:44:28Z</time>
      </trkpt>
      <trkpt lat="42.83907" lon="0.13167">
        <ele>2492.7452725051</ele>
        <time>2015-05-24T14:44:31Z</time>
      </trkpt>
      <trkpt lat="42.8392" lon="0.13191">
        <ele>2490.6373048412</ele>
        <time>2015-05-24T14:44:38Z</time>
      </trkpt>
      <trkpt lat="42.83926" lon="0.13203">
        <ele>2488.7459173863</ele>
        <time>2015-05-24T14:44:41Z</time>
      </trkpt>
      <trkpt lat="42.83927" lon="0.13211">
        <ele>2488.7459173863</ele>
        <time>2015-05-24T14:44:47Z</time>
      </trkpt>
      <trkpt lat="42.83927" lon="0.13215">
        <ele>2488.7459173863</ele>
        <time>2015-05-24T14:44:52Z</time>
      </trkpt>
      <trkpt lat="42.83928" lon="0.13217">
        <ele>2486.646144681</ele>
        <time>2015-05-24T14:44:57Z</time>
      </trkpt>
      <trkpt lat="42.83923" lon="0.13218">
        <ele>2486.646144681</ele>
        <time>2015-05-24T14:46:01Z</time>
      </trkpt>
      <trkpt lat="42.83929" lon="0.13215">
        <ele>2483.5414436449</ele>
        <time>2015-05-24T14:47:01Z</time>
      </trkpt>
      <trkpt lat="42.83929" lon="0.13215">
        <ele>2483.5414436449</ele>
        <time>2015-05-24T14:47:08Z</time>
      </trkpt>
      <trkpt lat="42.83926" lon="0.13215">
        <ele>2483.5414436449</ele>
        <time>2015-05-24T14:47:17Z</time>
      </trkpt>
      <trkpt lat="42.83926" lon="0.13216">
        <ele>2483.5414436449</ele>
        <time>2015-05-24T14:47:21Z</time>
      </trkpt>
      <trkpt lat="42.83927" lon="0.13216">
        <ele>2483.5414436449</ele>
        <time>2015-05-24T14:47:41Z</time>
      </trkpt>
      <trkpt lat="42.83926" lon="0.13214">
        <ele>2483.5414436449</ele>
        <time>2015-05-24T14:47:47Z</time>
      </trkpt>
      <trkpt lat="42.83928" lon="0.13213">
        <ele>2483.5414436449</ele>
        <time>2015-05-24T14:47:52Z</time>
      </trkpt>
      <trkpt lat="42.83926" lon="0.13215">
        <ele>2480.5413602729</ele>
        <time>2015-05-24T14:48:01Z</time>
      </trkpt>
      <trkpt lat="42.83926" lon="0.13215">
        <ele>2480.5413602729</ele>
        <time>2015-05-24T14:48:08Z</time>
      </trkpt>
      <trkpt lat="42.83922" lon="0.13221">
        <ele>2480.5413602729</ele>
        <time>2015-05-24T14:48:16Z</time>
      </trkpt>
      <trkpt lat="42.83923" lon="0.13221">
        <ele>2480.5413602729</ele>
        <time>2015-05-24T14:48:21Z</time>
      </trkpt>
      <trkpt lat="42.83928" lon="0.13215">
        <ele>2477.8091068585</ele>
        <time>2015-05-24T14:48:27Z</time>
      </trkpt>
      <trkpt lat="42.83924" lon="0.13215">
        <ele>2477.8091068585</ele>
        <time>2015-05-24T14:48:32Z</time>
      </trkpt>
      <trkpt lat="42.83923" lon="0.13215">
        <ele>2477.8091068585</ele>
        <time>2015-05-24T14:48:37Z</time>
      </trkpt>
      <trkpt lat="42.83923" lon="0.13228">
        <ele>2475.4232311008</ele>
        <time>2015-05-24T14:50:07Z</time>
      </trkpt>
      <trkpt lat="42.83924" lon="0.13228">
        <ele>2475.4232311008</ele>
        <time>2015-05-24T14:50:13Z</time>
      </trkpt>
      <trkpt lat="42.83914" lon="0.13235">
        <ele>2473.2395023638</ele>
        <time>2015-05-24T14:51:01Z</time>
      </trkpt>
      <trkpt lat="42.83912" lon="0.13237">
        <ele>2473.2395023638</ele>
        <time>2015-05-24T14:51:07Z</time>
      </trkpt>
      <trkpt lat="42.83913" lon="0.13238">
        <ele>2473.2395023638</ele>
        <time>2015-05-24T14:51:41Z</time>
      </trkpt>
      <trkpt lat="42.83913" lon="0.13238">
        <ele>2473.2395023638</ele>
        <time>2015-05-24T14:51:47Z</time>
      </trkpt>
      <trkpt lat="42.83918" lon="0.13248">
        <ele>2471.8011717334</ele>
        <time>2015-05-24T14:53:32Z</time>
      </trkpt>
      <trkpt lat="42.83918" lon="0.1325">
        <ele>2471.8011717334</ele>
        <time>2015-05-24T14:53:37Z</time>
      </trkpt>
      <trkpt lat="42.83911" lon="0.13251">
        <ele>2471.8011717334</ele>
        <time>2015-05-24T14:53:41Z</time>
      </trkpt>
      <trkpt lat="42.83903" lon="0.13255">
        <ele>2469.8514694753</ele>
        <time>2015-05-24T14:54:17Z</time>
      </trkpt>
      <trkpt lat="42.83902" lon="0.13256">
        <ele>2469.8514694753</ele>
        <time>2015-05-24T14:54:21Z</time>
      </trkpt>
      <trkpt lat="42.839" lon="0.13266">
        <ele>2469.8514694753</ele>
        <time>2015-05-24T14:55:38Z</time>
      </trkpt>
      <trkpt lat="42.839" lon="0.13279">
        <ele>2467.2074733797</ele>
        <time>2015-05-24T14:56:27Z</time>
      </trkpt>
      <trkpt lat="42.83905" lon="0.13289">
        <ele>2467.2074733797</ele>
        <time>2015-05-24T14:57:52Z</time>
      </trkpt>
      <trkpt lat="42.83905" lon="0.1329">
        <ele>2464.2926383902</ele>
        <time>2015-05-24T14:57:57Z</time>
      </trkpt>
      <trkpt lat="42.83903" lon="0.13292">
        <ele>2464.2926383902</ele>
        <time>2015-05-24T14:58:17Z</time>
      </trkpt>
      <trkpt lat="42.83904" lon="0.13296">
        <ele>2464.2926383902</ele>
        <time>2015-05-24T14:58:21Z</time>
      </trkpt>
      <trkpt lat="42.83905" lon="0.13297">
        <ele>2464.2926383902</ele>
        <time>2015-05-24T14:58:27Z</time>
      </trkpt>
      <trkpt lat="42.83905" lon="0.13299">
        <ele>2464.2926383902</ele>
        <time>2015-05-24T14:58:32Z</time>
      </trkpt>
      <trkpt lat="42.83905" lon="0.13301">
        <ele>2461.5002075702</ele>
        <time>2015-05-24T14:58:36Z</time>
      </trkpt>
      <trkpt lat="42.83906" lon="0.13303">
        <ele>2461.5002075702</ele>
        <time>2015-05-24T14:58:41Z</time>
      </trkpt>
      <trkpt lat="42.83907" lon="0.13306">
        <ele>2461.5002075702</ele>
        <time>2015-05-24T14:58:46Z</time>
      </trkpt>
      <trkpt lat="42.83907" lon="0.1331">
        <ele>2461.5002075702</ele>
        <time>2015-05-24T14:58:52Z</time>
      </trkpt>
      <trkpt lat="42.83908" lon="0.13311">
        <ele>2461.5002075702</ele>
        <time>2015-05-24T14:58:56Z</time>
      </trkpt>
      <trkpt lat="42.83909" lon="0.13314">
        <ele>2458.8628688606</ele>
        <time>2015-05-24T14:59:01Z</time>
      </trkpt>
      <trkpt lat="42.83909" lon="0.13315">
        <ele>2458.8628688606</ele>
        <time>2015-05-24T14:59:07Z</time>
      </trkpt>
      <trkpt lat="42.83919" lon="0.13319">
        <ele>2456.381778391</ele>
        <time>2015-05-24T14:59:21Z</time>
      </trkpt>
      <trkpt lat="42.83918" lon="0.1332">
        <ele>2456.381778391</ele>
        <time>2015-05-24T14:59:27Z</time>
      </trkpt>
      <trkpt lat="42.83918" lon="0.1332">
        <ele>2456.381778391</ele>
        <time>2015-05-24T14:59:32Z</time>
      </trkpt>
      <trkpt lat="42.83913" lon="0.13331">
        <ele>2453.2362567387</ele>
        <time>2015-05-24T15:01:21Z</time>
      </trkpt>
      <trkpt lat="42.83914" lon="0.13331">
        <ele>2453.2362567387</ele>
        <time>2015-05-24T15:01:26Z</time>
      </trkpt>
      <trkpt lat="42.83917" lon="0.13334">
        <ele>2453.2362567387</ele>
        <time>2015-05-24T15:01:47Z</time>
      </trkpt>
      <trkpt lat="42.83916" lon="0.13336">
        <ele>2453.2362567387</ele>
        <time>2015-05-24T15:01:52Z</time>
      </trkpt>
      <trkpt lat="42.83916" lon="0.13337">
        <ele>2453.2362567387</ele>
        <time>2015-05-24T15:01:57Z</time>
      </trkpt>
      <trkpt lat="42.83919" lon="0.13342">
        <ele>2450.0369469314</ele>
        <time>2015-05-24T15:02:21Z</time>
      </trkpt>
      <trkpt lat="42.83919" lon="0.13344">
        <ele>2450.0369469314</ele>
        <time>2015-05-24T15:02:27Z</time>
      </trkpt>
      <trkpt lat="42.83917" lon="0.13347">
        <ele>2450.0369469314</ele>
        <time>2015-05-24T15:02:32Z</time>
      </trkpt>
      <trkpt lat="42.83914" lon="0.13351">
        <ele>2450.0369469314</ele>
        <time>2015-05-24T15:02:37Z</time>
      </trkpt>
      <trkpt lat="42.83913" lon="0.13353">
        <ele>2447.004028335</ele>
        <time>2015-05-24T15:02:41Z</time>
      </trkpt>
      <trkpt lat="42.83913" lon="0.13358">
        <ele>2447.004028335</ele>
        <time>2015-05-24T15:02:46Z</time>
      </trkpt>
      <trkpt lat="42.83913" lon="0.13364">
        <ele>2447.004028335</ele>
        <time>2015-05-24T15:02:52Z</time>
      </trkpt>
      <trkpt lat="42.83913" lon="0.13369">
        <ele>2444.211442428</ele>
        <time>2015-05-24T15:02:57Z</time>
      </trkpt>
      <trkpt lat="42.83915" lon="0.13377">
        <ele>2444.211442428</ele>
        <time>2015-05-24T15:03:01Z</time>
      </trkpt>
      <trkpt lat="42.83913" lon="0.13383">
        <ele>2441.7271218101</ele>
        <time>2015-05-24T15:03:07Z</time>
      </trkpt>
      <trkpt lat="42.8391" lon="0.13387">
        <ele>2441.7271218101</ele>
        <time>2015-05-24T15:03:12Z</time>
      </trkpt>
      <trkpt lat="42.83907" lon="0.1339">
        <ele>2441.7271218101</ele>
        <time>2015-05-24T15:03:17Z</time>
      </trkpt>
      <trkpt lat="42.83904" lon="0.1339">
        <ele>2439.382658598</ele>
        <time>2015-05-24T15:03:21Z</time>
      </trkpt>
      <trkpt lat="42.839" lon="0.13391">
        <ele>2439.382658598</ele>
        <time>2015-05-24T15:03:27Z</time>
      </trkpt>
      <trkpt lat="42.83895" lon="0.13393">
        <ele>2439.382658598</ele>
        <time>2015-05-24T15:03:32Z</time>
      </trkpt>
      <trkpt lat="42.83894" lon="0.13392">
        <ele>2437.165824567</ele>
        <time>2015-05-24T15:03:37Z</time>
      </trkpt>
      <trkpt lat="42.83894" lon="0.13392">
        <ele>2437.165824567</ele>
        <time>2015-05-24T15:03:41Z</time>
      </trkpt>
      <trkpt lat="42.83891" lon="0.1339">
        <ele>2437.165824567</ele>
        <time>2015-05-24T15:03:52Z</time>
      </trkpt>
      <trkpt lat="42.83888" lon="0.13389">
        <ele>2437.165824567</ele>
        <time>2015-05-24T15:03:56Z</time>
      </trkpt>
      <trkpt lat="42.83884" lon="0.13388">
        <ele>2435.0361979213</ele>
        <time>2015-05-24T15:04:02Z</time>
      </trkpt>
      <trkpt lat="42.83883" lon="0.13386">
        <ele>2435.0361979213</ele>
        <time>2015-05-24T15:04:07Z</time>
      </trkpt>
      <trkpt lat="42.83879" lon="0.13384">
        <ele>2435.0361979213</ele>
        <time>2015-05-24T15:04:12Z</time>
      </trkpt>
      <trkpt lat="42.83876" lon="0.13382">
        <ele>2433.1579257144</ele>
        <time>2015-05-24T15:04:18Z</time>
      </trkpt>
      <trkpt lat="42.83874" lon="0.13381">
        <ele>2433.1579257144</ele>
        <time>2015-05-24T15:04:21Z</time>
      </trkpt>
      <trkpt lat="42.83872" lon="0.13379">
        <ele>2433.1579257144</ele>
        <time>2015-05-24T15:04:27Z</time>
      </trkpt>
      <trkpt lat="42.83869" lon="0.13377">
        <ele>2433.1579257144</ele>
        <time>2015-05-24T15:04:47Z</time>
      </trkpt>
      <trkpt lat="42.83867" lon="0.13377">
        <ele>2431.495136849</ele>
        <time>2015-05-24T15:04:52Z</time>
      </trkpt>
      <trkpt lat="42.83864" lon="0.13376">
        <ele>2431.495136849</ele>
        <time>2015-05-24T15:04:57Z</time>
      </trkpt>
      <trkpt lat="42.83861" lon="0.13374">
        <ele>2431.495136849</ele>
        <time>2015-05-24T15:05:01Z</time>
      </trkpt>
      <trkpt lat="42.83858" lon="0.13374">
        <ele>2431.495136849</ele>
        <time>2015-05-24T15:05:06Z</time>
      </trkpt>
      <trkpt lat="42.83858" lon="0.13374">
        <ele>2430.1437829628</ele>
        <time>2015-05-24T15:05:11Z</time>
      </trkpt>
      <trkpt lat="42.83855" lon="0.13374">
        <ele>2430.1437829628</ele>
        <time>2015-05-24T15:05:21Z</time>
      </trkpt>
      <trkpt lat="42.83851" lon="0.13374">
        <ele>2430.1437829628</ele>
        <time>2015-05-24T15:05:27Z</time>
      </trkpt>
      <trkpt lat="42.8385" lon="0.13374">
        <ele>2430.1437829628</ele>
        <time>2015-05-24T15:05:32Z</time>
      </trkpt>
      <trkpt lat="42.83845" lon="0.13376">
        <ele>2428.673188666</ele>
        <time>2015-05-24T15:10:17Z</time>
      </trkpt>
      <trkpt lat="42.83834" lon="0.13375">
        <ele>2427.4341280865</ele>
        <time>2015-05-24T15:10:22Z</time>
      </trkpt>
      <trkpt lat="42.83824" lon="0.13374">
        <ele>2426.3907851183</ele>
        <time>2015-05-24T15:10:28Z</time>
      </trkpt>
      <trkpt lat="42.83826" lon="0.13395">
        <ele>2425.3510135246</ele>
        <time>2015-05-24T15:10:31Z</time>
      </trkpt>
      <trkpt lat="42.83812" lon="0.13399">
        <ele>2424.1945317038</ele>
        <time>2015-05-24T15:10:38Z</time>
      </trkpt>
      <trkpt lat="42.83799" lon="0.13407">
        <ele>2422.9832747095</ele>
        <time>2015-05-24T15:10:42Z</time>
      </trkpt>
      <trkpt lat="42.83793" lon="0.1341">
        <ele>2422.9832747095</ele>
        <time>2015-05-24T15:10:46Z</time>
      </trkpt>
      <trkpt lat="42.83786" lon="0.13417">
        <ele>2421.1408153714</ele>
        <time>2015-05-24T15:10:53Z</time>
      </trkpt>
      <trkpt lat="42.83788" lon="0.13422">
        <ele>2421.1408153714</ele>
        <time>2015-05-24T15:10:56Z</time>
      </trkpt>
      <trkpt lat="42.83788" lon="0.13442">
        <ele>2418.5528864219</ele>
        <time>2015-05-24T15:11:02Z</time>
      </trkpt>
      <trkpt lat="42.83781" lon="0.13437">
        <ele>2418.5528864219</ele>
        <time>2015-05-24T15:11:06Z</time>
      </trkpt>
      <trkpt lat="42.83768" lon="0.13428">
        <ele>2415.3319912435</ele>
        <time>2015-05-24T15:11:12Z</time>
      </trkpt>
      <trkpt lat="42.83761" lon="0.13426">
        <ele>2415.3319912435</ele>
        <time>2015-05-24T15:11:17Z</time>
      </trkpt>
      <trkpt lat="42.83749" lon="0.1342">
        <ele>2411.6707210762</ele>
        <time>2015-05-24T15:11:22Z</time>
      </trkpt>
      <trkpt lat="42.83743" lon="0.13418">
        <ele>2411.6707210762</ele>
        <time>2015-05-24T15:11:26Z</time>
      </trkpt>
      <trkpt lat="42.83725" lon="0.13416">
        <ele>2407.676796068</ele>
        <time>2015-05-24T15:11:33Z</time>
      </trkpt>
      <trkpt lat="42.83705" lon="0.13413">
        <ele>2403.8257264358</ele>
        <time>2015-05-24T15:11:36Z</time>
      </trkpt>
      <trkpt lat="42.8369" lon="0.13413">
        <ele>2399.9380766481</ele>
        <time>2015-05-24T15:11:42Z</time>
      </trkpt>
      <trkpt lat="42.83677" lon="0.13414">
        <ele>2396.1791975682</ele>
        <time>2015-05-24T15:11:46Z</time>
      </trkpt>
      <trkpt lat="42.8366" lon="0.13413">
        <ele>2392.4137409822</ele>
        <time>2015-05-24T15:11:52Z</time>
      </trkpt>
      <trkpt lat="42.83652" lon="0.13413">
        <ele>2392.4137409822</ele>
        <time>2015-05-24T15:11:57Z</time>
      </trkpt>
      <trkpt lat="42.83653" lon="0.13412">
        <ele>2392.4137409822</ele>
        <time>2015-05-24T15:12:01Z</time>
      </trkpt>
      <trkpt lat="42.83642" lon="0.13412">
        <ele>2388.6172142581</ele>
        <time>2015-05-24T15:12:12Z</time>
      </trkpt>
      <trkpt lat="42.8364" lon="0.13412">
        <ele>2388.6172142581</ele>
        <time>2015-05-24T15:12:17Z</time>
      </trkpt>
      <trkpt lat="42.83633" lon="0.13409">
        <ele>2384.96877058</ele>
        <time>2015-05-24T15:13:06Z</time>
      </trkpt>
      <trkpt lat="42.83628" lon="0.13408">
        <ele>2384.96877058</ele>
        <time>2015-05-24T15:13:13Z</time>
      </trkpt>
      <trkpt lat="42.83624" lon="0.13402">
        <ele>2381.7492690783</ele>
        <time>2015-05-24T15:13:17Z</time>
      </trkpt>
      <trkpt lat="42.83617" lon="0.13405">
        <ele>2381.7492690783</ele>
        <time>2015-05-24T15:13:21Z</time>
      </trkpt>
      <trkpt lat="42.83613" lon="0.13412">
        <ele>2378.843029027</ele>
        <time>2015-05-24T15:13:26Z</time>
      </trkpt>
      <trkpt lat="42.83601" lon="0.13414">
        <ele>2376.2284337676</ele>
        <time>2015-05-24T15:13:32Z</time>
      </trkpt>
      <trkpt lat="42.83601" lon="0.13424">
        <ele>2376.2284337676</ele>
        <time>2015-05-24T15:13:37Z</time>
      </trkpt>
      <trkpt lat="42.83603" lon="0.13428">
        <ele>2373.711678226</ele>
        <time>2015-05-24T15:13:42Z</time>
      </trkpt>
      <trkpt lat="42.83603" lon="0.13428">
        <ele>2373.711678226</ele>
        <time>2015-05-24T15:13:46Z</time>
      </trkpt>
      <trkpt lat="42.83596" lon="0.13437">
        <ele>2371.0984826866</ele>
        <time>2015-05-24T15:13:52Z</time>
      </trkpt>
      <trkpt lat="42.83598" lon="0.13448">
        <ele>2371.0984826866</ele>
        <time>2015-05-24T15:13:57Z</time>
      </trkpt>
      <trkpt lat="42.83603" lon="0.13451">
        <ele>2368.3820171968</ele>
        <time>2015-05-24T15:14:02Z</time>
      </trkpt>
      <trkpt lat="42.83605" lon="0.13459">
        <ele>2368.3820171968</ele>
        <time>2015-05-24T15:14:06Z</time>
      </trkpt>
      <trkpt lat="42.83609" lon="0.13467">
        <ele>2365.3544615435</ele>
        <time>2015-05-24T15:14:12Z</time>
      </trkpt>
      <trkpt lat="42.83609" lon="0.1348">
        <ele>2362.1411519582</ele>
        <time>2015-05-24T15:14:17Z</time>
      </trkpt>
      <trkpt lat="42.83612" lon="0.13488">
        <ele>2362.1411519582</ele>
        <time>2015-05-24T15:14:22Z</time>
      </trkpt>
      <trkpt lat="42.83614" lon="0.1349">
        <ele>2358.628130904</ele>
        <time>2015-05-24T15:14:26Z</time>
      </trkpt>
      <trkpt lat="42.83615" lon="0.13492">
        <ele>2358.628130904</ele>
        <time>2015-05-24T15:14:33Z</time>
      </trkpt>
      <trkpt lat="42.83613" lon="0.13498">
        <ele>2358.628130904</ele>
        <time>2015-05-24T15:14:37Z</time>
      </trkpt>
      <trkpt lat="42.83612" lon="0.13501">
        <ele>2355.2294194579</ele>
        <time>2015-05-24T15:14:42Z</time>
      </trkpt>
      <trkpt lat="42.83611" lon="0.13502">
        <ele>2355.2294194579</ele>
        <time>2015-05-24T15:14:46Z</time>
      </trkpt>
      <trkpt lat="42.83611" lon="0.13508">
        <ele>2355.2294194579</ele>
        <time>2015-05-24T15:15:02Z</time>
      </trkpt>
      <trkpt lat="42.83611" lon="0.13519">
        <ele>2351.1033198648</ele>
        <time>2015-05-24T15:15:32Z</time>
      </trkpt>
      <trkpt lat="42.83608" lon="0.13519">
        <ele>2351.1033198648</ele>
        <time>2015-05-24T15:15:37Z</time>
      </trkpt>
      <trkpt lat="42.83609" lon="0.1352">
        <ele>2351.1033198648</ele>
        <time>2015-05-24T15:15:42Z</time>
      </trkpt>
      <trkpt lat="42.83613" lon="0.13525">
        <ele>2347.1724712317</ele>
        <time>2015-05-24T15:15:53Z</time>
      </trkpt>
      <trkpt lat="42.83613" lon="0.13529">
        <ele>2347.1724712317</ele>
        <time>2015-05-24T15:15:56Z</time>
      </trkpt>
      <trkpt lat="42.83615" lon="0.13537">
        <ele>2347.1724712317</ele>
        <time>2015-05-24T15:16:02Z</time>
      </trkpt>
      <trkpt lat="42.8361" lon="0.13538">
        <ele>2343.1814789143</ele>
        <time>2015-05-24T15:16:06Z</time>
      </trkpt>
      <trkpt lat="42.8361" lon="0.13546">
        <ele>2343.1814789143</ele>
        <time>2015-05-24T15:16:26Z</time>
      </trkpt>
      <trkpt lat="42.83608" lon="0.13547">
        <ele>2343.1814789143</ele>
        <time>2015-05-24T15:16:33Z</time>
      </trkpt>
      <trkpt lat="42.836" lon="0.13555">
        <ele>2338.0291479183</ele>
        <time>2015-05-24T15:17:22Z</time>
      </trkpt>
      <trkpt lat="42.83601" lon="0.13558">
        <ele>2338.0291479183</ele>
        <time>2015-05-24T15:17:26Z</time>
      </trkpt>
      <trkpt lat="42.83605" lon="0.13568">
        <ele>2333.1914837443</ele>
        <time>2015-05-24T15:17:32Z</time>
      </trkpt>
      <trkpt lat="42.83605" lon="0.1357">
        <ele>2333.1914837443</ele>
        <time>2015-05-24T15:17:36Z</time>
      </trkpt>
      <trkpt lat="42.83603" lon="0.13587">
        <ele>2328.464286115</ele>
        <time>2015-05-24T15:17:42Z</time>
      </trkpt>
      <trkpt lat="42.83595" lon="0.13595">
        <ele>2323.8020601296</ele>
        <time>2015-05-24T15:17:46Z</time>
      </trkpt>
      <trkpt lat="42.83582" lon="0.13602">
        <ele>2319.0470742609</ele>
        <time>2015-05-24T15:17:52Z</time>
      </trkpt>
      <trkpt lat="42.83582" lon="0.1361">
        <ele>2319.0470742609</ele>
        <time>2015-05-24T15:17:57Z</time>
      </trkpt>
      <trkpt lat="42.83571" lon="0.13611">
        <ele>2313.73628178</ele>
        <time>2015-05-24T15:18:02Z</time>
      </trkpt>
      <trkpt lat="42.83571" lon="0.13624">
        <ele>2308.3499830181</ele>
        <time>2015-05-24T15:18:06Z</time>
      </trkpt>
      <trkpt lat="42.83562" lon="0.13643">
        <ele>2302.3677239498</ele>
        <time>2015-05-24T15:18:12Z</time>
      </trkpt>
      <trkpt lat="42.83549" lon="0.13662">
        <ele>2296.231114994</ele>
        <time>2015-05-24T15:18:17Z</time>
      </trkpt>
      <trkpt lat="42.83536" lon="0.13679">
        <ele>2289.9028497874</ele>
        <time>2015-05-24T15:18:22Z</time>
      </trkpt>
      <trkpt lat="42.83535" lon="0.1368">
        <ele>2289.9028497874</ele>
        <time>2015-05-24T15:18:26Z</time>
      </trkpt>
      <trkpt lat="42.83531" lon="0.13687">
        <ele>2289.9028497874</ele>
        <time>2015-05-24T15:18:33Z</time>
      </trkpt>
      <trkpt lat="42.83531" lon="0.13688">
        <ele>2289.9028497874</ele>
        <time>2015-05-24T15:18:36Z</time>
      </trkpt>
      <trkpt lat="42.83538" lon="0.13687">
        <ele>2282.9884425286</ele>
        <time>2015-05-24T15:18:42Z</time>
      </trkpt>
      <trkpt lat="42.83542" lon="0.13685">
        <ele>2282.9884425286</ele>
        <time>2015-05-24T15:18:46Z</time>
      </trkpt>
      <trkpt lat="42.83556" lon="0.13678">
        <ele>2276.3487805577</ele>
        <time>2015-05-24T15:18:52Z</time>
      </trkpt>
      <trkpt lat="42.83565" lon="0.13673">
        <ele>2276.3487805577</ele>
        <time>2015-05-24T15:18:57Z</time>
      </trkpt>
      <trkpt lat="42.83564" lon="0.13673">
        <ele>2270.2329091217</ele>
        <time>2015-05-24T15:19:02Z</time>
      </trkpt>
      <trkpt lat="42.8356" lon="0.13674">
        <ele>2270.2329091217</ele>
        <time>2015-05-24T15:19:32Z</time>
      </trkpt>
      <trkpt lat="42.83556" lon="0.13677">
        <ele>2270.2329091217</ele>
        <time>2015-05-24T15:19:37Z</time>
      </trkpt>
      <trkpt lat="42.83553" lon="0.13678">
        <ele>2264.6249002802</ele>
        <time>2015-05-24T15:19:41Z</time>
      </trkpt>
      <trkpt lat="42.83552" lon="0.13679">
        <ele>2264.6249002802</ele>
        <time>2015-05-24T15:19:46Z</time>
      </trkpt>
      <trkpt lat="42.83551" lon="0.13679">
        <ele>2264.6249002802</ele>
        <time>2015-05-24T15:19:52Z</time>
      </trkpt>
      <trkpt lat="42.83546" lon="0.13683">
        <ele>2264.6249002802</ele>
        <time>2015-05-24T15:20:53Z</time>
      </trkpt>
      <trkpt lat="42.83546" lon="0.13686">
        <ele>2259.6380440661</ele>
        <time>2015-05-24T15:20:57Z</time>
      </trkpt>
      <trkpt lat="42.83546" lon="0.1369">
        <ele>2259.6380440661</ele>
        <time>2015-05-24T15:21:02Z</time>
      </trkpt>
      <trkpt lat="42.83544" lon="0.13692">
        <ele>2259.6380440661</ele>
        <time>2015-05-24T15:21:06Z</time>
      </trkpt>
      <trkpt lat="42.83543" lon="0.13693">
        <ele>2259.6380440661</ele>
        <time>2015-05-24T15:21:12Z</time>
      </trkpt>
      <trkpt lat="42.83541" lon="0.13696">
        <ele>2255.2888699704</ele>
        <time>2015-05-24T15:21:26Z</time>
      </trkpt>
      <trkpt lat="42.83537" lon="0.13701">
        <ele>2255.2888699704</ele>
        <time>2015-05-24T15:21:33Z</time>
      </trkpt>
      <trkpt lat="42.83536" lon="0.13703">
        <ele>2255.2888699704</ele>
        <time>2015-05-24T15:21:36Z</time>
      </trkpt>
      <trkpt lat="42.83534" lon="0.13706">
        <ele>2251.61950166</ele>
        <time>2015-05-24T15:21:41Z</time>
      </trkpt>
      <trkpt lat="42.83534" lon="0.13707">
        <ele>2251.61950166</ele>
        <time>2015-05-24T15:21:46Z</time>
      </trkpt>
      <trkpt lat="42.83536" lon="0.13712">
        <ele>2251.61950166</ele>
        <time>2015-05-24T15:21:52Z</time>
      </trkpt>
      <trkpt lat="42.83538" lon="0.13713">
        <ele>2251.61950166</ele>
        <time>2015-05-24T15:21:57Z</time>
      </trkpt>
      <trkpt lat="42.83538" lon="0.13713">
        <ele>2251.61950166</ele>
        <time>2015-05-24T15:22:02Z</time>
      </trkpt>
      <trkpt lat="42.83542" lon="0.13716">
        <ele>2248.479501543</ele>
        <time>2015-05-24T15:22:26Z</time>
      </trkpt>
      <trkpt lat="42.83543" lon="0.13718">
        <ele>2248.479501543</ele>
        <time>2015-05-24T15:22:33Z</time>
      </trkpt>
      <trkpt lat="42.83543" lon="0.13724">
        <ele>2248.479501543</ele>
        <time>2015-05-24T15:22:56Z</time>
      </trkpt>
      <trkpt lat="42.83543" lon="0.13725">
        <ele>2248.479501543</ele>
        <time>2015-05-24T15:23:03Z</time>
      </trkpt>
      <trkpt lat="42.83543" lon="0.13728">
        <ele>2245.5404523352</ele>
        <time>2015-05-24T15:23:06Z</time>
      </trkpt>
      <trkpt lat="42.83543" lon="0.13729">
        <ele>2245.5404523352</ele>
        <time>2015-05-24T15:23:12Z</time>
      </trkpt>
      <trkpt lat="42.83542" lon="0.13732">
        <ele>2245.5404523352</ele>
        <time>2015-05-24T15:23:17Z</time>
      </trkpt>
      <trkpt lat="42.83542" lon="0.13737">
        <ele>2245.5404523352</ele>
        <time>2015-05-24T15:23:22Z</time>
      </trkpt>
      <trkpt lat="42.83542" lon="0.13739">
        <ele>2245.5404523352</ele>
        <time>2015-05-24T15:23:26Z</time>
      </trkpt>
      <trkpt lat="42.83543" lon="0.13741">
        <ele>2242.8143593253</ele>
        <time>2015-05-24T15:23:33Z</time>
      </trkpt>
      <trkpt lat="42.83543" lon="0.13746">
        <ele>2242.8143593253</ele>
        <time>2015-05-24T15:23:42Z</time>
      </trkpt>
      <trkpt lat="42.83546" lon="0.13747">
        <ele>2242.8143593253</ele>
        <time>2015-05-24T15:23:46Z</time>
      </trkpt>
      <trkpt lat="42.83547" lon="0.13745">
        <ele>2240.3259959021</ele>
        <time>2015-05-24T15:23:52Z</time>
      </trkpt>
      <trkpt lat="42.83547" lon="0.13745">
        <ele>2240.3259959021</ele>
        <time>2015-05-24T15:23:56Z</time>
      </trkpt>
      <trkpt lat="42.83552" lon="0.13736">
        <ele>2240.3259959021</ele>
        <time>2015-05-24T15:24:32Z</time>
      </trkpt>
      <trkpt lat="42.83552" lon="0.13735">
        <ele>2238.0254504986</ele>
        <time>2015-05-24T15:24:37Z</time>
      </trkpt>
      <trkpt lat="42.83558" lon="0.13731">
        <ele>2238.0254504986</ele>
        <time>2015-05-24T15:26:26Z</time>
      </trkpt>
      <trkpt lat="42.83562" lon="0.13731">
        <ele>2235.3326178482</ele>
        <time>2015-05-24T15:26:32Z</time>
      </trkpt>
      <trkpt lat="42.83565" lon="0.13734">
        <ele>2235.3326178482</ele>
        <time>2015-05-24T15:26:37Z</time>
      </trkpt>
      <trkpt lat="42.83569" lon="0.13732">
        <ele>2235.3326178482</ele>
        <time>2015-05-24T15:26:42Z</time>
      </trkpt>
      <trkpt lat="42.83574" lon="0.13743">
        <ele>2232.7486060487</ele>
        <time>2015-05-24T15:26:46Z</time>
      </trkpt>
      <trkpt lat="42.83572" lon="0.13778">
        <ele>2230.2041129262</ele>
        <time>2015-05-24T15:26:53Z</time>
      </trkpt>
      <trkpt lat="42.83573" lon="0.13794">
        <ele>2227.8365073819</ele>
        <time>2015-05-24T15:26:57Z</time>
      </trkpt>
      <trkpt lat="42.83578" lon="0.13814">
        <ele>2225.5851789568</ele>
        <time>2015-05-24T15:27:02Z</time>
      </trkpt>
      <trkpt lat="42.83586" lon="0.1383">
        <ele>2223.451257101</ele>
        <time>2015-05-24T15:27:06Z</time>
      </trkpt>
      <trkpt lat="42.83602" lon="0.13856">
        <ele>2220.9886993956</ele>
        <time>2015-05-24T15:27:12Z</time>
      </trkpt>
      <trkpt lat="42.83608" lon="0.13866">
        <ele>2218.6354074648</ele>
        <time>2015-05-24T15:27:17Z</time>
      </trkpt>
      <trkpt lat="42.83618" lon="0.13877">
        <ele>2216.2059665825</ele>
        <time>2015-05-24T15:27:22Z</time>
      </trkpt>
      <trkpt lat="42.83624" lon="0.13883">
        <ele>2216.2059665825</ele>
        <time>2015-05-24T15:27:26Z</time>
      </trkpt>
      <trkpt lat="42.83635" lon="0.13885">
        <ele>2213.3270658985</ele>
        <time>2015-05-24T15:27:33Z</time>
      </trkpt>
      <trkpt lat="42.83651" lon="0.1388">
        <ele>2210.1729133187</ele>
        <time>2015-05-24T15:27:41Z</time>
      </trkpt>
      <trkpt lat="42.83658" lon="0.13879">
        <ele>2210.1729133187</ele>
        <time>2015-05-24T15:27:46Z</time>
      </trkpt>
      <trkpt lat="42.83667" lon="0.13893">
        <ele>2206.473398717</ele>
        <time>2015-05-24T15:27:52Z</time>
      </trkpt>
      <trkpt lat="42.83669" lon="0.13902">
        <ele>2206.473398717</ele>
        <time>2015-05-24T15:27:57Z</time>
      </trkpt>
      <trkpt lat="42.83666" lon="0.1391">
        <ele>2202.5130385188</ele>
        <time>2015-05-24T15:28:02Z</time>
      </trkpt>
      <trkpt lat="42.83666" lon="0.13912">
        <ele>2202.5130385188</ele>
        <time>2015-05-24T15:28:06Z</time>
      </trkpt>
      <trkpt lat="42.83664" lon="0.13918">
        <ele>2202.5130385188</ele>
        <time>2015-05-24T15:28:17Z</time>
      </trkpt>
      <trkpt lat="42.83666" lon="0.13923">
        <ele>2198.5562234201</ele>
        <time>2015-05-24T15:28:22Z</time>
      </trkpt>
      <trkpt lat="42.83669" lon="0.13931">
        <ele>2198.5562234201</ele>
        <time>2015-05-24T15:28:26Z</time>
      </trkpt>
      <trkpt lat="42.83676" lon="0.13935">
        <ele>2194.8623643171</ele>
        <time>2015-05-24T15:28:33Z</time>
      </trkpt>
      <trkpt lat="42.83681" lon="0.13929">
        <ele>2194.8623643171</ele>
        <time>2015-05-24T15:28:36Z</time>
      </trkpt>
      <trkpt lat="42.83689" lon="0.13934">
        <ele>2191.3108388144</ele>
        <time>2015-05-24T15:28:42Z</time>
      </trkpt>
      <trkpt lat="42.83694" lon="0.13939">
        <ele>2191.3108388144</ele>
        <time>2015-05-24T15:28:46Z</time>
      </trkpt>
      <trkpt lat="42.83694" lon="0.1394">
        <ele>2191.3108388144</ele>
        <time>2015-05-24T15:28:52Z</time>
      </trkpt>
      <trkpt lat="42.83703" lon="0.13935">
        <ele>2187.8039336527</ele>
        <time>2015-05-24T15:29:06Z</time>
      </trkpt>
      <trkpt lat="42.83709" lon="0.13929">
        <ele>2187.8039336527</ele>
        <time>2015-05-24T15:29:13Z</time>
      </trkpt>
      <trkpt lat="42.83718" lon="0.13928">
        <ele>2184.5392464864</ele>
        <time>2015-05-24T15:29:17Z</time>
      </trkpt>
      <trkpt lat="42.83723" lon="0.13934">
        <ele>2184.5392464864</ele>
        <time>2015-05-24T15:29:22Z</time>
      </trkpt>
      <trkpt lat="42.83724" lon="0.13938">
        <ele>2181.2668826884</ele>
        <time>2015-05-24T15:29:26Z</time>
      </trkpt>
      <trkpt lat="42.83729" lon="0.13935">
        <ele>2181.2668826884</ele>
        <time>2015-05-24T15:29:32Z</time>
      </trkpt>
      <trkpt lat="42.8373" lon="0.13935">
        <ele>2181.2668826884</ele>
        <time>2015-05-24T15:29:37Z</time>
      </trkpt>
      <trkpt lat="42.8374" lon="0.13934">
        <ele>2177.4239066833</ele>
        <time>2015-05-24T15:30:33Z</time>
      </trkpt>
      <trkpt lat="42.8374" lon="0.13934">
        <ele>2177.4239066833</ele>
        <time>2015-05-24T15:30:36Z</time>
      </trkpt>
      <trkpt lat="42.83743" lon="0.13932">
        <ele>2177.4239066833</ele>
        <time>2015-05-24T15:30:46Z</time>
      </trkpt>
      <trkpt lat="42.83742" lon="0.13932">
        <ele>2177.4239066833</ele>
        <time>2015-05-24T15:30:52Z</time>
      </trkpt>
      <trkpt lat="42.83744" lon="0.1393">
        <ele>2177.4239066833</ele>
        <time>2015-05-24T15:31:41Z</time>
      </trkpt>
      <trkpt lat="42.83746" lon="0.13929">
        <ele>2177.4239066833</ele>
        <time>2015-05-24T15:31:46Z</time>
      </trkpt>
      <trkpt lat="42.8375" lon="0.13929">
        <ele>2173.3262165813</ele>
        <time>2015-05-24T15:31:53Z</time>
      </trkpt>
      <trkpt lat="42.83752" lon="0.1393">
        <ele>2173.3262165813</ele>
        <time>2015-05-24T15:31:56Z</time>
      </trkpt>
      <trkpt lat="42.83757" lon="0.13933">
        <ele>2173.3262165813</ele>
        <time>2015-05-24T15:32:02Z</time>
      </trkpt>
      <trkpt lat="42.83761" lon="0.13938">
        <ele>2169.6275311631</ele>
        <time>2015-05-24T15:32:06Z</time>
      </trkpt>
      <trkpt lat="42.83763" lon="0.13944">
        <ele>2169.6275311631</ele>
        <time>2015-05-24T15:32:13Z</time>
      </trkpt>
      <trkpt lat="42.83763" lon="0.13945">
        <ele>2169.6275311631</ele>
        <time>2015-05-24T15:32:17Z</time>
      </trkpt>
      <trkpt lat="42.83764" lon="0.13947">
        <ele>2169.6275311631</ele>
        <time>2015-05-24T15:32:22Z</time>
      </trkpt>
      <trkpt lat="42.83765" lon="0.13952">
        <ele>2166.3848378362</ele>
        <time>2015-05-24T15:32:26Z</time>
      </trkpt>
      <trkpt lat="42.83769" lon="0.13959">
        <ele>2166.3848378362</ele>
        <time>2015-05-24T15:32:33Z</time>
      </trkpt>
      <trkpt lat="42.8377" lon="0.13962">
        <ele>2163.5488120967</ele>
        <time>2015-05-24T15:32:37Z</time>
      </trkpt>
      <trkpt lat="42.83773" lon="0.13964">
        <ele>2163.5488120967</ele>
        <time>2015-05-24T15:32:42Z</time>
      </trkpt>
      <trkpt lat="42.83775" lon="0.13965">
        <ele>2163.5488120967</ele>
        <time>2015-05-24T15:32:46Z</time>
      </trkpt>
      <trkpt lat="42.8378" lon="0.13964">
        <ele>2160.9717670371</ele>
        <time>2015-05-24T15:32:52Z</time>
      </trkpt>
      <trkpt lat="42.83784" lon="0.13966">
        <ele>2160.9717670371</ele>
        <time>2015-05-24T15:32:57Z</time>
      </trkpt>
      <trkpt lat="42.83787" lon="0.13968">
        <ele>2160.9717670371</ele>
        <time>2015-05-24T15:33:02Z</time>
      </trkpt>
      <trkpt lat="42.83788" lon="0.13967">
        <ele>2160.9717670371</ele>
        <time>2015-05-24T15:33:06Z</time>
      </trkpt>
      <trkpt lat="42.83791" lon="0.13969">
        <ele>2158.7323423971</ele>
        <time>2015-05-24T15:33:17Z</time>
      </trkpt>
      <trkpt lat="42.83794" lon="0.13971">
        <ele>2158.7323423971</ele>
        <time>2015-05-24T15:33:22Z</time>
      </trkpt>
      <trkpt lat="42.83795" lon="0.13974">
        <ele>2158.7323423971</ele>
        <time>2015-05-24T15:33:26Z</time>
      </trkpt>
      <trkpt lat="42.83795" lon="0.13978">
        <ele>2158.7323423971</ele>
        <time>2015-05-24T15:33:33Z</time>
      </trkpt>
      <trkpt lat="42.83794" lon="0.13979">
        <ele>2156.7583871686</ele>
        <time>2015-05-24T15:33:36Z</time>
      </trkpt>
      <trkpt lat="42.83791" lon="0.13984">
        <ele>2156.7583871686</ele>
        <time>2015-05-24T15:33:42Z</time>
      </trkpt>
      <trkpt lat="42.83791" lon="0.13986">
        <ele>2156.7583871686</ele>
        <time>2015-05-24T15:33:46Z</time>
      </trkpt>
      <trkpt lat="42.8379" lon="0.13988">
        <ele>2156.7583871686</ele>
        <time>2015-05-24T15:33:53Z</time>
      </trkpt>
      <trkpt lat="42.83789" lon="0.13991">
        <ele>2155.212937186</ele>
        <time>2015-05-24T15:33:56Z</time>
      </trkpt>
      <trkpt lat="42.83787" lon="0.13994">
        <ele>2155.212937186</ele>
        <time>2015-05-24T15:34:02Z</time>
      </trkpt>
      <trkpt lat="42.83786" lon="0.13993">
        <ele>2155.212937186</ele>
        <time>2015-05-24T15:34:06Z</time>
      </trkpt>
      <trkpt lat="42.83784" lon="0.14002">
        <ele>2153.8856361099</ele>
        <time>2015-05-24T15:34:32Z</time>
      </trkpt>
      <trkpt lat="42.83785" lon="0.14005">
        <ele>2153.8856361099</ele>
        <time>2015-05-24T15:34:37Z</time>
      </trkpt>
      <trkpt lat="42.83786" lon="0.14006">
        <ele>2153.8856361099</ele>
        <time>2015-05-24T15:34:42Z</time>
      </trkpt>
      <trkpt lat="42.83788" lon="0.14006">
        <ele>2153.8856361099</ele>
        <time>2015-05-24T15:34:46Z</time>
      </trkpt>
      <trkpt lat="42.83793" lon="0.1401">
        <ele>2152.7539783249</ele>
        <time>2015-05-24T15:34:52Z</time>
      </trkpt>
      <trkpt lat="42.83796" lon="0.14016">
        <ele>2152.7539783249</ele>
        <time>2015-05-24T15:34:57Z</time>
      </trkpt>
      <trkpt lat="42.83799" lon="0.1402">
        <ele>2151.8398860551</ele>
        <time>2015-05-24T15:35:01Z</time>
      </trkpt>
      <trkpt lat="42.83801" lon="0.14025">
        <ele>2151.8398860551</ele>
        <time>2015-05-24T15:35:07Z</time>
      </trkpt>
      <trkpt lat="42.83804" lon="0.14031">
        <ele>2151.1055205679</ele>
        <time>2015-05-24T15:35:12Z</time>
      </trkpt>
      <trkpt lat="42.83806" lon="0.14037">
        <ele>2151.1055205679</ele>
        <time>2015-05-24T15:35:16Z</time>
      </trkpt>
      <trkpt lat="42.83808" lon="0.14043">
        <ele>2150.616315178</ele>
        <time>2015-05-24T15:35:22Z</time>
      </trkpt>
      <trkpt lat="42.83812" lon="0.14049">
        <ele>2150.616315178</ele>
        <time>2015-05-24T15:35:26Z</time>
      </trkpt>
      <trkpt lat="42.83814" lon="0.1405">
        <ele>2150.616315178</ele>
        <time>2015-05-24T15:35:33Z</time>
      </trkpt>
      <trkpt lat="42.83815" lon="0.14055">
        <ele>2150.2882311759</ele>
        <time>2015-05-24T15:35:37Z</time>
      </trkpt>
      <trkpt lat="42.83817" lon="0.1406">
        <ele>2150.2882311759</ele>
        <time>2015-05-24T15:35:42Z</time>
      </trkpt>
      <trkpt lat="42.83818" lon="0.14066">
        <ele>2150.2882311759</ele>
        <time>2015-05-24T15:35:46Z</time>
      </trkpt>
      <trkpt lat="42.8382" lon="0.14071">
        <ele>2150.1007442049</ele>
        <time>2015-05-24T15:35:52Z</time>
      </trkpt>
      <trkpt lat="42.83821" lon="0.14075">
        <ele>2150.1007442049</ele>
        <time>2015-05-24T15:35:57Z</time>
      </trkpt>
      <trkpt lat="42.83823" lon="0.14081">
        <ele>2150.1007442049</ele>
        <time>2015-05-24T15:36:02Z</time>
      </trkpt>
      <trkpt lat="42.83825" lon="0.14088">
        <ele>2150.0778398133</ele>
        <time>2015-05-24T15:36:06Z</time>
      </trkpt>
      <trkpt lat="42.83828" lon="0.14096">
        <ele>2150.0778398133</ele>
        <time>2015-05-24T15:36:12Z</time>
      </trkpt>
      <trkpt lat="42.83832" lon="0.14101">
        <ele>2150.1261686974</ele>
        <time>2015-05-24T15:36:17Z</time>
      </trkpt>
      <trkpt lat="42.83835" lon="0.14105">
        <ele>2150.1261686974</ele>
        <time>2015-05-24T15:36:21Z</time>
      </trkpt>
      <trkpt lat="42.83839" lon="0.14108">
        <ele>2150.1261686974</ele>
        <time>2015-05-24T15:36:27Z</time>
      </trkpt>
      <trkpt lat="42.83845" lon="0.14113">
        <ele>2150.3177531632</ele>
        <time>2015-05-24T15:36:32Z</time>
      </trkpt>
      <trkpt lat="42.83849" lon="0.14117">
        <ele>2150.3177531632</ele>
        <time>2015-05-24T15:36:37Z</time>
      </trkpt>
      <trkpt lat="42.83855" lon="0.14119">
        <ele>2150.6326614438</ele>
        <time>2015-05-24T15:36:42Z</time>
      </trkpt>
      <trkpt lat="42.83857" lon="0.14119">
        <ele>2150.6326614438</ele>
        <time>2015-05-24T15:36:46Z</time>
      </trkpt>
      <trkpt lat="42.8386" lon="0.14117">
        <ele>2150.6326614438</ele>
        <time>2015-05-24T15:36:52Z</time>
      </trkpt>
      <trkpt lat="42.83865" lon="0.14121">
        <ele>2150.9946534476</ele>
        <time>2015-05-24T15:36:57Z</time>
      </trkpt>
      <trkpt lat="42.83867" lon="0.14118">
        <ele>2150.9946534476</ele>
        <time>2015-05-24T15:37:01Z</time>
      </trkpt>
      <trkpt lat="42.8387" lon="0.14122">
        <ele>2150.9946534476</ele>
        <time>2015-05-24T15:37:06Z</time>
      </trkpt>
      <trkpt lat="42.83871" lon="0.14131">
        <ele>2151.3187760723</ele>
        <time>2015-05-24T15:37:12Z</time>
      </trkpt>
      <trkpt lat="42.83872" lon="0.14137">
        <ele>2151.3187760723</ele>
        <time>2015-05-24T15:37:16Z</time>
      </trkpt>
      <trkpt lat="42.83875" lon="0.14147">
        <ele>2151.6707745189</ele>
        <time>2015-05-24T15:37:23Z</time>
      </trkpt>
      <trkpt lat="42.83877" lon="0.14154">
        <ele>2151.6707745189</ele>
        <time>2015-05-24T15:37:26Z</time>
      </trkpt>
      <trkpt lat="42.83878" lon="0.14159">
        <ele>2152.0540914094</ele>
        <time>2015-05-24T15:37:32Z</time>
      </trkpt>
      <trkpt lat="42.83879" lon="0.14167">
        <ele>2152.0540914094</ele>
        <time>2015-05-24T15:37:37Z</time>
      </trkpt>
      <trkpt lat="42.83878" lon="0.14175">
        <ele>2152.4576752359</ele>
        <time>2015-05-24T15:37:41Z</time>
      </trkpt>
      <trkpt lat="42.83877" lon="0.14183">
        <ele>2152.4576752359</ele>
        <time>2015-05-24T15:37:46Z</time>
      </trkpt>
      <trkpt lat="42.83877" lon="0.14193">
        <ele>2152.8859051177</ele>
        <time>2015-05-24T15:37:53Z</time>
      </trkpt>
      <trkpt lat="42.83877" lon="0.14199">
        <ele>2152.8859051177</ele>
        <time>2015-05-24T15:37:56Z</time>
      </trkpt>
      <trkpt lat="42.83876" lon="0.14209">
        <ele>2153.3430395726</ele>
        <time>2015-05-24T15:38:03Z</time>
      </trkpt>
      <trkpt lat="42.83876" lon="0.14215">
        <ele>2153.3430395726</ele>
        <time>2015-05-24T15:38:06Z</time>
      </trkpt>
      <trkpt lat="42.83876" lon="0.14222">
        <ele>2153.8043958222</ele>
        <time>2015-05-24T15:38:12Z</time>
      </trkpt>
      <trkpt lat="42.83876" lon="0.1423">
        <ele>2153.8043958222</ele>
        <time>2015-05-24T15:38:17Z</time>
      </trkpt>
      <trkpt lat="42.83876" lon="0.14237">
        <ele>2154.2617819704</ele>
        <time>2015-05-24T15:38:21Z</time>
      </trkpt>
      <trkpt lat="42.83876" lon="0.14245">
        <ele>2154.2617819704</ele>
        <time>2015-05-24T15:38:26Z</time>
      </trkpt>
      <trkpt lat="42.83876" lon="0.1425">
        <ele>2154.7223111344</ele>
        <time>2015-05-24T15:38:32Z</time>
      </trkpt>
      <trkpt lat="42.83876" lon="0.1426">
        <ele>2154.7223111344</ele>
        <time>2015-05-24T15:38:37Z</time>
      </trkpt>
      <trkpt lat="42.83875" lon="0.14266">
        <ele>2155.1640253683</ele>
        <time>2015-05-24T15:38:42Z</time>
      </trkpt>
      <trkpt lat="42.83875" lon="0.14273">
        <ele>2155.1640253683</ele>
        <time>2015-05-24T15:38:46Z</time>
      </trkpt>
      <trkpt lat="42.83876" lon="0.14278">
        <ele>2155.1640253683</ele>
        <time>2015-05-24T15:38:53Z</time>
      </trkpt>
      <trkpt lat="42.83878" lon="0.14286">
        <ele>2155.5236820798</ele>
        <time>2015-05-24T15:38:57Z</time>
      </trkpt>
      <trkpt lat="42.8388" lon="0.14292">
        <ele>2155.5236820798</ele>
        <time>2015-05-24T15:39:01Z</time>
      </trkpt>
      <trkpt lat="42.83883" lon="0.14298">
        <ele>2155.8873080703</ele>
        <time>2015-05-24T15:39:06Z</time>
      </trkpt>
      <trkpt lat="42.83886" lon="0.14304">
        <ele>2155.8873080703</ele>
        <time>2015-05-24T15:39:12Z</time>
      </trkpt>
      <trkpt lat="42.83888" lon="0.1431">
        <ele>2156.1619466029</ele>
        <time>2015-05-24T15:39:17Z</time>
      </trkpt>
      <trkpt lat="42.83891" lon="0.14316">
        <ele>2156.1619466029</ele>
        <time>2015-05-24T15:39:22Z</time>
      </trkpt>
      <trkpt lat="42.83893" lon="0.14322">
        <ele>2156.4061079071</ele>
        <time>2015-05-24T15:39:26Z</time>
      </trkpt>
      <trkpt lat="42.83897" lon="0.14329">
        <ele>2156.4061079071</ele>
        <time>2015-05-24T15:39:33Z</time>
      </trkpt>
      <trkpt lat="42.839" lon="0.14333">
        <ele>2156.6599522914</ele>
        <time>2015-05-24T15:39:36Z</time>
      </trkpt>
      <trkpt lat="42.83904" lon="0.14339">
        <ele>2156.6599522914</ele>
        <time>2015-05-24T15:39:42Z</time>
      </trkpt>
      <trkpt lat="42.8391" lon="0.14345">
        <ele>2156.9032875354</ele>
        <time>2015-05-24T15:39:46Z</time>
      </trkpt>
      <trkpt lat="42.83917" lon="0.14352">
        <ele>2156.9032875354</ele>
        <time>2015-05-24T15:39:53Z</time>
      </trkpt>
      <trkpt lat="42.83921" lon="0.14356">
        <ele>2157.088875916</ele>
        <time>2015-05-24T15:39:57Z</time>
      </trkpt>
      <trkpt lat="42.83925" lon="0.1436">
        <ele>2157.088875916</ele>
        <time>2015-05-24T15:40:03Z</time>
      </trkpt>
      <trkpt lat="42.83928" lon="0.14363">
        <ele>2157.088875916</ele>
        <time>2015-05-24T15:40:06Z</time>
      </trkpt>
      <trkpt lat="42.83928" lon="0.14363">
        <ele>2157.2021919831</ele>
        <time>2015-05-24T15:40:13Z</time>
      </trkpt>
      <trkpt lat="42.83928" lon="0.14362">
        <ele>2157.2021919831</ele>
        <time>2015-05-24T15:40:17Z</time>
      </trkpt>
      <trkpt lat="42.83929" lon="0.14356">
        <ele>2157.2021919831</ele>
        <time>2015-05-24T15:40:42Z</time>
      </trkpt>
      <trkpt lat="42.83932" lon="0.14351">
        <ele>2157.201409114</ele>
        <time>2015-05-24T15:40:46Z</time>
      </trkpt>
      <trkpt lat="42.83936" lon="0.14351">
        <ele>2157.201409114</ele>
        <time>2015-05-24T15:40:53Z</time>
      </trkpt>
      <trkpt lat="42.83939" lon="0.14347">
        <ele>2157.201409114</ele>
        <time>2015-05-24T15:40:57Z</time>
      </trkpt>
      <trkpt lat="42.83943" lon="0.14345">
        <ele>2157.1780372387</ele>
        <time>2015-05-24T15:41:02Z</time>
      </trkpt>
      <trkpt lat="42.83947" lon="0.14341">
        <ele>2157.1780372387</ele>
        <time>2015-05-24T15:41:06Z</time>
      </trkpt>
      <trkpt lat="42.8395" lon="0.14336">
        <ele>2157.1595187133</ele>
        <time>2015-05-24T15:41:12Z</time>
      </trkpt>
      <trkpt lat="42.83952" lon="0.14333">
        <ele>2157.1595187133</ele>
        <time>2015-05-24T15:41:17Z</time>
      </trkpt>
      <trkpt lat="42.83957" lon="0.14331">
        <ele>2157.1595187133</ele>
        <time>2015-05-24T15:41:22Z</time>
      </trkpt>
      <trkpt lat="42.83962" lon="0.14327">
        <ele>2157.0417934091</ele>
        <time>2015-05-24T15:41:26Z</time>
      </trkpt>
      <trkpt lat="42.83962" lon="0.14322">
        <ele>2157.0417934091</ele>
        <time>2015-05-24T15:41:32Z</time>
      </trkpt>
      <trkpt lat="42.83965" lon="0.14317">
        <ele>2157.0417934091</ele>
        <time>2015-05-24T15:41:47Z</time>
      </trkpt>
      <trkpt lat="42.83968" lon="0.14315">
        <ele>2156.7865859498</ele>
        <time>2015-05-24T15:41:52Z</time>
      </trkpt>
      <trkpt lat="42.83973" lon="0.14316">
        <ele>2156.7865859498</ele>
        <time>2015-05-24T15:41:57Z</time>
      </trkpt>
      <trkpt lat="42.83978" lon="0.1432">
        <ele>2156.5031375721</ele>
        <time>2015-05-24T15:42:02Z</time>
      </trkpt>
      <trkpt lat="42.83983" lon="0.14321">
        <ele>2156.5031375721</ele>
        <time>2015-05-24T15:42:07Z</time>
      </trkpt>
      <trkpt lat="42.83988" lon="0.1432">
        <ele>2156.2208863353</ele>
        <time>2015-05-24T15:42:12Z</time>
      </trkpt>
      <trkpt lat="42.83993" lon="0.14318">
        <ele>2156.2208863353</ele>
        <time>2015-05-24T15:42:17Z</time>
      </trkpt>
      <trkpt lat="42.83995" lon="0.14319">
        <ele>2156.2208863353</ele>
        <time>2015-05-24T15:42:22Z</time>
      </trkpt>
      <trkpt lat="42.83998" lon="0.14321">
        <ele>2155.9240586444</ele>
        <time>2015-05-24T15:42:26Z</time>
      </trkpt>
      <trkpt lat="42.83999" lon="0.14323">
        <ele>2155.9240586444</ele>
        <time>2015-05-24T15:42:32Z</time>
      </trkpt>
      <trkpt lat="42.83999" lon="0.14323">
        <ele>2155.9240586444</ele>
        <time>2015-05-24T15:42:37Z</time>
      </trkpt>
      <trkpt lat="42.84003" lon="0.14329">
        <ele>2155.9240586444</ele>
        <time>2015-05-24T15:43:07Z</time>
      </trkpt>
      <trkpt lat="42.84005" lon="0.14331">
        <ele>2155.6703132735</ele>
        <time>2015-05-24T15:43:12Z</time>
      </trkpt>
      <trkpt lat="42.84007" lon="0.14333">
        <ele>2155.6703132735</ele>
        <time>2015-05-24T15:43:17Z</time>
      </trkpt>
      <trkpt lat="42.84008" lon="0.14334">
        <ele>2155.6703132735</ele>
        <time>2015-05-24T15:43:22Z</time>
      </trkpt>
      <trkpt lat="42.84008" lon="0.14334">
        <ele>2155.6703132735</ele>
        <time>2015-05-24T15:43:26Z</time>
      </trkpt>
      <trkpt lat="42.84013" lon="0.14341">
        <ele>2155.5707643358</ele>
        <time>2015-05-24T15:43:46Z</time>
      </trkpt>
      <trkpt lat="42.84019" lon="0.14343">
        <ele>2155.5707643358</ele>
        <time>2015-05-24T15:43:52Z</time>
      </trkpt>
      <trkpt lat="42.84024" lon="0.14346">
        <ele>2155.5551557063</ele>
        <time>2015-05-24T15:43:57Z</time>
      </trkpt>
      <trkpt lat="42.84028" lon="0.14348">
        <ele>2155.5551557063</ele>
        <time>2015-05-24T15:44:02Z</time>
      </trkpt>
      <trkpt lat="42.84034" lon="0.14352">
        <ele>2155.6880066836</ele>
        <time>2015-05-24T15:44:06Z</time>
      </trkpt>
      <trkpt lat="42.84038" lon="0.14356">
        <ele>2155.6880066836</ele>
        <time>2015-05-24T15:44:12Z</time>
      </trkpt>
      <trkpt lat="42.84041" lon="0.14357">
        <ele>2155.6880066836</ele>
        <time>2015-05-24T15:44:17Z</time>
      </trkpt>
      <trkpt lat="42.84041" lon="0.14357">
        <ele>2155.6880066836</ele>
        <time>2015-05-24T15:44:22Z</time>
      </trkpt>
      <trkpt lat="42.84044" lon="0.14362">
        <ele>2155.9567677584</ele>
        <time>2015-05-24T15:44:32Z</time>
      </trkpt>
      <trkpt lat="42.84046" lon="0.14366">
        <ele>2155.9567677584</ele>
        <time>2015-05-24T15:44:37Z</time>
      </trkpt>
      <trkpt lat="42.84048" lon="0.1437">
        <ele>2155.9567677584</ele>
        <time>2015-05-24T15:44:42Z</time>
      </trkpt>
      <trkpt lat="42.8405" lon="0.14372">
        <ele>2156.3207446555</ele>
        <time>2015-05-24T15:44:46Z</time>
      </trkpt>
      <trkpt lat="42.84051" lon="0.14372">
        <ele>2156.3207446555</ele>
        <time>2015-05-24T15:44:52Z</time>
      </trkpt>
      <trkpt lat="42.84057" lon="0.14373">
        <ele>2156.3207446555</ele>
        <time>2015-05-24T15:45:12Z</time>
      </trkpt>
      <trkpt lat="42.84057" lon="0.14372">
        <ele>2156.3207446555</ele>
        <time>2015-05-24T15:45:16Z</time>
      </trkpt>
      <trkpt lat="42.84054" lon="0.14374">
        <ele>2156.6412192467</ele>
        <time>2015-05-24T15:45:47Z</time>
      </trkpt>
      <trkpt lat="42.84053" lon="0.14375">
        <ele>2156.6412192467</ele>
        <time>2015-05-24T15:45:52Z</time>
      </trkpt>
      <trkpt lat="42.84053" lon="0.14373">
        <ele>2156.6412192467</ele>
        <time>2015-05-24T15:46:02Z</time>
      </trkpt>
      <trkpt lat="42.84054" lon="0.14373">
        <ele>2156.6412192467</ele>
        <time>2015-05-24T15:46:07Z</time>
      </trkpt>
      <trkpt lat="42.84052" lon="0.14369">
        <ele>2156.6412192467</ele>
        <time>2015-05-24T15:47:12Z</time>
      </trkpt>
      <trkpt lat="42.84051" lon="0.14369">
        <ele>2156.6412192467</ele>
        <time>2015-05-24T15:47:17Z</time>
      </trkpt>
      <trkpt lat="42.84058" lon="0.14371">
        <ele>2157.10695755</ele>
        <time>2015-05-24T15:50:42Z</time>
      </trkpt>
      <trkpt lat="42.8406" lon="0.14372">
        <ele>2157.10695755</ele>
        <time>2015-05-24T15:50:47Z</time>
      </trkpt>
      <trkpt lat="42.8406" lon="0.14372">
        <ele>2157.10695755</ele>
        <time>2015-05-24T15:50:52Z</time>
      </trkpt>
      <trkpt lat="42.8406" lon="0.14369">
        <ele>2157.10695755</ele>
        <time>2015-05-24T15:50:57Z</time>
      </trkpt>
      <trkpt lat="42.84056" lon="0.14369">
        <ele>2157.10695755</ele>
        <time>2015-05-24T15:51:01Z</time>
      </trkpt>
      <trkpt lat="42.84055" lon="0.14368">
        <ele>2157.4458301079</ele>
        <time>2015-05-24T15:51:06Z</time>
      </trkpt>
      <trkpt lat="42.84055" lon="0.14368">
        <ele>2157.4458301079</ele>
        <time>2015-05-24T15:51:12Z</time>
      </trkpt>
      <trkpt lat="42.84055" lon="0.14374">
        <ele>2157.4458301079</ele>
        <time>2015-05-24T15:51:17Z</time>
      </trkpt>
      <trkpt lat="42.84055" lon="0.14374">
        <ele>2157.4458301079</ele>
        <time>2015-05-24T15:51:22Z</time>
      </trkpt>
    </trkseg>
  </trk>
</gpx>